<?xml version="1.0" encoding="UTF-8" standalone="no" ?><gpx xmlns="http://www.topografix.com/GPX/1/1" xmlns:gpxx="http://www.garmin.com/xmlschemas/GpxExtensions/v3" xmlns:gpxtpx="http://www.garmin.com/xmlschemas/TrackPointExtension/v1" creator="zumo 550" version="1.1" xmlns:xsi="http://www.w3.org/2001/XMLSchema-instance" xsi:schemaLocation="http://www.topografix.com/GPX/1/1 http://www.topografix.com/GPX/1/1/gpx.xsd http://www.garmin.com/xmlschemas/GpxExtensions/v3 http://www.garmin.com/xmlschemas/GpxExtensions/v3/GpxExtensionsv3.xsd"><metadata><link href="http://www.garmin.com"><text>Garmin International</text></link><time>2009-05-31T11:55:07Z</time></metadata><trk><name>ACTIVE LOG: 23 MAI 2009 11:53</name><trkseg><trkpt lat="47.543474" lon="9.751602"><ele>423.60</ele><time>2009-05-23T09:53:33Z</time></trkpt><trkpt lat="47.543421" lon="9.751674"><ele>422.64</ele><time>2009-05-23T09:54:00Z</time></trkpt><trkpt lat="47.543309" lon="9.751724"><ele>426.00</ele><time>2009-05-23T09:54:05Z</time></trkpt><trkpt lat="47.543242" lon="9.751648"><ele>425.52</ele><time>2009-05-23T09:54:06Z</time></trkpt><trkpt lat="47.543146" lon="9.751523"><ele>426.00</ele><time>2009-05-23T09:54:07Z</time></trkpt><trkpt lat="47.542432" lon="9.750456"><ele>426.96</ele><time>2009-05-23T09:54:15Z</time></trkpt><trkpt lat="47.541405" lon="9.749877"><ele>428.40</ele><time>2009-05-23T09:54:23Z</time></trkpt><trkpt lat="47.540408" lon="9.750037"><ele>429.37</ele><time>2009-05-23T09:54:30Z</time></trkpt><trkpt lat="47.539866" lon="9.750411"><ele>428.40</ele><time>2009-05-23T09:54:36Z</time></trkpt><trkpt lat="47.539820" lon="9.750412"><ele>428.40</ele><time>2009-05-23T09:54:37Z</time></trkpt><trkpt lat="47.539781" lon="9.750380"><ele>427.92</ele><time>2009-05-23T09:54:38Z</time></trkpt><trkpt lat="47.539751" lon="9.750322"><ele>427.92</ele><time>2009-05-23T09:54:39Z</time></trkpt><trkpt lat="47.539733" lon="9.750244"><ele>427.92</ele><time>2009-05-23T09:54:40Z</time></trkpt><trkpt lat="47.539726" lon="9.750154"><ele>427.92</ele><time>2009-05-23T09:54:41Z</time></trkpt><trkpt lat="47.539731" lon="9.750055"><ele>427.92</ele><time>2009-05-23T09:54:42Z</time></trkpt><trkpt lat="47.539749" lon="9.749953"><ele>427.92</ele><time>2009-05-23T09:54:43Z</time></trkpt><trkpt lat="47.539787" lon="9.749851"><ele>427.92</ele><time>2009-05-23T09:54:44Z</time></trkpt><trkpt lat="47.539844" lon="9.749756"><ele>427.92</ele><time>2009-05-23T09:54:45Z</time></trkpt><trkpt lat="47.539921" lon="9.749674"><ele>427.44</ele><time>2009-05-23T09:54:46Z</time></trkpt><trkpt lat="47.540010" lon="9.749604"><ele>427.44</ele><time>2009-05-23T09:54:47Z</time></trkpt><trkpt lat="47.540107" lon="9.749539"><ele>426.96</ele><time>2009-05-23T09:54:48Z</time></trkpt><trkpt lat="47.540296" lon="9.749396"><ele>426.00</ele><time>2009-05-23T09:54:50Z</time></trkpt><trkpt lat="47.540376" lon="9.749299"><ele>425.04</ele><time>2009-05-23T09:54:51Z</time></trkpt><trkpt lat="47.540441" lon="9.749179"><ele>425.04</ele><time>2009-05-23T09:54:52Z</time></trkpt><trkpt lat="47.540484" lon="9.749034"><ele>424.56</ele><time>2009-05-23T09:54:53Z</time></trkpt><trkpt lat="47.540497" lon="9.748871"><ele>424.08</ele><time>2009-05-23T09:54:54Z</time></trkpt><trkpt lat="47.540486" lon="9.748703"><ele>423.60</ele><time>2009-05-23T09:54:55Z</time></trkpt><trkpt lat="47.540454" lon="9.748534"><ele>423.60</ele><time>2009-05-23T09:54:56Z</time></trkpt><trkpt lat="47.540408" lon="9.748366"><ele>423.60</ele><time>2009-05-23T09:54:57Z</time></trkpt><trkpt lat="47.540351" lon="9.748197"><ele>423.12</ele><time>2009-05-23T09:54:58Z</time></trkpt><trkpt lat="47.540286" lon="9.748029"><ele>423.12</ele><time>2009-05-23T09:54:59Z</time></trkpt><trkpt lat="47.539635" lon="9.746357"><ele>418.79</ele><time>2009-05-23T09:55:09Z</time></trkpt><trkpt lat="47.539423" lon="9.745292"><ele>415.43</ele><time>2009-05-23T09:55:17Z</time></trkpt><trkpt lat="47.539385" lon="9.745170"><ele>415.43</ele><time>2009-05-23T09:55:18Z</time></trkpt><trkpt lat="47.539338" lon="9.745054"><ele>414.95</ele><time>2009-05-23T09:55:19Z</time></trkpt><trkpt lat="47.539285" lon="9.744945"><ele>414.95</ele><time>2009-05-23T09:55:20Z</time></trkpt><trkpt lat="47.539225" lon="9.744845"><ele>414.47</ele><time>2009-05-23T09:55:21Z</time></trkpt><trkpt lat="47.539160" lon="9.744759"><ele>414.47</ele><time>2009-05-23T09:55:22Z</time></trkpt><trkpt lat="47.539086" lon="9.744683"><ele>413.98</ele><time>2009-05-23T09:55:23Z</time></trkpt><trkpt lat="47.539005" lon="9.744614"><ele>413.98</ele><time>2009-05-23T09:55:24Z</time></trkpt><trkpt lat="47.538916" lon="9.744547"><ele>413.50</ele><time>2009-05-23T09:55:25Z</time></trkpt><trkpt lat="47.538149" lon="9.744094"><ele>411.10</ele><time>2009-05-23T09:55:34Z</time></trkpt><trkpt lat="47.538081" lon="9.744043"><ele>412.06</ele><time>2009-05-23T09:55:41Z</time></trkpt><trkpt lat="47.538068" lon="9.744042"><ele>412.06</ele><time>2009-05-23T09:55:43Z</time></trkpt><trkpt lat="47.538039" lon="9.744047"><ele>412.06</ele><time>2009-05-23T09:55:44Z</time></trkpt><trkpt lat="47.537995" lon="9.744078"><ele>412.06</ele><time>2009-05-23T09:55:45Z</time></trkpt><trkpt lat="47.537938" lon="9.744149"><ele>412.06</ele><time>2009-05-23T09:55:46Z</time></trkpt><trkpt lat="47.537868" lon="9.744249"><ele>412.06</ele><time>2009-05-23T09:55:47Z</time></trkpt><trkpt lat="47.537306" lon="9.744939"><ele>411.58</ele><time>2009-05-23T09:55:54Z</time></trkpt><trkpt lat="47.537223" lon="9.744990"><ele>411.58</ele><time>2009-05-23T09:55:55Z</time></trkpt><trkpt lat="47.537143" lon="9.745026"><ele>411.58</ele><time>2009-05-23T09:55:56Z</time></trkpt><trkpt lat="47.537070" lon="9.745049"><ele>412.06</ele><time>2009-05-23T09:55:57Z</time></trkpt><trkpt lat="47.537001" lon="9.745061"><ele>411.58</ele><time>2009-05-23T09:55:58Z</time></trkpt><trkpt lat="47.536934" lon="9.745068"><ele>411.58</ele><time>2009-05-23T09:55:59Z</time></trkpt><trkpt lat="47.536735" lon="9.745063"><ele>411.58</ele><time>2009-05-23T09:56:02Z</time></trkpt><trkpt lat="47.536673" lon="9.745016"><ele>411.10</ele><time>2009-05-23T09:56:03Z</time></trkpt><trkpt lat="47.536629" lon="9.744931"><ele>411.10</ele><time>2009-05-23T09:56:04Z</time></trkpt><trkpt lat="47.536607" lon="9.744808"><ele>410.62</ele><time>2009-05-23T09:56:05Z</time></trkpt><trkpt lat="47.536601" lon="9.744663"><ele>410.62</ele><time>2009-05-23T09:56:06Z</time></trkpt><trkpt lat="47.536609" lon="9.744488"><ele>411.10</ele><time>2009-05-23T09:56:07Z</time></trkpt><trkpt lat="47.536617" lon="9.744307"><ele>411.10</ele><time>2009-05-23T09:56:08Z</time></trkpt><trkpt lat="47.536704" lon="9.742606"><ele>408.70</ele><time>2009-05-23T09:56:19Z</time></trkpt><trkpt lat="47.536751" lon="9.741806"><ele>407.74</ele><time>2009-05-23T09:56:25Z</time></trkpt><trkpt lat="47.536818" lon="9.740322"><ele>405.33</ele><time>2009-05-23T09:56:36Z</time></trkpt><trkpt lat="47.536915" lon="9.738160"><ele>402.45</ele><time>2009-05-23T09:56:51Z</time></trkpt><trkpt lat="47.536953" lon="9.737143"><ele>400.53</ele><time>2009-05-23T09:57:01Z</time></trkpt><trkpt lat="47.536953" lon="9.736774"><ele>401.49</ele><time>2009-05-23T09:57:04Z</time></trkpt><trkpt lat="47.536938" lon="9.736186"><ele>401.49</ele><time>2009-05-23T09:57:08Z</time></trkpt><trkpt lat="47.536956" lon="9.736049"><ele>401.01</ele><time>2009-05-23T09:57:09Z</time></trkpt><trkpt lat="47.536994" lon="9.735921"><ele>401.01</ele><time>2009-05-23T09:57:10Z</time></trkpt><trkpt lat="47.537045" lon="9.735802"><ele>400.53</ele><time>2009-05-23T09:57:11Z</time></trkpt><trkpt lat="47.537100" lon="9.735689"><ele>400.53</ele><time>2009-05-23T09:57:12Z</time></trkpt><trkpt lat="47.537539" lon="9.734882"><ele>400.05</ele><time>2009-05-23T09:57:21Z</time></trkpt><trkpt lat="47.537570" lon="9.734808"><ele>400.53</ele><time>2009-05-23T09:57:22Z</time></trkpt><trkpt lat="47.537990" lon="9.733900"><ele>401.49</ele><time>2009-05-23T09:57:36Z</time></trkpt><trkpt lat="47.538391" lon="9.733252"><ele>401.01</ele><time>2009-05-23T09:57:53Z</time></trkpt><trkpt lat="47.538857" lon="9.732582"><ele>400.53</ele><time>2009-05-23T09:58:06Z</time></trkpt><trkpt lat="47.538950" lon="9.732434"><ele>402.93</ele><time>2009-05-23T09:58:17Z</time></trkpt><trkpt lat="47.539253" lon="9.732003"><ele>402.93</ele><time>2009-05-23T09:58:26Z</time></trkpt><trkpt lat="47.539974" lon="9.731026"><ele>402.93</ele><time>2009-05-23T09:58:38Z</time></trkpt><trkpt lat="47.540923" lon="9.729835"><ele>401.97</ele><time>2009-05-23T09:58:50Z</time></trkpt><trkpt lat="47.542210" lon="9.728658"><ele>401.49</ele><time>2009-05-23T09:59:03Z</time></trkpt><trkpt lat="47.543750" lon="9.727306"><ele>402.93</ele><time>2009-05-23T09:59:17Z</time></trkpt><trkpt lat="47.545349" lon="9.726149"><ele>403.89</ele><time>2009-05-23T09:59:30Z</time></trkpt><trkpt lat="47.546723" lon="9.725201"><ele>404.37</ele><time>2009-05-23T09:59:42Z</time></trkpt><trkpt lat="47.547040" lon="9.724998"><ele>404.85</ele><time>2009-05-23T09:59:45Z</time></trkpt><trkpt lat="47.547137" lon="9.724982"><ele>404.85</ele><time>2009-05-23T09:59:46Z</time></trkpt><trkpt lat="47.547221" lon="9.724997"><ele>404.85</ele><time>2009-05-23T09:59:47Z</time></trkpt><trkpt lat="47.547274" lon="9.725080"><ele>404.85</ele><time>2009-05-23T09:59:48Z</time></trkpt><trkpt lat="47.547307" lon="9.725167"><ele>405.33</ele><time>2009-05-23T09:59:49Z</time></trkpt><trkpt lat="47.547317" lon="9.725277"><ele>405.33</ele><time>2009-05-23T09:59:50Z</time></trkpt><trkpt lat="47.547315" lon="9.725420"><ele>405.33</ele><time>2009-05-23T09:59:51Z</time></trkpt><trkpt lat="47.547314" lon="9.725589"><ele>405.81</ele><time>2009-05-23T09:59:52Z</time></trkpt><trkpt lat="47.547328" lon="9.725777"><ele>405.81</ele><time>2009-05-23T09:59:53Z</time></trkpt><trkpt lat="47.547355" lon="9.725966"><ele>405.81</ele><time>2009-05-23T09:59:54Z</time></trkpt><trkpt lat="47.547395" lon="9.726147"><ele>405.81</ele><time>2009-05-23T09:59:55Z</time></trkpt><trkpt lat="47.547442" lon="9.726323"><ele>405.81</ele><time>2009-05-23T09:59:56Z</time></trkpt><trkpt lat="47.547879" lon="9.727490"><ele>404.85</ele><time>2009-05-23T10:00:04Z</time></trkpt><trkpt lat="47.548071" lon="9.727998"><ele>403.89</ele><time>2009-05-23T10:00:11Z</time></trkpt><trkpt lat="47.548152" lon="9.728272"><ele>404.37</ele><time>2009-05-23T10:00:18Z</time></trkpt><trkpt lat="47.548159" lon="9.728352"><ele>404.37</ele><time>2009-05-23T10:00:19Z</time></trkpt><trkpt lat="47.548159" lon="9.728442"><ele>404.37</ele><time>2009-05-23T10:00:20Z</time></trkpt><trkpt lat="47.548156" lon="9.728632"><ele>404.37</ele><time>2009-05-23T10:00:22Z</time></trkpt><trkpt lat="47.548170" lon="9.728726"><ele>404.37</ele><time>2009-05-23T10:00:23Z</time></trkpt><trkpt lat="47.548200" lon="9.728812"><ele>404.85</ele><time>2009-05-23T10:00:24Z</time></trkpt><trkpt lat="47.548243" lon="9.728879"><ele>405.33</ele><time>2009-05-23T10:00:25Z</time></trkpt><trkpt lat="47.548301" lon="9.728924"><ele>405.33</ele><time>2009-05-23T10:00:26Z</time></trkpt><trkpt lat="47.548368" lon="9.728942"><ele>405.33</ele><time>2009-05-23T10:00:27Z</time></trkpt><trkpt lat="47.548451" lon="9.728896"><ele>405.33</ele><time>2009-05-23T10:00:28Z</time></trkpt><trkpt lat="47.548518" lon="9.728820"><ele>405.33</ele><time>2009-05-23T10:00:29Z</time></trkpt><trkpt lat="47.548566" lon="9.728701"><ele>405.33</ele><time>2009-05-23T10:00:30Z</time></trkpt><trkpt lat="47.548567" lon="9.728539"><ele>405.33</ele><time>2009-05-23T10:00:31Z</time></trkpt><trkpt lat="47.548558" lon="9.728406"><ele>405.33</ele><time>2009-05-23T10:00:32Z</time></trkpt><trkpt lat="47.548554" lon="9.728280"><ele>405.33</ele><time>2009-05-23T10:00:33Z</time></trkpt><trkpt lat="47.548572" lon="9.728161"><ele>404.85</ele><time>2009-05-23T10:00:34Z</time></trkpt><trkpt lat="47.548618" lon="9.728051"><ele>404.85</ele><time>2009-05-23T10:00:35Z</time></trkpt><trkpt lat="47.548690" lon="9.727953"><ele>405.33</ele><time>2009-05-23T10:00:36Z</time></trkpt><trkpt lat="47.548781" lon="9.727856"><ele>405.33</ele><time>2009-05-23T10:00:37Z</time></trkpt><trkpt lat="47.548880" lon="9.727757"><ele>404.85</ele><time>2009-05-23T10:00:38Z</time></trkpt><trkpt lat="47.549752" lon="9.726992"><ele>404.37</ele><time>2009-05-23T10:00:48Z</time></trkpt><trkpt lat="47.549805" lon="9.726983"><ele>404.37</ele><time>2009-05-23T10:00:49Z</time></trkpt><trkpt lat="47.549850" lon="9.727007"><ele>404.37</ele><time>2009-05-23T10:00:50Z</time></trkpt><trkpt lat="47.549889" lon="9.727061"><ele>404.37</ele><time>2009-05-23T10:00:51Z</time></trkpt><trkpt lat="47.549925" lon="9.727179"><ele>404.37</ele><time>2009-05-23T10:00:52Z</time></trkpt><trkpt lat="47.549965" lon="9.727311"><ele>404.37</ele><time>2009-05-23T10:00:53Z</time></trkpt><trkpt lat="47.550014" lon="9.727442"><ele>403.89</ele><time>2009-05-23T10:00:54Z</time></trkpt><trkpt lat="47.550206" lon="9.727919"><ele>403.41</ele><time>2009-05-23T10:00:58Z</time></trkpt><trkpt lat="47.550253" lon="9.727997"><ele>403.41</ele><time>2009-05-23T10:00:59Z</time></trkpt><trkpt lat="47.550307" lon="9.728058"><ele>403.41</ele><time>2009-05-23T10:01:00Z</time></trkpt><trkpt lat="47.550387" lon="9.728090"><ele>403.41</ele><time>2009-05-23T10:01:01Z</time></trkpt><trkpt lat="47.550483" lon="9.728100"><ele>403.41</ele><time>2009-05-23T10:01:02Z</time></trkpt><trkpt lat="47.550593" lon="9.728093"><ele>403.89</ele><time>2009-05-23T10:01:03Z</time></trkpt><trkpt lat="47.550707" lon="9.728079"><ele>403.89</ele><time>2009-05-23T10:01:04Z</time></trkpt><trkpt lat="47.551678" lon="9.728002"><ele>405.81</ele><time>2009-05-23T10:01:13Z</time></trkpt><trkpt lat="47.551758" lon="9.727973"><ele>406.29</ele><time>2009-05-23T10:01:14Z</time></trkpt><trkpt lat="47.551825" lon="9.727912"><ele>406.29</ele><time>2009-05-23T10:01:15Z</time></trkpt><trkpt lat="47.551881" lon="9.727827"><ele>406.77</ele><time>2009-05-23T10:01:16Z</time></trkpt><trkpt lat="47.551938" lon="9.727730"><ele>406.77</ele><time>2009-05-23T10:01:17Z</time></trkpt><trkpt lat="47.552002" lon="9.727635"><ele>406.77</ele><time>2009-05-23T10:01:18Z</time></trkpt><trkpt lat="47.552076" lon="9.727556"><ele>407.26</ele><time>2009-05-23T10:01:19Z</time></trkpt><trkpt lat="47.552159" lon="9.727504"><ele>407.26</ele><time>2009-05-23T10:01:20Z</time></trkpt><trkpt lat="47.552251" lon="9.727480"><ele>407.74</ele><time>2009-05-23T10:01:21Z</time></trkpt><trkpt lat="47.552348" lon="9.727482"><ele>407.74</ele><time>2009-05-23T10:01:22Z</time></trkpt><trkpt lat="47.552446" lon="9.727496"><ele>408.22</ele><time>2009-05-23T10:01:23Z</time></trkpt><trkpt lat="47.553439" lon="9.727495"><ele>409.66</ele><time>2009-05-23T10:01:33Z</time></trkpt><trkpt lat="47.553536" lon="9.727517"><ele>409.66</ele><time>2009-05-23T10:01:34Z</time></trkpt><trkpt lat="47.554080" lon="9.727708"><ele>411.10</ele><time>2009-05-23T10:01:40Z</time></trkpt><trkpt lat="47.554165" lon="9.727698"><ele>411.10</ele><time>2009-05-23T10:01:41Z</time></trkpt><trkpt lat="47.554252" lon="9.727661"><ele>411.10</ele><time>2009-05-23T10:01:42Z</time></trkpt><trkpt lat="47.554336" lon="9.727610"><ele>411.58</ele><time>2009-05-23T10:01:43Z</time></trkpt><trkpt lat="47.554418" lon="9.727559"><ele>411.58</ele><time>2009-05-23T10:01:44Z</time></trkpt><trkpt lat="47.554560" lon="9.727477"><ele>412.06</ele><time>2009-05-23T10:01:46Z</time></trkpt><trkpt lat="47.554623" lon="9.727461"><ele>412.06</ele><time>2009-05-23T10:01:47Z</time></trkpt><trkpt lat="47.554680" lon="9.727472"><ele>412.06</ele><time>2009-05-23T10:01:48Z</time></trkpt><trkpt lat="47.554723" lon="9.727516"><ele>412.06</ele><time>2009-05-23T10:01:49Z</time></trkpt><trkpt lat="47.554758" lon="9.727570"><ele>412.54</ele><time>2009-05-23T10:01:50Z</time></trkpt><trkpt lat="47.554774" lon="9.727626"><ele>412.54</ele><time>2009-05-23T10:01:51Z</time></trkpt><trkpt lat="47.554787" lon="9.727661"><ele>413.02</ele><time>2009-05-23T10:01:52Z</time></trkpt><trkpt lat="47.554826" lon="9.727724"><ele>416.87</ele><time>2009-05-23T10:02:01Z</time></trkpt><trkpt lat="47.554837" lon="9.727766"><ele>416.87</ele><time>2009-05-23T10:02:02Z</time></trkpt><trkpt lat="47.554837" lon="9.727835"><ele>416.87</ele><time>2009-05-23T10:02:03Z</time></trkpt><trkpt lat="47.554822" lon="9.727932"><ele>416.87</ele><time>2009-05-23T10:02:04Z</time></trkpt><trkpt lat="47.554814" lon="9.728038"><ele>416.87</ele><time>2009-05-23T10:02:05Z</time></trkpt><trkpt lat="47.554828" lon="9.728139"><ele>415.91</ele><time>2009-05-23T10:02:06Z</time></trkpt><trkpt lat="47.554881" lon="9.728193"><ele>417.35</ele><time>2009-05-23T10:02:07Z</time></trkpt><trkpt lat="47.554961" lon="9.728263"><ele>418.79</ele><time>2009-05-23T10:02:08Z</time></trkpt><trkpt lat="47.555044" lon="9.728368"><ele>419.27</ele><time>2009-05-23T10:02:09Z</time></trkpt><trkpt lat="47.555120" lon="9.728532"><ele>420.23</ele><time>2009-05-23T10:02:10Z</time></trkpt><trkpt lat="47.555197" lon="9.728688"><ele>420.71</ele><time>2009-05-23T10:02:11Z</time></trkpt><trkpt lat="47.555284" lon="9.728833"><ele>421.19</ele><time>2009-05-23T10:02:12Z</time></trkpt><trkpt lat="47.555389" lon="9.728917"><ele>421.68</ele><time>2009-05-23T10:02:13Z</time></trkpt><trkpt lat="47.555519" lon="9.728962"><ele>422.64</ele><time>2009-05-23T10:02:14Z</time></trkpt><trkpt lat="47.555652" lon="9.728987"><ele>424.08</ele><time>2009-05-23T10:02:15Z</time></trkpt><trkpt lat="47.555782" lon="9.729035"><ele>426.48</ele><time>2009-05-23T10:02:16Z</time></trkpt><trkpt lat="47.555907" lon="9.729110"><ele>427.92</ele><time>2009-05-23T10:02:17Z</time></trkpt><trkpt lat="47.556019" lon="9.729219"><ele>429.37</ele><time>2009-05-23T10:02:18Z</time></trkpt><trkpt lat="47.556121" lon="9.729347"><ele>431.29</ele><time>2009-05-23T10:02:19Z</time></trkpt><trkpt lat="47.556228" lon="9.729470"><ele>433.69</ele><time>2009-05-23T10:02:20Z</time></trkpt><trkpt lat="47.556375" lon="9.729561"><ele>437.06</ele><time>2009-05-23T10:02:21Z</time></trkpt><trkpt lat="47.556500" lon="9.729653"><ele>438.50</ele><time>2009-05-23T10:02:22Z</time></trkpt><trkpt lat="47.556642" lon="9.729717"><ele>439.94</ele><time>2009-05-23T10:02:23Z</time></trkpt><trkpt lat="47.556793" lon="9.729772"><ele>440.90</ele><time>2009-05-23T10:02:24Z</time></trkpt><trkpt lat="47.556948" lon="9.729806"><ele>442.82</ele><time>2009-05-23T10:02:25Z</time></trkpt><trkpt lat="47.557432" lon="9.729944"><ele>447.63</ele><time>2009-05-23T10:02:28Z</time></trkpt><trkpt lat="47.557596" lon="9.730034"><ele>449.07</ele><time>2009-05-23T10:02:29Z</time></trkpt><trkpt lat="47.557758" lon="9.730147"><ele>450.52</ele><time>2009-05-23T10:02:30Z</time></trkpt><trkpt lat="47.558901" lon="9.730629"><ele>456.76</ele><time>2009-05-23T10:02:37Z</time></trkpt><trkpt lat="47.560502" lon="9.731094"><ele>465.42</ele><time>2009-05-23T10:02:47Z</time></trkpt><trkpt lat="47.561728" lon="9.731274"><ele>471.18</ele><time>2009-05-23T10:02:56Z</time></trkpt><trkpt lat="47.563293" lon="9.732005"><ele>476.95</ele><time>2009-05-23T10:03:08Z</time></trkpt><trkpt lat="47.564818" lon="9.732581"><ele>472.63</ele><time>2009-05-23T10:03:21Z</time></trkpt><trkpt lat="47.566262" lon="9.732874"><ele>468.78</ele><time>2009-05-23T10:03:34Z</time></trkpt><trkpt lat="47.566775" lon="9.733110"><ele>468.78</ele><time>2009-05-23T10:03:39Z</time></trkpt><trkpt lat="47.566850" lon="9.733201"><ele>468.30</ele><time>2009-05-23T10:03:40Z</time></trkpt><trkpt lat="47.566908" lon="9.733314"><ele>467.82</ele><time>2009-05-23T10:03:41Z</time></trkpt><trkpt lat="47.566933" lon="9.733450"><ele>468.30</ele><time>2009-05-23T10:03:42Z</time></trkpt><trkpt lat="47.566919" lon="9.733604"><ele>468.30</ele><time>2009-05-23T10:03:43Z</time></trkpt><trkpt lat="47.566869" lon="9.733778"><ele>468.30</ele><time>2009-05-23T10:03:44Z</time></trkpt><trkpt lat="47.566834" lon="9.733932"><ele>468.78</ele><time>2009-05-23T10:03:45Z</time></trkpt><trkpt lat="47.566728" lon="9.735515"><ele>467.34</ele><time>2009-05-23T10:03:55Z</time></trkpt><trkpt lat="47.567203" lon="9.737051"><ele>463.97</ele><time>2009-05-23T10:04:05Z</time></trkpt><trkpt lat="47.567434" lon="9.737443"><ele>462.53</ele><time>2009-05-23T10:04:08Z</time></trkpt><trkpt lat="47.567536" lon="9.737551"><ele>462.05</ele><time>2009-05-23T10:04:09Z</time></trkpt><trkpt lat="47.567646" lon="9.737673"><ele>462.05</ele><time>2009-05-23T10:04:10Z</time></trkpt><trkpt lat="47.568489" lon="9.738490"><ele>462.05</ele><time>2009-05-23T10:04:16Z</time></trkpt><trkpt lat="47.569668" lon="9.739478"><ele>463.49</ele><time>2009-05-23T10:04:26Z</time></trkpt><trkpt lat="47.570959" lon="9.740291"><ele>466.38</ele><time>2009-05-23T10:04:37Z</time></trkpt><trkpt lat="47.572323" lon="9.740741"><ele>476.47</ele><time>2009-05-23T10:04:46Z</time></trkpt><trkpt lat="47.573118" lon="9.740841"><ele>484.16</ele><time>2009-05-23T10:04:50Z</time></trkpt><trkpt lat="47.573317" lon="9.740803"><ele>486.08</ele><time>2009-05-23T10:04:51Z</time></trkpt><trkpt lat="47.573509" lon="9.740730"><ele>488.01</ele><time>2009-05-23T10:04:52Z</time></trkpt><trkpt lat="47.573694" lon="9.740628"><ele>489.93</ele><time>2009-05-23T10:04:53Z</time></trkpt><trkpt lat="47.573873" lon="9.740507"><ele>491.37</ele><time>2009-05-23T10:04:54Z</time></trkpt><trkpt lat="47.574047" lon="9.740378"><ele>492.33</ele><time>2009-05-23T10:04:55Z</time></trkpt><trkpt lat="47.574373" lon="9.740171"><ele>493.29</ele><time>2009-05-23T10:04:57Z</time></trkpt><trkpt lat="47.574525" lon="9.740110"><ele>494.26</ele><time>2009-05-23T10:04:58Z</time></trkpt><trkpt lat="47.574666" lon="9.740078"><ele>494.74</ele><time>2009-05-23T10:04:59Z</time></trkpt><trkpt lat="47.574796" lon="9.740068"><ele>495.22</ele><time>2009-05-23T10:05:00Z</time></trkpt><trkpt lat="47.574919" lon="9.740076"><ele>495.70</ele><time>2009-05-23T10:05:01Z</time></trkpt><trkpt lat="47.575035" lon="9.740098"><ele>496.18</ele><time>2009-05-23T10:05:02Z</time></trkpt><trkpt lat="47.575150" lon="9.740130"><ele>496.66</ele><time>2009-05-23T10:05:03Z</time></trkpt><trkpt lat="47.575263" lon="9.740169"><ele>497.14</ele><time>2009-05-23T10:05:04Z</time></trkpt><trkpt lat="47.577037" lon="9.741086"><ele>509.16</ele><time>2009-05-23T10:05:20Z</time></trkpt><trkpt lat="47.578020" lon="9.741992"><ele>513.00</ele><time>2009-05-23T10:05:29Z</time></trkpt><trkpt lat="47.579072" lon="9.742812"><ele>514.92</ele><time>2009-05-23T10:05:38Z</time></trkpt><trkpt lat="47.579732" lon="9.743281"><ele>516.85</ele><time>2009-05-23T10:05:43Z</time></trkpt><trkpt lat="47.579850" lon="9.743405"><ele>517.33</ele><time>2009-05-23T10:05:44Z</time></trkpt><trkpt lat="47.579950" lon="9.743546"><ele>518.29</ele><time>2009-05-23T10:05:45Z</time></trkpt><trkpt lat="47.580038" lon="9.743699"><ele>519.25</ele><time>2009-05-23T10:05:46Z</time></trkpt><trkpt lat="47.580116" lon="9.743861"><ele>520.21</ele><time>2009-05-23T10:05:47Z</time></trkpt><trkpt lat="47.580181" lon="9.744030"><ele>521.17</ele><time>2009-05-23T10:05:48Z</time></trkpt><trkpt lat="47.580237" lon="9.744202"><ele>522.13</ele><time>2009-05-23T10:05:49Z</time></trkpt><trkpt lat="47.580298" lon="9.744368"><ele>523.09</ele><time>2009-05-23T10:05:50Z</time></trkpt><trkpt lat="47.580371" lon="9.744521"><ele>524.06</ele><time>2009-05-23T10:05:51Z</time></trkpt><trkpt lat="47.580456" lon="9.744660"><ele>524.54</ele><time>2009-05-23T10:05:52Z</time></trkpt><trkpt lat="47.580642" lon="9.744929"><ele>525.98</ele><time>2009-05-23T10:05:54Z</time></trkpt><trkpt lat="47.580720" lon="9.745088"><ele>525.50</ele><time>2009-05-23T10:05:55Z</time></trkpt><trkpt lat="47.580780" lon="9.745265"><ele>525.50</ele><time>2009-05-23T10:05:56Z</time></trkpt><trkpt lat="47.580825" lon="9.745452"><ele>525.02</ele><time>2009-05-23T10:05:57Z</time></trkpt><trkpt lat="47.580868" lon="9.745638"><ele>525.02</ele><time>2009-05-23T10:05:58Z</time></trkpt><trkpt lat="47.580919" lon="9.745816"><ele>525.02</ele><time>2009-05-23T10:05:59Z</time></trkpt><trkpt lat="47.580987" lon="9.745980"><ele>525.02</ele><time>2009-05-23T10:06:00Z</time></trkpt><trkpt lat="47.581067" lon="9.746127"><ele>525.02</ele><time>2009-05-23T10:06:01Z</time></trkpt><trkpt lat="47.581158" lon="9.746251"><ele>524.54</ele><time>2009-05-23T10:06:02Z</time></trkpt><trkpt lat="47.581254" lon="9.746354"><ele>524.06</ele><time>2009-05-23T10:06:03Z</time></trkpt><trkpt lat="47.581353" lon="9.746444"><ele>524.06</ele><time>2009-05-23T10:06:04Z</time></trkpt><trkpt lat="47.581450" lon="9.746532"><ele>524.06</ele><time>2009-05-23T10:06:05Z</time></trkpt><trkpt lat="47.581738" lon="9.746788"><ele>524.06</ele><time>2009-05-23T10:06:08Z</time></trkpt><trkpt lat="47.582796" lon="9.747520"><ele>521.65</ele><time>2009-05-23T10:06:16Z</time></trkpt><trkpt lat="47.583576" lon="9.747939"><ele>519.73</ele><time>2009-05-23T10:06:20Z</time></trkpt><trkpt lat="47.583782" lon="9.747971"><ele>519.73</ele><time>2009-05-23T10:06:21Z</time></trkpt><trkpt lat="47.583987" lon="9.747965"><ele>519.25</ele><time>2009-05-23T10:06:22Z</time></trkpt><trkpt lat="47.584187" lon="9.747925"><ele>518.77</ele><time>2009-05-23T10:06:23Z</time></trkpt><trkpt lat="47.584384" lon="9.747863"><ele>518.77</ele><time>2009-05-23T10:06:24Z</time></trkpt><trkpt lat="47.584580" lon="9.747789"><ele>518.29</ele><time>2009-05-23T10:06:25Z</time></trkpt><trkpt lat="47.585332" lon="9.747428"><ele>515.40</ele><time>2009-05-23T10:06:29Z</time></trkpt><trkpt lat="47.585498" lon="9.747279"><ele>514.44</ele><time>2009-05-23T10:06:30Z</time></trkpt><trkpt lat="47.585651" lon="9.747104"><ele>513.48</ele><time>2009-05-23T10:06:31Z</time></trkpt><trkpt lat="47.585789" lon="9.746905"><ele>512.04</ele><time>2009-05-23T10:06:32Z</time></trkpt><trkpt lat="47.585917" lon="9.746690"><ele>511.08</ele><time>2009-05-23T10:06:33Z</time></trkpt><trkpt lat="47.586035" lon="9.746465"><ele>510.12</ele><time>2009-05-23T10:06:34Z</time></trkpt><trkpt lat="47.586819" lon="9.745017"><ele>509.64</ele><time>2009-05-23T10:06:41Z</time></trkpt><trkpt lat="47.586953" lon="9.744868"><ele>509.64</ele><time>2009-05-23T10:06:42Z</time></trkpt><trkpt lat="47.587092" lon="9.744746"><ele>510.12</ele><time>2009-05-23T10:06:43Z</time></trkpt><trkpt lat="47.587233" lon="9.744649"><ele>510.60</ele><time>2009-05-23T10:06:44Z</time></trkpt><trkpt lat="47.587371" lon="9.744576"><ele>511.08</ele><time>2009-05-23T10:06:45Z</time></trkpt><trkpt lat="47.587503" lon="9.744524"><ele>511.56</ele><time>2009-05-23T10:06:46Z</time></trkpt><trkpt lat="47.587625" lon="9.744494"><ele>512.04</ele><time>2009-05-23T10:06:47Z</time></trkpt><trkpt lat="47.587734" lon="9.744485"><ele>512.52</ele><time>2009-05-23T10:06:48Z</time></trkpt><trkpt lat="47.587828" lon="9.744488"><ele>513.00</ele><time>2009-05-23T10:06:49Z</time></trkpt><trkpt lat="47.587906" lon="9.744498"><ele>513.48</ele><time>2009-05-23T10:06:50Z</time></trkpt><trkpt lat="47.587967" lon="9.744509"><ele>513.96</ele><time>2009-05-23T10:06:51Z</time></trkpt><trkpt lat="47.588107" lon="9.744480"><ele>514.44</ele><time>2009-05-23T10:06:58Z</time></trkpt><trkpt lat="47.588132" lon="9.744424"><ele>514.44</ele><time>2009-05-23T10:06:59Z</time></trkpt><trkpt lat="47.588132" lon="9.744295"><ele>514.44</ele><time>2009-05-23T10:07:00Z</time></trkpt><trkpt lat="47.588134" lon="9.744129"><ele>514.44</ele><time>2009-05-23T10:07:01Z</time></trkpt><trkpt lat="47.588139" lon="9.743933"><ele>514.44</ele><time>2009-05-23T10:07:02Z</time></trkpt><trkpt lat="47.588142" lon="9.743134"><ele>515.40</ele><time>2009-05-23T10:07:06Z</time></trkpt><trkpt lat="47.588109" lon="9.742936"><ele>515.40</ele><time>2009-05-23T10:07:07Z</time></trkpt><trkpt lat="47.588056" lon="9.742747"><ele>515.88</ele><time>2009-05-23T10:07:08Z</time></trkpt><trkpt lat="47.587988" lon="9.742565"><ele>515.88</ele><time>2009-05-23T10:07:09Z</time></trkpt><trkpt lat="47.587915" lon="9.742388"><ele>515.88</ele><time>2009-05-23T10:07:10Z</time></trkpt><trkpt lat="47.587629" lon="9.741599"><ele>515.40</ele><time>2009-05-23T10:07:15Z</time></trkpt><trkpt lat="47.587609" lon="9.741460"><ele>515.40</ele><time>2009-05-23T10:07:16Z</time></trkpt><trkpt lat="47.587619" lon="9.741330"><ele>515.40</ele><time>2009-05-23T10:07:17Z</time></trkpt><trkpt lat="47.587652" lon="9.741210"><ele>515.88</ele><time>2009-05-23T10:07:18Z</time></trkpt><trkpt lat="47.587704" lon="9.741105"><ele>515.88</ele><time>2009-05-23T10:07:19Z</time></trkpt><trkpt lat="47.587765" lon="9.741013"><ele>515.88</ele><time>2009-05-23T10:07:20Z</time></trkpt><trkpt lat="47.587832" lon="9.740935"><ele>516.37</ele><time>2009-05-23T10:07:21Z</time></trkpt><trkpt lat="47.587898" lon="9.740876"><ele>516.37</ele><time>2009-05-23T10:07:22Z</time></trkpt><trkpt lat="47.587970" lon="9.740870"><ele>516.37</ele><time>2009-05-23T10:07:23Z</time></trkpt><trkpt lat="47.588022" lon="9.740910"><ele>516.37</ele><time>2009-05-23T10:07:24Z</time></trkpt><trkpt lat="47.588068" lon="9.740964"><ele>516.37</ele><time>2009-05-23T10:07:25Z</time></trkpt><trkpt lat="47.588109" lon="9.741061"><ele>516.37</ele><time>2009-05-23T10:07:26Z</time></trkpt><trkpt lat="47.588150" lon="9.741190"><ele>516.37</ele><time>2009-05-23T10:07:27Z</time></trkpt><trkpt lat="47.588204" lon="9.741347"><ele>516.85</ele><time>2009-05-23T10:07:28Z</time></trkpt><trkpt lat="47.588341" lon="9.741684"><ele>517.33</ele><time>2009-05-23T10:07:30Z</time></trkpt><trkpt lat="47.588427" lon="9.741834"><ele>516.85</ele><time>2009-05-23T10:07:31Z</time></trkpt><trkpt lat="47.588528" lon="9.741966"><ele>516.85</ele><time>2009-05-23T10:07:32Z</time></trkpt><trkpt lat="47.588875" lon="9.742258"><ele>517.81</ele><time>2009-05-23T10:07:35Z</time></trkpt><trkpt lat="47.589027" lon="9.742272"><ele>517.81</ele><time>2009-05-23T10:07:36Z</time></trkpt><trkpt lat="47.589206" lon="9.742244"><ele>517.33</ele><time>2009-05-23T10:07:37Z</time></trkpt><trkpt lat="47.589382" lon="9.742212"><ele>517.81</ele><time>2009-05-23T10:07:38Z</time></trkpt><trkpt lat="47.589548" lon="9.742190"><ele>517.81</ele><time>2009-05-23T10:07:39Z</time></trkpt><trkpt lat="47.590909" lon="9.742102"><ele>521.17</ele><time>2009-05-23T10:07:48Z</time></trkpt><trkpt lat="47.592280" lon="9.742407"><ele>526.46</ele><time>2009-05-23T10:07:57Z</time></trkpt><trkpt lat="47.593097" lon="9.742720"><ele>527.90</ele><time>2009-05-23T10:08:03Z</time></trkpt><trkpt lat="47.593186" lon="9.742710"><ele>527.90</ele><time>2009-05-23T10:08:04Z</time></trkpt><trkpt lat="47.593276" lon="9.742642"><ele>528.38</ele><time>2009-05-23T10:08:05Z</time></trkpt><trkpt lat="47.593359" lon="9.742518"><ele>528.38</ele><time>2009-05-23T10:08:06Z</time></trkpt><trkpt lat="47.593434" lon="9.742355"><ele>528.38</ele><time>2009-05-23T10:08:07Z</time></trkpt><trkpt lat="47.593505" lon="9.742176"><ele>528.86</ele><time>2009-05-23T10:08:08Z</time></trkpt><trkpt lat="47.593583" lon="9.741972"><ele>528.86</ele><time>2009-05-23T10:08:09Z</time></trkpt><trkpt lat="47.594133" lon="9.740610"><ele>531.27</ele><time>2009-05-23T10:08:16Z</time></trkpt><trkpt lat="47.594409" lon="9.740004"><ele>529.34</ele><time>2009-05-23T10:08:21Z</time></trkpt><trkpt lat="47.594480" lon="9.739915"><ele>528.86</ele><time>2009-05-23T10:08:22Z</time></trkpt><trkpt lat="47.594566" lon="9.739854"><ele>527.90</ele><time>2009-05-23T10:08:23Z</time></trkpt><trkpt lat="47.594655" lon="9.739783"><ele>527.42</ele><time>2009-05-23T10:08:24Z</time></trkpt><trkpt lat="47.594748" lon="9.739713"><ele>526.94</ele><time>2009-05-23T10:08:25Z</time></trkpt><trkpt lat="47.595195" lon="9.739380"><ele>524.06</ele><time>2009-05-23T10:08:30Z</time></trkpt><trkpt lat="47.595272" lon="9.739291"><ele>523.09</ele><time>2009-05-23T10:08:31Z</time></trkpt><trkpt lat="47.595338" lon="9.739176"><ele>522.61</ele><time>2009-05-23T10:08:32Z</time></trkpt><trkpt lat="47.595394" lon="9.739037"><ele>522.13</ele><time>2009-05-23T10:08:33Z</time></trkpt><trkpt lat="47.595443" lon="9.738888"><ele>521.65</ele><time>2009-05-23T10:08:34Z</time></trkpt><trkpt lat="47.595490" lon="9.738740"><ele>520.69</ele><time>2009-05-23T10:08:35Z</time></trkpt><trkpt lat="47.595629" lon="9.738351"><ele>520.21</ele><time>2009-05-23T10:08:38Z</time></trkpt><trkpt lat="47.595693" lon="9.738269"><ele>520.21</ele><time>2009-05-23T10:08:39Z</time></trkpt><trkpt lat="47.595770" lon="9.738208"><ele>520.21</ele><time>2009-05-23T10:08:40Z</time></trkpt><trkpt lat="47.595854" lon="9.738157"><ele>520.21</ele><time>2009-05-23T10:08:41Z</time></trkpt><trkpt lat="47.595945" lon="9.738120"><ele>520.21</ele><time>2009-05-23T10:08:42Z</time></trkpt><trkpt lat="47.596041" lon="9.738102"><ele>520.69</ele><time>2009-05-23T10:08:43Z</time></trkpt><trkpt lat="47.596139" lon="9.738101"><ele>520.69</ele><time>2009-05-23T10:08:44Z</time></trkpt><trkpt lat="47.596233" lon="9.738102"><ele>520.69</ele><time>2009-05-23T10:08:45Z</time></trkpt><trkpt lat="47.596320" lon="9.738094"><ele>520.69</ele><time>2009-05-23T10:08:46Z</time></trkpt><trkpt lat="47.596402" lon="9.738066"><ele>520.69</ele><time>2009-05-23T10:08:47Z</time></trkpt><trkpt lat="47.596480" lon="9.738021"><ele>520.69</ele><time>2009-05-23T10:08:48Z</time></trkpt><trkpt lat="47.596783" lon="9.737840"><ele>522.13</ele><time>2009-05-23T10:08:54Z</time></trkpt><trkpt lat="47.596835" lon="9.737875"><ele>522.61</ele><time>2009-05-23T10:08:55Z</time></trkpt><trkpt lat="47.596901" lon="9.737946"><ele>523.09</ele><time>2009-05-23T10:08:56Z</time></trkpt><trkpt lat="47.597484" lon="9.738768"><ele>527.42</ele><time>2009-05-23T10:09:03Z</time></trkpt><trkpt lat="47.597550" lon="9.738924"><ele>527.90</ele><time>2009-05-23T10:09:04Z</time></trkpt><trkpt lat="47.597598" lon="9.739102"><ele>527.90</ele><time>2009-05-23T10:09:05Z</time></trkpt><trkpt lat="47.597624" lon="9.739296"><ele>527.90</ele><time>2009-05-23T10:09:06Z</time></trkpt><trkpt lat="47.597632" lon="9.739498"><ele>527.90</ele><time>2009-05-23T10:09:07Z</time></trkpt><trkpt lat="47.597636" lon="9.739705"><ele>527.42</ele><time>2009-05-23T10:09:08Z</time></trkpt><trkpt lat="47.597851" lon="9.741786"><ele>531.27</ele><time>2009-05-23T10:09:17Z</time></trkpt><trkpt lat="47.598134" lon="9.743337"><ele>537.99</ele><time>2009-05-23T10:09:23Z</time></trkpt><trkpt lat="47.598234" lon="9.743589"><ele>539.44</ele><time>2009-05-23T10:09:24Z</time></trkpt><trkpt lat="47.598357" lon="9.743833"><ele>540.88</ele><time>2009-05-23T10:09:25Z</time></trkpt><trkpt lat="47.598503" lon="9.744063"><ele>542.32</ele><time>2009-05-23T10:09:26Z</time></trkpt><trkpt lat="47.598672" lon="9.744274"><ele>543.28</ele><time>2009-05-23T10:09:27Z</time></trkpt><trkpt lat="47.598861" lon="9.744465"><ele>544.24</ele><time>2009-05-23T10:09:28Z</time></trkpt><trkpt lat="47.599067" lon="9.744641"><ele>545.20</ele><time>2009-05-23T10:09:29Z</time></trkpt><trkpt lat="47.600344" lon="9.746065"><ele>551.93</ele><time>2009-05-23T10:09:36Z</time></trkpt><trkpt lat="47.602073" lon="9.748277"><ele>553.38</ele><time>2009-05-23T10:09:46Z</time></trkpt><trkpt lat="47.603821" lon="9.750372"><ele>551.45</ele><time>2009-05-23T10:09:56Z</time></trkpt><trkpt lat="47.605452" lon="9.752423"><ele>548.09</ele><time>2009-05-23T10:10:04Z</time></trkpt><trkpt lat="47.607341" lon="9.755198"><ele>543.76</ele><time>2009-05-23T10:10:14Z</time></trkpt><trkpt lat="47.608810" lon="9.758361"><ele>539.92</ele><time>2009-05-23T10:10:24Z</time></trkpt><trkpt lat="47.610425" lon="9.762966"><ele>541.36</ele><time>2009-05-23T10:10:38Z</time></trkpt><trkpt lat="47.611705" lon="9.766277"><ele>539.92</ele><time>2009-05-23T10:10:50Z</time></trkpt><trkpt lat="47.612944" lon="9.769196"><ele>536.07</ele><time>2009-05-23T10:11:01Z</time></trkpt><trkpt lat="47.613493" lon="9.770590"><ele>535.11</ele><time>2009-05-23T10:11:08Z</time></trkpt><trkpt lat="47.613579" lon="9.770747"><ele>534.63</ele><time>2009-05-23T10:11:09Z</time></trkpt><trkpt lat="47.613849" lon="9.771228"><ele>534.15</ele><time>2009-05-23T10:11:12Z</time></trkpt><trkpt lat="47.613918" lon="9.771413"><ele>534.15</ele><time>2009-05-23T10:11:13Z</time></trkpt><trkpt lat="47.614766" lon="9.773441"><ele>532.23</ele><time>2009-05-23T10:11:25Z</time></trkpt><trkpt lat="47.615396" lon="9.774839"><ele>532.71</ele><time>2009-05-23T10:11:35Z</time></trkpt><trkpt lat="47.615485" lon="9.775086"><ele>533.19</ele><time>2009-05-23T10:11:37Z</time></trkpt><trkpt lat="47.615550" lon="9.775200"><ele>533.67</ele><time>2009-05-23T10:11:38Z</time></trkpt><trkpt lat="47.615701" lon="9.775468"><ele>534.15</ele><time>2009-05-23T10:11:40Z</time></trkpt><trkpt lat="47.615772" lon="9.775631"><ele>534.63</ele><time>2009-05-23T10:11:41Z</time></trkpt><trkpt lat="47.616443" lon="9.777236"><ele>538.96</ele><time>2009-05-23T10:11:49Z</time></trkpt><trkpt lat="47.617193" lon="9.779375"><ele>543.76</ele><time>2009-05-23T10:11:59Z</time></trkpt><trkpt lat="47.617677" lon="9.781364"><ele>540.88</ele><time>2009-05-23T10:12:09Z</time></trkpt><trkpt lat="47.617895" lon="9.782670"><ele>540.40</ele><time>2009-05-23T10:12:19Z</time></trkpt><trkpt lat="47.617941" lon="9.783085"><ele>539.92</ele><time>2009-05-23T10:12:27Z</time></trkpt><trkpt lat="47.617942" lon="9.783099"><ele>540.88</ele><time>2009-05-23T10:12:41Z</time></trkpt><trkpt lat="47.617980" lon="9.783562"><ele>540.88</ele><time>2009-05-23T10:13:41Z</time></trkpt><trkpt lat="47.618333" lon="9.784875"><ele>540.40</ele><time>2009-05-23T10:13:47Z</time></trkpt><trkpt lat="47.619232" lon="9.788185"><ele>540.40</ele><time>2009-05-23T10:14:01Z</time></trkpt><trkpt lat="47.619638" lon="9.790020"><ele>542.32</ele><time>2009-05-23T10:14:10Z</time></trkpt><trkpt lat="47.619685" lon="9.790189"><ele>542.32</ele><time>2009-05-23T10:14:11Z</time></trkpt><trkpt lat="47.619872" lon="9.790676"><ele>541.84</ele><time>2009-05-23T10:14:14Z</time></trkpt><trkpt lat="47.619952" lon="9.790823"><ele>541.84</ele><time>2009-05-23T10:14:15Z</time></trkpt><trkpt lat="47.620042" lon="9.790957"><ele>541.36</ele><time>2009-05-23T10:14:16Z</time></trkpt><trkpt lat="47.621107" lon="9.792159"><ele>542.80</ele><time>2009-05-23T10:14:25Z</time></trkpt><trkpt lat="47.622226" lon="9.793592"><ele>542.32</ele><time>2009-05-23T10:14:32Z</time></trkpt><trkpt lat="47.624316" lon="9.796876"><ele>545.20</ele><time>2009-05-23T10:14:46Z</time></trkpt><trkpt lat="47.625685" lon="9.798821"><ele>544.24</ele><time>2009-05-23T10:14:55Z</time></trkpt><trkpt lat="47.626968" lon="9.799603"><ele>545.69</ele><time>2009-05-23T10:15:01Z</time></trkpt><trkpt lat="47.628688" lon="9.800291"><ele>545.69</ele><time>2009-05-23T10:15:09Z</time></trkpt><trkpt lat="47.630053" lon="9.801610"><ele>547.13</ele><time>2009-05-23T10:15:16Z</time></trkpt><trkpt lat="47.632298" lon="9.805069"><ele>549.05</ele><time>2009-05-23T10:15:29Z</time></trkpt><trkpt lat="47.635727" lon="9.810416"><ele>549.53</ele><time>2009-05-23T10:15:49Z</time></trkpt><trkpt lat="47.638596" lon="9.814957"><ele>552.41</ele><time>2009-05-23T10:16:06Z</time></trkpt><trkpt lat="47.639554" lon="9.817246"><ele>552.90</ele><time>2009-05-23T10:16:13Z</time></trkpt><trkpt lat="47.640413" lon="9.820352"><ele>552.41</ele><time>2009-05-23T10:16:22Z</time></trkpt><trkpt lat="47.641716" lon="9.823339"><ele>555.30</ele><time>2009-05-23T10:16:32Z</time></trkpt><trkpt lat="47.643855" lon="9.827299"><ele>552.90</ele><time>2009-05-23T10:16:47Z</time></trkpt><trkpt lat="47.646017" lon="9.830775"><ele>557.22</ele><time>2009-05-23T10:17:01Z</time></trkpt><trkpt lat="47.648335" lon="9.833952"><ele>567.32</ele><time>2009-05-23T10:17:14Z</time></trkpt><trkpt lat="47.649574" lon="9.834590"><ele>569.72</ele><time>2009-05-23T10:17:20Z</time></trkpt><trkpt lat="47.649738" lon="9.834660"><ele>570.20</ele><time>2009-05-23T10:17:21Z</time></trkpt><trkpt lat="47.649882" lon="9.834738"><ele>570.20</ele><time>2009-05-23T10:17:22Z</time></trkpt><trkpt lat="47.650001" lon="9.834863"><ele>570.68</ele><time>2009-05-23T10:17:23Z</time></trkpt><trkpt lat="47.650104" lon="9.835064"><ele>570.68</ele><time>2009-05-23T10:17:24Z</time></trkpt><trkpt lat="47.650185" lon="9.835299"><ele>570.68</ele><time>2009-05-23T10:17:25Z</time></trkpt><trkpt lat="47.650245" lon="9.835572"><ele>571.16</ele><time>2009-05-23T10:17:26Z</time></trkpt><trkpt lat="47.650293" lon="9.835878"><ele>570.68</ele><time>2009-05-23T10:17:27Z</time></trkpt><trkpt lat="47.650353" lon="9.836193"><ele>570.20</ele><time>2009-05-23T10:17:28Z</time></trkpt><trkpt lat="47.651040" lon="9.838469"><ele>567.32</ele><time>2009-05-23T10:17:35Z</time></trkpt><trkpt lat="47.652327" lon="9.840842"><ele>568.28</ele><time>2009-05-23T10:17:43Z</time></trkpt><trkpt lat="47.654573" lon="9.844853"><ele>576.45</ele><time>2009-05-23T10:17:57Z</time></trkpt><trkpt lat="47.655924" lon="9.847835"><ele>589.43</ele><time>2009-05-23T10:18:07Z</time></trkpt><trkpt lat="47.656602" lon="9.849562"><ele>596.15</ele><time>2009-05-23T10:18:15Z</time></trkpt><trkpt lat="47.657395" lon="9.851677"><ele>596.15</ele><time>2009-05-23T10:18:27Z</time></trkpt><trkpt lat="47.657744" lon="9.852205"><ele>594.71</ele><time>2009-05-23T10:18:31Z</time></trkpt><trkpt lat="47.657813" lon="9.852353"><ele>594.23</ele><time>2009-05-23T10:18:32Z</time></trkpt><trkpt lat="47.657860" lon="9.852517"><ele>594.23</ele><time>2009-05-23T10:18:33Z</time></trkpt><trkpt lat="47.657879" lon="9.852695"><ele>594.23</ele><time>2009-05-23T10:18:34Z</time></trkpt><trkpt lat="47.657869" lon="9.852881"><ele>593.75</ele><time>2009-05-23T10:18:35Z</time></trkpt><trkpt lat="47.657839" lon="9.853072"><ele>593.27</ele><time>2009-05-23T10:18:36Z</time></trkpt><trkpt lat="47.657801" lon="9.853278"><ele>592.79</ele><time>2009-05-23T10:18:37Z</time></trkpt><trkpt lat="47.657660" lon="9.854596"><ele>592.31</ele><time>2009-05-23T10:18:44Z</time></trkpt><trkpt lat="47.657676" lon="9.854773"><ele>592.31</ele><time>2009-05-23T10:18:45Z</time></trkpt><trkpt lat="47.657708" lon="9.854945"><ele>592.31</ele><time>2009-05-23T10:18:46Z</time></trkpt><trkpt lat="47.657750" lon="9.855113"><ele>592.31</ele><time>2009-05-23T10:18:47Z</time></trkpt><trkpt lat="47.657800" lon="9.855279"><ele>592.31</ele><time>2009-05-23T10:18:48Z</time></trkpt><trkpt lat="47.658509" lon="9.856782"><ele>592.31</ele><time>2009-05-23T10:18:57Z</time></trkpt><trkpt lat="47.659413" lon="9.858235"><ele>595.19</ele><time>2009-05-23T10:19:04Z</time></trkpt><trkpt lat="47.660879" lon="9.860621"><ele>600.48</ele><time>2009-05-23T10:19:12Z</time></trkpt><trkpt lat="47.663073" lon="9.864196"><ele>605.77</ele><time>2009-05-23T10:19:24Z</time></trkpt><trkpt lat="47.664541" lon="9.867290"><ele>607.69</ele><time>2009-05-23T10:19:34Z</time></trkpt><trkpt lat="47.665490" lon="9.870609"><ele>607.69</ele><time>2009-05-23T10:19:43Z</time></trkpt><trkpt lat="47.665773" lon="9.873415"><ele>608.17</ele><time>2009-05-23T10:19:50Z</time></trkpt><trkpt lat="47.665398" lon="9.875824"><ele>607.21</ele><time>2009-05-23T10:19:56Z</time></trkpt><trkpt lat="47.664561" lon="9.878062"><ele>603.36</ele><time>2009-05-23T10:20:02Z</time></trkpt><trkpt lat="47.664111" lon="9.880447"><ele>596.15</ele><time>2009-05-23T10:20:08Z</time></trkpt><trkpt lat="47.664034" lon="9.883733"><ele>586.06</ele><time>2009-05-23T10:20:16Z</time></trkpt><trkpt lat="47.663626" lon="9.886919"><ele>580.77</ele><time>2009-05-23T10:20:24Z</time></trkpt><trkpt lat="47.662206" lon="9.892994"><ele>581.25</ele><time>2009-05-23T10:20:40Z</time></trkpt><trkpt lat="47.661930" lon="9.895335"><ele>582.22</ele><time>2009-05-23T10:20:46Z</time></trkpt><trkpt lat="47.661648" lon="9.897643"><ele>582.70</ele><time>2009-05-23T10:20:52Z</time></trkpt><trkpt lat="47.661098" lon="9.900230"><ele>584.14</ele><time>2009-05-23T10:20:59Z</time></trkpt><trkpt lat="47.660626" lon="9.902437"><ele>586.54</ele><time>2009-05-23T10:21:05Z</time></trkpt><trkpt lat="47.660452" lon="9.903549"><ele>587.50</ele><time>2009-05-23T10:21:08Z</time></trkpt><trkpt lat="47.660456" lon="9.903926"><ele>587.50</ele><time>2009-05-23T10:21:09Z</time></trkpt><trkpt lat="47.660477" lon="9.904295"><ele>587.50</ele><time>2009-05-23T10:21:10Z</time></trkpt><trkpt lat="47.660519" lon="9.904666"><ele>587.50</ele><time>2009-05-23T10:21:11Z</time></trkpt><trkpt lat="47.660562" lon="9.905045"><ele>587.02</ele><time>2009-05-23T10:21:12Z</time></trkpt><trkpt lat="47.660671" lon="9.908900"><ele>587.98</ele><time>2009-05-23T10:21:22Z</time></trkpt><trkpt lat="47.660711" lon="9.911592"><ele>589.43</ele><time>2009-05-23T10:21:29Z</time></trkpt><trkpt lat="47.660650" lon="9.912700"><ele>590.39</ele><time>2009-05-23T10:21:32Z</time></trkpt><trkpt lat="47.660584" lon="9.913055"><ele>590.87</ele><time>2009-05-23T10:21:33Z</time></trkpt><trkpt lat="47.660491" lon="9.913400"><ele>591.35</ele><time>2009-05-23T10:21:34Z</time></trkpt><trkpt lat="47.660385" lon="9.913738"><ele>591.35</ele><time>2009-05-23T10:21:35Z</time></trkpt><trkpt lat="47.660290" lon="9.914080"><ele>591.83</ele><time>2009-05-23T10:21:36Z</time></trkpt><trkpt lat="47.659893" lon="9.916634"><ele>592.31</ele><time>2009-05-23T10:21:43Z</time></trkpt><trkpt lat="47.659704" lon="9.918803"><ele>592.79</ele><time>2009-05-23T10:21:50Z</time></trkpt><trkpt lat="47.659783" lon="9.921121"><ele>592.31</ele><time>2009-05-23T10:22:00Z</time></trkpt><trkpt lat="47.659837" lon="9.925465"><ele>598.08</ele><time>2009-05-23T10:22:19Z</time></trkpt><trkpt lat="47.659390" lon="9.927477"><ele>600.48</ele><time>2009-05-23T10:22:29Z</time></trkpt><trkpt lat="47.659034" lon="9.929638"><ele>599.52</ele><time>2009-05-23T10:22:38Z</time></trkpt><trkpt lat="47.659199" lon="9.931478"><ele>600.48</ele><time>2009-05-23T10:22:45Z</time></trkpt><trkpt lat="47.659266" lon="9.932030"><ele>601.44</ele><time>2009-05-23T10:22:49Z</time></trkpt><trkpt lat="47.659256" lon="9.932102"><ele>600.96</ele><time>2009-05-23T10:22:50Z</time></trkpt><trkpt lat="47.659226" lon="9.932154"><ele>600.96</ele><time>2009-05-23T10:22:51Z</time></trkpt><trkpt lat="47.659178" lon="9.932197"><ele>600.48</ele><time>2009-05-23T10:22:52Z</time></trkpt><trkpt lat="47.659116" lon="9.932240"><ele>599.52</ele><time>2009-05-23T10:22:53Z</time></trkpt><trkpt lat="47.658497" lon="9.932722"><ele>598.56</ele><time>2009-05-23T10:22:59Z</time></trkpt><trkpt lat="47.657889" lon="9.933141"><ele>597.60</ele><time>2009-05-23T10:23:03Z</time></trkpt><trkpt lat="47.657701" lon="9.933187"><ele>597.60</ele><time>2009-05-23T10:23:04Z</time></trkpt><trkpt lat="47.656956" lon="9.933318"><ele>597.12</ele><time>2009-05-23T10:23:08Z</time></trkpt><trkpt lat="47.656770" lon="9.933399"><ele>597.12</ele><time>2009-05-23T10:23:09Z</time></trkpt><trkpt lat="47.656594" lon="9.933536"><ele>596.64</ele><time>2009-05-23T10:23:10Z</time></trkpt><trkpt lat="47.655253" lon="9.934397"><ele>597.12</ele><time>2009-05-23T10:23:18Z</time></trkpt><trkpt lat="47.655129" lon="9.934519"><ele>597.60</ele><time>2009-05-23T10:23:19Z</time></trkpt><trkpt lat="47.655018" lon="9.934646"><ele>598.08</ele><time>2009-05-23T10:23:20Z</time></trkpt><trkpt lat="47.654749" lon="9.935017"><ele>599.04</ele><time>2009-05-23T10:23:23Z</time></trkpt><trkpt lat="47.654712" lon="9.935177"><ele>599.04</ele><time>2009-05-23T10:23:24Z</time></trkpt><trkpt lat="47.654714" lon="9.935349"><ele>598.56</ele><time>2009-05-23T10:23:25Z</time></trkpt><trkpt lat="47.654737" lon="9.935542"><ele>598.56</ele><time>2009-05-23T10:23:26Z</time></trkpt><trkpt lat="47.654793" lon="9.935775"><ele>598.56</ele><time>2009-05-23T10:23:27Z</time></trkpt><trkpt lat="47.654861" lon="9.936041"><ele>598.56</ele><time>2009-05-23T10:23:28Z</time></trkpt><trkpt lat="47.654894" lon="9.936333"><ele>599.04</ele><time>2009-05-23T10:23:29Z</time></trkpt><trkpt lat="47.654882" lon="9.936634"><ele>599.04</ele><time>2009-05-23T10:23:30Z</time></trkpt><trkpt lat="47.654850" lon="9.937257"><ele>599.52</ele><time>2009-05-23T10:23:32Z</time></trkpt><trkpt lat="47.654856" lon="9.937583"><ele>600.00</ele><time>2009-05-23T10:23:33Z</time></trkpt><trkpt lat="47.654926" lon="9.939514"><ele>601.92</ele><time>2009-05-23T10:23:39Z</time></trkpt><trkpt lat="47.654956" lon="9.939790"><ele>602.40</ele><time>2009-05-23T10:23:40Z</time></trkpt><trkpt lat="47.655012" lon="9.940329"><ele>603.85</ele><time>2009-05-23T10:23:42Z</time></trkpt><trkpt lat="47.655013" lon="9.940596"><ele>604.33</ele><time>2009-05-23T10:23:43Z</time></trkpt><trkpt lat="47.654987" lon="9.940855"><ele>605.29</ele><time>2009-05-23T10:23:44Z</time></trkpt><trkpt lat="47.654930" lon="9.941102"><ele>605.29</ele><time>2009-05-23T10:23:45Z</time></trkpt><trkpt lat="47.654843" lon="9.941343"><ele>605.77</ele><time>2009-05-23T10:23:46Z</time></trkpt><trkpt lat="47.654706" lon="9.941543"><ele>606.25</ele><time>2009-05-23T10:23:47Z</time></trkpt><trkpt lat="47.654569" lon="9.941742"><ele>607.69</ele><time>2009-05-23T10:23:48Z</time></trkpt><trkpt lat="47.654433" lon="9.941936"><ele>609.13</ele><time>2009-05-23T10:23:49Z</time></trkpt><trkpt lat="47.653716" lon="9.943102"><ele>611.06</ele><time>2009-05-23T10:23:55Z</time></trkpt><trkpt lat="47.653594" lon="9.943265"><ele>611.06</ele><time>2009-05-23T10:23:56Z</time></trkpt><trkpt lat="47.653197" lon="9.943746"><ele>611.06</ele><time>2009-05-23T10:23:59Z</time></trkpt><trkpt lat="47.653035" lon="9.943854"><ele>611.06</ele><time>2009-05-23T10:24:00Z</time></trkpt><trkpt lat="47.652856" lon="9.943934"><ele>610.57</ele><time>2009-05-23T10:24:01Z</time></trkpt><trkpt lat="47.652661" lon="9.943990"><ele>610.09</ele><time>2009-05-23T10:24:02Z</time></trkpt><trkpt lat="47.652459" lon="9.944040"><ele>609.61</ele><time>2009-05-23T10:24:03Z</time></trkpt><trkpt lat="47.651659" lon="9.944306"><ele>607.69</ele><time>2009-05-23T10:24:07Z</time></trkpt><trkpt lat="47.651478" lon="9.944438"><ele>607.69</ele><time>2009-05-23T10:24:08Z</time></trkpt><trkpt lat="47.651305" lon="9.944599"><ele>608.17</ele><time>2009-05-23T10:24:09Z</time></trkpt><trkpt lat="47.651138" lon="9.944784"><ele>608.65</ele><time>2009-05-23T10:24:10Z</time></trkpt><trkpt lat="47.650973" lon="9.944982"><ele>608.65</ele><time>2009-05-23T10:24:11Z</time></trkpt><trkpt lat="47.649619" lon="9.946228"><ele>606.73</ele><time>2009-05-23T10:24:18Z</time></trkpt><trkpt lat="47.648369" lon="9.947274"><ele>610.09</ele><time>2009-05-23T10:24:25Z</time></trkpt><trkpt lat="47.647438" lon="9.948504"><ele>613.46</ele><time>2009-05-23T10:24:31Z</time></trkpt><trkpt lat="47.647252" lon="9.948683"><ele>613.46</ele><time>2009-05-23T10:24:32Z</time></trkpt><trkpt lat="47.646554" lon="9.949321"><ele>616.82</ele><time>2009-05-23T10:24:36Z</time></trkpt><trkpt lat="47.646434" lon="9.949517"><ele>617.78</ele><time>2009-05-23T10:24:37Z</time></trkpt><trkpt lat="47.646334" lon="9.949747"><ele>619.23</ele><time>2009-05-23T10:24:38Z</time></trkpt><trkpt lat="47.646135" lon="9.950191"><ele>622.11</ele><time>2009-05-23T10:24:40Z</time></trkpt><trkpt lat="47.645999" lon="9.950353"><ele>623.55</ele><time>2009-05-23T10:24:41Z</time></trkpt><trkpt lat="47.645844" lon="9.950460"><ele>624.99</ele><time>2009-05-23T10:24:42Z</time></trkpt><trkpt lat="47.645682" lon="9.950573"><ele>626.44</ele><time>2009-05-23T10:24:43Z</time></trkpt><trkpt lat="47.645532" lon="9.950690"><ele>627.88</ele><time>2009-05-23T10:24:44Z</time></trkpt><trkpt lat="47.645378" lon="9.950838"><ele>629.80</ele><time>2009-05-23T10:24:45Z</time></trkpt><trkpt lat="47.645218" lon="9.950979"><ele>631.72</ele><time>2009-05-23T10:24:46Z</time></trkpt><trkpt lat="47.644657" lon="9.951456"><ele>639.41</ele><time>2009-05-23T10:24:50Z</time></trkpt><trkpt lat="47.644531" lon="9.951458"><ele>641.34</ele><time>2009-05-23T10:24:51Z</time></trkpt><trkpt lat="47.644392" lon="9.951437"><ele>642.30</ele><time>2009-05-23T10:24:52Z</time></trkpt><trkpt lat="47.644246" lon="9.951425"><ele>643.26</ele><time>2009-05-23T10:24:53Z</time></trkpt><trkpt lat="47.644108" lon="9.951457"><ele>644.70</ele><time>2009-05-23T10:24:54Z</time></trkpt><trkpt lat="47.643983" lon="9.951520"><ele>645.66</ele><time>2009-05-23T10:24:55Z</time></trkpt><trkpt lat="47.643827" lon="9.951651"><ele>645.66</ele><time>2009-05-23T10:24:56Z</time></trkpt><trkpt lat="47.643672" lon="9.951750"><ele>646.14</ele><time>2009-05-23T10:24:57Z</time></trkpt><trkpt lat="47.643499" lon="9.951830"><ele>645.66</ele><time>2009-05-23T10:24:58Z</time></trkpt><trkpt lat="47.643318" lon="9.951916"><ele>646.62</ele><time>2009-05-23T10:24:59Z</time></trkpt><trkpt lat="47.643146" lon="9.952042"><ele>647.59</ele><time>2009-05-23T10:25:00Z</time></trkpt><trkpt lat="47.642973" lon="9.952191"><ele>649.51</ele><time>2009-05-23T10:25:01Z</time></trkpt><trkpt lat="47.642812" lon="9.952340"><ele>651.91</ele><time>2009-05-23T10:25:02Z</time></trkpt><trkpt lat="47.641736" lon="9.953365"><ele>665.85</ele><time>2009-05-23T10:25:10Z</time></trkpt><trkpt lat="47.640491" lon="9.954631"><ele>670.18</ele><time>2009-05-23T10:25:19Z</time></trkpt><trkpt lat="47.640013" lon="9.954956"><ele>670.66</ele><time>2009-05-23T10:25:23Z</time></trkpt><trkpt lat="47.639913" lon="9.955056"><ele>670.18</ele><time>2009-05-23T10:25:24Z</time></trkpt><trkpt lat="47.639818" lon="9.955167"><ele>669.70</ele><time>2009-05-23T10:25:25Z</time></trkpt><trkpt lat="47.639731" lon="9.955293"><ele>668.73</ele><time>2009-05-23T10:25:26Z</time></trkpt><trkpt lat="47.639653" lon="9.955436"><ele>668.25</ele><time>2009-05-23T10:25:27Z</time></trkpt><trkpt lat="47.639590" lon="9.955599"><ele>668.25</ele><time>2009-05-23T10:25:28Z</time></trkpt><trkpt lat="47.639534" lon="9.955772"><ele>668.25</ele><time>2009-05-23T10:25:29Z</time></trkpt><trkpt lat="47.639248" lon="9.956493"><ele>669.70</ele><time>2009-05-23T10:25:33Z</time></trkpt><trkpt lat="47.639147" lon="9.956664"><ele>670.18</ele><time>2009-05-23T10:25:34Z</time></trkpt><trkpt lat="47.638145" lon="9.958292"><ele>678.35</ele><time>2009-05-23T10:25:44Z</time></trkpt><trkpt lat="47.638077" lon="9.958455"><ele>679.31</ele><time>2009-05-23T10:25:45Z</time></trkpt><trkpt lat="47.638022" lon="9.958628"><ele>679.79</ele><time>2009-05-23T10:25:46Z</time></trkpt><trkpt lat="47.637980" lon="9.958806"><ele>680.75</ele><time>2009-05-23T10:25:47Z</time></trkpt><trkpt lat="47.637944" lon="9.958987"><ele>682.19</ele><time>2009-05-23T10:25:48Z</time></trkpt><trkpt lat="47.637894" lon="9.959349"><ele>684.60</ele><time>2009-05-23T10:25:50Z</time></trkpt><trkpt lat="47.637894" lon="9.959532"><ele>685.56</ele><time>2009-05-23T10:25:51Z</time></trkpt><trkpt lat="47.637970" lon="9.961204"><ele>692.29</ele><time>2009-05-23T10:26:00Z</time></trkpt><trkpt lat="47.637929" lon="9.961490"><ele>694.69</ele><time>2009-05-23T10:26:03Z</time></trkpt><trkpt lat="47.637909" lon="9.961541"><ele>695.17</ele><time>2009-05-23T10:26:04Z</time></trkpt><trkpt lat="47.637886" lon="9.961575"><ele>695.65</ele><time>2009-05-23T10:26:05Z</time></trkpt><trkpt lat="47.637857" lon="9.961600"><ele>695.65</ele><time>2009-05-23T10:26:06Z</time></trkpt><trkpt lat="47.637817" lon="9.961614"><ele>696.13</ele><time>2009-05-23T10:26:07Z</time></trkpt><trkpt lat="47.637765" lon="9.961607"><ele>696.61</ele><time>2009-05-23T10:26:08Z</time></trkpt><trkpt lat="47.637707" lon="9.961567"><ele>696.61</ele><time>2009-05-23T10:26:09Z</time></trkpt><trkpt lat="47.637648" lon="9.961488"><ele>697.09</ele><time>2009-05-23T10:26:10Z</time></trkpt><trkpt lat="47.637593" lon="9.961380"><ele>697.09</ele><time>2009-05-23T10:26:11Z</time></trkpt><trkpt lat="47.637541" lon="9.961256"><ele>697.09</ele><time>2009-05-23T10:26:12Z</time></trkpt><trkpt lat="47.637493" lon="9.961130"><ele>697.57</ele><time>2009-05-23T10:26:13Z</time></trkpt><trkpt lat="47.637450" lon="9.960998"><ele>698.05</ele><time>2009-05-23T10:26:14Z</time></trkpt><trkpt lat="47.637408" lon="9.960858"><ele>698.05</ele><time>2009-05-23T10:26:15Z</time></trkpt><trkpt lat="47.637306" lon="9.960571"><ele>697.57</ele><time>2009-05-23T10:26:17Z</time></trkpt><trkpt lat="47.637237" lon="9.960437"><ele>698.05</ele><time>2009-05-23T10:26:18Z</time></trkpt><trkpt lat="47.637157" lon="9.960315"><ele>698.53</ele><time>2009-05-23T10:26:19Z</time></trkpt><trkpt lat="47.637062" lon="9.960209"><ele>699.02</ele><time>2009-05-23T10:26:20Z</time></trkpt><trkpt lat="47.636958" lon="9.960117"><ele>699.02</ele><time>2009-05-23T10:26:21Z</time></trkpt><trkpt lat="47.636849" lon="9.960037"><ele>699.50</ele><time>2009-05-23T10:26:22Z</time></trkpt><trkpt lat="47.636738" lon="9.959963"><ele>699.50</ele><time>2009-05-23T10:26:23Z</time></trkpt><trkpt lat="47.636194" lon="9.959570"><ele>699.50</ele><time>2009-05-23T10:26:30Z</time></trkpt><trkpt lat="47.636143" lon="9.959559"><ele>699.50</ele><time>2009-05-23T10:26:31Z</time></trkpt><trkpt lat="47.636096" lon="9.959580"><ele>699.50</ele><time>2009-05-23T10:26:32Z</time></trkpt><trkpt lat="47.636051" lon="9.959635"><ele>699.50</ele><time>2009-05-23T10:26:33Z</time></trkpt><trkpt lat="47.636009" lon="9.959718"><ele>699.50</ele><time>2009-05-23T10:26:34Z</time></trkpt><trkpt lat="47.635961" lon="9.959822"><ele>699.50</ele><time>2009-05-23T10:26:35Z</time></trkpt><trkpt lat="47.635898" lon="9.959936"><ele>699.50</ele><time>2009-05-23T10:26:36Z</time></trkpt><trkpt lat="47.635821" lon="9.960043"><ele>699.50</ele><time>2009-05-23T10:26:37Z</time></trkpt><trkpt lat="47.635735" lon="9.960140"><ele>699.98</ele><time>2009-05-23T10:26:38Z</time></trkpt><trkpt lat="47.634883" lon="9.961047"><ele>700.94</ele><time>2009-05-23T10:26:48Z</time></trkpt><trkpt lat="47.634835" lon="9.961154"><ele>700.94</ele><time>2009-05-23T10:26:49Z</time></trkpt><trkpt lat="47.634803" lon="9.961276"><ele>700.46</ele><time>2009-05-23T10:26:50Z</time></trkpt><trkpt lat="47.634792" lon="9.961416"><ele>699.98</ele><time>2009-05-23T10:26:51Z</time></trkpt><trkpt lat="47.634802" lon="9.961569"><ele>699.02</ele><time>2009-05-23T10:26:52Z</time></trkpt><trkpt lat="47.634830" lon="9.961725"><ele>698.53</ele><time>2009-05-23T10:26:53Z</time></trkpt><trkpt lat="47.634870" lon="9.961878"><ele>697.57</ele><time>2009-05-23T10:26:54Z</time></trkpt><trkpt lat="47.634915" lon="9.962027"><ele>696.61</ele><time>2009-05-23T10:26:55Z</time></trkpt><trkpt lat="47.635015" lon="9.962471"><ele>694.21</ele><time>2009-05-23T10:26:58Z</time></trkpt><trkpt lat="47.635010" lon="9.962615"><ele>693.25</ele><time>2009-05-23T10:26:59Z</time></trkpt><trkpt lat="47.634979" lon="9.962751"><ele>692.29</ele><time>2009-05-23T10:27:00Z</time></trkpt><trkpt lat="47.634918" lon="9.962876"><ele>691.33</ele><time>2009-05-23T10:27:01Z</time></trkpt><trkpt lat="47.634839" lon="9.962995"><ele>690.36</ele><time>2009-05-23T10:27:02Z</time></trkpt><trkpt lat="47.634746" lon="9.963116"><ele>688.92</ele><time>2009-05-23T10:27:03Z</time></trkpt><trkpt lat="47.633732" lon="9.964179"><ele>681.23</ele><time>2009-05-23T10:27:11Z</time></trkpt><trkpt lat="47.632969" lon="9.964866"><ele>674.98</ele><time>2009-05-23T10:27:17Z</time></trkpt><trkpt lat="47.632859" lon="9.965004"><ele>674.02</ele><time>2009-05-23T10:27:18Z</time></trkpt><trkpt lat="47.632761" lon="9.965164"><ele>672.58</ele><time>2009-05-23T10:27:19Z</time></trkpt><trkpt lat="47.632676" lon="9.965345"><ele>671.14</ele><time>2009-05-23T10:27:20Z</time></trkpt><trkpt lat="47.632601" lon="9.965550"><ele>669.22</ele><time>2009-05-23T10:27:21Z</time></trkpt><trkpt lat="47.632527" lon="9.965782"><ele>667.29</ele><time>2009-05-23T10:27:22Z</time></trkpt><trkpt lat="47.631639" lon="9.968192"><ele>650.47</ele><time>2009-05-23T10:27:32Z</time></trkpt><trkpt lat="47.631512" lon="9.968376"><ele>649.51</ele><time>2009-05-23T10:27:33Z</time></trkpt><trkpt lat="47.631366" lon="9.968535"><ele>648.07</ele><time>2009-05-23T10:27:34Z</time></trkpt><trkpt lat="47.631206" lon="9.968670"><ele>647.59</ele><time>2009-05-23T10:27:35Z</time></trkpt><trkpt lat="47.631037" lon="9.968782"><ele>647.10</ele><time>2009-05-23T10:27:36Z</time></trkpt><trkpt lat="47.630865" lon="9.968876"><ele>647.10</ele><time>2009-05-23T10:27:37Z</time></trkpt><trkpt lat="47.627832" lon="9.970537"><ele>651.43</ele><time>2009-05-23T10:27:54Z</time></trkpt><trkpt lat="47.625771" lon="9.971948"><ele>659.12</ele><time>2009-05-23T10:28:06Z</time></trkpt><trkpt lat="47.624858" lon="9.972405"><ele>661.52</ele><time>2009-05-23T10:28:13Z</time></trkpt><trkpt lat="47.624291" lon="9.972438"><ele>660.08</ele><time>2009-05-23T10:28:18Z</time></trkpt><trkpt lat="47.624183" lon="9.972468"><ele>659.60</ele><time>2009-05-23T10:28:19Z</time></trkpt><trkpt lat="47.624083" lon="9.972528"><ele>659.12</ele><time>2009-05-23T10:28:20Z</time></trkpt><trkpt lat="47.623991" lon="9.972615"><ele>658.64</ele><time>2009-05-23T10:28:21Z</time></trkpt><trkpt lat="47.623901" lon="9.972718"><ele>658.64</ele><time>2009-05-23T10:28:22Z</time></trkpt><trkpt lat="47.623709" lon="9.972903"><ele>658.64</ele><time>2009-05-23T10:28:24Z</time></trkpt><trkpt lat="47.623605" lon="9.972957"><ele>659.12</ele><time>2009-05-23T10:28:25Z</time></trkpt><trkpt lat="47.623491" lon="9.972995"><ele>659.12</ele><time>2009-05-23T10:28:26Z</time></trkpt><trkpt lat="47.622989" lon="9.973160"><ele>659.60</ele><time>2009-05-23T10:28:30Z</time></trkpt><trkpt lat="47.622895" lon="9.973255"><ele>659.60</ele><time>2009-05-23T10:28:31Z</time></trkpt><trkpt lat="47.622819" lon="9.973416"><ele>659.60</ele><time>2009-05-23T10:28:32Z</time></trkpt><trkpt lat="47.622775" lon="9.973592"><ele>659.60</ele><time>2009-05-23T10:28:33Z</time></trkpt><trkpt lat="47.622759" lon="9.973781"><ele>659.12</ele><time>2009-05-23T10:28:34Z</time></trkpt><trkpt lat="47.622777" lon="9.974000"><ele>659.12</ele><time>2009-05-23T10:28:35Z</time></trkpt><trkpt lat="47.622816" lon="9.974226"><ele>659.12</ele><time>2009-05-23T10:28:36Z</time></trkpt><trkpt lat="47.622862" lon="9.974447"><ele>659.12</ele><time>2009-05-23T10:28:37Z</time></trkpt><trkpt lat="47.622913" lon="9.974668"><ele>658.64</ele><time>2009-05-23T10:28:38Z</time></trkpt><trkpt lat="47.623121" lon="9.975828"><ele>659.60</ele><time>2009-05-23T10:28:43Z</time></trkpt><trkpt lat="47.623117" lon="9.976073"><ele>660.08</ele><time>2009-05-23T10:28:44Z</time></trkpt><trkpt lat="47.623085" lon="9.976303"><ele>660.08</ele><time>2009-05-23T10:28:45Z</time></trkpt><trkpt lat="47.623021" lon="9.976507"><ele>660.56</ele><time>2009-05-23T10:28:46Z</time></trkpt><trkpt lat="47.622927" lon="9.976686"><ele>661.04</ele><time>2009-05-23T10:28:47Z</time></trkpt><trkpt lat="47.622807" lon="9.976839"><ele>662.01</ele><time>2009-05-23T10:28:48Z</time></trkpt><trkpt lat="47.622677" lon="9.976971"><ele>662.49</ele><time>2009-05-23T10:28:49Z</time></trkpt><trkpt lat="47.622552" lon="9.977086"><ele>663.45</ele><time>2009-05-23T10:28:50Z</time></trkpt><trkpt lat="47.621723" lon="9.977656"><ele>673.54</ele><time>2009-05-23T10:28:58Z</time></trkpt><trkpt lat="47.621669" lon="9.977713"><ele>674.98</ele><time>2009-05-23T10:28:59Z</time></trkpt><trkpt lat="47.621638" lon="9.977786"><ele>675.94</ele><time>2009-05-23T10:29:00Z</time></trkpt><trkpt lat="47.621627" lon="9.977871"><ele>676.91</ele><time>2009-05-23T10:29:01Z</time></trkpt><trkpt lat="47.621645" lon="9.977959"><ele>678.35</ele><time>2009-05-23T10:29:02Z</time></trkpt><trkpt lat="47.621695" lon="9.978026"><ele>678.83</ele><time>2009-05-23T10:29:03Z</time></trkpt><trkpt lat="47.621792" lon="9.978024"><ele>679.79</ele><time>2009-05-23T10:29:04Z</time></trkpt><trkpt lat="47.621898" lon="9.977982"><ele>680.75</ele><time>2009-05-23T10:29:05Z</time></trkpt><trkpt lat="47.622030" lon="9.977910"><ele>681.71</ele><time>2009-05-23T10:29:06Z</time></trkpt><trkpt lat="47.622187" lon="9.977842"><ele>682.67</ele><time>2009-05-23T10:29:07Z</time></trkpt><trkpt lat="47.622380" lon="9.977790"><ele>684.12</ele><time>2009-05-23T10:29:08Z</time></trkpt><trkpt lat="47.622587" lon="9.977734"><ele>684.12</ele><time>2009-05-23T10:29:09Z</time></trkpt><trkpt lat="47.623889" lon="9.977368"><ele>689.88</ele><time>2009-05-23T10:29:14Z</time></trkpt><trkpt lat="47.624402" lon="9.977379"><ele>694.69</ele><time>2009-05-23T10:29:16Z</time></trkpt><trkpt lat="47.624660" lon="9.977445"><ele>697.57</ele><time>2009-05-23T10:29:17Z</time></trkpt><trkpt lat="47.624897" lon="9.977501"><ele>699.50</ele><time>2009-05-23T10:29:18Z</time></trkpt><trkpt lat="47.625109" lon="9.977516"><ele>700.94</ele><time>2009-05-23T10:29:19Z</time></trkpt><trkpt lat="47.625277" lon="9.977504"><ele>703.34</ele><time>2009-05-23T10:29:20Z</time></trkpt><trkpt lat="47.625404" lon="9.977537"><ele>702.86</ele><time>2009-05-23T10:29:21Z</time></trkpt><trkpt lat="47.625509" lon="9.977620"><ele>703.82</ele><time>2009-05-23T10:29:22Z</time></trkpt><trkpt lat="47.625581" lon="9.977766"><ele>704.30</ele><time>2009-05-23T10:29:23Z</time></trkpt><trkpt lat="47.625622" lon="9.977919"><ele>704.30</ele><time>2009-05-23T10:29:24Z</time></trkpt><trkpt lat="47.625617" lon="9.978114"><ele>704.78</ele><time>2009-05-23T10:29:25Z</time></trkpt><trkpt lat="47.625570" lon="9.978312"><ele>705.26</ele><time>2009-05-23T10:29:26Z</time></trkpt><trkpt lat="47.625477" lon="9.978511"><ele>705.75</ele><time>2009-05-23T10:29:27Z</time></trkpt><trkpt lat="47.625359" lon="9.978719"><ele>706.23</ele><time>2009-05-23T10:29:28Z</time></trkpt><trkpt lat="47.625221" lon="9.978954"><ele>706.71</ele><time>2009-05-23T10:29:29Z</time></trkpt><trkpt lat="47.624549" lon="9.980523"><ele>705.26</ele><time>2009-05-23T10:29:34Z</time></trkpt><trkpt lat="47.621988" lon="9.987046"><ele>703.34</ele><time>2009-05-23T10:29:54Z</time></trkpt><trkpt lat="47.620346" lon="9.991152"><ele>704.30</ele><time>2009-05-23T10:30:07Z</time></trkpt><trkpt lat="47.619650" lon="9.992741"><ele>704.30</ele><time>2009-05-23T10:30:14Z</time></trkpt><trkpt lat="47.619290" lon="9.994353"><ele>703.82</ele><time>2009-05-23T10:30:22Z</time></trkpt><trkpt lat="47.618706" lon="9.996426"><ele>706.71</ele><time>2009-05-23T10:30:33Z</time></trkpt><trkpt lat="47.618278" lon="9.998427"><ele>710.07</ele><time>2009-05-23T10:30:42Z</time></trkpt><trkpt lat="47.618194" lon="9.998624"><ele>710.55</ele><time>2009-05-23T10:30:43Z</time></trkpt><trkpt lat="47.618088" lon="9.998802"><ele>711.03</ele><time>2009-05-23T10:30:44Z</time></trkpt><trkpt lat="47.617941" lon="9.998924"><ele>711.99</ele><time>2009-05-23T10:30:45Z</time></trkpt><trkpt lat="47.617778" lon="9.999019"><ele>712.95</ele><time>2009-05-23T10:30:46Z</time></trkpt><trkpt lat="47.617612" lon="9.999091"><ele>714.40</ele><time>2009-05-23T10:30:47Z</time></trkpt><trkpt lat="47.617442" lon="9.999146"><ele>715.36</ele><time>2009-05-23T10:30:48Z</time></trkpt><trkpt lat="47.617272" lon="9.999202"><ele>716.80</ele><time>2009-05-23T10:30:49Z</time></trkpt><trkpt lat="47.616209" lon="9.999879"><ele>726.41</ele><time>2009-05-23T10:30:56Z</time></trkpt><trkpt lat="47.616154" lon="10.000014"><ele>726.89</ele><time>2009-05-23T10:30:57Z</time></trkpt><trkpt lat="47.616126" lon="10.000156"><ele>726.89</ele><time>2009-05-23T10:30:58Z</time></trkpt><trkpt lat="47.616135" lon="10.000319"><ele>727.37</ele><time>2009-05-23T10:30:59Z</time></trkpt><trkpt lat="47.616174" lon="10.000490"><ele>727.37</ele><time>2009-05-23T10:31:00Z</time></trkpt><trkpt lat="47.616241" lon="10.000647"><ele>728.82</ele><time>2009-05-23T10:31:01Z</time></trkpt><trkpt lat="47.616303" lon="10.000837"><ele>728.82</ele><time>2009-05-23T10:31:02Z</time></trkpt><trkpt lat="47.616336" lon="10.001020"><ele>729.30</ele><time>2009-05-23T10:31:03Z</time></trkpt><trkpt lat="47.616297" lon="10.001205"><ele>727.86</ele><time>2009-05-23T10:31:04Z</time></trkpt><trkpt lat="47.616221" lon="10.001360"><ele>727.37</ele><time>2009-05-23T10:31:05Z</time></trkpt><trkpt lat="47.616104" lon="10.001484"><ele>726.89</ele><time>2009-05-23T10:31:06Z</time></trkpt><trkpt lat="47.615958" lon="10.001558"><ele>726.89</ele><time>2009-05-23T10:31:07Z</time></trkpt><trkpt lat="47.615806" lon="10.001609"><ele>726.41</ele><time>2009-05-23T10:31:08Z</time></trkpt><trkpt lat="47.615633" lon="10.001677"><ele>726.41</ele><time>2009-05-23T10:31:09Z</time></trkpt><trkpt lat="47.613863" lon="10.002153"><ele>742.76</ele><time>2009-05-23T10:31:20Z</time></trkpt><trkpt lat="47.611871" lon="10.002492"><ele>753.81</ele><time>2009-05-23T10:31:31Z</time></trkpt><trkpt lat="47.610680" lon="10.003239"><ele>762.94</ele><time>2009-05-23T10:31:38Z</time></trkpt><trkpt lat="47.609899" lon="10.004360"><ele>765.35</ele><time>2009-05-23T10:31:45Z</time></trkpt><trkpt lat="47.609828" lon="10.004538"><ele>764.87</ele><time>2009-05-23T10:31:46Z</time></trkpt><trkpt lat="47.609776" lon="10.004711"><ele>764.39</ele><time>2009-05-23T10:31:47Z</time></trkpt><trkpt lat="47.609741" lon="10.004878"><ele>763.90</ele><time>2009-05-23T10:31:48Z</time></trkpt><trkpt lat="47.609720" lon="10.005045"><ele>763.42</ele><time>2009-05-23T10:31:49Z</time></trkpt><trkpt lat="47.609711" lon="10.005207"><ele>762.94</ele><time>2009-05-23T10:31:50Z</time></trkpt><trkpt lat="47.609708" lon="10.005365"><ele>762.46</ele><time>2009-05-23T10:31:51Z</time></trkpt><trkpt lat="47.609840" lon="10.006891"><ele>764.39</ele><time>2009-05-23T10:32:01Z</time></trkpt><trkpt lat="47.609887" lon="10.007074"><ele>764.39</ele><time>2009-05-23T10:32:02Z</time></trkpt><trkpt lat="47.609948" lon="10.007267"><ele>764.39</ele><time>2009-05-23T10:32:03Z</time></trkpt><trkpt lat="47.610542" lon="10.008963"><ele>768.23</ele><time>2009-05-23T10:32:10Z</time></trkpt><trkpt lat="47.611658" lon="10.012097"><ele>777.36</ele><time>2009-05-23T10:32:20Z</time></trkpt><trkpt lat="47.612790" lon="10.014825"><ele>776.88</ele><time>2009-05-23T10:32:29Z</time></trkpt><trkpt lat="47.613385" lon="10.016221"><ele>768.71</ele><time>2009-05-23T10:32:34Z</time></trkpt><trkpt lat="47.613467" lon="10.016506"><ele>766.31</ele><time>2009-05-23T10:32:35Z</time></trkpt><trkpt lat="47.613526" lon="10.016796"><ele>764.39</ele><time>2009-05-23T10:32:36Z</time></trkpt><trkpt lat="47.614085" lon="10.019578"><ele>752.37</ele><time>2009-05-23T10:32:46Z</time></trkpt><trkpt lat="47.614920" lon="10.021327"><ele>749.00</ele><time>2009-05-23T10:32:53Z</time></trkpt><trkpt lat="47.616339" lon="10.023459"><ele>744.68</ele><time>2009-05-23T10:33:02Z</time></trkpt><trkpt lat="47.616589" lon="10.023989"><ele>744.20</ele><time>2009-05-23T10:33:04Z</time></trkpt><trkpt lat="47.616689" lon="10.024281"><ele>744.20</ele><time>2009-05-23T10:33:05Z</time></trkpt><trkpt lat="47.616970" lon="10.025520"><ele>743.72</ele><time>2009-05-23T10:33:09Z</time></trkpt><trkpt lat="47.617000" lon="10.025844"><ele>743.72</ele><time>2009-05-23T10:33:10Z</time></trkpt><trkpt lat="47.617003" lon="10.026173"><ele>743.24</ele><time>2009-05-23T10:33:11Z</time></trkpt><trkpt lat="47.616979" lon="10.026504"><ele>743.24</ele><time>2009-05-23T10:33:12Z</time></trkpt><trkpt lat="47.616926" lon="10.026835"><ele>742.76</ele><time>2009-05-23T10:33:13Z</time></trkpt><trkpt lat="47.616859" lon="10.027161"><ele>742.76</ele><time>2009-05-23T10:33:14Z</time></trkpt><trkpt lat="47.616645" lon="10.028455"><ele>742.28</ele><time>2009-05-23T10:33:18Z</time></trkpt><trkpt lat="47.616640" lon="10.028776"><ele>742.28</ele><time>2009-05-23T10:33:19Z</time></trkpt><trkpt lat="47.616658" lon="10.029092"><ele>742.28</ele><time>2009-05-23T10:33:20Z</time></trkpt><trkpt lat="47.616700" lon="10.029399"><ele>742.76</ele><time>2009-05-23T10:33:21Z</time></trkpt><trkpt lat="47.616757" lon="10.029698"><ele>742.76</ele><time>2009-05-23T10:33:22Z</time></trkpt><trkpt lat="47.616826" lon="10.029991"><ele>743.24</ele><time>2009-05-23T10:33:23Z</time></trkpt><trkpt lat="47.617302" lon="10.031615"><ele>747.56</ele><time>2009-05-23T10:33:30Z</time></trkpt><trkpt lat="47.617372" lon="10.031724"><ele>748.04</ele><time>2009-05-23T10:33:31Z</time></trkpt><trkpt lat="47.617442" lon="10.031808"><ele>749.00</ele><time>2009-05-23T10:33:32Z</time></trkpt><trkpt lat="47.617512" lon="10.031875"><ele>749.97</ele><time>2009-05-23T10:33:33Z</time></trkpt><trkpt lat="47.617580" lon="10.031934"><ele>750.45</ele><time>2009-05-23T10:33:34Z</time></trkpt><trkpt lat="47.617914" lon="10.032286"><ele>752.37</ele><time>2009-05-23T10:33:39Z</time></trkpt><trkpt lat="47.617967" lon="10.032376"><ele>752.85</ele><time>2009-05-23T10:33:40Z</time></trkpt><trkpt lat="47.618015" lon="10.032470"><ele>753.33</ele><time>2009-05-23T10:33:41Z</time></trkpt><trkpt lat="47.618055" lon="10.032565"><ele>753.33</ele><time>2009-05-23T10:33:42Z</time></trkpt><trkpt lat="47.618088" lon="10.032662"><ele>753.81</ele><time>2009-05-23T10:33:43Z</time></trkpt><trkpt lat="47.618114" lon="10.032758"><ele>753.81</ele><time>2009-05-23T10:33:44Z</time></trkpt><trkpt lat="47.618137" lon="10.032849"><ele>754.29</ele><time>2009-05-23T10:33:45Z</time></trkpt><trkpt lat="47.618300" lon="10.033911"><ele>755.73</ele><time>2009-05-23T10:33:53Z</time></trkpt><trkpt lat="47.618609" lon="10.035320"><ele>754.29</ele><time>2009-05-23T10:34:01Z</time></trkpt><trkpt lat="47.618634" lon="10.035495"><ele>754.29</ele><time>2009-05-23T10:34:02Z</time></trkpt><trkpt lat="47.618642" lon="10.035673"><ele>754.77</ele><time>2009-05-23T10:34:03Z</time></trkpt><trkpt lat="47.618633" lon="10.035854"><ele>754.77</ele><time>2009-05-23T10:34:04Z</time></trkpt><trkpt lat="47.618610" lon="10.036038"><ele>754.29</ele><time>2009-05-23T10:34:05Z</time></trkpt><trkpt lat="47.618580" lon="10.036221"><ele>754.29</ele><time>2009-05-23T10:34:06Z</time></trkpt><trkpt lat="47.617886" lon="10.039777"><ele>750.45</ele><time>2009-05-23T10:34:25Z</time></trkpt><trkpt lat="47.617619" lon="10.041168"><ele>749.00</ele><time>2009-05-23T10:34:31Z</time></trkpt><trkpt lat="47.617615" lon="10.041423"><ele>749.00</ele><time>2009-05-23T10:34:32Z</time></trkpt><trkpt lat="47.617661" lon="10.041946"><ele>747.56</ele><time>2009-05-23T10:34:34Z</time></trkpt><trkpt lat="47.618146" lon="10.044270"><ele>738.91</ele><time>2009-05-23T10:34:43Z</time></trkpt><trkpt lat="47.618316" lon="10.044708"><ele>736.99</ele><time>2009-05-23T10:34:45Z</time></trkpt><trkpt lat="47.618421" lon="10.044903"><ele>736.99</ele><time>2009-05-23T10:34:46Z</time></trkpt><trkpt lat="47.618540" lon="10.045082"><ele>736.03</ele><time>2009-05-23T10:34:47Z</time></trkpt><trkpt lat="47.618672" lon="10.045243"><ele>735.07</ele><time>2009-05-23T10:34:48Z</time></trkpt><trkpt lat="47.618815" lon="10.045381"><ele>734.58</ele><time>2009-05-23T10:34:49Z</time></trkpt><trkpt lat="47.618969" lon="10.045498"><ele>733.62</ele><time>2009-05-23T10:34:50Z</time></trkpt><trkpt lat="47.619131" lon="10.045602"><ele>733.14</ele><time>2009-05-23T10:34:51Z</time></trkpt><trkpt lat="47.619443" lon="10.045829"><ele>731.22</ele><time>2009-05-23T10:34:53Z</time></trkpt><trkpt lat="47.619576" lon="10.045973"><ele>730.74</ele><time>2009-05-23T10:34:54Z</time></trkpt><trkpt lat="47.619687" lon="10.046138"><ele>730.26</ele><time>2009-05-23T10:34:55Z</time></trkpt><trkpt lat="47.619776" lon="10.046318"><ele>729.78</ele><time>2009-05-23T10:34:56Z</time></trkpt><trkpt lat="47.619847" lon="10.046509"><ele>729.30</ele><time>2009-05-23T10:34:57Z</time></trkpt><trkpt lat="47.619905" lon="10.046718"><ele>728.82</ele><time>2009-05-23T10:34:58Z</time></trkpt><trkpt lat="47.619956" lon="10.046947"><ele>728.82</ele><time>2009-05-23T10:34:59Z</time></trkpt><trkpt lat="47.620033" lon="10.047410"><ele>728.34</ele><time>2009-05-23T10:35:01Z</time></trkpt><trkpt lat="47.620040" lon="10.047627"><ele>728.82</ele><time>2009-05-23T10:35:02Z</time></trkpt><trkpt lat="47.620011" lon="10.047836"><ele>729.30</ele><time>2009-05-23T10:35:03Z</time></trkpt><trkpt lat="47.619927" lon="10.048015"><ele>729.78</ele><time>2009-05-23T10:35:04Z</time></trkpt><trkpt lat="47.619842" lon="10.048176"><ele>730.74</ele><time>2009-05-23T10:35:05Z</time></trkpt><trkpt lat="47.619761" lon="10.048321"><ele>731.70</ele><time>2009-05-23T10:35:06Z</time></trkpt><trkpt lat="47.619446" lon="10.048848"><ele>735.55</ele><time>2009-05-23T10:35:10Z</time></trkpt><trkpt lat="47.619361" lon="10.048950"><ele>736.51</ele><time>2009-05-23T10:35:11Z</time></trkpt><trkpt lat="47.619281" lon="10.049032"><ele>737.95</ele><time>2009-05-23T10:35:12Z</time></trkpt><trkpt lat="47.619203" lon="10.049098"><ele>739.39</ele><time>2009-05-23T10:35:13Z</time></trkpt><trkpt lat="47.619126" lon="10.049157"><ele>739.87</ele><time>2009-05-23T10:35:14Z</time></trkpt><trkpt lat="47.619043" lon="10.049207"><ele>740.83</ele><time>2009-05-23T10:35:15Z</time></trkpt><trkpt lat="47.618954" lon="10.049249"><ele>741.79</ele><time>2009-05-23T10:35:16Z</time></trkpt><trkpt lat="47.618863" lon="10.049284"><ele>742.76</ele><time>2009-05-23T10:35:17Z</time></trkpt><trkpt lat="47.618543" lon="10.049405"><ele>746.60</ele><time>2009-05-23T10:35:21Z</time></trkpt><trkpt lat="47.618470" lon="10.049458"><ele>747.56</ele><time>2009-05-23T10:35:22Z</time></trkpt><trkpt lat="47.618402" lon="10.049523"><ele>748.52</ele><time>2009-05-23T10:35:23Z</time></trkpt><trkpt lat="47.618338" lon="10.049609"><ele>750.45</ele><time>2009-05-23T10:35:24Z</time></trkpt><trkpt lat="47.618276" lon="10.049766"><ele>752.37</ele><time>2009-05-23T10:35:25Z</time></trkpt><trkpt lat="47.618179" lon="10.049989"><ele>752.85</ele><time>2009-05-23T10:35:26Z</time></trkpt><trkpt lat="47.617602" lon="10.050897"><ele>757.66</ele><time>2009-05-23T10:35:30Z</time></trkpt><trkpt lat="47.617043" lon="10.051809"><ele>764.39</ele><time>2009-05-23T10:35:34Z</time></trkpt><trkpt lat="47.616616" lon="10.053322"><ele>772.08</ele><time>2009-05-23T10:35:40Z</time></trkpt><trkpt lat="47.616641" lon="10.053578"><ele>773.52</ele><time>2009-05-23T10:35:41Z</time></trkpt><trkpt lat="47.616683" lon="10.053837"><ele>774.48</ele><time>2009-05-23T10:35:42Z</time></trkpt><trkpt lat="47.616775" lon="10.054123"><ele>776.88</ele><time>2009-05-23T10:35:43Z</time></trkpt><trkpt lat="47.616846" lon="10.054438"><ele>777.84</ele><time>2009-05-23T10:35:44Z</time></trkpt><trkpt lat="47.616893" lon="10.054787"><ele>779.77</ele><time>2009-05-23T10:35:45Z</time></trkpt><trkpt lat="47.616917" lon="10.055160"><ele>782.17</ele><time>2009-05-23T10:35:46Z</time></trkpt><trkpt lat="47.616924" lon="10.055543"><ele>784.09</ele><time>2009-05-23T10:35:47Z</time></trkpt><trkpt lat="47.617074" lon="10.059203"><ele>803.80</ele><time>2009-05-23T10:35:57Z</time></trkpt><trkpt lat="47.617444" lon="10.060503"><ele>810.53</ele><time>2009-05-23T10:36:01Z</time></trkpt><trkpt lat="47.617604" lon="10.060764"><ele>812.45</ele><time>2009-05-23T10:36:02Z</time></trkpt><trkpt lat="47.617774" lon="10.061009"><ele>814.37</ele><time>2009-05-23T10:36:03Z</time></trkpt><trkpt lat="47.617932" lon="10.061267"><ele>816.30</ele><time>2009-05-23T10:36:04Z</time></trkpt><trkpt lat="47.618064" lon="10.061575"><ele>818.70</ele><time>2009-05-23T10:36:05Z</time></trkpt><trkpt lat="47.618179" lon="10.061900"><ele>820.62</ele><time>2009-05-23T10:36:06Z</time></trkpt><trkpt lat="47.618876" lon="10.064376"><ele>836.96</ele><time>2009-05-23T10:36:14Z</time></trkpt><trkpt lat="47.619098" lon="10.064662"><ele>839.85</ele><time>2009-05-23T10:36:16Z</time></trkpt><trkpt lat="47.619255" lon="10.064690"><ele>842.25</ele><time>2009-05-23T10:36:17Z</time></trkpt><trkpt lat="47.619437" lon="10.064615"><ele>842.73</ele><time>2009-05-23T10:36:18Z</time></trkpt><trkpt lat="47.619586" lon="10.064520"><ele>845.62</ele><time>2009-05-23T10:36:19Z</time></trkpt><trkpt lat="47.619717" lon="10.064403"><ele>846.10</ele><time>2009-05-23T10:36:20Z</time></trkpt><trkpt lat="47.619821" lon="10.064225"><ele>849.46</ele><time>2009-05-23T10:36:21Z</time></trkpt><trkpt lat="47.619924" lon="10.064143"><ele>850.42</ele><time>2009-05-23T10:36:22Z</time></trkpt><trkpt lat="47.620043" lon="10.064151"><ele>851.38</ele><time>2009-05-23T10:36:23Z</time></trkpt><trkpt lat="47.620154" lon="10.064186"><ele>850.90</ele><time>2009-05-23T10:36:24Z</time></trkpt><trkpt lat="47.620203" lon="10.064300"><ele>853.31</ele><time>2009-05-23T10:36:25Z</time></trkpt><trkpt lat="47.620245" lon="10.064489"><ele>854.27</ele><time>2009-05-23T10:36:26Z</time></trkpt><trkpt lat="47.620267" lon="10.064752"><ele>853.79</ele><time>2009-05-23T10:36:27Z</time></trkpt><trkpt lat="47.620266" lon="10.064995"><ele>853.79</ele><time>2009-05-23T10:36:28Z</time></trkpt><trkpt lat="47.620274" lon="10.065282"><ele>853.31</ele><time>2009-05-23T10:36:29Z</time></trkpt><trkpt lat="47.620292" lon="10.065557"><ele>854.27</ele><time>2009-05-23T10:36:30Z</time></trkpt><trkpt lat="47.620469" lon="10.066647"><ele>858.11</ele><time>2009-05-23T10:36:35Z</time></trkpt><trkpt lat="47.620546" lon="10.066797"><ele>858.11</ele><time>2009-05-23T10:36:36Z</time></trkpt><trkpt lat="47.620651" lon="10.066925"><ele>859.08</ele><time>2009-05-23T10:36:37Z</time></trkpt><trkpt lat="47.621534" lon="10.068086"><ele>861.00</ele><time>2009-05-23T10:36:44Z</time></trkpt><trkpt lat="47.622499" lon="10.069806"><ele>850.42</ele><time>2009-05-23T10:36:52Z</time></trkpt><trkpt lat="47.622859" lon="10.071655"><ele>840.33</ele><time>2009-05-23T10:36:59Z</time></trkpt><trkpt lat="47.623047" lon="10.072105"><ele>837.45</ele><time>2009-05-23T10:37:01Z</time></trkpt><trkpt lat="47.623186" lon="10.072277"><ele>835.52</ele><time>2009-05-23T10:37:02Z</time></trkpt><trkpt lat="47.623370" lon="10.072441"><ele>833.60</ele><time>2009-05-23T10:37:03Z</time></trkpt><trkpt lat="47.623592" lon="10.072627"><ele>831.20</ele><time>2009-05-23T10:37:04Z</time></trkpt><trkpt lat="47.623805" lon="10.072869"><ele>828.79</ele><time>2009-05-23T10:37:05Z</time></trkpt><trkpt lat="47.623988" lon="10.073138"><ele>826.87</ele><time>2009-05-23T10:37:06Z</time></trkpt><trkpt lat="47.624160" lon="10.073412"><ele>824.95</ele><time>2009-05-23T10:37:07Z</time></trkpt><trkpt lat="47.624342" lon="10.073657"><ele>823.51</ele><time>2009-05-23T10:37:08Z</time></trkpt><trkpt lat="47.624542" lon="10.073873"><ele>821.58</ele><time>2009-05-23T10:37:09Z</time></trkpt><trkpt lat="47.625772" lon="10.075462"><ele>808.61</ele><time>2009-05-23T10:37:16Z</time></trkpt><trkpt lat="47.626835" lon="10.077564"><ele>795.63</ele><time>2009-05-23T10:37:25Z</time></trkpt><trkpt lat="47.627918" lon="10.079638"><ele>792.26</ele><time>2009-05-23T10:37:36Z</time></trkpt><trkpt lat="47.627905" lon="10.079751"><ele>791.78</ele><time>2009-05-23T10:37:37Z</time></trkpt><trkpt lat="47.627854" lon="10.079880"><ele>791.78</ele><time>2009-05-23T10:37:38Z</time></trkpt><trkpt lat="47.627765" lon="10.080007"><ele>791.78</ele><time>2009-05-23T10:37:39Z</time></trkpt><trkpt lat="47.627640" lon="10.080109"><ele>791.78</ele><time>2009-05-23T10:37:40Z</time></trkpt><trkpt lat="47.627479" lon="10.080195"><ele>791.30</ele><time>2009-05-23T10:37:41Z</time></trkpt><trkpt lat="47.627303" lon="10.080283"><ele>791.30</ele><time>2009-05-23T10:37:42Z</time></trkpt><trkpt lat="47.625964" lon="10.081166"><ele>791.78</ele><time>2009-05-23T10:37:49Z</time></trkpt><trkpt lat="47.625797" lon="10.081371"><ele>791.78</ele><time>2009-05-23T10:37:50Z</time></trkpt><trkpt lat="47.625629" lon="10.081608"><ele>792.26</ele><time>2009-05-23T10:37:51Z</time></trkpt><trkpt lat="47.623927" lon="10.084139"><ele>794.19</ele><time>2009-05-23T10:38:01Z</time></trkpt><trkpt lat="47.622407" lon="10.086697"><ele>801.40</ele><time>2009-05-23T10:38:11Z</time></trkpt><trkpt lat="47.621688" lon="10.089186"><ele>804.76</ele><time>2009-05-23T10:38:18Z</time></trkpt><trkpt lat="47.621057" lon="10.092155"><ele>805.72</ele><time>2009-05-23T10:38:26Z</time></trkpt><trkpt lat="47.620952" lon="10.092449"><ele>805.72</ele><time>2009-05-23T10:38:27Z</time></trkpt><trkpt lat="47.620817" lon="10.092677"><ele>806.20</ele><time>2009-05-23T10:38:28Z</time></trkpt><trkpt lat="47.620645" lon="10.092833"><ele>805.72</ele><time>2009-05-23T10:38:29Z</time></trkpt><trkpt lat="47.620469" lon="10.092979"><ele>806.20</ele><time>2009-05-23T10:38:30Z</time></trkpt><trkpt lat="47.620263" lon="10.093092"><ele>806.20</ele><time>2009-05-23T10:38:31Z</time></trkpt><trkpt lat="47.620048" lon="10.093212"><ele>806.68</ele><time>2009-05-23T10:38:32Z</time></trkpt><trkpt lat="47.619834" lon="10.093352"><ele>807.16</ele><time>2009-05-23T10:38:33Z</time></trkpt><trkpt lat="47.619635" lon="10.093532"><ele>807.64</ele><time>2009-05-23T10:38:34Z</time></trkpt><trkpt lat="47.619458" lon="10.093775"><ele>808.13</ele><time>2009-05-23T10:38:35Z</time></trkpt><trkpt lat="47.619286" lon="10.094026"><ele>808.61</ele><time>2009-05-23T10:38:36Z</time></trkpt><trkpt lat="47.619111" lon="10.094289"><ele>809.09</ele><time>2009-05-23T10:38:37Z</time></trkpt><trkpt lat="47.617701" lon="10.096007"><ele>810.53</ele><time>2009-05-23T10:38:44Z</time></trkpt><trkpt lat="47.615101" lon="10.099483"><ele>815.82</ele><time>2009-05-23T10:38:58Z</time></trkpt><trkpt lat="47.613131" lon="10.101939"><ele>822.55</ele><time>2009-05-23T10:39:09Z</time></trkpt><trkpt lat="47.611041" lon="10.104195"><ele>826.39</ele><time>2009-05-23T10:39:21Z</time></trkpt><trkpt lat="47.608432" lon="10.106247"><ele>830.72</ele><time>2009-05-23T10:39:35Z</time></trkpt><trkpt lat="47.607335" lon="10.107140"><ele>834.56</ele><time>2009-05-23T10:39:42Z</time></trkpt><trkpt lat="47.606381" lon="10.107888"><ele>839.85</ele><time>2009-05-23T10:39:50Z</time></trkpt><trkpt lat="47.605370" lon="10.108725"><ele>842.25</ele><time>2009-05-23T10:40:00Z</time></trkpt><trkpt lat="47.604105" lon="10.109762"><ele>841.29</ele><time>2009-05-23T10:40:07Z</time></trkpt><trkpt lat="47.602973" lon="10.111195"><ele>842.73</ele><time>2009-05-23T10:40:14Z</time></trkpt><trkpt lat="47.601900" lon="10.113252"><ele>845.14</ele><time>2009-05-23T10:40:22Z</time></trkpt><trkpt lat="47.601413" lon="10.114300"><ele>847.06</ele><time>2009-05-23T10:40:26Z</time></trkpt><trkpt lat="47.601330" lon="10.114581"><ele>847.06</ele><time>2009-05-23T10:40:27Z</time></trkpt><trkpt lat="47.600565" lon="10.116888"><ele>849.94</ele><time>2009-05-23T10:40:35Z</time></trkpt><trkpt lat="47.599663" lon="10.119187"><ele>853.31</ele><time>2009-05-23T10:40:44Z</time></trkpt><trkpt lat="47.599063" lon="10.120758"><ele>854.27</ele><time>2009-05-23T10:40:52Z</time></trkpt><trkpt lat="47.598212" lon="10.123067"><ele>851.38</ele><time>2009-05-23T10:41:05Z</time></trkpt><trkpt lat="47.597732" lon="10.125364"><ele>854.75</ele><time>2009-05-23T10:41:18Z</time></trkpt><trkpt lat="47.597453" lon="10.126471"><ele>856.67</ele><time>2009-05-23T10:41:25Z</time></trkpt><trkpt lat="47.597436" lon="10.126630"><ele>857.15</ele><time>2009-05-23T10:41:26Z</time></trkpt><trkpt lat="47.597434" lon="10.126784"><ele>857.15</ele><time>2009-05-23T10:41:27Z</time></trkpt><trkpt lat="47.597442" lon="10.126933"><ele>857.15</ele><time>2009-05-23T10:41:28Z</time></trkpt><trkpt lat="47.597462" lon="10.127072"><ele>857.15</ele><time>2009-05-23T10:41:29Z</time></trkpt><trkpt lat="47.597490" lon="10.127197"><ele>857.15</ele><time>2009-05-23T10:41:30Z</time></trkpt><trkpt lat="47.597518" lon="10.127307"><ele>857.15</ele><time>2009-05-23T10:41:31Z</time></trkpt><trkpt lat="47.597573" lon="10.127577"><ele>857.63</ele><time>2009-05-23T10:41:34Z</time></trkpt><trkpt lat="47.597574" lon="10.127654"><ele>857.63</ele><time>2009-05-23T10:41:35Z</time></trkpt><trkpt lat="47.597564" lon="10.127718"><ele>858.11</ele><time>2009-05-23T10:41:36Z</time></trkpt><trkpt lat="47.597541" lon="10.127771"><ele>858.59</ele><time>2009-05-23T10:41:37Z</time></trkpt><trkpt lat="47.597497" lon="10.127804"><ele>859.08</ele><time>2009-05-23T10:41:38Z</time></trkpt><trkpt lat="47.597439" lon="10.127840"><ele>859.08</ele><time>2009-05-23T10:41:39Z</time></trkpt><trkpt lat="47.597376" lon="10.127878"><ele>859.56</ele><time>2009-05-23T10:41:40Z</time></trkpt><trkpt lat="47.596560" lon="10.128296"><ele>860.04</ele><time>2009-05-23T10:41:48Z</time></trkpt><trkpt lat="47.595431" lon="10.128457"><ele>855.23</ele><time>2009-05-23T10:41:56Z</time></trkpt><trkpt lat="47.595288" lon="10.128505"><ele>854.75</ele><time>2009-05-23T10:41:57Z</time></trkpt><trkpt lat="47.595145" lon="10.128575"><ele>854.75</ele><time>2009-05-23T10:41:58Z</time></trkpt><trkpt lat="47.595004" lon="10.128668"><ele>854.75</ele><time>2009-05-23T10:41:59Z</time></trkpt><trkpt lat="47.594867" lon="10.128785"><ele>854.27</ele><time>2009-05-23T10:42:00Z</time></trkpt><trkpt lat="47.594736" lon="10.128930"><ele>854.27</ele><time>2009-05-23T10:42:01Z</time></trkpt><trkpt lat="47.594611" lon="10.129111"><ele>854.27</ele><time>2009-05-23T10:42:02Z</time></trkpt><trkpt lat="47.594493" lon="10.129320"><ele>854.27</ele><time>2009-05-23T10:42:03Z</time></trkpt><trkpt lat="47.594382" lon="10.129550"><ele>853.79</ele><time>2009-05-23T10:42:04Z</time></trkpt><trkpt lat="47.594277" lon="10.129792"><ele>853.79</ele><time>2009-05-23T10:42:05Z</time></trkpt><trkpt lat="47.593906" lon="10.130816"><ele>854.27</ele><time>2009-05-23T10:42:09Z</time></trkpt><trkpt lat="47.593843" lon="10.131098"><ele>854.75</ele><time>2009-05-23T10:42:10Z</time></trkpt><trkpt lat="47.593796" lon="10.131391"><ele>854.75</ele><time>2009-05-23T10:42:11Z</time></trkpt><trkpt lat="47.593318" lon="10.133782"><ele>861.00</ele><time>2009-05-23T10:42:19Z</time></trkpt><trkpt lat="47.592519" lon="10.136160"><ele>862.92</ele><time>2009-05-23T10:42:27Z</time></trkpt><trkpt lat="47.592470" lon="10.136496"><ele>862.92</ele><time>2009-05-23T10:42:28Z</time></trkpt><trkpt lat="47.592439" lon="10.136841"><ele>862.92</ele><time>2009-05-23T10:42:29Z</time></trkpt><trkpt lat="47.592295" lon="10.140839"><ele>863.88</ele><time>2009-05-23T10:42:40Z</time></trkpt><trkpt lat="47.592013" lon="10.147043"><ele>865.80</ele><time>2009-05-23T10:42:57Z</time></trkpt><trkpt lat="47.591854" lon="10.151860"><ele>871.57</ele><time>2009-05-23T10:43:10Z</time></trkpt><trkpt lat="47.591693" lon="10.154789"><ele>878.30</ele><time>2009-05-23T10:43:18Z</time></trkpt><trkpt lat="47.591646" lon="10.156306"><ele>879.74</ele><time>2009-05-23T10:43:22Z</time></trkpt><trkpt lat="47.591582" lon="10.156679"><ele>879.74</ele><time>2009-05-23T10:43:23Z</time></trkpt><trkpt lat="47.591495" lon="10.157045"><ele>880.22</ele><time>2009-05-23T10:43:24Z</time></trkpt><trkpt lat="47.591390" lon="10.157401"><ele>880.71</ele><time>2009-05-23T10:43:25Z</time></trkpt><trkpt lat="47.591277" lon="10.157752"><ele>881.19</ele><time>2009-05-23T10:43:26Z</time></trkpt><trkpt lat="47.590886" lon="10.159974"><ele>887.43</ele><time>2009-05-23T10:43:32Z</time></trkpt><trkpt lat="47.590990" lon="10.163507"><ele>901.85</ele><time>2009-05-23T10:43:41Z</time></trkpt><trkpt lat="47.590950" lon="10.163888"><ele>903.30</ele><time>2009-05-23T10:43:42Z</time></trkpt><trkpt lat="47.590737" lon="10.166244"><ele>914.83</ele><time>2009-05-23T10:43:48Z</time></trkpt><trkpt lat="47.590917" lon="10.168879"><ele>923.48</ele><time>2009-05-23T10:43:55Z</time></trkpt><trkpt lat="47.591072" lon="10.169192"><ele>925.41</ele><time>2009-05-23T10:43:56Z</time></trkpt><trkpt lat="47.591247" lon="10.169469"><ele>926.85</ele><time>2009-05-23T10:43:57Z</time></trkpt><trkpt lat="47.591437" lon="10.169743"><ele>927.81</ele><time>2009-05-23T10:43:58Z</time></trkpt><trkpt lat="47.591634" lon="10.170017"><ele>929.25</ele><time>2009-05-23T10:43:59Z</time></trkpt><trkpt lat="47.592347" lon="10.171619"><ele>934.06</ele><time>2009-05-23T10:44:04Z</time></trkpt><trkpt lat="47.592405" lon="10.172002"><ele>935.98</ele><time>2009-05-23T10:44:05Z</time></trkpt><trkpt lat="47.592433" lon="10.172407"><ele>936.46</ele><time>2009-05-23T10:44:06Z</time></trkpt><trkpt lat="47.592707" lon="10.174903"><ele>938.86</ele><time>2009-05-23T10:44:13Z</time></trkpt><trkpt lat="47.592628" lon="10.175238"><ele>938.38</ele><time>2009-05-23T10:44:14Z</time></trkpt><trkpt lat="47.592540" lon="10.175574"><ele>937.90</ele><time>2009-05-23T10:44:15Z</time></trkpt><trkpt lat="47.592398" lon="10.175898"><ele>937.90</ele><time>2009-05-23T10:44:16Z</time></trkpt><trkpt lat="47.592226" lon="10.176194"><ele>937.90</ele><time>2009-05-23T10:44:17Z</time></trkpt><trkpt lat="47.592048" lon="10.176482"><ele>938.38</ele><time>2009-05-23T10:44:18Z</time></trkpt><trkpt lat="47.591878" lon="10.176769"><ele>940.31</ele><time>2009-05-23T10:44:19Z</time></trkpt><trkpt lat="47.591724" lon="10.177074"><ele>941.27</ele><time>2009-05-23T10:44:20Z</time></trkpt><trkpt lat="47.591595" lon="10.177392"><ele>942.71</ele><time>2009-05-23T10:44:21Z</time></trkpt><trkpt lat="47.591495" lon="10.177728"><ele>943.67</ele><time>2009-05-23T10:44:22Z</time></trkpt><trkpt lat="47.591426" lon="10.178069"><ele>945.11</ele><time>2009-05-23T10:44:23Z</time></trkpt><trkpt lat="47.591408" lon="10.178432"><ele>947.04</ele><time>2009-05-23T10:44:24Z</time></trkpt><trkpt lat="47.591392" lon="10.178793"><ele>948.00</ele><time>2009-05-23T10:44:25Z</time></trkpt><trkpt lat="47.591406" lon="10.179157"><ele>948.96</ele><time>2009-05-23T10:44:26Z</time></trkpt><trkpt lat="47.591455" lon="10.179523"><ele>949.92</ele><time>2009-05-23T10:44:27Z</time></trkpt><trkpt lat="47.591525" lon="10.179885"><ele>950.40</ele><time>2009-05-23T10:44:28Z</time></trkpt><trkpt lat="47.591604" lon="10.180245"><ele>950.88</ele><time>2009-05-23T10:44:29Z</time></trkpt><trkpt lat="47.591684" lon="10.180598"><ele>950.40</ele><time>2009-05-23T10:44:30Z</time></trkpt><trkpt lat="47.591960" lon="10.183058"><ele>945.11</ele><time>2009-05-23T10:44:37Z</time></trkpt><trkpt lat="47.591960" lon="10.183652"><ele>942.71</ele><time>2009-05-23T10:44:39Z</time></trkpt><trkpt lat="47.591923" lon="10.183924"><ele>941.27</ele><time>2009-05-23T10:44:40Z</time></trkpt><trkpt lat="47.591843" lon="10.184173"><ele>939.83</ele><time>2009-05-23T10:44:41Z</time></trkpt><trkpt lat="47.591709" lon="10.184396"><ele>938.38</ele><time>2009-05-23T10:44:42Z</time></trkpt><trkpt lat="47.591577" lon="10.184602"><ele>936.94</ele><time>2009-05-23T10:44:43Z</time></trkpt><trkpt lat="47.591425" lon="10.184772"><ele>936.46</ele><time>2009-05-23T10:44:44Z</time></trkpt><trkpt lat="47.591248" lon="10.184904"><ele>935.50</ele><time>2009-05-23T10:44:45Z</time></trkpt><trkpt lat="47.591063" lon="10.184990"><ele>934.54</ele><time>2009-05-23T10:44:46Z</time></trkpt><trkpt lat="47.590885" lon="10.185058"><ele>933.58</ele><time>2009-05-23T10:44:47Z</time></trkpt><trkpt lat="47.590724" lon="10.185139"><ele>932.14</ele><time>2009-05-23T10:44:48Z</time></trkpt><trkpt lat="47.590588" lon="10.185264"><ele>930.69</ele><time>2009-05-23T10:44:49Z</time></trkpt><trkpt lat="47.590457" lon="10.185432"><ele>929.25</ele><time>2009-05-23T10:44:50Z</time></trkpt><trkpt lat="47.590344" lon="10.185600"><ele>927.81</ele><time>2009-05-23T10:44:51Z</time></trkpt><trkpt lat="47.590216" lon="10.185733"><ele>926.37</ele><time>2009-05-23T10:44:52Z</time></trkpt><trkpt lat="47.590062" lon="10.185834"><ele>924.93</ele><time>2009-05-23T10:44:53Z</time></trkpt><trkpt lat="47.589908" lon="10.185840"><ele>923.48</ele><time>2009-05-23T10:44:54Z</time></trkpt><trkpt lat="47.589753" lon="10.185806"><ele>922.04</ele><time>2009-05-23T10:44:55Z</time></trkpt><trkpt lat="47.589608" lon="10.185748"><ele>921.08</ele><time>2009-05-23T10:44:56Z</time></trkpt><trkpt lat="47.589470" lon="10.185680"><ele>920.12</ele><time>2009-05-23T10:44:57Z</time></trkpt><trkpt lat="47.589334" lon="10.185652"><ele>919.16</ele><time>2009-05-23T10:44:58Z</time></trkpt><trkpt lat="47.589207" lon="10.185680"><ele>918.20</ele><time>2009-05-23T10:44:59Z</time></trkpt><trkpt lat="47.589080" lon="10.185738"><ele>916.75</ele><time>2009-05-23T10:45:00Z</time></trkpt><trkpt lat="47.588960" lon="10.185816"><ele>915.79</ele><time>2009-05-23T10:45:01Z</time></trkpt><trkpt lat="47.588844" lon="10.185869"><ele>914.35</ele><time>2009-05-23T10:45:02Z</time></trkpt><trkpt lat="47.588730" lon="10.185859"><ele>913.39</ele><time>2009-05-23T10:45:03Z</time></trkpt><trkpt lat="47.588624" lon="10.185783"><ele>912.43</ele><time>2009-05-23T10:45:04Z</time></trkpt><trkpt lat="47.588527" lon="10.185668"><ele>911.47</ele><time>2009-05-23T10:45:05Z</time></trkpt><trkpt lat="47.588442" lon="10.185527"><ele>910.51</ele><time>2009-05-23T10:45:06Z</time></trkpt><trkpt lat="47.588370" lon="10.185364"><ele>910.03</ele><time>2009-05-23T10:45:07Z</time></trkpt><trkpt lat="47.588296" lon="10.185224"><ele>909.06</ele><time>2009-05-23T10:45:08Z</time></trkpt><trkpt lat="47.588212" lon="10.185132"><ele>907.62</ele><time>2009-05-23T10:45:09Z</time></trkpt><trkpt lat="47.588130" lon="10.185131"><ele>907.14</ele><time>2009-05-23T10:45:10Z</time></trkpt><trkpt lat="47.588053" lon="10.185193"><ele>906.66</ele><time>2009-05-23T10:45:11Z</time></trkpt><trkpt lat="47.588002" lon="10.185309"><ele>906.18</ele><time>2009-05-23T10:45:12Z</time></trkpt><trkpt lat="47.587966" lon="10.185500"><ele>905.70</ele><time>2009-05-23T10:45:13Z</time></trkpt><trkpt lat="47.587986" lon="10.185644"><ele>904.26</ele><time>2009-05-23T10:45:14Z</time></trkpt><trkpt lat="47.588050" lon="10.185777"><ele>902.82</ele><time>2009-05-23T10:45:15Z</time></trkpt><trkpt lat="47.588225" lon="10.185941"><ele>902.33</ele><time>2009-05-23T10:45:16Z</time></trkpt><trkpt lat="47.588359" lon="10.186151"><ele>901.37</ele><time>2009-05-23T10:45:17Z</time></trkpt><trkpt lat="47.588480" lon="10.186429"><ele>900.41</ele><time>2009-05-23T10:45:18Z</time></trkpt><trkpt lat="47.588557" lon="10.186763"><ele>898.97</ele><time>2009-05-23T10:45:19Z</time></trkpt><trkpt lat="47.588613" lon="10.187115"><ele>897.05</ele><time>2009-05-23T10:45:20Z</time></trkpt><trkpt lat="47.588663" lon="10.187501"><ele>895.12</ele><time>2009-05-23T10:45:21Z</time></trkpt><trkpt lat="47.588713" lon="10.187890"><ele>893.20</ele><time>2009-05-23T10:45:22Z</time></trkpt><trkpt lat="47.588830" lon="10.190978"><ele>876.38</ele><time>2009-05-23T10:45:30Z</time></trkpt><trkpt lat="47.588632" lon="10.192398"><ele>871.57</ele><time>2009-05-23T10:45:34Z</time></trkpt><trkpt lat="47.588512" lon="10.192673"><ele>870.61</ele><time>2009-05-23T10:45:35Z</time></trkpt><trkpt lat="47.588368" lon="10.192920"><ele>870.13</ele><time>2009-05-23T10:45:36Z</time></trkpt><trkpt lat="47.588199" lon="10.193140"><ele>869.65</ele><time>2009-05-23T10:45:37Z</time></trkpt><trkpt lat="47.588004" lon="10.193328"><ele>868.69</ele><time>2009-05-23T10:45:38Z</time></trkpt><trkpt lat="47.587771" lon="10.193488"><ele>868.69</ele><time>2009-05-23T10:45:39Z</time></trkpt><trkpt lat="47.587535" lon="10.193634"><ele>868.69</ele><time>2009-05-23T10:45:40Z</time></trkpt><trkpt lat="47.587302" lon="10.193784"><ele>868.69</ele><time>2009-05-23T10:45:41Z</time></trkpt><trkpt lat="47.587085" lon="10.193961"><ele>868.69</ele><time>2009-05-23T10:45:42Z</time></trkpt><trkpt lat="47.586894" lon="10.194180"><ele>868.21</ele><time>2009-05-23T10:45:43Z</time></trkpt><trkpt lat="47.586715" lon="10.194427"><ele>867.73</ele><time>2009-05-23T10:45:44Z</time></trkpt><trkpt lat="47.586565" lon="10.194706"><ele>867.25</ele><time>2009-05-23T10:45:45Z</time></trkpt><trkpt lat="47.586444" lon="10.195011"><ele>866.29</ele><time>2009-05-23T10:45:46Z</time></trkpt><trkpt lat="47.586342" lon="10.195327"><ele>865.80</ele><time>2009-05-23T10:45:47Z</time></trkpt><trkpt lat="47.586249" lon="10.195649"><ele>864.84</ele><time>2009-05-23T10:45:48Z</time></trkpt><trkpt lat="47.585882" lon="10.196548"><ele>862.44</ele><time>2009-05-23T10:45:51Z</time></trkpt><trkpt lat="47.585720" lon="10.196814"><ele>861.48</ele><time>2009-05-23T10:45:52Z</time></trkpt><trkpt lat="47.585536" lon="10.197060"><ele>860.04</ele><time>2009-05-23T10:45:53Z</time></trkpt><trkpt lat="47.585336" lon="10.197289"><ele>859.08</ele><time>2009-05-23T10:45:54Z</time></trkpt><trkpt lat="47.585128" lon="10.197511"><ele>857.63</ele><time>2009-05-23T10:45:55Z</time></trkpt><trkpt lat="47.582581" lon="10.200111"><ele>836.96</ele><time>2009-05-23T10:46:07Z</time></trkpt><trkpt lat="47.582354" lon="10.200186"><ele>835.52</ele><time>2009-05-23T10:46:08Z</time></trkpt><trkpt lat="47.582126" lon="10.200243"><ele>834.08</ele><time>2009-05-23T10:46:09Z</time></trkpt><trkpt lat="47.581526" lon="10.200434"><ele>831.20</ele><time>2009-05-23T10:46:12Z</time></trkpt><trkpt lat="47.581364" lon="10.200578"><ele>829.76</ele><time>2009-05-23T10:46:13Z</time></trkpt><trkpt lat="47.581222" lon="10.200764"><ele>828.79</ele><time>2009-05-23T10:46:14Z</time></trkpt><trkpt lat="47.581093" lon="10.201003"><ele>827.35</ele><time>2009-05-23T10:46:15Z</time></trkpt><trkpt lat="47.580990" lon="10.201272"><ele>825.91</ele><time>2009-05-23T10:46:16Z</time></trkpt><trkpt lat="47.580906" lon="10.201558"><ele>824.47</ele><time>2009-05-23T10:46:17Z</time></trkpt><trkpt lat="47.580840" lon="10.201842"><ele>823.03</ele><time>2009-05-23T10:46:18Z</time></trkpt><trkpt lat="47.580767" lon="10.202112"><ele>821.58</ele><time>2009-05-23T10:46:19Z</time></trkpt><trkpt lat="47.580667" lon="10.202354"><ele>820.14</ele><time>2009-05-23T10:46:20Z</time></trkpt><trkpt lat="47.580544" lon="10.202554"><ele>818.70</ele><time>2009-05-23T10:46:21Z</time></trkpt><trkpt lat="47.580407" lon="10.202723"><ele>818.22</ele><time>2009-05-23T10:46:22Z</time></trkpt><trkpt lat="47.580221" lon="10.202833"><ele>816.30</ele><time>2009-05-23T10:46:23Z</time></trkpt><trkpt lat="47.580048" lon="10.202944"><ele>815.34</ele><time>2009-05-23T10:46:24Z</time></trkpt><trkpt lat="47.579901" lon="10.203065"><ele>814.85</ele><time>2009-05-23T10:46:25Z</time></trkpt><trkpt lat="47.579785" lon="10.203204"><ele>814.85</ele><time>2009-05-23T10:46:26Z</time></trkpt><trkpt lat="47.579680" lon="10.203477"><ele>812.45</ele><time>2009-05-23T10:46:27Z</time></trkpt><trkpt lat="47.579620" lon="10.203699"><ele>811.97</ele><time>2009-05-23T10:46:28Z</time></trkpt><trkpt lat="47.579538" lon="10.203920"><ele>809.57</ele><time>2009-05-23T10:46:29Z</time></trkpt><trkpt lat="47.579485" lon="10.204141"><ele>808.13</ele><time>2009-05-23T10:46:30Z</time></trkpt><trkpt lat="47.579426" lon="10.204339"><ele>806.68</ele><time>2009-05-23T10:46:31Z</time></trkpt><trkpt lat="47.579358" lon="10.204487"><ele>806.68</ele><time>2009-05-23T10:46:32Z</time></trkpt><trkpt lat="47.579244" lon="10.204581"><ele>805.72</ele><time>2009-05-23T10:46:33Z</time></trkpt><trkpt lat="47.579099" lon="10.204620"><ele>804.76</ele><time>2009-05-23T10:46:34Z</time></trkpt><trkpt lat="47.578933" lon="10.204582"><ele>804.76</ele><time>2009-05-23T10:46:35Z</time></trkpt><trkpt lat="47.578768" lon="10.204529"><ele>803.32</ele><time>2009-05-23T10:46:36Z</time></trkpt><trkpt lat="47.578617" lon="10.204396"><ele>802.84</ele><time>2009-05-23T10:46:37Z</time></trkpt><trkpt lat="47.578492" lon="10.204149"><ele>802.84</ele><time>2009-05-23T10:46:38Z</time></trkpt><trkpt lat="47.578374" lon="10.203919"><ele>802.36</ele><time>2009-05-23T10:46:39Z</time></trkpt><trkpt lat="47.578245" lon="10.203668"><ele>801.88</ele><time>2009-05-23T10:46:40Z</time></trkpt><trkpt lat="47.578113" lon="10.203396"><ele>802.84</ele><time>2009-05-23T10:46:41Z</time></trkpt><trkpt lat="47.577481" lon="10.202225"><ele>803.32</ele><time>2009-05-23T10:46:46Z</time></trkpt><trkpt lat="47.577329" lon="10.202153"><ele>802.84</ele><time>2009-05-23T10:46:47Z</time></trkpt><trkpt lat="47.577147" lon="10.202149"><ele>803.32</ele><time>2009-05-23T10:46:48Z</time></trkpt><trkpt lat="47.576965" lon="10.202135"><ele>803.32</ele><time>2009-05-23T10:46:49Z</time></trkpt><trkpt lat="47.576798" lon="10.202146"><ele>802.84</ele><time>2009-05-23T10:46:50Z</time></trkpt><trkpt lat="47.576630" lon="10.202143"><ele>801.88</ele><time>2009-05-23T10:46:51Z</time></trkpt><trkpt lat="47.576489" lon="10.202069"><ele>801.88</ele><time>2009-05-23T10:46:52Z</time></trkpt><trkpt lat="47.576373" lon="10.201876"><ele>801.40</ele><time>2009-05-23T10:46:53Z</time></trkpt><trkpt lat="47.576302" lon="10.201672"><ele>799.95</ele><time>2009-05-23T10:46:54Z</time></trkpt><trkpt lat="47.576265" lon="10.201410"><ele>798.51</ele><time>2009-05-23T10:46:55Z</time></trkpt><trkpt lat="47.576257" lon="10.201126"><ele>796.11</ele><time>2009-05-23T10:46:56Z</time></trkpt><trkpt lat="47.576256" lon="10.200830"><ele>794.67</ele><time>2009-05-23T10:46:57Z</time></trkpt><trkpt lat="47.576237" lon="10.200536"><ele>793.71</ele><time>2009-05-23T10:46:58Z</time></trkpt><trkpt lat="47.576171" lon="10.200258"><ele>792.26</ele><time>2009-05-23T10:46:59Z</time></trkpt><trkpt lat="47.576069" lon="10.200024"><ele>790.34</ele><time>2009-05-23T10:47:00Z</time></trkpt><trkpt lat="47.575935" lon="10.199836"><ele>788.90</ele><time>2009-05-23T10:47:01Z</time></trkpt><trkpt lat="47.575792" lon="10.199675"><ele>786.50</ele><time>2009-05-23T10:47:02Z</time></trkpt><trkpt lat="47.575651" lon="10.199491"><ele>785.05</ele><time>2009-05-23T10:47:03Z</time></trkpt><trkpt lat="47.575259" lon="10.199127"><ele>780.73</ele><time>2009-05-23T10:47:06Z</time></trkpt><trkpt lat="47.575088" lon="10.199119"><ele>779.29</ele><time>2009-05-23T10:47:07Z</time></trkpt><trkpt lat="47.574842" lon="10.199264"><ele>777.84</ele><time>2009-05-23T10:47:08Z</time></trkpt><trkpt lat="47.574648" lon="10.199321"><ele>776.88</ele><time>2009-05-23T10:47:09Z</time></trkpt><trkpt lat="47.574461" lon="10.199343"><ele>775.92</ele><time>2009-05-23T10:47:10Z</time></trkpt><trkpt lat="47.574273" lon="10.199331"><ele>774.96</ele><time>2009-05-23T10:47:11Z</time></trkpt><trkpt lat="47.574091" lon="10.199286"><ele>773.52</ele><time>2009-05-23T10:47:12Z</time></trkpt><trkpt lat="47.573916" lon="10.199225"><ele>772.56</ele><time>2009-05-23T10:47:13Z</time></trkpt><trkpt lat="47.573749" lon="10.199192"><ele>771.11</ele><time>2009-05-23T10:47:14Z</time></trkpt><trkpt lat="47.573591" lon="10.199194"><ele>770.15</ele><time>2009-05-23T10:47:15Z</time></trkpt><trkpt lat="47.573431" lon="10.199303"><ele>769.67</ele><time>2009-05-23T10:47:16Z</time></trkpt><trkpt lat="47.573274" lon="10.199434"><ele>769.19</ele><time>2009-05-23T10:47:17Z</time></trkpt><trkpt lat="47.573162" lon="10.199539"><ele>768.71</ele><time>2009-05-23T10:47:18Z</time></trkpt><trkpt lat="47.573047" lon="10.199701"><ele>767.75</ele><time>2009-05-23T10:47:19Z</time></trkpt><trkpt lat="47.572927" lon="10.199840"><ele>766.31</ele><time>2009-05-23T10:47:20Z</time></trkpt><trkpt lat="47.572793" lon="10.199975"><ele>764.87</ele><time>2009-05-23T10:47:21Z</time></trkpt><trkpt lat="47.572654" lon="10.200088"><ele>763.42</ele><time>2009-05-23T10:47:22Z</time></trkpt><trkpt lat="47.572504" lon="10.200183"><ele>761.98</ele><time>2009-05-23T10:47:23Z</time></trkpt><trkpt lat="47.572346" lon="10.200263"><ele>760.54</ele><time>2009-05-23T10:47:24Z</time></trkpt><trkpt lat="47.572183" lon="10.200328"><ele>758.14</ele><time>2009-05-23T10:47:25Z</time></trkpt><trkpt lat="47.569847" lon="10.201222"><ele>744.68</ele><time>2009-05-23T10:47:38Z</time></trkpt><trkpt lat="47.567818" lon="10.201986"><ele>739.39</ele><time>2009-05-23T10:47:47Z</time></trkpt><trkpt lat="47.567627" lon="10.202157"><ele>739.39</ele><time>2009-05-23T10:47:48Z</time></trkpt><trkpt lat="47.567449" lon="10.202360"><ele>738.91</ele><time>2009-05-23T10:47:49Z</time></trkpt><trkpt lat="47.567290" lon="10.202572"><ele>738.43</ele><time>2009-05-23T10:47:50Z</time></trkpt><trkpt lat="47.567142" lon="10.202805"><ele>737.95</ele><time>2009-05-23T10:47:51Z</time></trkpt><trkpt lat="47.567010" lon="10.203070"><ele>736.99</ele><time>2009-05-23T10:47:52Z</time></trkpt><trkpt lat="47.566894" lon="10.203365"><ele>735.55</ele><time>2009-05-23T10:47:53Z</time></trkpt><trkpt lat="47.566786" lon="10.203663"><ele>735.07</ele><time>2009-05-23T10:47:54Z</time></trkpt><trkpt lat="47.565260" lon="10.207557"><ele>733.14</ele><time>2009-05-23T10:48:08Z</time></trkpt><trkpt lat="47.564659" lon="10.208569"><ele>732.18</ele><time>2009-05-23T10:48:14Z</time></trkpt><trkpt lat="47.563796" lon="10.209610"><ele>732.66</ele><time>2009-05-23T10:48:24Z</time></trkpt><trkpt lat="47.562539" lon="10.210812"><ele>731.70</ele><time>2009-05-23T10:48:37Z</time></trkpt><trkpt lat="47.562256" lon="10.210974"><ele>729.78</ele><time>2009-05-23T10:48:40Z</time></trkpt><trkpt lat="47.562165" lon="10.211000"><ele>730.26</ele><time>2009-05-23T10:48:41Z</time></trkpt><trkpt lat="47.561234" lon="10.211344"><ele>730.74</ele><time>2009-05-23T10:48:52Z</time></trkpt><trkpt lat="47.560376" lon="10.211642"><ele>732.66</ele><time>2009-05-23T10:49:01Z</time></trkpt><trkpt lat="47.560079" lon="10.211765"><ele>732.66</ele><time>2009-05-23T10:49:09Z</time></trkpt><trkpt lat="47.560008" lon="10.211701"><ele>739.87</ele><time>2009-05-23T10:49:14Z</time></trkpt><trkpt lat="47.559957" lon="10.211662"><ele>739.87</ele><time>2009-05-23T10:49:15Z</time></trkpt><trkpt lat="47.559898" lon="10.211627"><ele>740.35</ele><time>2009-05-23T10:49:16Z</time></trkpt><trkpt lat="47.559844" lon="10.211629"><ele>739.39</ele><time>2009-05-23T10:49:17Z</time></trkpt><trkpt lat="47.559814" lon="10.211672"><ele>739.39</ele><time>2009-05-23T10:49:18Z</time></trkpt><trkpt lat="47.559787" lon="10.211729"><ele>738.91</ele><time>2009-05-23T10:49:19Z</time></trkpt><trkpt lat="47.559776" lon="10.211797"><ele>738.43</ele><time>2009-05-23T10:49:20Z</time></trkpt><trkpt lat="47.559763" lon="10.211886"><ele>737.95</ele><time>2009-05-23T10:49:21Z</time></trkpt><trkpt lat="47.559613" lon="10.212932"><ele>739.87</ele><time>2009-05-23T10:49:29Z</time></trkpt><trkpt lat="47.559394" lon="10.214513"><ele>742.76</ele><time>2009-05-23T10:49:43Z</time></trkpt><trkpt lat="47.559325" lon="10.214758"><ele>742.28</ele><time>2009-05-23T10:49:45Z</time></trkpt><trkpt lat="47.559275" lon="10.214873"><ele>742.28</ele><time>2009-05-23T10:49:46Z</time></trkpt><trkpt lat="47.559210" lon="10.214980"><ele>741.31</ele><time>2009-05-23T10:49:47Z</time></trkpt><trkpt lat="47.559142" lon="10.215076"><ele>740.35</ele><time>2009-05-23T10:49:48Z</time></trkpt><trkpt lat="47.559081" lon="10.215175"><ele>739.87</ele><time>2009-05-23T10:49:49Z</time></trkpt><trkpt lat="47.559031" lon="10.215281"><ele>739.39</ele><time>2009-05-23T10:49:50Z</time></trkpt><trkpt lat="47.558992" lon="10.215395"><ele>738.91</ele><time>2009-05-23T10:49:51Z</time></trkpt><trkpt lat="47.558962" lon="10.215518"><ele>738.43</ele><time>2009-05-23T10:49:52Z</time></trkpt><trkpt lat="47.558935" lon="10.215655"><ele>737.95</ele><time>2009-05-23T10:49:53Z</time></trkpt><trkpt lat="47.558644" lon="10.217648"><ele>737.47</ele><time>2009-05-23T10:50:07Z</time></trkpt><trkpt lat="47.558370" lon="10.219535"><ele>735.07</ele><time>2009-05-23T10:50:22Z</time></trkpt><trkpt lat="47.558379" lon="10.220659"><ele>732.66</ele><time>2009-05-23T10:50:32Z</time></trkpt><trkpt lat="47.558397" lon="10.221074"><ele>731.22</ele><time>2009-05-23T10:50:39Z</time></trkpt><trkpt lat="47.558402" lon="10.221082"><ele>732.66</ele><time>2009-05-23T10:50:40Z</time></trkpt><trkpt lat="47.558408" lon="10.221100"><ele>733.14</ele><time>2009-05-23T10:50:41Z</time></trkpt><trkpt lat="47.558418" lon="10.221126"><ele>733.62</ele><time>2009-05-23T10:50:42Z</time></trkpt><trkpt lat="47.558433" lon="10.221162"><ele>732.66</ele><time>2009-05-23T10:50:43Z</time></trkpt><trkpt lat="47.558444" lon="10.221202"><ele>731.70</ele><time>2009-05-23T10:50:44Z</time></trkpt><trkpt lat="47.558452" lon="10.221245"><ele>730.74</ele><time>2009-05-23T10:50:45Z</time></trkpt><trkpt lat="47.558443" lon="10.221275"><ele>730.26</ele><time>2009-05-23T10:50:46Z</time></trkpt><trkpt lat="47.558421" lon="10.221292"><ele>729.30</ele><time>2009-05-23T10:50:47Z</time></trkpt><trkpt lat="47.558401" lon="10.221307"><ele>728.34</ele><time>2009-05-23T10:50:48Z</time></trkpt><trkpt lat="47.558367" lon="10.221367"><ele>713.92</ele><time>2009-05-23T10:51:00Z</time></trkpt><trkpt lat="47.558378" lon="10.221397"><ele>714.40</ele><time>2009-05-23T10:51:01Z</time></trkpt><trkpt lat="47.558378" lon="10.221448"><ele>714.40</ele><time>2009-05-23T10:51:02Z</time></trkpt><trkpt lat="47.558397" lon="10.221490"><ele>719.68</ele><time>2009-05-23T10:51:03Z</time></trkpt><trkpt lat="47.558398" lon="10.221529"><ele>720.65</ele><time>2009-05-23T10:51:04Z</time></trkpt><trkpt lat="47.558385" lon="10.221594"><ele>720.16</ele><time>2009-05-23T10:51:05Z</time></trkpt><trkpt lat="47.558357" lon="10.221692"><ele>720.65</ele><time>2009-05-23T10:51:06Z</time></trkpt><trkpt lat="47.558319" lon="10.221807"><ele>721.13</ele><time>2009-05-23T10:51:07Z</time></trkpt><trkpt lat="47.558269" lon="10.221942"><ele>722.57</ele><time>2009-05-23T10:51:08Z</time></trkpt><trkpt lat="47.557866" lon="10.222919"><ele>727.37</ele><time>2009-05-23T10:51:17Z</time></trkpt><trkpt lat="47.557688" lon="10.224269"><ele>726.89</ele><time>2009-05-23T10:51:28Z</time></trkpt><trkpt lat="47.557646" lon="10.224995"><ele>724.97</ele><time>2009-05-23T10:51:34Z</time></trkpt><trkpt lat="47.557623" lon="10.225108"><ele>724.97</ele><time>2009-05-23T10:51:35Z</time></trkpt><trkpt lat="47.557237" lon="10.226431"><ele>723.05</ele><time>2009-05-23T10:51:46Z</time></trkpt><trkpt lat="47.556615" lon="10.228353"><ele>723.53</ele><time>2009-05-23T10:52:00Z</time></trkpt><trkpt lat="47.556198" lon="10.229203"><ele>723.53</ele><time>2009-05-23T10:52:07Z</time></trkpt><trkpt lat="47.555403" lon="10.230220"><ele>724.01</ele><time>2009-05-23T10:52:19Z</time></trkpt><trkpt lat="47.555067" lon="10.230689"><ele>725.93</ele><time>2009-05-23T10:52:28Z</time></trkpt><trkpt lat="47.554914" lon="10.230919"><ele>723.53</ele><time>2009-05-23T10:52:44Z</time></trkpt><trkpt lat="47.554778" lon="10.231197"><ele>723.53</ele><time>2009-05-23T10:52:53Z</time></trkpt><trkpt lat="47.554567" lon="10.231498"><ele>722.57</ele><time>2009-05-23T10:53:03Z</time></trkpt><trkpt lat="47.554474" lon="10.231560"><ele>722.09</ele><time>2009-05-23T10:53:05Z</time></trkpt><trkpt lat="47.554442" lon="10.231609"><ele>722.09</ele><time>2009-05-23T10:53:06Z</time></trkpt><trkpt lat="47.554430" lon="10.231668"><ele>722.09</ele><time>2009-05-23T10:53:07Z</time></trkpt><trkpt lat="47.554437" lon="10.231728"><ele>722.57</ele><time>2009-05-23T10:53:08Z</time></trkpt><trkpt lat="47.554459" lon="10.231780"><ele>722.57</ele><time>2009-05-23T10:53:09Z</time></trkpt><trkpt lat="47.554495" lon="10.231827"><ele>722.57</ele><time>2009-05-23T10:53:10Z</time></trkpt><trkpt lat="47.554546" lon="10.231875"><ele>723.05</ele><time>2009-05-23T10:53:11Z</time></trkpt><trkpt lat="47.554606" lon="10.231942"><ele>723.05</ele><time>2009-05-23T10:53:12Z</time></trkpt><trkpt lat="47.554671" lon="10.232035"><ele>723.05</ele><time>2009-05-23T10:53:13Z</time></trkpt><trkpt lat="47.554733" lon="10.232146"><ele>723.53</ele><time>2009-05-23T10:53:14Z</time></trkpt><trkpt lat="47.555411" lon="10.233489"><ele>724.97</ele><time>2009-05-23T10:53:24Z</time></trkpt><trkpt lat="47.555947" lon="10.235133"><ele>723.53</ele><time>2009-05-23T10:53:33Z</time></trkpt><trkpt lat="47.556074" lon="10.235774"><ele>723.05</ele><time>2009-05-23T10:53:37Z</time></trkpt><trkpt lat="47.556126" lon="10.235875"><ele>723.53</ele><time>2009-05-23T10:53:38Z</time></trkpt><trkpt lat="47.556187" lon="10.235959"><ele>723.53</ele><time>2009-05-23T10:53:39Z</time></trkpt><trkpt lat="47.556250" lon="10.236046"><ele>723.53</ele><time>2009-05-23T10:53:40Z</time></trkpt><trkpt lat="47.556308" lon="10.236149"><ele>723.53</ele><time>2009-05-23T10:53:41Z</time></trkpt><trkpt lat="47.556357" lon="10.236270"><ele>723.53</ele><time>2009-05-23T10:53:42Z</time></trkpt><trkpt lat="47.556403" lon="10.236405"><ele>723.53</ele><time>2009-05-23T10:53:43Z</time></trkpt><trkpt lat="47.557049" lon="10.238540"><ele>724.01</ele><time>2009-05-23T10:53:58Z</time></trkpt><trkpt lat="47.557521" lon="10.240129"><ele>723.05</ele><time>2009-05-23T10:54:11Z</time></trkpt><trkpt lat="47.557707" lon="10.240794"><ele>723.53</ele><time>2009-05-23T10:54:17Z</time></trkpt><trkpt lat="47.557750" lon="10.240895"><ele>724.01</ele><time>2009-05-23T10:54:18Z</time></trkpt><trkpt lat="47.557799" lon="10.240991"><ele>724.01</ele><time>2009-05-23T10:54:19Z</time></trkpt><trkpt lat="47.557855" lon="10.241081"><ele>724.49</ele><time>2009-05-23T10:54:20Z</time></trkpt><trkpt lat="47.557917" lon="10.241168"><ele>724.97</ele><time>2009-05-23T10:54:21Z</time></trkpt><trkpt lat="47.558031" lon="10.241356"><ele>725.93</ele><time>2009-05-23T10:54:23Z</time></trkpt><trkpt lat="47.558070" lon="10.241463"><ele>726.41</ele><time>2009-05-23T10:54:24Z</time></trkpt><trkpt lat="47.558098" lon="10.241571"><ele>726.89</ele><time>2009-05-23T10:54:25Z</time></trkpt><trkpt lat="47.558119" lon="10.241681"><ele>726.89</ele><time>2009-05-23T10:54:26Z</time></trkpt><trkpt lat="47.558139" lon="10.241789"><ele>727.37</ele><time>2009-05-23T10:54:27Z</time></trkpt><trkpt lat="47.558222" lon="10.242222"><ele>727.37</ele><time>2009-05-23T10:54:31Z</time></trkpt><trkpt lat="47.558255" lon="10.242329"><ele>727.37</ele><time>2009-05-23T10:54:32Z</time></trkpt><trkpt lat="47.558294" lon="10.242433"><ele>727.37</ele><time>2009-05-23T10:54:33Z</time></trkpt><trkpt lat="47.558337" lon="10.242529"><ele>727.86</ele><time>2009-05-23T10:54:34Z</time></trkpt><trkpt lat="47.558377" lon="10.242624"><ele>727.37</ele><time>2009-05-23T10:54:35Z</time></trkpt><trkpt lat="47.559025" lon="10.244050"><ele>730.74</ele><time>2009-05-23T10:54:50Z</time></trkpt><trkpt lat="47.559273" lon="10.244780"><ele>733.14</ele><time>2009-05-23T10:54:57Z</time></trkpt><trkpt lat="47.559291" lon="10.244921"><ele>734.10</ele><time>2009-05-23T10:54:58Z</time></trkpt><trkpt lat="47.559299" lon="10.245069"><ele>734.10</ele><time>2009-05-23T10:54:59Z</time></trkpt><trkpt lat="47.559308" lon="10.245222"><ele>734.58</ele><time>2009-05-23T10:55:00Z</time></trkpt><trkpt lat="47.559330" lon="10.245374"><ele>734.58</ele><time>2009-05-23T10:55:01Z</time></trkpt><trkpt lat="47.559367" lon="10.245520"><ele>734.58</ele><time>2009-05-23T10:55:02Z</time></trkpt><trkpt lat="47.559419" lon="10.245657"><ele>734.58</ele><time>2009-05-23T10:55:03Z</time></trkpt><trkpt lat="47.559478" lon="10.245785"><ele>734.58</ele><time>2009-05-23T10:55:04Z</time></trkpt><trkpt lat="47.559645" lon="10.246170"><ele>734.58</ele><time>2009-05-23T10:55:07Z</time></trkpt><trkpt lat="47.559676" lon="10.246305"><ele>734.58</ele><time>2009-05-23T10:55:08Z</time></trkpt><trkpt lat="47.559678" lon="10.246439"><ele>734.10</ele><time>2009-05-23T10:55:09Z</time></trkpt><trkpt lat="47.559650" lon="10.246566"><ele>734.10</ele><time>2009-05-23T10:55:10Z</time></trkpt><trkpt lat="47.559595" lon="10.246678"><ele>733.62</ele><time>2009-05-23T10:55:11Z</time></trkpt><trkpt lat="47.559493" lon="10.246743"><ele>733.14</ele><time>2009-05-23T10:55:12Z</time></trkpt><trkpt lat="47.559386" lon="10.246797"><ele>732.66</ele><time>2009-05-23T10:55:13Z</time></trkpt><trkpt lat="47.559273" lon="10.246843"><ele>731.70</ele><time>2009-05-23T10:55:14Z</time></trkpt><trkpt lat="47.559062" lon="10.246970"><ele>730.26</ele><time>2009-05-23T10:55:16Z</time></trkpt><trkpt lat="47.558980" lon="10.247074"><ele>729.78</ele><time>2009-05-23T10:55:17Z</time></trkpt><trkpt lat="47.558915" lon="10.247234"><ele>728.82</ele><time>2009-05-23T10:55:18Z</time></trkpt><trkpt lat="47.558878" lon="10.247417"><ele>728.34</ele><time>2009-05-23T10:55:19Z</time></trkpt><trkpt lat="47.558845" lon="10.247596"><ele>727.86</ele><time>2009-05-23T10:55:20Z</time></trkpt><trkpt lat="47.558812" lon="10.247776"><ele>727.37</ele><time>2009-05-23T10:55:21Z</time></trkpt><trkpt lat="47.558492" lon="10.250104"><ele>724.49</ele><time>2009-05-23T10:55:34Z</time></trkpt><trkpt lat="47.558481" lon="10.250250"><ele>724.97</ele><time>2009-05-23T10:55:35Z</time></trkpt><trkpt lat="47.558483" lon="10.250391"><ele>724.97</ele><time>2009-05-23T10:55:36Z</time></trkpt><trkpt lat="47.558506" lon="10.250527"><ele>724.97</ele><time>2009-05-23T10:55:37Z</time></trkpt><trkpt lat="47.558545" lon="10.250654"><ele>725.45</ele><time>2009-05-23T10:55:38Z</time></trkpt><trkpt lat="47.558585" lon="10.250774"><ele>725.93</ele><time>2009-05-23T10:55:39Z</time></trkpt><trkpt lat="47.558607" lon="10.250890"><ele>726.41</ele><time>2009-05-23T10:55:40Z</time></trkpt><trkpt lat="47.558610" lon="10.250996"><ele>726.41</ele><time>2009-05-23T10:55:41Z</time></trkpt><trkpt lat="47.558597" lon="10.251094"><ele>726.89</ele><time>2009-05-23T10:55:42Z</time></trkpt><trkpt lat="47.558568" lon="10.251180"><ele>726.89</ele><time>2009-05-23T10:55:43Z</time></trkpt><trkpt lat="47.558529" lon="10.251246"><ele>727.37</ele><time>2009-05-23T10:55:44Z</time></trkpt><trkpt lat="47.558492" lon="10.251292"><ele>727.37</ele><time>2009-05-23T10:55:45Z</time></trkpt><trkpt lat="47.558468" lon="10.251319"><ele>727.37</ele><time>2009-05-23T10:55:46Z</time></trkpt><trkpt lat="47.558447" lon="10.251335"><ele>728.34</ele><time>2009-05-23T10:55:55Z</time></trkpt><trkpt lat="47.558442" lon="10.251391"><ele>728.34</ele><time>2009-05-23T10:55:56Z</time></trkpt><trkpt lat="47.558447" lon="10.251498"><ele>728.34</ele><time>2009-05-23T10:55:57Z</time></trkpt><trkpt lat="47.558458" lon="10.251647"><ele>728.34</ele><time>2009-05-23T10:55:58Z</time></trkpt><trkpt lat="47.558479" lon="10.251823"><ele>727.86</ele><time>2009-05-23T10:55:59Z</time></trkpt><trkpt lat="47.558641" lon="10.253600"><ele>724.97</ele><time>2009-05-23T10:56:07Z</time></trkpt><trkpt lat="47.558809" lon="10.256134"><ele>724.01</ele><time>2009-05-23T10:56:15Z</time></trkpt><trkpt lat="47.559087" lon="10.260052"><ele>724.97</ele><time>2009-05-23T10:56:26Z</time></trkpt><trkpt lat="47.559515" lon="10.266322"><ele>726.89</ele><time>2009-05-23T10:56:43Z</time></trkpt><trkpt lat="47.559904" lon="10.273906"><ele>729.30</ele><time>2009-05-23T10:57:02Z</time></trkpt><trkpt lat="47.560066" lon="10.275968"><ele>730.26</ele><time>2009-05-23T10:57:09Z</time></trkpt><trkpt lat="47.560143" lon="10.276484"><ele>730.26</ele><time>2009-05-23T10:57:12Z</time></trkpt><trkpt lat="47.560147" lon="10.276627"><ele>730.26</ele><time>2009-05-23T10:57:13Z</time></trkpt><trkpt lat="47.560156" lon="10.276755"><ele>730.74</ele><time>2009-05-23T10:57:14Z</time></trkpt><trkpt lat="47.560187" lon="10.276862"><ele>730.74</ele><time>2009-05-23T10:57:15Z</time></trkpt><trkpt lat="47.560245" lon="10.276929"><ele>730.74</ele><time>2009-05-23T10:57:16Z</time></trkpt><trkpt lat="47.560320" lon="10.276958"><ele>730.74</ele><time>2009-05-23T10:57:17Z</time></trkpt><trkpt lat="47.560409" lon="10.276958"><ele>730.74</ele><time>2009-05-23T10:57:18Z</time></trkpt><trkpt lat="47.560505" lon="10.276961"><ele>730.74</ele><time>2009-05-23T10:57:19Z</time></trkpt><trkpt lat="47.560605" lon="10.276994"><ele>730.74</ele><time>2009-05-23T10:57:20Z</time></trkpt><trkpt lat="47.560713" lon="10.277056"><ele>730.74</ele><time>2009-05-23T10:57:21Z</time></trkpt><trkpt lat="47.560832" lon="10.277141"><ele>731.22</ele><time>2009-05-23T10:57:22Z</time></trkpt><trkpt lat="47.560960" lon="10.277242"><ele>731.22</ele><time>2009-05-23T10:57:23Z</time></trkpt><trkpt lat="47.562117" lon="10.278223"><ele>732.66</ele><time>2009-05-23T10:57:30Z</time></trkpt><trkpt lat="47.564144" lon="10.280072"><ele>736.51</ele><time>2009-05-23T10:57:40Z</time></trkpt><trkpt lat="47.565936" lon="10.282135"><ele>739.87</ele><time>2009-05-23T10:57:50Z</time></trkpt><trkpt lat="47.566853" lon="10.284159"><ele>743.24</ele><time>2009-05-23T10:57:57Z</time></trkpt><trkpt lat="47.567098" lon="10.284738"><ele>745.16</ele><time>2009-05-23T10:57:59Z</time></trkpt><trkpt lat="47.567248" lon="10.285003"><ele>746.12</ele><time>2009-05-23T10:58:00Z</time></trkpt><trkpt lat="47.567420" lon="10.285247"><ele>747.56</ele><time>2009-05-23T10:58:01Z</time></trkpt><trkpt lat="47.567609" lon="10.285469"><ele>748.52</ele><time>2009-05-23T10:58:02Z</time></trkpt><trkpt lat="47.567814" lon="10.285659"><ele>749.97</ele><time>2009-05-23T10:58:03Z</time></trkpt><trkpt lat="47.568032" lon="10.285816"><ele>751.89</ele><time>2009-05-23T10:58:04Z</time></trkpt><trkpt lat="47.568258" lon="10.285936"><ele>753.33</ele><time>2009-05-23T10:58:05Z</time></trkpt><trkpt lat="47.568489" lon="10.286023"><ele>754.77</ele><time>2009-05-23T10:58:06Z</time></trkpt><trkpt lat="47.568725" lon="10.286079"><ele>756.69</ele><time>2009-05-23T10:58:07Z</time></trkpt><trkpt lat="47.568967" lon="10.286103"><ele>758.14</ele><time>2009-05-23T10:58:08Z</time></trkpt><trkpt lat="47.569209" lon="10.286107"><ele>760.06</ele><time>2009-05-23T10:58:09Z</time></trkpt><trkpt lat="47.571081" lon="10.286125"><ele>773.52</ele><time>2009-05-23T10:58:17Z</time></trkpt><trkpt lat="47.571294" lon="10.286198"><ele>774.96</ele><time>2009-05-23T10:58:18Z</time></trkpt><trkpt lat="47.571500" lon="10.286314"><ele>776.88</ele><time>2009-05-23T10:58:19Z</time></trkpt><trkpt lat="47.571692" lon="10.286470"><ele>778.32</ele><time>2009-05-23T10:58:20Z</time></trkpt><trkpt lat="47.571860" lon="10.286659"><ele>780.25</ele><time>2009-05-23T10:58:21Z</time></trkpt><trkpt lat="47.572001" lon="10.286861"><ele>781.69</ele><time>2009-05-23T10:58:22Z</time></trkpt><trkpt lat="47.572117" lon="10.287067"><ele>783.13</ele><time>2009-05-23T10:58:23Z</time></trkpt><trkpt lat="47.572206" lon="10.287273"><ele>784.57</ele><time>2009-05-23T10:58:24Z</time></trkpt><trkpt lat="47.572267" lon="10.287474"><ele>786.02</ele><time>2009-05-23T10:58:25Z</time></trkpt><trkpt lat="47.572272" lon="10.287660"><ele>786.98</ele><time>2009-05-23T10:58:26Z</time></trkpt><trkpt lat="47.572258" lon="10.287846"><ele>788.42</ele><time>2009-05-23T10:58:27Z</time></trkpt><trkpt lat="47.572231" lon="10.288015"><ele>789.38</ele><time>2009-05-23T10:58:28Z</time></trkpt><trkpt lat="47.572191" lon="10.288178"><ele>790.82</ele><time>2009-05-23T10:58:29Z</time></trkpt><trkpt lat="47.572149" lon="10.288337"><ele>791.78</ele><time>2009-05-23T10:58:30Z</time></trkpt><trkpt lat="47.572114" lon="10.288499"><ele>793.22</ele><time>2009-05-23T10:58:31Z</time></trkpt><trkpt lat="47.572100" lon="10.288666"><ele>794.19</ele><time>2009-05-23T10:58:32Z</time></trkpt><trkpt lat="47.572111" lon="10.288831"><ele>795.15</ele><time>2009-05-23T10:58:33Z</time></trkpt><trkpt lat="47.572154" lon="10.288981"><ele>796.11</ele><time>2009-05-23T10:58:34Z</time></trkpt><trkpt lat="47.572218" lon="10.289108"><ele>797.07</ele><time>2009-05-23T10:58:35Z</time></trkpt><trkpt lat="47.572311" lon="10.289204"><ele>798.03</ele><time>2009-05-23T10:58:36Z</time></trkpt><trkpt lat="47.572426" lon="10.289255"><ele>798.99</ele><time>2009-05-23T10:58:37Z</time></trkpt><trkpt lat="47.572547" lon="10.289272"><ele>799.95</ele><time>2009-05-23T10:58:38Z</time></trkpt><trkpt lat="47.572667" lon="10.289263"><ele>800.92</ele><time>2009-05-23T10:58:39Z</time></trkpt><trkpt lat="47.572789" lon="10.289245"><ele>801.88</ele><time>2009-05-23T10:58:40Z</time></trkpt><trkpt lat="47.573542" lon="10.289105"><ele>808.13</ele><time>2009-05-23T10:58:47Z</time></trkpt><trkpt lat="47.573614" lon="10.289138"><ele>808.61</ele><time>2009-05-23T10:58:48Z</time></trkpt><trkpt lat="47.573671" lon="10.289197"><ele>809.09</ele><time>2009-05-23T10:58:49Z</time></trkpt><trkpt lat="47.573714" lon="10.289278"><ele>810.05</ele><time>2009-05-23T10:58:50Z</time></trkpt><trkpt lat="47.573754" lon="10.289379"><ele>809.57</ele><time>2009-05-23T10:58:51Z</time></trkpt><trkpt lat="47.573794" lon="10.289496"><ele>809.57</ele><time>2009-05-23T10:58:52Z</time></trkpt><trkpt lat="47.574194" lon="10.290396"><ele>810.05</ele><time>2009-05-23T10:59:00Z</time></trkpt><trkpt lat="47.574254" lon="10.290450"><ele>810.53</ele><time>2009-05-23T10:59:01Z</time></trkpt><trkpt lat="47.574324" lon="10.290476"><ele>810.53</ele><time>2009-05-23T10:59:02Z</time></trkpt><trkpt lat="47.574415" lon="10.290468"><ele>810.53</ele><time>2009-05-23T10:59:03Z</time></trkpt><trkpt lat="47.574508" lon="10.290489"><ele>810.53</ele><time>2009-05-23T10:59:04Z</time></trkpt><trkpt lat="47.574699" lon="10.290542"><ele>811.01</ele><time>2009-05-23T10:59:06Z</time></trkpt><trkpt lat="47.574787" lon="10.290591"><ele>811.49</ele><time>2009-05-23T10:59:07Z</time></trkpt><trkpt lat="47.574867" lon="10.290659"><ele>811.49</ele><time>2009-05-23T10:59:08Z</time></trkpt><trkpt lat="47.575301" lon="10.291094"><ele>813.89</ele><time>2009-05-23T10:59:14Z</time></trkpt><trkpt lat="47.575357" lon="10.291183"><ele>813.89</ele><time>2009-05-23T10:59:15Z</time></trkpt><trkpt lat="47.575399" lon="10.291287"><ele>814.37</ele><time>2009-05-23T10:59:16Z</time></trkpt><trkpt lat="47.575428" lon="10.291412"><ele>813.41</ele><time>2009-05-23T10:59:17Z</time></trkpt><trkpt lat="47.575440" lon="10.291524"><ele>813.89</ele><time>2009-05-23T10:59:18Z</time></trkpt><trkpt lat="47.575387" lon="10.291640"><ele>813.41</ele><time>2009-05-23T10:59:19Z</time></trkpt><trkpt lat="47.575348" lon="10.291767"><ele>813.41</ele><time>2009-05-23T10:59:20Z</time></trkpt><trkpt lat="47.575302" lon="10.291904"><ele>813.89</ele><time>2009-05-23T10:59:21Z</time></trkpt><trkpt lat="47.575100" lon="10.292414"><ele>813.89</ele><time>2009-05-23T10:59:25Z</time></trkpt><trkpt lat="47.575034" lon="10.292531"><ele>813.89</ele><time>2009-05-23T10:59:26Z</time></trkpt><trkpt lat="47.574916" lon="10.292775"><ele>814.85</ele><time>2009-05-23T10:59:28Z</time></trkpt><trkpt lat="47.574871" lon="10.292922"><ele>815.34</ele><time>2009-05-23T10:59:29Z</time></trkpt><trkpt lat="47.574838" lon="10.293078"><ele>815.82</ele><time>2009-05-23T10:59:30Z</time></trkpt><trkpt lat="47.574814" lon="10.293239"><ele>815.82</ele><time>2009-05-23T10:59:31Z</time></trkpt><trkpt lat="47.574796" lon="10.293401"><ele>815.82</ele><time>2009-05-23T10:59:32Z</time></trkpt><trkpt lat="47.574782" lon="10.293563"><ele>815.82</ele><time>2009-05-23T10:59:33Z</time></trkpt><trkpt lat="47.574741" lon="10.294475"><ele>814.37</ele><time>2009-05-23T10:59:38Z</time></trkpt><trkpt lat="47.574763" lon="10.294671"><ele>814.85</ele><time>2009-05-23T10:59:39Z</time></trkpt><trkpt lat="47.574800" lon="10.294865"><ele>815.34</ele><time>2009-05-23T10:59:40Z</time></trkpt><trkpt lat="47.574851" lon="10.295054"><ele>815.82</ele><time>2009-05-23T10:59:41Z</time></trkpt><trkpt lat="47.574914" lon="10.295238"><ele>816.30</ele><time>2009-05-23T10:59:42Z</time></trkpt><trkpt lat="47.574987" lon="10.295418"><ele>817.74</ele><time>2009-05-23T10:59:43Z</time></trkpt><trkpt lat="47.575411" lon="10.296794"><ele>823.51</ele><time>2009-05-23T10:59:50Z</time></trkpt><trkpt lat="47.575541" lon="10.297983"><ele>824.95</ele><time>2009-05-23T10:59:55Z</time></trkpt><trkpt lat="47.575603" lon="10.298225"><ele>824.95</ele><time>2009-05-23T10:59:56Z</time></trkpt><trkpt lat="47.575686" lon="10.298461"><ele>824.95</ele><time>2009-05-23T10:59:57Z</time></trkpt><trkpt lat="47.575784" lon="10.298691"><ele>824.47</ele><time>2009-05-23T10:59:58Z</time></trkpt><trkpt lat="47.575896" lon="10.298909"><ele>823.99</ele><time>2009-05-23T10:59:59Z</time></trkpt><trkpt lat="47.576015" lon="10.299116"><ele>823.51</ele><time>2009-05-23T11:00:00Z</time></trkpt><trkpt lat="47.576792" lon="10.300798"><ele>820.62</ele><time>2009-05-23T11:00:07Z</time></trkpt><trkpt lat="47.576997" lon="10.301319"><ele>821.10</ele><time>2009-05-23T11:00:09Z</time></trkpt><trkpt lat="47.577122" lon="10.301566"><ele>821.58</ele><time>2009-05-23T11:00:10Z</time></trkpt><trkpt lat="47.577272" lon="10.301802"><ele>822.55</ele><time>2009-05-23T11:00:11Z</time></trkpt><trkpt lat="47.577448" lon="10.302027"><ele>823.99</ele><time>2009-05-23T11:00:12Z</time></trkpt><trkpt lat="47.577639" lon="10.302250"><ele>824.95</ele><time>2009-05-23T11:00:13Z</time></trkpt><trkpt lat="47.579261" lon="10.304519"><ele>839.37</ele><time>2009-05-23T11:00:22Z</time></trkpt><trkpt lat="47.580077" lon="10.307126"><ele>848.50</ele><time>2009-05-23T11:00:30Z</time></trkpt><trkpt lat="47.581013" lon="10.309466"><ele>848.50</ele><time>2009-05-23T11:00:38Z</time></trkpt><trkpt lat="47.581498" lon="10.310585"><ele>846.10</ele><time>2009-05-23T11:00:42Z</time></trkpt><trkpt lat="47.581577" lon="10.310907"><ele>845.14</ele><time>2009-05-23T11:00:43Z</time></trkpt><trkpt lat="47.581634" lon="10.311242"><ele>844.66</ele><time>2009-05-23T11:00:44Z</time></trkpt><trkpt lat="47.581669" lon="10.311587"><ele>844.18</ele><time>2009-05-23T11:00:45Z</time></trkpt><trkpt lat="47.581685" lon="10.311936"><ele>844.18</ele><time>2009-05-23T11:00:46Z</time></trkpt><trkpt lat="47.581692" lon="10.312284"><ele>845.14</ele><time>2009-05-23T11:00:47Z</time></trkpt><trkpt lat="47.581978" lon="10.314552"><ele>853.31</ele><time>2009-05-23T11:00:54Z</time></trkpt><trkpt lat="47.582852" lon="10.316945"><ele>852.35</ele><time>2009-05-23T11:01:02Z</time></trkpt><trkpt lat="47.583500" lon="10.318722"><ele>852.35</ele><time>2009-05-23T11:01:09Z</time></trkpt><trkpt lat="47.584081" lon="10.320781"><ele>853.79</ele><time>2009-05-23T11:01:19Z</time></trkpt><trkpt lat="47.584850" lon="10.321988"><ele>856.19</ele><time>2009-05-23T11:01:27Z</time></trkpt><trkpt lat="47.584922" lon="10.322158"><ele>856.19</ele><time>2009-05-23T11:01:28Z</time></trkpt><trkpt lat="47.584981" lon="10.322336"><ele>856.67</ele><time>2009-05-23T11:01:29Z</time></trkpt><trkpt lat="47.585029" lon="10.322521"><ele>857.15</ele><time>2009-05-23T11:01:30Z</time></trkpt><trkpt lat="47.585069" lon="10.322710"><ele>857.63</ele><time>2009-05-23T11:01:31Z</time></trkpt><trkpt lat="47.585104" lon="10.322900"><ele>858.11</ele><time>2009-05-23T11:01:32Z</time></trkpt><trkpt lat="47.585243" lon="10.324412"><ele>865.32</ele><time>2009-05-23T11:01:41Z</time></trkpt><trkpt lat="47.585207" lon="10.324527"><ele>866.77</ele><time>2009-05-23T11:01:42Z</time></trkpt><trkpt lat="47.585149" lon="10.324630"><ele>867.73</ele><time>2009-05-23T11:01:43Z</time></trkpt><trkpt lat="47.585139" lon="10.324747"><ele>869.65</ele><time>2009-05-23T11:01:44Z</time></trkpt><trkpt lat="47.585106" lon="10.324899"><ele>870.13</ele><time>2009-05-23T11:01:45Z</time></trkpt><trkpt lat="47.585111" lon="10.325048"><ele>870.61</ele><time>2009-05-23T11:01:46Z</time></trkpt><trkpt lat="47.585150" lon="10.325185"><ele>871.09</ele><time>2009-05-23T11:01:47Z</time></trkpt><trkpt lat="47.585229" lon="10.325301"><ele>872.53</ele><time>2009-05-23T11:01:48Z</time></trkpt><trkpt lat="47.585344" lon="10.325355"><ele>873.98</ele><time>2009-05-23T11:01:49Z</time></trkpt><trkpt lat="47.585470" lon="10.325394"><ele>875.42</ele><time>2009-05-23T11:01:50Z</time></trkpt><trkpt lat="47.585584" lon="10.325472"><ele>876.38</ele><time>2009-05-23T11:01:51Z</time></trkpt><trkpt lat="47.585691" lon="10.325596"><ele>877.34</ele><time>2009-05-23T11:01:52Z</time></trkpt><trkpt lat="47.585807" lon="10.325734"><ele>877.82</ele><time>2009-05-23T11:01:53Z</time></trkpt><trkpt lat="47.586575" lon="10.326708"><ele>885.03</ele><time>2009-05-23T11:01:58Z</time></trkpt><trkpt lat="47.587603" lon="10.328624"><ele>897.53</ele><time>2009-05-23T11:02:05Z</time></trkpt><trkpt lat="47.588550" lon="10.331537"><ele>914.83</ele><time>2009-05-23T11:02:14Z</time></trkpt><trkpt lat="47.589581" lon="10.334736"><ele>935.02</ele><time>2009-05-23T11:02:24Z</time></trkpt><trkpt lat="47.589705" lon="10.335357"><ele>938.86</ele><time>2009-05-23T11:02:27Z</time></trkpt><trkpt lat="47.589685" lon="10.335512"><ele>939.83</ele><time>2009-05-23T11:02:28Z</time></trkpt><trkpt lat="47.589541" lon="10.335675"><ele>940.31</ele><time>2009-05-23T11:02:30Z</time></trkpt><trkpt lat="47.589438" lon="10.335678"><ele>940.31</ele><time>2009-05-23T11:02:31Z</time></trkpt><trkpt lat="47.589323" lon="10.335614"><ele>941.27</ele><time>2009-05-23T11:02:32Z</time></trkpt><trkpt lat="47.589236" lon="10.335491"><ele>941.27</ele><time>2009-05-23T11:02:33Z</time></trkpt><trkpt lat="47.589157" lon="10.335330"><ele>942.23</ele><time>2009-05-23T11:02:34Z</time></trkpt><trkpt lat="47.589071" lon="10.335128"><ele>943.19</ele><time>2009-05-23T11:02:35Z</time></trkpt><trkpt lat="47.588969" lon="10.334900"><ele>944.63</ele><time>2009-05-23T11:02:36Z</time></trkpt><trkpt lat="47.588479" lon="10.334016"><ele>950.40</ele><time>2009-05-23T11:02:42Z</time></trkpt><trkpt lat="47.588402" lon="10.334054"><ele>950.88</ele><time>2009-05-23T11:02:43Z</time></trkpt><trkpt lat="47.588351" lon="10.334185"><ele>950.88</ele><time>2009-05-23T11:02:44Z</time></trkpt><trkpt lat="47.588322" lon="10.334354"><ele>950.88</ele><time>2009-05-23T11:02:45Z</time></trkpt><trkpt lat="47.588270" lon="10.334688"><ele>951.36</ele><time>2009-05-23T11:02:46Z</time></trkpt><trkpt lat="47.588308" lon="10.334953"><ele>951.84</ele><time>2009-05-23T11:02:47Z</time></trkpt><trkpt lat="47.588384" lon="10.335199"><ele>953.28</ele><time>2009-05-23T11:02:48Z</time></trkpt><trkpt lat="47.588463" lon="10.335470"><ele>955.21</ele><time>2009-05-23T11:02:49Z</time></trkpt><trkpt lat="47.588768" lon="10.337290"><ele>965.30</ele><time>2009-05-23T11:02:57Z</time></trkpt><trkpt lat="47.588693" lon="10.337426"><ele>965.78</ele><time>2009-05-23T11:02:58Z</time></trkpt><trkpt lat="47.588597" lon="10.337545"><ele>966.26</ele><time>2009-05-23T11:02:59Z</time></trkpt><trkpt lat="47.588485" lon="10.337714"><ele>966.74</ele><time>2009-05-23T11:03:00Z</time></trkpt><trkpt lat="47.588339" lon="10.337873"><ele>966.74</ele><time>2009-05-23T11:03:01Z</time></trkpt><trkpt lat="47.588204" lon="10.338009"><ele>967.22</ele><time>2009-05-23T11:03:02Z</time></trkpt><trkpt lat="47.587653" lon="10.338709"><ele>967.22</ele><time>2009-05-23T11:03:06Z</time></trkpt><trkpt lat="47.587556" lon="10.338945"><ele>968.18</ele><time>2009-05-23T11:03:07Z</time></trkpt><trkpt lat="47.587487" lon="10.339202"><ele>967.70</ele><time>2009-05-23T11:03:08Z</time></trkpt><trkpt lat="47.587431" lon="10.339470"><ele>967.70</ele><time>2009-05-23T11:03:09Z</time></trkpt><trkpt lat="47.587395" lon="10.339768"><ele>968.18</ele><time>2009-05-23T11:03:10Z</time></trkpt><trkpt lat="47.587399" lon="10.340068"><ele>970.59</ele><time>2009-05-23T11:03:11Z</time></trkpt><trkpt lat="47.587391" lon="10.340375"><ele>972.51</ele><time>2009-05-23T11:03:12Z</time></trkpt><trkpt lat="47.587394" lon="10.340689"><ele>973.95</ele><time>2009-05-23T11:03:13Z</time></trkpt><trkpt lat="47.587467" lon="10.343769"><ele>987.41</ele><time>2009-05-23T11:03:23Z</time></trkpt><trkpt lat="47.587535" lon="10.345417"><ele>997.02</ele><time>2009-05-23T11:03:29Z</time></trkpt><trkpt lat="47.587533" lon="10.345693"><ele>998.47</ele><time>2009-05-23T11:03:30Z</time></trkpt><trkpt lat="47.587514" lon="10.345978"><ele>999.91</ele><time>2009-05-23T11:03:31Z</time></trkpt><trkpt lat="47.587334" lon="10.348093"><ele>1010.96</ele><time>2009-05-23T11:03:39Z</time></trkpt><trkpt lat="47.587322" lon="10.349469"><ele>1015.77</ele><time>2009-05-23T11:03:46Z</time></trkpt><trkpt lat="47.587414" lon="10.351376"><ele>1014.33</ele><time>2009-05-23T11:03:52Z</time></trkpt><trkpt lat="47.587832" lon="10.353398"><ele>1015.77</ele><time>2009-05-23T11:03:59Z</time></trkpt><trkpt lat="47.587919" lon="10.355126"><ele>1018.65</ele><time>2009-05-23T11:04:07Z</time></trkpt><trkpt lat="47.587680" lon="10.356514"><ele>1017.69</ele><time>2009-05-23T11:04:16Z</time></trkpt><trkpt lat="47.587327" lon="10.357830"><ele>1021.06</ele><time>2009-05-23T11:04:27Z</time></trkpt><trkpt lat="47.587236" lon="10.358132"><ele>1022.02</ele><time>2009-05-23T11:04:33Z</time></trkpt><trkpt lat="47.587198" lon="10.358233"><ele>1022.50</ele><time>2009-05-23T11:04:35Z</time></trkpt><trkpt lat="47.587024" lon="10.358735"><ele>1024.42</ele><time>2009-05-23T11:04:42Z</time></trkpt><trkpt lat="47.587012" lon="10.358808"><ele>1024.42</ele><time>2009-05-23T11:04:43Z</time></trkpt><trkpt lat="47.587020" lon="10.358878"><ele>1024.90</ele><time>2009-05-23T11:04:44Z</time></trkpt><trkpt lat="47.587048" lon="10.358939"><ele>1024.90</ele><time>2009-05-23T11:04:45Z</time></trkpt><trkpt lat="47.587098" lon="10.358986"><ele>1023.94</ele><time>2009-05-23T11:04:46Z</time></trkpt><trkpt lat="47.587167" lon="10.359020"><ele>1023.46</ele><time>2009-05-23T11:04:47Z</time></trkpt><trkpt lat="47.587256" lon="10.359043"><ele>1022.98</ele><time>2009-05-23T11:04:48Z</time></trkpt><trkpt lat="47.587364" lon="10.359063"><ele>1022.02</ele><time>2009-05-23T11:04:49Z</time></trkpt><trkpt lat="47.587739" lon="10.359131"><ele>1019.13</ele><time>2009-05-23T11:04:52Z</time></trkpt><trkpt lat="47.589521" lon="10.359131"><ele>1005.68</ele><time>2009-05-23T11:05:06Z</time></trkpt><trkpt lat="47.590892" lon="10.359186"><ele>1005.20</ele><time>2009-05-23T11:05:18Z</time></trkpt><trkpt lat="47.592126" lon="10.359331"><ele>1015.29</ele><time>2009-05-23T11:05:26Z</time></trkpt><trkpt lat="47.593855" lon="10.359557"><ele>1031.15</ele><time>2009-05-23T11:05:38Z</time></trkpt><trkpt lat="47.594888" lon="10.359863"><ele>1032.59</ele><time>2009-05-23T11:05:46Z</time></trkpt><trkpt lat="47.595001" lon="10.359946"><ele>1033.07</ele><time>2009-05-23T11:05:47Z</time></trkpt><trkpt lat="47.595102" lon="10.360050"><ele>1034.04</ele><time>2009-05-23T11:05:48Z</time></trkpt><trkpt lat="47.595191" lon="10.360175"><ele>1035.00</ele><time>2009-05-23T11:05:49Z</time></trkpt><trkpt lat="47.595269" lon="10.360313"><ele>1035.96</ele><time>2009-05-23T11:05:50Z</time></trkpt><trkpt lat="47.595335" lon="10.360465"><ele>1037.40</ele><time>2009-05-23T11:05:51Z</time></trkpt><trkpt lat="47.595389" lon="10.360630"><ele>1038.36</ele><time>2009-05-23T11:05:52Z</time></trkpt><trkpt lat="47.595428" lon="10.360806"><ele>1039.32</ele><time>2009-05-23T11:05:53Z</time></trkpt><trkpt lat="47.595454" lon="10.360988"><ele>1040.76</ele><time>2009-05-23T11:05:54Z</time></trkpt><trkpt lat="47.595475" lon="10.361169"><ele>1041.25</ele><time>2009-05-23T11:05:55Z</time></trkpt><trkpt lat="47.595801" lon="10.362532"><ele>1045.57</ele><time>2009-05-23T11:06:03Z</time></trkpt><trkpt lat="47.595879" lon="10.362678"><ele>1046.05</ele><time>2009-05-23T11:06:04Z</time></trkpt><trkpt lat="47.595964" lon="10.362820"><ele>1046.53</ele><time>2009-05-23T11:06:05Z</time></trkpt><trkpt lat="47.596944" lon="10.364002"><ele>1053.74</ele><time>2009-05-23T11:06:14Z</time></trkpt><trkpt lat="47.598583" lon="10.365134"><ele>1065.76</ele><time>2009-05-23T11:06:26Z</time></trkpt><trkpt lat="47.600022" lon="10.365712"><ele>1072.49</ele><time>2009-05-23T11:06:36Z</time></trkpt><trkpt lat="47.600427" lon="10.365722"><ele>1073.45</ele><time>2009-05-23T11:06:39Z</time></trkpt><trkpt lat="47.600560" lon="10.365684"><ele>1073.45</ele><time>2009-05-23T11:06:40Z</time></trkpt><trkpt lat="47.601351" lon="10.365439"><ele>1074.41</ele><time>2009-05-23T11:06:46Z</time></trkpt><trkpt lat="47.601478" lon="10.365435"><ele>1074.89</ele><time>2009-05-23T11:06:47Z</time></trkpt><trkpt lat="47.601598" lon="10.365443"><ele>1075.37</ele><time>2009-05-23T11:06:48Z</time></trkpt><trkpt lat="47.601708" lon="10.365460"><ele>1075.85</ele><time>2009-05-23T11:06:49Z</time></trkpt><trkpt lat="47.601810" lon="10.365485"><ele>1075.85</ele><time>2009-05-23T11:06:50Z</time></trkpt><trkpt lat="47.601903" lon="10.365516"><ele>1076.33</ele><time>2009-05-23T11:06:51Z</time></trkpt><trkpt lat="47.601993" lon="10.365554"><ele>1076.81</ele><time>2009-05-23T11:06:52Z</time></trkpt><trkpt lat="47.603125" lon="10.366244"><ele>1078.74</ele><time>2009-05-23T11:07:04Z</time></trkpt><trkpt lat="47.604411" lon="10.367123"><ele>1075.85</ele><time>2009-05-23T11:07:15Z</time></trkpt><trkpt lat="47.606359" lon="10.368394"><ele>1075.85</ele><time>2009-05-23T11:07:28Z</time></trkpt><trkpt lat="47.606480" lon="10.368482"><ele>1075.37</ele><time>2009-05-23T11:07:29Z</time></trkpt><trkpt lat="47.606585" lon="10.368588"><ele>1075.37</ele><time>2009-05-23T11:07:30Z</time></trkpt><trkpt lat="47.606674" lon="10.368714"><ele>1075.37</ele><time>2009-05-23T11:07:31Z</time></trkpt><trkpt lat="47.606751" lon="10.368859"><ele>1075.37</ele><time>2009-05-23T11:07:32Z</time></trkpt><trkpt lat="47.606820" lon="10.369017"><ele>1075.37</ele><time>2009-05-23T11:07:33Z</time></trkpt><trkpt lat="47.606884" lon="10.369181"><ele>1075.37</ele><time>2009-05-23T11:07:34Z</time></trkpt><trkpt lat="47.607817" lon="10.371085"><ele>1085.95</ele><time>2009-05-23T11:07:46Z</time></trkpt><trkpt lat="47.608241" lon="10.372347"><ele>1089.79</ele><time>2009-05-23T11:07:54Z</time></trkpt><trkpt lat="47.608870" lon="10.374855"><ele>1092.68</ele><time>2009-05-23T11:08:09Z</time></trkpt><trkpt lat="47.608984" lon="10.376701"><ele>1085.95</ele><time>2009-05-23T11:08:20Z</time></trkpt><trkpt lat="47.609026" lon="10.376867"><ele>1084.99</ele><time>2009-05-23T11:08:21Z</time></trkpt><trkpt lat="47.609079" lon="10.377027"><ele>1084.50</ele><time>2009-05-23T11:08:22Z</time></trkpt><trkpt lat="47.609564" lon="10.378196"><ele>1086.91</ele><time>2009-05-23T11:08:30Z</time></trkpt><trkpt lat="47.609641" lon="10.378322"><ele>1087.87</ele><time>2009-05-23T11:08:31Z</time></trkpt><trkpt lat="47.609729" lon="10.378436"><ele>1088.83</ele><time>2009-05-23T11:08:32Z</time></trkpt><trkpt lat="47.609824" lon="10.378539"><ele>1090.27</ele><time>2009-05-23T11:08:33Z</time></trkpt><trkpt lat="47.609927" lon="10.378634"><ele>1091.23</ele><time>2009-05-23T11:08:34Z</time></trkpt><trkpt lat="47.610894" lon="10.379766"><ele>1099.89</ele><time>2009-05-23T11:08:44Z</time></trkpt><trkpt lat="47.611248" lon="10.380361"><ele>1102.29</ele><time>2009-05-23T11:08:48Z</time></trkpt><trkpt lat="47.611360" lon="10.380487"><ele>1103.25</ele><time>2009-05-23T11:08:49Z</time></trkpt><trkpt lat="47.612415" lon="10.381818"><ele>1113.34</ele><time>2009-05-23T11:08:59Z</time></trkpt><trkpt lat="47.613032" lon="10.383240"><ele>1119.59</ele><time>2009-05-23T11:09:07Z</time></trkpt><trkpt lat="47.613506" lon="10.385348"><ele>1121.03</ele><time>2009-05-23T11:09:19Z</time></trkpt><trkpt lat="47.613941" lon="10.388033"><ele>1112.38</ele><time>2009-05-23T11:09:34Z</time></trkpt><trkpt lat="47.614161" lon="10.388845"><ele>1106.13</ele><time>2009-05-23T11:09:39Z</time></trkpt><trkpt lat="47.614231" lon="10.388987"><ele>1104.69</ele><time>2009-05-23T11:09:40Z</time></trkpt><trkpt lat="47.614301" lon="10.389100"><ele>1103.73</ele><time>2009-05-23T11:09:41Z</time></trkpt><trkpt lat="47.614364" lon="10.389140"><ele>1102.29</ele><time>2009-05-23T11:09:42Z</time></trkpt><trkpt lat="47.614411" lon="10.389171"><ele>1101.33</ele><time>2009-05-23T11:09:43Z</time></trkpt><trkpt lat="47.614443" lon="10.389193"><ele>1100.85</ele><time>2009-05-23T11:09:44Z</time></trkpt><trkpt lat="47.614463" lon="10.389211"><ele>1100.37</ele><time>2009-05-23T11:09:45Z</time></trkpt><trkpt lat="47.614472" lon="10.389216"><ele>1100.37</ele><time>2009-05-23T11:09:56Z</time></trkpt><trkpt lat="47.614472" lon="10.389234"><ele>1099.89</ele><time>2009-05-23T11:10:00Z</time></trkpt><trkpt lat="47.614472" lon="10.389252"><ele>1099.89</ele><time>2009-05-23T11:10:01Z</time></trkpt><trkpt lat="47.614467" lon="10.389272"><ele>1099.89</ele><time>2009-05-23T11:10:02Z</time></trkpt><trkpt lat="47.614473" lon="10.389231"><ele>1099.40</ele><time>2009-05-23T11:10:10Z</time></trkpt><trkpt lat="47.614464" lon="10.389217"><ele>1099.40</ele><time>2009-05-23T11:10:11Z</time></trkpt><trkpt lat="47.614444" lon="10.389198"><ele>1099.40</ele><time>2009-05-23T11:10:26Z</time></trkpt><trkpt lat="47.614456" lon="10.389218"><ele>1099.89</ele><time>2009-05-23T11:10:52Z</time></trkpt><trkpt lat="47.614461" lon="10.389219"><ele>1100.37</ele><time>2009-05-23T11:11:08Z</time></trkpt></trkseg><trkseg><trkpt lat="47.614368" lon="10.389219"><ele>1099.89</ele><time>2009-05-23T11:33:03Z</time></trkpt><trkpt lat="47.614409" lon="10.389247"><ele>1099.40</ele><time>2009-05-23T11:33:04Z</time></trkpt><trkpt lat="47.614455" lon="10.389287"><ele>1098.92</ele><time>2009-05-23T11:33:05Z</time></trkpt><trkpt lat="47.614505" lon="10.389337"><ele>1098.44</ele><time>2009-05-23T11:33:06Z</time></trkpt><trkpt lat="47.615131" lon="10.390147"><ele>1096.52</ele><time>2009-05-23T11:33:16Z</time></trkpt><trkpt lat="47.615763" lon="10.391551"><ele>1097.96</ele><time>2009-05-23T11:33:25Z</time></trkpt><trkpt lat="47.616978" lon="10.393643"><ele>1102.29</ele><time>2009-05-23T11:33:38Z</time></trkpt><trkpt lat="47.617582" lon="10.395404"><ele>1103.73</ele><time>2009-05-23T11:33:47Z</time></trkpt><trkpt lat="47.618166" lon="10.396927"><ele>1102.77</ele><time>2009-05-23T11:33:55Z</time></trkpt><trkpt lat="47.618550" lon="10.398533"><ele>1099.40</ele><time>2009-05-23T11:34:03Z</time></trkpt><trkpt lat="47.618872" lon="10.400159"><ele>1097.96</ele><time>2009-05-23T11:34:12Z</time></trkpt><trkpt lat="47.619102" lon="10.401202"><ele>1096.52</ele><time>2009-05-23T11:34:19Z</time></trkpt><trkpt lat="47.619095" lon="10.401332"><ele>1096.04</ele><time>2009-05-23T11:34:20Z</time></trkpt><trkpt lat="47.619073" lon="10.401448"><ele>1095.08</ele><time>2009-05-23T11:34:21Z</time></trkpt><trkpt lat="47.619041" lon="10.401554"><ele>1094.60</ele><time>2009-05-23T11:34:22Z</time></trkpt><trkpt lat="47.618999" lon="10.401653"><ele>1093.16</ele><time>2009-05-23T11:34:23Z</time></trkpt><trkpt lat="47.618950" lon="10.401748"><ele>1091.71</ele><time>2009-05-23T11:34:24Z</time></trkpt><trkpt lat="47.618898" lon="10.401844"><ele>1090.75</ele><time>2009-05-23T11:34:25Z</time></trkpt><trkpt lat="47.618198" lon="10.403139"><ele>1073.45</ele><time>2009-05-23T11:34:35Z</time></trkpt><trkpt lat="47.618005" lon="10.403400"><ele>1070.08</ele><time>2009-05-23T11:34:37Z</time></trkpt><trkpt lat="47.617900" lon="10.403508"><ele>1068.16</ele><time>2009-05-23T11:34:38Z</time></trkpt><trkpt lat="47.617490" lon="10.403936"><ele>1061.43</ele><time>2009-05-23T11:34:42Z</time></trkpt><trkpt lat="47.617402" lon="10.404071"><ele>1059.51</ele><time>2009-05-23T11:34:43Z</time></trkpt><trkpt lat="47.617322" lon="10.404218"><ele>1058.07</ele><time>2009-05-23T11:34:44Z</time></trkpt><trkpt lat="47.617248" lon="10.404372"><ele>1056.63</ele><time>2009-05-23T11:34:45Z</time></trkpt><trkpt lat="47.617179" lon="10.404530"><ele>1055.18</ele><time>2009-05-23T11:34:46Z</time></trkpt><trkpt lat="47.616569" lon="10.405712"><ele>1044.13</ele><time>2009-05-23T11:34:54Z</time></trkpt><trkpt lat="47.616514" lon="10.405878"><ele>1043.17</ele><time>2009-05-23T11:34:55Z</time></trkpt><trkpt lat="47.616467" lon="10.406048"><ele>1041.73</ele><time>2009-05-23T11:34:56Z</time></trkpt><trkpt lat="47.616433" lon="10.406223"><ele>1040.76</ele><time>2009-05-23T11:34:57Z</time></trkpt><trkpt lat="47.616417" lon="10.406400"><ele>1039.32</ele><time>2009-05-23T11:34:58Z</time></trkpt><trkpt lat="47.616419" lon="10.406575"><ele>1038.36</ele><time>2009-05-23T11:34:59Z</time></trkpt><trkpt lat="47.616439" lon="10.406746"><ele>1037.40</ele><time>2009-05-23T11:35:00Z</time></trkpt><trkpt lat="47.616466" lon="10.406912"><ele>1036.44</ele><time>2009-05-23T11:35:01Z</time></trkpt><trkpt lat="47.617019" lon="10.408663"><ele>1025.86</ele><time>2009-05-23T11:35:12Z</time></trkpt><trkpt lat="47.617515" lon="10.409556"><ele>1020.10</ele><time>2009-05-23T11:35:18Z</time></trkpt><trkpt lat="47.617568" lon="10.409730"><ele>1019.13</ele><time>2009-05-23T11:35:19Z</time></trkpt><trkpt lat="47.617598" lon="10.409906"><ele>1018.65</ele><time>2009-05-23T11:35:20Z</time></trkpt><trkpt lat="47.617604" lon="10.410082"><ele>1018.17</ele><time>2009-05-23T11:35:21Z</time></trkpt><trkpt lat="47.617577" lon="10.410253"><ele>1017.21</ele><time>2009-05-23T11:35:22Z</time></trkpt><trkpt lat="47.617538" lon="10.410425"><ele>1016.73</ele><time>2009-05-23T11:35:23Z</time></trkpt><trkpt lat="47.617494" lon="10.410603"><ele>1015.29</ele><time>2009-05-23T11:35:24Z</time></trkpt><trkpt lat="47.617325" lon="10.412374"><ele>1000.39</ele><time>2009-05-23T11:35:33Z</time></trkpt><trkpt lat="47.617332" lon="10.413084"><ele>993.66</ele><time>2009-05-23T11:35:37Z</time></trkpt><trkpt lat="47.617289" lon="10.413183"><ele>992.70</ele><time>2009-05-23T11:35:38Z</time></trkpt><trkpt lat="47.617223" lon="10.413262"><ele>991.26</ele><time>2009-05-23T11:35:39Z</time></trkpt><trkpt lat="47.617134" lon="10.413305"><ele>990.30</ele><time>2009-05-23T11:35:40Z</time></trkpt><trkpt lat="47.617038" lon="10.413297"><ele>989.81</ele><time>2009-05-23T11:35:41Z</time></trkpt><trkpt lat="47.616941" lon="10.413231"><ele>988.85</ele><time>2009-05-23T11:35:42Z</time></trkpt><trkpt lat="47.616858" lon="10.413131"><ele>987.41</ele><time>2009-05-23T11:35:43Z</time></trkpt><trkpt lat="47.616785" lon="10.413006"><ele>986.45</ele><time>2009-05-23T11:35:44Z</time></trkpt><trkpt lat="47.616707" lon="10.412882"><ele>985.01</ele><time>2009-05-23T11:35:45Z</time></trkpt><trkpt lat="47.616615" lon="10.412783"><ele>983.09</ele><time>2009-05-23T11:35:46Z</time></trkpt><trkpt lat="47.616519" lon="10.412712"><ele>981.64</ele><time>2009-05-23T11:35:47Z</time></trkpt><trkpt lat="47.616408" lon="10.412701"><ele>979.72</ele><time>2009-05-23T11:35:48Z</time></trkpt><trkpt lat="47.616294" lon="10.412718"><ele>977.80</ele><time>2009-05-23T11:35:49Z</time></trkpt><trkpt lat="47.616175" lon="10.412757"><ele>975.88</ele><time>2009-05-23T11:35:50Z</time></trkpt><trkpt lat="47.615279" lon="10.413001"><ele>963.38</ele><time>2009-05-23T11:35:59Z</time></trkpt><trkpt lat="47.615210" lon="10.412966"><ele>962.90</ele><time>2009-05-23T11:36:00Z</time></trkpt><trkpt lat="47.615149" lon="10.412891"><ele>962.42</ele><time>2009-05-23T11:36:01Z</time></trkpt><trkpt lat="47.615097" lon="10.412780"><ele>962.42</ele><time>2009-05-23T11:36:02Z</time></trkpt><trkpt lat="47.615048" lon="10.412646"><ele>962.42</ele><time>2009-05-23T11:36:03Z</time></trkpt><trkpt lat="47.614996" lon="10.412497"><ele>962.42</ele><time>2009-05-23T11:36:04Z</time></trkpt><trkpt lat="47.614804" lon="10.412035"><ele>962.42</ele><time>2009-05-23T11:36:07Z</time></trkpt><trkpt lat="47.614720" lon="10.411901"><ele>962.42</ele><time>2009-05-23T11:36:08Z</time></trkpt><trkpt lat="47.614625" lon="10.411782"><ele>962.90</ele><time>2009-05-23T11:36:09Z</time></trkpt><trkpt lat="47.614522" lon="10.411673"><ele>962.90</ele><time>2009-05-23T11:36:10Z</time></trkpt><trkpt lat="47.614415" lon="10.411572"><ele>962.90</ele><time>2009-05-23T11:36:11Z</time></trkpt><trkpt lat="47.613659" lon="10.410984"><ele>963.38</ele><time>2009-05-23T11:36:18Z</time></trkpt><trkpt lat="47.613540" lon="10.410948"><ele>963.38</ele><time>2009-05-23T11:36:19Z</time></trkpt><trkpt lat="47.613421" lon="10.410931"><ele>963.38</ele><time>2009-05-23T11:36:20Z</time></trkpt><trkpt lat="47.613301" lon="10.410927"><ele>963.38</ele><time>2009-05-23T11:36:21Z</time></trkpt><trkpt lat="47.613154" lon="10.410980"><ele>963.38</ele><time>2009-05-23T11:36:22Z</time></trkpt><trkpt lat="47.613001" lon="10.411048"><ele>963.38</ele><time>2009-05-23T11:36:23Z</time></trkpt><trkpt lat="47.612850" lon="10.411111"><ele>962.90</ele><time>2009-05-23T11:36:24Z</time></trkpt><trkpt lat="47.611886" lon="10.411541"><ele>959.53</ele><time>2009-05-23T11:36:31Z</time></trkpt><trkpt lat="47.611779" lon="10.411641"><ele>959.05</ele><time>2009-05-23T11:36:32Z</time></trkpt><trkpt lat="47.611680" lon="10.411753"><ele>958.09</ele><time>2009-05-23T11:36:33Z</time></trkpt><trkpt lat="47.611337" lon="10.412125"><ele>954.73</ele><time>2009-05-23T11:36:37Z</time></trkpt><trkpt lat="47.611256" lon="10.412141"><ele>953.77</ele><time>2009-05-23T11:36:38Z</time></trkpt><trkpt lat="47.611166" lon="10.412120"><ele>952.80</ele><time>2009-05-23T11:36:39Z</time></trkpt><trkpt lat="47.611075" lon="10.412065"><ele>951.84</ele><time>2009-05-23T11:36:40Z</time></trkpt><trkpt lat="47.610980" lon="10.411973"><ele>950.88</ele><time>2009-05-23T11:36:41Z</time></trkpt><trkpt lat="47.610884" lon="10.411857"><ele>949.92</ele><time>2009-05-23T11:36:42Z</time></trkpt><trkpt lat="47.610786" lon="10.411730"><ele>948.96</ele><time>2009-05-23T11:36:43Z</time></trkpt><trkpt lat="47.609484" lon="10.410303"><ele>936.46</ele><time>2009-05-23T11:36:54Z</time></trkpt><trkpt lat="47.608964" lon="10.409597"><ele>931.65</ele><time>2009-05-23T11:36:59Z</time></trkpt><trkpt lat="47.608846" lon="10.409512"><ele>931.65</ele><time>2009-05-23T11:37:00Z</time></trkpt><trkpt lat="47.607874" lon="10.408805"><ele>934.06</ele><time>2009-05-23T11:37:09Z</time></trkpt><trkpt lat="47.607771" lon="10.408760"><ele>934.54</ele><time>2009-05-23T11:37:10Z</time></trkpt><trkpt lat="47.607668" lon="10.408743"><ele>935.02</ele><time>2009-05-23T11:37:11Z</time></trkpt><trkpt lat="47.607566" lon="10.408755"><ele>935.98</ele><time>2009-05-23T11:37:12Z</time></trkpt><trkpt lat="47.607468" lon="10.408796"><ele>936.46</ele><time>2009-05-23T11:37:13Z</time></trkpt><trkpt lat="47.607376" lon="10.408858"><ele>937.42</ele><time>2009-05-23T11:37:14Z</time></trkpt><trkpt lat="47.607284" lon="10.408928"><ele>937.90</ele><time>2009-05-23T11:37:15Z</time></trkpt><trkpt lat="47.607112" lon="10.409095"><ele>938.86</ele><time>2009-05-23T11:37:17Z</time></trkpt><trkpt lat="47.607015" lon="10.409129"><ele>939.83</ele><time>2009-05-23T11:37:18Z</time></trkpt><trkpt lat="47.606911" lon="10.409145"><ele>940.31</ele><time>2009-05-23T11:37:19Z</time></trkpt><trkpt lat="47.606804" lon="10.409148"><ele>939.83</ele><time>2009-05-23T11:37:20Z</time></trkpt><trkpt lat="47.606696" lon="10.409139"><ele>939.35</ele><time>2009-05-23T11:37:21Z</time></trkpt><trkpt lat="47.606588" lon="10.409124"><ele>938.86</ele><time>2009-05-23T11:37:22Z</time></trkpt><trkpt lat="47.605027" lon="10.408946"><ele>926.37</ele><time>2009-05-23T11:37:37Z</time></trkpt><trkpt lat="47.604653" lon="10.408972"><ele>925.41</ele><time>2009-05-23T11:37:41Z</time></trkpt><trkpt lat="47.604561" lon="10.408952"><ele>924.45</ele><time>2009-05-23T11:37:42Z</time></trkpt><trkpt lat="47.604470" lon="10.408924"><ele>923.48</ele><time>2009-05-23T11:37:43Z</time></trkpt><trkpt lat="47.604156" lon="10.408820"><ele>920.12</ele><time>2009-05-23T11:37:47Z</time></trkpt><trkpt lat="47.604102" lon="10.408814"><ele>919.64</ele><time>2009-05-23T11:37:48Z</time></trkpt><trkpt lat="47.604059" lon="10.408815"><ele>919.64</ele><time>2009-05-23T11:37:49Z</time></trkpt><trkpt lat="47.604031" lon="10.408822"><ele>919.16</ele><time>2009-05-23T11:37:50Z</time></trkpt><trkpt lat="47.604002" lon="10.408865"><ele>918.68</ele><time>2009-05-23T11:37:55Z</time></trkpt><trkpt lat="47.603985" lon="10.408917"><ele>918.68</ele><time>2009-05-23T11:37:56Z</time></trkpt><trkpt lat="47.603988" lon="10.409030"><ele>918.20</ele><time>2009-05-23T11:37:57Z</time></trkpt><trkpt lat="47.604001" lon="10.409131"><ele>917.72</ele><time>2009-05-23T11:37:58Z</time></trkpt><trkpt lat="47.604019" lon="10.409213"><ele>917.24</ele><time>2009-05-23T11:37:59Z</time></trkpt><trkpt lat="47.604016" lon="10.409370"><ele>916.27</ele><time>2009-05-23T11:38:02Z</time></trkpt><trkpt lat="47.603973" lon="10.409393"><ele>915.79</ele><time>2009-05-23T11:38:03Z</time></trkpt><trkpt lat="47.603909" lon="10.409410"><ele>916.75</ele><time>2009-05-23T11:38:04Z</time></trkpt><trkpt lat="47.603827" lon="10.409409"><ele>916.27</ele><time>2009-05-23T11:38:05Z</time></trkpt><trkpt lat="47.603740" lon="10.409381"><ele>915.79</ele><time>2009-05-23T11:38:06Z</time></trkpt><trkpt lat="47.603664" lon="10.409329"><ele>915.31</ele><time>2009-05-23T11:38:07Z</time></trkpt><trkpt lat="47.603601" lon="10.409250"><ele>914.35</ele><time>2009-05-23T11:38:08Z</time></trkpt><trkpt lat="47.603545" lon="10.409166"><ele>914.35</ele><time>2009-05-23T11:38:09Z</time></trkpt><trkpt lat="47.603391" lon="10.408959"><ele>912.91</ele><time>2009-05-23T11:38:12Z</time></trkpt><trkpt lat="47.603342" lon="10.408902"><ele>911.95</ele><time>2009-05-23T11:38:13Z</time></trkpt><trkpt lat="47.603286" lon="10.408862"><ele>911.47</ele><time>2009-05-23T11:38:14Z</time></trkpt><trkpt lat="47.603230" lon="10.408833"><ele>910.51</ele><time>2009-05-23T11:38:15Z</time></trkpt><trkpt lat="47.603172" lon="10.408822"><ele>909.54</ele><time>2009-05-23T11:38:16Z</time></trkpt><trkpt lat="47.603116" lon="10.408834"><ele>909.06</ele><time>2009-05-23T11:38:17Z</time></trkpt><trkpt lat="47.603067" lon="10.408858"><ele>908.10</ele><time>2009-05-23T11:38:18Z</time></trkpt><trkpt lat="47.603022" lon="10.408895"><ele>907.62</ele><time>2009-05-23T11:38:19Z</time></trkpt><trkpt lat="47.602981" lon="10.408936"><ele>907.14</ele><time>2009-05-23T11:38:20Z</time></trkpt><trkpt lat="47.602946" lon="10.408987"><ele>907.62</ele><time>2009-05-23T11:38:21Z</time></trkpt><trkpt lat="47.602917" lon="10.409041"><ele>907.14</ele><time>2009-05-23T11:38:22Z</time></trkpt><trkpt lat="47.602891" lon="10.409092"><ele>907.62</ele><time>2009-05-23T11:38:23Z</time></trkpt><trkpt lat="47.602841" lon="10.409203"><ele>907.62</ele><time>2009-05-23T11:38:25Z</time></trkpt><trkpt lat="47.602815" lon="10.409265"><ele>907.14</ele><time>2009-05-23T11:38:26Z</time></trkpt><trkpt lat="47.602725" lon="10.409506"><ele>906.18</ele><time>2009-05-23T11:38:30Z</time></trkpt><trkpt lat="47.602686" lon="10.409649"><ele>906.18</ele><time>2009-05-23T11:38:32Z</time></trkpt><trkpt lat="47.602658" lon="10.409814"><ele>906.18</ele><time>2009-05-23T11:38:34Z</time></trkpt><trkpt lat="47.602638" lon="10.409996"><ele>906.66</ele><time>2009-05-23T11:38:36Z</time></trkpt><trkpt lat="47.602603" lon="10.410253"><ele>907.62</ele><time>2009-05-23T11:38:39Z</time></trkpt><trkpt lat="47.602581" lon="10.410427"><ele>908.58</ele><time>2009-05-23T11:38:43Z</time></trkpt><trkpt lat="47.602491" lon="10.411198"><ele>908.58</ele><time>2009-05-23T11:38:50Z</time></trkpt><trkpt lat="47.602354" lon="10.412839"><ele>907.14</ele><time>2009-05-23T11:39:01Z</time></trkpt><trkpt lat="47.602115" lon="10.415547"><ele>902.33</ele><time>2009-05-23T11:39:17Z</time></trkpt><trkpt lat="47.601873" lon="10.418297"><ele>897.05</ele><time>2009-05-23T11:39:32Z</time></trkpt><trkpt lat="47.601921" lon="10.419913"><ele>894.16</ele><time>2009-05-23T11:39:41Z</time></trkpt><trkpt lat="47.601899" lon="10.420056"><ele>893.68</ele><time>2009-05-23T11:39:42Z</time></trkpt><trkpt lat="47.601867" lon="10.420172"><ele>893.68</ele><time>2009-05-23T11:39:43Z</time></trkpt><trkpt lat="47.601831" lon="10.420254"><ele>893.20</ele><time>2009-05-23T11:39:44Z</time></trkpt><trkpt lat="47.601801" lon="10.420306"><ele>893.68</ele><time>2009-05-23T11:39:45Z</time></trkpt><trkpt lat="47.601780" lon="10.420336"><ele>893.68</ele><time>2009-05-23T11:39:46Z</time></trkpt><trkpt lat="47.601775" lon="10.420342"><ele>894.64</ele><time>2009-05-23T11:39:56Z</time></trkpt><trkpt lat="47.601736" lon="10.420419"><ele>897.05</ele><time>2009-05-23T11:40:08Z</time></trkpt><trkpt lat="47.601693" lon="10.420501"><ele>897.05</ele><time>2009-05-23T11:40:09Z</time></trkpt><trkpt lat="47.601643" lon="10.420617"><ele>896.57</ele><time>2009-05-23T11:40:10Z</time></trkpt><trkpt lat="47.601577" lon="10.420795"><ele>895.61</ele><time>2009-05-23T11:40:11Z</time></trkpt><trkpt lat="47.601546" lon="10.420978"><ele>895.61</ele><time>2009-05-23T11:40:12Z</time></trkpt><trkpt lat="47.601544" lon="10.421167"><ele>895.12</ele><time>2009-05-23T11:40:13Z</time></trkpt><trkpt lat="47.601560" lon="10.421371"><ele>895.12</ele><time>2009-05-23T11:40:14Z</time></trkpt><trkpt lat="47.601586" lon="10.421597"><ele>894.64</ele><time>2009-05-23T11:40:15Z</time></trkpt><trkpt lat="47.601657" lon="10.422076"><ele>894.16</ele><time>2009-05-23T11:40:17Z</time></trkpt><trkpt lat="47.601715" lon="10.422298"><ele>893.68</ele><time>2009-05-23T11:40:18Z</time></trkpt><trkpt lat="47.601795" lon="10.422500"><ele>893.68</ele><time>2009-05-23T11:40:19Z</time></trkpt><trkpt lat="47.601894" lon="10.422685"><ele>893.68</ele><time>2009-05-23T11:40:20Z</time></trkpt><trkpt lat="47.601999" lon="10.422866"><ele>893.20</ele><time>2009-05-23T11:40:21Z</time></trkpt><trkpt lat="47.602097" lon="10.423061"><ele>893.20</ele><time>2009-05-23T11:40:22Z</time></trkpt><trkpt lat="47.602177" lon="10.423275"><ele>893.20</ele><time>2009-05-23T11:40:23Z</time></trkpt><trkpt lat="47.602238" lon="10.423506"><ele>893.20</ele><time>2009-05-23T11:40:24Z</time></trkpt><trkpt lat="47.602272" lon="10.423752"><ele>892.72</ele><time>2009-05-23T11:40:25Z</time></trkpt><trkpt lat="47.602286" lon="10.424008"><ele>892.24</ele><time>2009-05-23T11:40:26Z</time></trkpt><trkpt lat="47.602302" lon="10.424268"><ele>892.24</ele><time>2009-05-23T11:40:27Z</time></trkpt><trkpt lat="47.602335" lon="10.424532"><ele>891.76</ele><time>2009-05-23T11:40:28Z</time></trkpt><trkpt lat="47.602397" lon="10.424793"><ele>891.28</ele><time>2009-05-23T11:40:29Z</time></trkpt><trkpt lat="47.602472" lon="10.425060"><ele>890.32</ele><time>2009-05-23T11:40:30Z</time></trkpt><trkpt lat="47.602691" lon="10.425941"><ele>889.36</ele><time>2009-05-23T11:40:33Z</time></trkpt><trkpt lat="47.602736" lon="10.426266"><ele>888.88</ele><time>2009-05-23T11:40:34Z</time></trkpt><trkpt lat="47.602764" lon="10.426603"><ele>888.88</ele><time>2009-05-23T11:40:35Z</time></trkpt><trkpt lat="47.602775" lon="10.426948"><ele>888.88</ele><time>2009-05-23T11:40:36Z</time></trkpt><trkpt lat="47.602770" lon="10.427299"><ele>888.40</ele><time>2009-05-23T11:40:37Z</time></trkpt><trkpt lat="47.602754" lon="10.427653"><ele>888.40</ele><time>2009-05-23T11:40:38Z</time></trkpt><trkpt lat="47.602872" lon="10.430004"><ele>888.40</ele><time>2009-05-23T11:40:45Z</time></trkpt><trkpt lat="47.603412" lon="10.432628"><ele>892.24</ele><time>2009-05-23T11:40:53Z</time></trkpt><trkpt lat="47.604144" lon="10.436740"><ele>901.85</ele><time>2009-05-23T11:41:05Z</time></trkpt><trkpt lat="47.605122" lon="10.438884"><ele>900.41</ele><time>2009-05-23T11:41:12Z</time></trkpt><trkpt lat="47.605883" lon="10.441172"><ele>899.93</ele><time>2009-05-23T11:41:19Z</time></trkpt><trkpt lat="47.607048" lon="10.443081"><ele>899.93</ele><time>2009-05-23T11:41:26Z</time></trkpt><trkpt lat="47.608421" lon="10.445468"><ele>894.64</ele><time>2009-05-23T11:41:35Z</time></trkpt><trkpt lat="47.609619" lon="10.447513"><ele>898.97</ele><time>2009-05-23T11:41:45Z</time></trkpt><trkpt lat="47.610709" lon="10.449930"><ele>897.05</ele><time>2009-05-23T11:41:57Z</time></trkpt><trkpt lat="47.610762" lon="10.450175"><ele>896.57</ele><time>2009-05-23T11:41:58Z</time></trkpt><trkpt lat="47.610795" lon="10.450438"><ele>896.57</ele><time>2009-05-23T11:41:59Z</time></trkpt><trkpt lat="47.610815" lon="10.450714"><ele>896.57</ele><time>2009-05-23T11:42:00Z</time></trkpt><trkpt lat="47.610828" lon="10.451002"><ele>896.57</ele><time>2009-05-23T11:42:01Z</time></trkpt><trkpt lat="47.610926" lon="10.452227"><ele>897.05</ele><time>2009-05-23T11:42:05Z</time></trkpt><trkpt lat="47.611001" lon="10.452530"><ele>897.53</ele><time>2009-05-23T11:42:06Z</time></trkpt><trkpt lat="47.611103" lon="10.452819"><ele>898.01</ele><time>2009-05-23T11:42:07Z</time></trkpt><trkpt lat="47.611231" lon="10.453087"><ele>898.97</ele><time>2009-05-23T11:42:08Z</time></trkpt><trkpt lat="47.611374" lon="10.453344"><ele>899.45</ele><time>2009-05-23T11:42:09Z</time></trkpt><trkpt lat="47.611757" lon="10.454170"><ele>901.37</ele><time>2009-05-23T11:42:12Z</time></trkpt><trkpt lat="47.611841" lon="10.454476"><ele>901.37</ele><time>2009-05-23T11:42:13Z</time></trkpt><trkpt lat="47.611895" lon="10.454796"><ele>901.37</ele><time>2009-05-23T11:42:14Z</time></trkpt><trkpt lat="47.611915" lon="10.455133"><ele>901.85</ele><time>2009-05-23T11:42:15Z</time></trkpt><trkpt lat="47.611912" lon="10.455478"><ele>901.85</ele><time>2009-05-23T11:42:16Z</time></trkpt><trkpt lat="47.611902" lon="10.455825"><ele>901.85</ele><time>2009-05-23T11:42:17Z</time></trkpt><trkpt lat="47.611919" lon="10.456849"><ele>902.33</ele><time>2009-05-23T11:42:20Z</time></trkpt><trkpt lat="47.611975" lon="10.457171"><ele>902.33</ele><time>2009-05-23T11:42:21Z</time></trkpt><trkpt lat="47.612055" lon="10.457482"><ele>902.33</ele><time>2009-05-23T11:42:22Z</time></trkpt><trkpt lat="47.612160" lon="10.457779"><ele>901.85</ele><time>2009-05-23T11:42:23Z</time></trkpt><trkpt lat="47.612281" lon="10.458069"><ele>901.37</ele><time>2009-05-23T11:42:24Z</time></trkpt><trkpt lat="47.613522" lon="10.461233"><ele>898.01</ele><time>2009-05-23T11:42:34Z</time></trkpt><trkpt lat="47.614606" lon="10.464610"><ele>899.93</ele><time>2009-05-23T11:42:44Z</time></trkpt><trkpt lat="47.616208" lon="10.468350"><ele>900.41</ele><time>2009-05-23T11:42:56Z</time></trkpt><trkpt lat="47.616295" lon="10.468673"><ele>900.41</ele><time>2009-05-23T11:42:57Z</time></trkpt><trkpt lat="47.616361" lon="10.469005"><ele>900.41</ele><time>2009-05-23T11:42:58Z</time></trkpt><trkpt lat="47.616398" lon="10.469356"><ele>900.89</ele><time>2009-05-23T11:42:59Z</time></trkpt><trkpt lat="47.616415" lon="10.469711"><ele>900.89</ele><time>2009-05-23T11:43:00Z</time></trkpt><trkpt lat="47.616422" lon="10.470069"><ele>901.37</ele><time>2009-05-23T11:43:01Z</time></trkpt><trkpt lat="47.616308" lon="10.473876"><ele>911.95</ele><time>2009-05-23T11:43:12Z</time></trkpt><trkpt lat="47.616252" lon="10.474518"><ele>913.39</ele><time>2009-05-23T11:43:14Z</time></trkpt><trkpt lat="47.616254" lon="10.474837"><ele>914.35</ele><time>2009-05-23T11:43:15Z</time></trkpt><trkpt lat="47.616275" lon="10.475152"><ele>914.83</ele><time>2009-05-23T11:43:16Z</time></trkpt><trkpt lat="47.616313" lon="10.475459"><ele>915.31</ele><time>2009-05-23T11:43:17Z</time></trkpt><trkpt lat="47.616363" lon="10.475760"><ele>916.27</ele><time>2009-05-23T11:43:18Z</time></trkpt><trkpt lat="47.616660" lon="10.478334"><ele>921.08</ele><time>2009-05-23T11:43:27Z</time></trkpt><trkpt lat="47.617132" lon="10.480643"><ele>930.69</ele><time>2009-05-23T11:43:35Z</time></trkpt><trkpt lat="47.617460" lon="10.481415"><ele>932.62</ele><time>2009-05-23T11:43:38Z</time></trkpt><trkpt lat="47.617600" lon="10.481629"><ele>933.10</ele><time>2009-05-23T11:43:39Z</time></trkpt><trkpt lat="47.617752" lon="10.481821"><ele>933.10</ele><time>2009-05-23T11:43:40Z</time></trkpt><trkpt lat="47.618344" lon="10.482577"><ele>935.02</ele><time>2009-05-23T11:43:44Z</time></trkpt><trkpt lat="47.618460" lon="10.482798"><ele>935.50</ele><time>2009-05-23T11:43:45Z</time></trkpt><trkpt lat="47.618559" lon="10.483035"><ele>935.50</ele><time>2009-05-23T11:43:46Z</time></trkpt><trkpt lat="47.618643" lon="10.483285"><ele>935.98</ele><time>2009-05-23T11:43:47Z</time></trkpt><trkpt lat="47.618717" lon="10.483547"><ele>935.98</ele><time>2009-05-23T11:43:48Z</time></trkpt><trkpt lat="47.619523" lon="10.486707"><ele>931.17</ele><time>2009-05-23T11:43:59Z</time></trkpt><trkpt lat="47.620713" lon="10.490059"><ele>914.83</ele><time>2009-05-23T11:44:11Z</time></trkpt><trkpt lat="47.621592" lon="10.491563"><ele>909.06</ele><time>2009-05-23T11:44:18Z</time></trkpt><trkpt lat="47.621679" lon="10.491738"><ele>909.06</ele><time>2009-05-23T11:44:19Z</time></trkpt><trkpt lat="47.621740" lon="10.491925"><ele>908.58</ele><time>2009-05-23T11:44:20Z</time></trkpt><trkpt lat="47.621779" lon="10.492120"><ele>907.62</ele><time>2009-05-23T11:44:21Z</time></trkpt><trkpt lat="47.621804" lon="10.492318"><ele>907.14</ele><time>2009-05-23T11:44:22Z</time></trkpt><trkpt lat="47.621818" lon="10.492517"><ele>906.18</ele><time>2009-05-23T11:44:23Z</time></trkpt><trkpt lat="47.621827" lon="10.492715"><ele>905.70</ele><time>2009-05-23T11:44:24Z</time></trkpt><trkpt lat="47.621867" lon="10.493081"><ele>904.74</ele><time>2009-05-23T11:44:26Z</time></trkpt><trkpt lat="47.621914" lon="10.493238"><ele>904.74</ele><time>2009-05-23T11:44:27Z</time></trkpt><trkpt lat="47.621981" lon="10.493369"><ele>904.26</ele><time>2009-05-23T11:44:28Z</time></trkpt><trkpt lat="47.622060" lon="10.493470"><ele>903.78</ele><time>2009-05-23T11:44:29Z</time></trkpt><trkpt lat="47.622152" lon="10.493538"><ele>902.82</ele><time>2009-05-23T11:44:30Z</time></trkpt><trkpt lat="47.622252" lon="10.493571"><ele>902.33</ele><time>2009-05-23T11:44:31Z</time></trkpt><trkpt lat="47.622355" lon="10.493582"><ele>901.37</ele><time>2009-05-23T11:44:32Z</time></trkpt><trkpt lat="47.622459" lon="10.493584"><ele>900.89</ele><time>2009-05-23T11:44:33Z</time></trkpt><trkpt lat="47.623008" lon="10.493605"><ele>898.49</ele><time>2009-05-23T11:44:41Z</time></trkpt><trkpt lat="47.623085" lon="10.493686"><ele>898.01</ele><time>2009-05-23T11:44:44Z</time></trkpt><trkpt lat="47.623106" lon="10.493761"><ele>898.01</ele><time>2009-05-23T11:44:45Z</time></trkpt><trkpt lat="47.623115" lon="10.493865"><ele>898.01</ele><time>2009-05-23T11:44:46Z</time></trkpt><trkpt lat="47.623116" lon="10.493990"><ele>898.01</ele><time>2009-05-23T11:44:47Z</time></trkpt><trkpt lat="47.623116" lon="10.494127"><ele>898.01</ele><time>2009-05-23T11:44:48Z</time></trkpt><trkpt lat="47.623329" lon="10.495624"><ele>895.12</ele><time>2009-05-23T11:44:57Z</time></trkpt><trkpt lat="47.623732" lon="10.496976"><ele>890.32</ele><time>2009-05-23T11:45:04Z</time></trkpt><trkpt lat="47.623807" lon="10.497152"><ele>889.84</ele><time>2009-05-23T11:45:05Z</time></trkpt><trkpt lat="47.624635" lon="10.498736"><ele>885.51</ele><time>2009-05-23T11:45:16Z</time></trkpt><trkpt lat="47.624754" lon="10.498989"><ele>885.03</ele><time>2009-05-23T11:45:18Z</time></trkpt><trkpt lat="47.624792" lon="10.499117"><ele>884.55</ele><time>2009-05-23T11:45:19Z</time></trkpt><trkpt lat="47.624813" lon="10.499244"><ele>884.07</ele><time>2009-05-23T11:45:20Z</time></trkpt><trkpt lat="47.624810" lon="10.499364"><ele>883.59</ele><time>2009-05-23T11:45:21Z</time></trkpt><trkpt lat="47.624759" lon="10.499434"><ele>883.11</ele><time>2009-05-23T11:45:22Z</time></trkpt><trkpt lat="47.624668" lon="10.499500"><ele>882.63</ele><time>2009-05-23T11:45:23Z</time></trkpt><trkpt lat="47.624561" lon="10.499529"><ele>882.63</ele><time>2009-05-23T11:45:24Z</time></trkpt><trkpt lat="47.624450" lon="10.499493"><ele>882.15</ele><time>2009-05-23T11:45:25Z</time></trkpt><trkpt lat="47.624358" lon="10.499414"><ele>882.15</ele><time>2009-05-23T11:45:26Z</time></trkpt><trkpt lat="47.624286" lon="10.499294"><ele>881.19</ele><time>2009-05-23T11:45:27Z</time></trkpt><trkpt lat="47.624258" lon="10.499146"><ele>880.71</ele><time>2009-05-23T11:45:28Z</time></trkpt><trkpt lat="47.624243" lon="10.498973"><ele>880.22</ele><time>2009-05-23T11:45:29Z</time></trkpt><trkpt lat="47.624220" lon="10.498803"><ele>879.26</ele><time>2009-05-23T11:45:30Z</time></trkpt><trkpt lat="47.624180" lon="10.498640"><ele>878.78</ele><time>2009-05-23T11:45:31Z</time></trkpt><trkpt lat="47.624120" lon="10.498486"><ele>878.30</ele><time>2009-05-23T11:45:32Z</time></trkpt><trkpt lat="47.624051" lon="10.498339"><ele>877.34</ele><time>2009-05-23T11:45:33Z</time></trkpt><trkpt lat="47.623961" lon="10.498228"><ele>877.34</ele><time>2009-05-23T11:45:34Z</time></trkpt><trkpt lat="47.623866" lon="10.498136"><ele>877.34</ele><time>2009-05-23T11:45:35Z</time></trkpt><trkpt lat="47.623777" lon="10.498041"><ele>876.86</ele><time>2009-05-23T11:45:36Z</time></trkpt><trkpt lat="47.623622" lon="10.497830"><ele>875.90</ele><time>2009-05-23T11:45:38Z</time></trkpt><trkpt lat="47.623372" lon="10.497415"><ele>873.98</ele><time>2009-05-23T11:45:42Z</time></trkpt><trkpt lat="47.623285" lon="10.497399"><ele>873.98</ele><time>2009-05-23T11:45:43Z</time></trkpt><trkpt lat="47.623190" lon="10.497433"><ele>873.98</ele><time>2009-05-23T11:45:44Z</time></trkpt><trkpt lat="47.623128" lon="10.497471"><ele>873.50</ele><time>2009-05-23T11:45:45Z</time></trkpt><trkpt lat="47.623058" lon="10.497531"><ele>873.50</ele><time>2009-05-23T11:45:46Z</time></trkpt><trkpt lat="47.622986" lon="10.497607"><ele>873.01</ele><time>2009-05-23T11:45:47Z</time></trkpt><trkpt lat="47.622363" lon="10.498405"><ele>875.90</ele><time>2009-05-23T11:45:56Z</time></trkpt><trkpt lat="47.622321" lon="10.498512"><ele>876.38</ele><time>2009-05-23T11:45:57Z</time></trkpt><trkpt lat="47.622301" lon="10.498649"><ele>876.86</ele><time>2009-05-23T11:45:58Z</time></trkpt><trkpt lat="47.622270" lon="10.498759"><ele>876.86</ele><time>2009-05-23T11:45:59Z</time></trkpt><trkpt lat="47.622249" lon="10.498849"><ele>877.82</ele><time>2009-05-23T11:46:00Z</time></trkpt><trkpt lat="47.622220" lon="10.498951"><ele>878.78</ele><time>2009-05-23T11:46:01Z</time></trkpt><trkpt lat="47.621777" lon="10.500011"><ele>883.11</ele><time>2009-05-23T11:46:11Z</time></trkpt><trkpt lat="47.621710" lon="10.500241"><ele>881.19</ele><time>2009-05-23T11:46:13Z</time></trkpt><trkpt lat="47.621688" lon="10.500358"><ele>881.19</ele><time>2009-05-23T11:46:14Z</time></trkpt><trkpt lat="47.621657" lon="10.500464"><ele>880.22</ele><time>2009-05-23T11:46:15Z</time></trkpt><trkpt lat="47.621630" lon="10.500564"><ele>880.22</ele><time>2009-05-23T11:46:16Z</time></trkpt><trkpt lat="47.621600" lon="10.500657"><ele>880.22</ele><time>2009-05-23T11:46:17Z</time></trkpt><trkpt lat="47.621486" lon="10.500933"><ele>878.30</ele><time>2009-05-23T11:46:20Z</time></trkpt><trkpt lat="47.621366" lon="10.501325"><ele>873.98</ele><time>2009-05-23T11:46:24Z</time></trkpt><trkpt lat="47.621359" lon="10.501431"><ele>872.53</ele><time>2009-05-23T11:46:25Z</time></trkpt><trkpt lat="47.621359" lon="10.501538"><ele>872.53</ele><time>2009-05-23T11:46:26Z</time></trkpt><trkpt lat="47.621351" lon="10.501645"><ele>872.53</ele><time>2009-05-23T11:46:27Z</time></trkpt><trkpt lat="47.621330" lon="10.501748"><ele>872.53</ele><time>2009-05-23T11:46:28Z</time></trkpt><trkpt lat="47.621304" lon="10.501851"><ele>871.57</ele><time>2009-05-23T11:46:29Z</time></trkpt><trkpt lat="47.621010" lon="10.503393"><ele>871.57</ele><time>2009-05-23T11:46:42Z</time></trkpt><trkpt lat="47.620544" lon="10.505414"><ele>875.42</ele><time>2009-05-23T11:46:55Z</time></trkpt><trkpt lat="47.619794" lon="10.507446"><ele>884.55</ele><time>2009-05-23T11:47:08Z</time></trkpt><trkpt lat="47.618950" lon="10.509403"><ele>885.03</ele><time>2009-05-23T11:47:20Z</time></trkpt><trkpt lat="47.618637" lon="10.511119"><ele>883.11</ele><time>2009-05-23T11:47:28Z</time></trkpt><trkpt lat="47.618485" lon="10.512436"><ele>880.22</ele><time>2009-05-23T11:47:34Z</time></trkpt><trkpt lat="47.618425" lon="10.512643"><ele>879.26</ele><time>2009-05-23T11:47:35Z</time></trkpt><trkpt lat="47.618342" lon="10.512833"><ele>878.78</ele><time>2009-05-23T11:47:36Z</time></trkpt><trkpt lat="47.618240" lon="10.513003"><ele>878.30</ele><time>2009-05-23T11:47:37Z</time></trkpt><trkpt lat="47.618123" lon="10.513149"><ele>878.30</ele><time>2009-05-23T11:47:38Z</time></trkpt><trkpt lat="47.617973" lon="10.513232"><ele>878.30</ele><time>2009-05-23T11:47:39Z</time></trkpt><trkpt lat="47.617829" lon="10.513305"><ele>878.78</ele><time>2009-05-23T11:47:40Z</time></trkpt><trkpt lat="47.617690" lon="10.513375"><ele>878.78</ele><time>2009-05-23T11:47:41Z</time></trkpt><trkpt lat="47.617558" lon="10.513461"><ele>878.78</ele><time>2009-05-23T11:47:42Z</time></trkpt><trkpt lat="47.617437" lon="10.513592"><ele>878.78</ele><time>2009-05-23T11:47:43Z</time></trkpt><trkpt lat="47.617335" lon="10.513763"><ele>878.78</ele><time>2009-05-23T11:47:44Z</time></trkpt><trkpt lat="47.617249" lon="10.513958"><ele>878.78</ele><time>2009-05-23T11:47:45Z</time></trkpt><trkpt lat="47.617171" lon="10.514168"><ele>878.78</ele><time>2009-05-23T11:47:46Z</time></trkpt><trkpt lat="47.616989" lon="10.514583"><ele>878.78</ele><time>2009-05-23T11:47:48Z</time></trkpt><trkpt lat="47.616875" lon="10.514770"><ele>878.78</ele><time>2009-05-23T11:47:49Z</time></trkpt><trkpt lat="47.616751" lon="10.514944"><ele>879.26</ele><time>2009-05-23T11:47:50Z</time></trkpt><trkpt lat="47.615140" lon="10.517349"><ele>886.47</ele><time>2009-05-23T11:48:03Z</time></trkpt><trkpt lat="47.613885" lon="10.520076"><ele>892.24</ele><time>2009-05-23T11:48:15Z</time></trkpt><trkpt lat="47.612503" lon="10.522753"><ele>893.20</ele><time>2009-05-23T11:48:25Z</time></trkpt><trkpt lat="47.610094" lon="10.527512"><ele>889.84</ele><time>2009-05-23T11:48:42Z</time></trkpt><trkpt lat="47.609456" lon="10.529374"><ele>888.88</ele><time>2009-05-23T11:48:49Z</time></trkpt><trkpt lat="47.608121" lon="10.531722"><ele>893.68</ele><time>2009-05-23T11:49:00Z</time></trkpt><trkpt lat="47.607465" lon="10.533254"><ele>897.05</ele><time>2009-05-23T11:49:09Z</time></trkpt><trkpt lat="47.607244" lon="10.533743"><ele>898.01</ele><time>2009-05-23T11:49:12Z</time></trkpt><trkpt lat="47.607153" lon="10.533876"><ele>898.01</ele><time>2009-05-23T11:49:13Z</time></trkpt><trkpt lat="47.607055" lon="10.533994"><ele>898.49</ele><time>2009-05-23T11:49:14Z</time></trkpt><trkpt lat="47.606362" lon="10.534595"><ele>895.61</ele><time>2009-05-23T11:49:21Z</time></trkpt><trkpt lat="47.606264" lon="10.534635"><ele>895.12</ele><time>2009-05-23T11:49:22Z</time></trkpt><trkpt lat="47.606170" lon="10.534656"><ele>894.16</ele><time>2009-05-23T11:49:23Z</time></trkpt><trkpt lat="47.606077" lon="10.534665"><ele>893.68</ele><time>2009-05-23T11:49:24Z</time></trkpt><trkpt lat="47.605987" lon="10.534672"><ele>893.20</ele><time>2009-05-23T11:49:25Z</time></trkpt><trkpt lat="47.605728" lon="10.534733"><ele>893.20</ele><time>2009-05-23T11:49:28Z</time></trkpt><trkpt lat="47.605648" lon="10.534779"><ele>893.20</ele><time>2009-05-23T11:49:29Z</time></trkpt><trkpt lat="47.605574" lon="10.534841"><ele>892.72</ele><time>2009-05-23T11:49:30Z</time></trkpt><trkpt lat="47.605501" lon="10.534915"><ele>892.24</ele><time>2009-05-23T11:49:31Z</time></trkpt><trkpt lat="47.605427" lon="10.534998"><ele>892.24</ele><time>2009-05-23T11:49:32Z</time></trkpt><trkpt lat="47.604690" lon="10.535866"><ele>889.84</ele><time>2009-05-23T11:49:42Z</time></trkpt><trkpt lat="47.604212" lon="10.536458"><ele>887.91</ele><time>2009-05-23T11:49:49Z</time></trkpt><trkpt lat="47.604146" lon="10.536573"><ele>887.91</ele><time>2009-05-23T11:49:50Z</time></trkpt><trkpt lat="47.604087" lon="10.536711"><ele>887.43</ele><time>2009-05-23T11:49:51Z</time></trkpt><trkpt lat="47.604034" lon="10.536860"><ele>887.43</ele><time>2009-05-23T11:49:52Z</time></trkpt><trkpt lat="47.603987" lon="10.537024"><ele>886.47</ele><time>2009-05-23T11:49:53Z</time></trkpt><trkpt lat="47.603375" lon="10.538838"><ele>879.26</ele><time>2009-05-23T11:50:02Z</time></trkpt><trkpt lat="47.602408" lon="10.541170"><ele>874.94</ele><time>2009-05-23T11:50:11Z</time></trkpt><trkpt lat="47.601400" lon="10.542449"><ele>877.82</ele><time>2009-05-23T11:50:17Z</time></trkpt><trkpt lat="47.600733" lon="10.543736"><ele>882.63</ele><time>2009-05-23T11:50:23Z</time></trkpt><trkpt lat="47.600346" lon="10.545633"><ele>888.40</ele><time>2009-05-23T11:50:31Z</time></trkpt><trkpt lat="47.600296" lon="10.546534"><ele>889.84</ele><time>2009-05-23T11:50:35Z</time></trkpt><trkpt lat="47.600261" lon="10.546733"><ele>889.84</ele><time>2009-05-23T11:50:36Z</time></trkpt><trkpt lat="47.600217" lon="10.546914"><ele>889.84</ele><time>2009-05-23T11:50:37Z</time></trkpt><trkpt lat="47.599907" lon="10.547989"><ele>890.32</ele><time>2009-05-23T11:50:45Z</time></trkpt><trkpt lat="47.599684" lon="10.548610"><ele>890.80</ele><time>2009-05-23T11:50:49Z</time></trkpt><trkpt lat="47.599602" lon="10.548752"><ele>890.32</ele><time>2009-05-23T11:50:50Z</time></trkpt><trkpt lat="47.599507" lon="10.548877"><ele>890.32</ele><time>2009-05-23T11:50:51Z</time></trkpt><trkpt lat="47.599397" lon="10.548987"><ele>890.32</ele><time>2009-05-23T11:50:52Z</time></trkpt><trkpt lat="47.599280" lon="10.549088"><ele>889.84</ele><time>2009-05-23T11:50:53Z</time></trkpt><trkpt lat="47.599157" lon="10.549180"><ele>889.84</ele><time>2009-05-23T11:50:54Z</time></trkpt><trkpt lat="47.597817" lon="10.550449"><ele>884.55</ele><time>2009-05-23T11:51:05Z</time></trkpt><trkpt lat="47.597022" lon="10.551686"><ele>880.22</ele><time>2009-05-23T11:51:14Z</time></trkpt><trkpt lat="47.596433" lon="10.552309"><ele>879.74</ele><time>2009-05-23T11:51:22Z</time></trkpt><trkpt lat="47.595819" lon="10.552941"><ele>878.78</ele><time>2009-05-23T11:51:31Z</time></trkpt><trkpt lat="47.595000" lon="10.553687"><ele>880.71</ele><time>2009-05-23T11:51:41Z</time></trkpt><trkpt lat="47.594703" lon="10.554076"><ele>885.51</ele><time>2009-05-23T11:51:46Z</time></trkpt><trkpt lat="47.594657" lon="10.554130"><ele>886.47</ele><time>2009-05-23T11:51:47Z</time></trkpt><trkpt lat="47.594616" lon="10.554187"><ele>886.47</ele><time>2009-05-23T11:51:48Z</time></trkpt><trkpt lat="47.594582" lon="10.554256"><ele>887.43</ele><time>2009-05-23T11:51:49Z</time></trkpt><trkpt lat="47.594558" lon="10.554332"><ele>887.91</ele><time>2009-05-23T11:51:50Z</time></trkpt><trkpt lat="47.594568" lon="10.554427"><ele>887.43</ele><time>2009-05-23T11:51:51Z</time></trkpt><trkpt lat="47.594606" lon="10.554505"><ele>886.95</ele><time>2009-05-23T11:51:52Z</time></trkpt><trkpt lat="47.594664" lon="10.554587"><ele>885.99</ele><time>2009-05-23T11:51:53Z</time></trkpt><trkpt lat="47.594743" lon="10.554684"><ele>885.51</ele><time>2009-05-23T11:51:54Z</time></trkpt><trkpt lat="47.594817" lon="10.554796"><ele>884.07</ele><time>2009-05-23T11:51:55Z</time></trkpt><trkpt lat="47.594883" lon="10.554923"><ele>883.59</ele><time>2009-05-23T11:51:56Z</time></trkpt><trkpt lat="47.594940" lon="10.555066"><ele>883.11</ele><time>2009-05-23T11:51:57Z</time></trkpt><trkpt lat="47.594992" lon="10.555216"><ele>882.63</ele><time>2009-05-23T11:51:58Z</time></trkpt><trkpt lat="47.595251" lon="10.556114"><ele>880.71</ele><time>2009-05-23T11:52:04Z</time></trkpt><trkpt lat="47.595270" lon="10.556265"><ele>880.71</ele><time>2009-05-23T11:52:05Z</time></trkpt><trkpt lat="47.595376" lon="10.557173"><ele>881.67</ele><time>2009-05-23T11:52:11Z</time></trkpt><trkpt lat="47.595410" lon="10.557318"><ele>881.67</ele><time>2009-05-23T11:52:12Z</time></trkpt><trkpt lat="47.595451" lon="10.557459"><ele>881.19</ele><time>2009-05-23T11:52:13Z</time></trkpt><trkpt lat="47.595499" lon="10.557597"><ele>881.19</ele><time>2009-05-23T11:52:14Z</time></trkpt><trkpt lat="47.595551" lon="10.557732"><ele>881.19</ele><time>2009-05-23T11:52:15Z</time></trkpt><trkpt lat="47.595608" lon="10.557865"><ele>880.22</ele><time>2009-05-23T11:52:16Z</time></trkpt><trkpt lat="47.595672" lon="10.557997"><ele>879.74</ele><time>2009-05-23T11:52:17Z</time></trkpt><trkpt lat="47.596505" lon="10.559046"><ele>875.90</ele><time>2009-05-23T11:52:26Z</time></trkpt><trkpt lat="47.597072" lon="10.559466"><ele>872.05</ele><time>2009-05-23T11:52:31Z</time></trkpt><trkpt lat="47.597167" lon="10.559581"><ele>871.57</ele><time>2009-05-23T11:52:32Z</time></trkpt><trkpt lat="47.597248" lon="10.559711"><ele>870.61</ele><time>2009-05-23T11:52:33Z</time></trkpt><trkpt lat="47.597314" lon="10.559853"><ele>869.65</ele><time>2009-05-23T11:52:34Z</time></trkpt><trkpt lat="47.597362" lon="10.560006"><ele>869.17</ele><time>2009-05-23T11:52:35Z</time></trkpt><trkpt lat="47.597392" lon="10.560166"><ele>868.21</ele><time>2009-05-23T11:52:36Z</time></trkpt><trkpt lat="47.597402" lon="10.560331"><ele>867.73</ele><time>2009-05-23T11:52:37Z</time></trkpt><trkpt lat="47.597393" lon="10.560500"><ele>867.25</ele><time>2009-05-23T11:52:38Z</time></trkpt><trkpt lat="47.597363" lon="10.560667"><ele>866.29</ele><time>2009-05-23T11:52:39Z</time></trkpt><trkpt lat="47.597297" lon="10.560822"><ele>865.80</ele><time>2009-05-23T11:52:40Z</time></trkpt><trkpt lat="47.597229" lon="10.560980"><ele>865.32</ele><time>2009-05-23T11:52:41Z</time></trkpt><trkpt lat="47.597152" lon="10.561130"><ele>864.84</ele><time>2009-05-23T11:52:42Z</time></trkpt><trkpt lat="47.597074" lon="10.561277"><ele>864.84</ele><time>2009-05-23T11:52:43Z</time></trkpt><trkpt lat="47.596333" lon="10.562808"><ele>861.96</ele><time>2009-05-23T11:52:53Z</time></trkpt><trkpt lat="47.596291" lon="10.562992"><ele>861.96</ele><time>2009-05-23T11:52:54Z</time></trkpt><trkpt lat="47.596280" lon="10.563186"><ele>861.96</ele><time>2009-05-23T11:52:55Z</time></trkpt><trkpt lat="47.596290" lon="10.563380"><ele>861.48</ele><time>2009-05-23T11:52:56Z</time></trkpt><trkpt lat="47.596314" lon="10.563570"><ele>861.48</ele><time>2009-05-23T11:52:57Z</time></trkpt><trkpt lat="47.596344" lon="10.563757"><ele>861.48</ele><time>2009-05-23T11:52:58Z</time></trkpt><trkpt lat="47.596378" lon="10.564124"><ele>861.48</ele><time>2009-05-23T11:53:00Z</time></trkpt><trkpt lat="47.596370" lon="10.564305"><ele>861.48</ele><time>2009-05-23T11:53:01Z</time></trkpt><trkpt lat="47.596340" lon="10.564482"><ele>861.48</ele><time>2009-05-23T11:53:02Z</time></trkpt><trkpt lat="47.596290" lon="10.564647"><ele>861.00</ele><time>2009-05-23T11:53:03Z</time></trkpt><trkpt lat="47.596225" lon="10.564798"><ele>861.48</ele><time>2009-05-23T11:53:04Z</time></trkpt><trkpt lat="47.596150" lon="10.564934"><ele>861.96</ele><time>2009-05-23T11:53:05Z</time></trkpt><trkpt lat="47.596065" lon="10.565056"><ele>862.92</ele><time>2009-05-23T11:53:06Z</time></trkpt><trkpt lat="47.595980" lon="10.565174"><ele>863.40</ele><time>2009-05-23T11:53:07Z</time></trkpt><trkpt lat="47.595901" lon="10.565300"><ele>863.88</ele><time>2009-05-23T11:53:08Z</time></trkpt><trkpt lat="47.595832" lon="10.565437"><ele>864.84</ele><time>2009-05-23T11:53:09Z</time></trkpt><trkpt lat="47.595568" lon="10.566011"><ele>867.25</ele><time>2009-05-23T11:53:13Z</time></trkpt><trkpt lat="47.595487" lon="10.566135"><ele>867.73</ele><time>2009-05-23T11:53:14Z</time></trkpt><trkpt lat="47.595397" lon="10.566243"><ele>868.69</ele><time>2009-05-23T11:53:15Z</time></trkpt><trkpt lat="47.595298" lon="10.566327"><ele>869.17</ele><time>2009-05-23T11:53:16Z</time></trkpt><trkpt lat="47.595192" lon="10.566387"><ele>870.13</ele><time>2009-05-23T11:53:17Z</time></trkpt><trkpt lat="47.595100" lon="10.566481"><ele>871.09</ele><time>2009-05-23T11:53:18Z</time></trkpt><trkpt lat="47.595032" lon="10.566617"><ele>873.01</ele><time>2009-05-23T11:53:19Z</time></trkpt><trkpt lat="47.594975" lon="10.566758"><ele>873.98</ele><time>2009-05-23T11:53:20Z</time></trkpt><trkpt lat="47.594930" lon="10.566916"><ele>874.46</ele><time>2009-05-23T11:53:21Z</time></trkpt><trkpt lat="47.594891" lon="10.567084"><ele>874.94</ele><time>2009-05-23T11:53:22Z</time></trkpt><trkpt lat="47.594793" lon="10.567417"><ele>877.34</ele><time>2009-05-23T11:53:24Z</time></trkpt><trkpt lat="47.594726" lon="10.567572"><ele>877.82</ele><time>2009-05-23T11:53:25Z</time></trkpt><trkpt lat="47.594640" lon="10.567705"><ele>878.78</ele><time>2009-05-23T11:53:26Z</time></trkpt><trkpt lat="47.594548" lon="10.567830"><ele>879.74</ele><time>2009-05-23T11:53:27Z</time></trkpt><trkpt lat="47.594450" lon="10.567929"><ele>880.71</ele><time>2009-05-23T11:53:28Z</time></trkpt><trkpt lat="47.594348" lon="10.568021"><ele>881.19</ele><time>2009-05-23T11:53:29Z</time></trkpt><trkpt lat="47.594255" lon="10.568116"><ele>881.67</ele><time>2009-05-23T11:53:30Z</time></trkpt><trkpt lat="47.594175" lon="10.568229"><ele>882.15</ele><time>2009-05-23T11:53:31Z</time></trkpt><trkpt lat="47.594110" lon="10.568358"><ele>882.63</ele><time>2009-05-23T11:53:32Z</time></trkpt><trkpt lat="47.594060" lon="10.568499"><ele>883.11</ele><time>2009-05-23T11:53:33Z</time></trkpt><trkpt lat="47.594023" lon="10.568647"><ele>883.59</ele><time>2009-05-23T11:53:34Z</time></trkpt><trkpt lat="47.593988" lon="10.568799"><ele>883.59</ele><time>2009-05-23T11:53:35Z</time></trkpt><trkpt lat="47.593947" lon="10.568946"><ele>884.55</ele><time>2009-05-23T11:53:36Z</time></trkpt><trkpt lat="47.593897" lon="10.569077"><ele>885.03</ele><time>2009-05-23T11:53:37Z</time></trkpt><trkpt lat="47.593838" lon="10.569186"><ele>885.51</ele><time>2009-05-23T11:53:38Z</time></trkpt><trkpt lat="47.593768" lon="10.569284"><ele>885.99</ele><time>2009-05-23T11:53:39Z</time></trkpt><trkpt lat="47.593687" lon="10.569378"><ele>886.47</ele><time>2009-05-23T11:53:40Z</time></trkpt><trkpt lat="47.593603" lon="10.569473"><ele>886.95</ele><time>2009-05-23T11:53:41Z</time></trkpt><trkpt lat="47.593528" lon="10.569574"><ele>887.43</ele><time>2009-05-23T11:53:42Z</time></trkpt><trkpt lat="47.593465" lon="10.569688"><ele>887.91</ele><time>2009-05-23T11:53:43Z</time></trkpt><trkpt lat="47.593412" lon="10.569825"><ele>887.91</ele><time>2009-05-23T11:53:44Z</time></trkpt><trkpt lat="47.593375" lon="10.570016"><ele>888.40</ele><time>2009-05-23T11:53:45Z</time></trkpt><trkpt lat="47.593359" lon="10.570268"><ele>888.40</ele><time>2009-05-23T11:53:46Z</time></trkpt><trkpt lat="47.593355" lon="10.570570"><ele>888.88</ele><time>2009-05-23T11:53:47Z</time></trkpt><trkpt lat="47.593340" lon="10.570903"><ele>889.36</ele><time>2009-05-23T11:53:48Z</time></trkpt><trkpt lat="47.593006" lon="10.572594"><ele>891.28</ele><time>2009-05-23T11:53:53Z</time></trkpt><trkpt lat="47.592869" lon="10.572917"><ele>891.28</ele><time>2009-05-23T11:53:54Z</time></trkpt><trkpt lat="47.592705" lon="10.573228"><ele>891.76</ele><time>2009-05-23T11:53:55Z</time></trkpt><trkpt lat="47.592526" lon="10.573523"><ele>892.72</ele><time>2009-05-23T11:53:56Z</time></trkpt><trkpt lat="47.592340" lon="10.573799"><ele>893.68</ele><time>2009-05-23T11:53:57Z</time></trkpt><trkpt lat="47.591133" lon="10.575362"><ele>898.01</ele><time>2009-05-23T11:54:04Z</time></trkpt><trkpt lat="47.590263" lon="10.576065"><ele>898.49</ele><time>2009-05-23T11:54:10Z</time></trkpt><trkpt lat="47.589965" lon="10.576201"><ele>898.01</ele><time>2009-05-23T11:54:13Z</time></trkpt><trkpt lat="47.589877" lon="10.576190"><ele>898.01</ele><time>2009-05-23T11:54:14Z</time></trkpt><trkpt lat="47.589713" lon="10.576154"><ele>897.53</ele><time>2009-05-23T11:54:16Z</time></trkpt><trkpt lat="47.589639" lon="10.576171"><ele>897.53</ele><time>2009-05-23T11:54:17Z</time></trkpt><trkpt lat="47.589591" lon="10.576221"><ele>897.53</ele><time>2009-05-23T11:54:18Z</time></trkpt><trkpt lat="47.589549" lon="10.576304"><ele>897.53</ele><time>2009-05-23T11:54:19Z</time></trkpt><trkpt lat="47.589498" lon="10.576406"><ele>897.05</ele><time>2009-05-23T11:54:20Z</time></trkpt><trkpt lat="47.589427" lon="10.576518"><ele>897.05</ele><time>2009-05-23T11:54:21Z</time></trkpt><trkpt lat="47.589328" lon="10.576630"><ele>897.05</ele><time>2009-05-23T11:54:22Z</time></trkpt><trkpt lat="47.588932" lon="10.577093"><ele>896.09</ele><time>2009-05-23T11:54:25Z</time></trkpt><trkpt lat="47.588779" lon="10.577352"><ele>895.61</ele><time>2009-05-23T11:54:26Z</time></trkpt><trkpt lat="47.588624" lon="10.577670"><ele>895.12</ele><time>2009-05-23T11:54:27Z</time></trkpt><trkpt lat="47.588475" lon="10.578017"><ele>894.16</ele><time>2009-05-23T11:54:28Z</time></trkpt><trkpt lat="47.588357" lon="10.578376"><ele>893.68</ele><time>2009-05-23T11:54:29Z</time></trkpt><trkpt lat="47.588261" lon="10.578735"><ele>893.20</ele><time>2009-05-23T11:54:30Z</time></trkpt><trkpt lat="47.588176" lon="10.579094"><ele>892.72</ele><time>2009-05-23T11:54:31Z</time></trkpt><trkpt lat="47.587223" lon="10.582756"><ele>896.09</ele><time>2009-05-23T11:54:42Z</time></trkpt><trkpt lat="47.585800" lon="10.586699"><ele>896.57</ele><time>2009-05-23T11:54:54Z</time></trkpt><trkpt lat="47.584503" lon="10.590889"><ele>898.49</ele><time>2009-05-23T11:55:06Z</time></trkpt><trkpt lat="47.582753" lon="10.597479"><ele>901.37</ele><time>2009-05-23T11:55:25Z</time></trkpt><trkpt lat="47.581793" lon="10.601467"><ele>896.09</ele><time>2009-05-23T11:55:37Z</time></trkpt><trkpt lat="47.580694" lon="10.604758"><ele>886.95</ele><time>2009-05-23T11:55:50Z</time></trkpt><trkpt lat="47.579474" lon="10.607545"><ele>878.30</ele><time>2009-05-23T11:56:04Z</time></trkpt><trkpt lat="47.578282" lon="10.609659"><ele>870.61</ele><time>2009-05-23T11:56:16Z</time></trkpt><trkpt lat="47.577375" lon="10.611033"><ele>865.80</ele><time>2009-05-23T11:56:23Z</time></trkpt><trkpt lat="47.575780" lon="10.613667"><ele>853.79</ele><time>2009-05-23T11:56:35Z</time></trkpt><trkpt lat="47.575341" lon="10.615530"><ele>845.62</ele><time>2009-05-23T11:56:42Z</time></trkpt><trkpt lat="47.575038" lon="10.618250"><ele>833.60</ele><time>2009-05-23T11:56:52Z</time></trkpt><trkpt lat="47.574491" lon="10.620978"><ele>821.10</ele><time>2009-05-23T11:57:04Z</time></trkpt><trkpt lat="47.574272" lon="10.623004"><ele>812.93</ele><time>2009-05-23T11:57:14Z</time></trkpt><trkpt lat="47.574307" lon="10.623193"><ele>811.97</ele><time>2009-05-23T11:57:15Z</time></trkpt><trkpt lat="47.574363" lon="10.623357"><ele>810.53</ele><time>2009-05-23T11:57:16Z</time></trkpt><trkpt lat="47.574448" lon="10.623505"><ele>810.05</ele><time>2009-05-23T11:57:17Z</time></trkpt><trkpt lat="47.574565" lon="10.623637"><ele>809.57</ele><time>2009-05-23T11:57:18Z</time></trkpt><trkpt lat="47.574707" lon="10.623721"><ele>809.09</ele><time>2009-05-23T11:57:19Z</time></trkpt><trkpt lat="47.574873" lon="10.623750"><ele>808.61</ele><time>2009-05-23T11:57:20Z</time></trkpt><trkpt lat="47.575041" lon="10.623763"><ele>807.64</ele><time>2009-05-23T11:57:21Z</time></trkpt><trkpt lat="47.575204" lon="10.623786"><ele>806.68</ele><time>2009-05-23T11:57:22Z</time></trkpt><trkpt lat="47.576686" lon="10.624255"><ele>798.03</ele><time>2009-05-23T11:57:32Z</time></trkpt><trkpt lat="47.576811" lon="10.624353"><ele>797.07</ele><time>2009-05-23T11:57:33Z</time></trkpt><trkpt lat="47.576929" lon="10.624479"><ele>796.59</ele><time>2009-05-23T11:57:34Z</time></trkpt><trkpt lat="47.577032" lon="10.624638"><ele>795.15</ele><time>2009-05-23T11:57:35Z</time></trkpt><trkpt lat="47.577112" lon="10.624831"><ele>794.19</ele><time>2009-05-23T11:57:36Z</time></trkpt><trkpt lat="47.577181" lon="10.625034"><ele>793.71</ele><time>2009-05-23T11:57:37Z</time></trkpt><trkpt lat="47.577240" lon="10.625244"><ele>792.74</ele><time>2009-05-23T11:57:38Z</time></trkpt><trkpt lat="47.577682" lon="10.627502"><ele>787.94</ele><time>2009-05-23T11:57:49Z</time></trkpt><trkpt lat="47.577439" lon="10.629120"><ele>787.94</ele><time>2009-05-23T11:57:57Z</time></trkpt><trkpt lat="47.576714" lon="10.631758"><ele>790.34</ele><time>2009-05-23T11:58:10Z</time></trkpt><trkpt lat="47.575962" lon="10.633894"><ele>793.71</ele><time>2009-05-23T11:58:20Z</time></trkpt><trkpt lat="47.574258" lon="10.636583"><ele>803.80</ele><time>2009-05-23T11:58:35Z</time></trkpt><trkpt lat="47.573760" lon="10.638133"><ele>806.68</ele><time>2009-05-23T11:58:44Z</time></trkpt><trkpt lat="47.573808" lon="10.639647"><ele>803.32</ele><time>2009-05-23T11:58:52Z</time></trkpt><trkpt lat="47.573859" lon="10.639837"><ele>802.84</ele><time>2009-05-23T11:58:53Z</time></trkpt><trkpt lat="47.573925" lon="10.640021"><ele>802.36</ele><time>2009-05-23T11:58:54Z</time></trkpt><trkpt lat="47.574004" lon="10.640198"><ele>801.40</ele><time>2009-05-23T11:58:55Z</time></trkpt><trkpt lat="47.574089" lon="10.640373"><ele>800.44</ele><time>2009-05-23T11:58:56Z</time></trkpt><trkpt lat="47.574584" lon="10.641578"><ele>797.07</ele><time>2009-05-23T11:59:02Z</time></trkpt><trkpt lat="47.574870" lon="10.642967"><ele>794.67</ele><time>2009-05-23T11:59:07Z</time></trkpt><trkpt lat="47.574888" lon="10.643253"><ele>794.19</ele><time>2009-05-23T11:59:08Z</time></trkpt><trkpt lat="47.574884" lon="10.643536"><ele>793.71</ele><time>2009-05-23T11:59:09Z</time></trkpt><trkpt lat="47.574850" lon="10.643810"><ele>792.74</ele><time>2009-05-23T11:59:10Z</time></trkpt><trkpt lat="47.574792" lon="10.644073"><ele>791.78</ele><time>2009-05-23T11:59:11Z</time></trkpt><trkpt lat="47.574687" lon="10.644310"><ele>791.30</ele><time>2009-05-23T11:59:12Z</time></trkpt><trkpt lat="47.574579" lon="10.644539"><ele>791.30</ele><time>2009-05-23T11:59:13Z</time></trkpt><trkpt lat="47.574455" lon="10.644746"><ele>791.78</ele><time>2009-05-23T11:59:14Z</time></trkpt><trkpt lat="47.574315" lon="10.644934"><ele>791.78</ele><time>2009-05-23T11:59:15Z</time></trkpt><trkpt lat="47.574169" lon="10.645108"><ele>791.30</ele><time>2009-05-23T11:59:16Z</time></trkpt><trkpt lat="47.574022" lon="10.645277"><ele>791.78</ele><time>2009-05-23T11:59:17Z</time></trkpt><trkpt lat="47.572868" lon="10.646636"><ele>791.78</ele><time>2009-05-23T11:59:25Z</time></trkpt><trkpt lat="47.572752" lon="10.646836"><ele>791.78</ele><time>2009-05-23T11:59:26Z</time></trkpt><trkpt lat="47.572662" lon="10.647054"><ele>791.78</ele><time>2009-05-23T11:59:27Z</time></trkpt><trkpt lat="47.572590" lon="10.647294"><ele>791.78</ele><time>2009-05-23T11:59:28Z</time></trkpt><trkpt lat="47.572557" lon="10.647551"><ele>792.26</ele><time>2009-05-23T11:59:29Z</time></trkpt><trkpt lat="47.572559" lon="10.647805"><ele>792.26</ele><time>2009-05-23T11:59:30Z</time></trkpt><trkpt lat="47.572585" lon="10.648066"><ele>791.30</ele><time>2009-05-23T11:59:31Z</time></trkpt><trkpt lat="47.572623" lon="10.648327"><ele>791.78</ele><time>2009-05-23T11:59:32Z</time></trkpt><trkpt lat="47.572652" lon="10.648589"><ele>791.78</ele><time>2009-05-23T11:59:33Z</time></trkpt><trkpt lat="47.572936" lon="10.651994"><ele>791.30</ele><time>2009-05-23T11:59:45Z</time></trkpt><trkpt lat="47.573389" lon="10.655966"><ele>792.74</ele><time>2009-05-23T11:59:59Z</time></trkpt><trkpt lat="47.573639" lon="10.659670"><ele>798.03</ele><time>2009-05-23T12:00:11Z</time></trkpt><trkpt lat="47.573777" lon="10.661283"><ele>800.92</ele><time>2009-05-23T12:00:18Z</time></trkpt><trkpt lat="47.573971" lon="10.662673"><ele>802.84</ele><time>2009-05-23T12:00:28Z</time></trkpt><trkpt lat="47.574024" lon="10.663139"><ele>801.40</ele><time>2009-05-23T12:00:35Z</time></trkpt><trkpt lat="47.574026" lon="10.663257"><ele>801.40</ele><time>2009-05-23T12:00:36Z</time></trkpt><trkpt lat="47.574007" lon="10.663373"><ele>800.44</ele><time>2009-05-23T12:00:37Z</time></trkpt><trkpt lat="47.573964" lon="10.663486"><ele>799.47</ele><time>2009-05-23T12:00:38Z</time></trkpt><trkpt lat="47.573865" lon="10.663546"><ele>798.51</ele><time>2009-05-23T12:00:39Z</time></trkpt><trkpt lat="47.573755" lon="10.663624"><ele>797.55</ele><time>2009-05-23T12:00:40Z</time></trkpt><trkpt lat="47.573632" lon="10.663698"><ele>797.07</ele><time>2009-05-23T12:00:41Z</time></trkpt><trkpt lat="47.573503" lon="10.663770"><ele>796.59</ele><time>2009-05-23T12:00:42Z</time></trkpt><trkpt lat="47.571645" lon="10.664727"><ele>792.26</ele><time>2009-05-23T12:00:55Z</time></trkpt><trkpt lat="47.570179" lon="10.665739"><ele>789.86</ele><time>2009-05-23T12:01:05Z</time></trkpt><trkpt lat="47.569902" lon="10.666041"><ele>789.38</ele><time>2009-05-23T12:01:08Z</time></trkpt><trkpt lat="47.569821" lon="10.666110"><ele>789.38</ele><time>2009-05-23T12:01:09Z</time></trkpt><trkpt lat="47.569744" lon="10.666187"><ele>789.38</ele><time>2009-05-23T12:01:10Z</time></trkpt><trkpt lat="47.569681" lon="10.666307"><ele>789.38</ele><time>2009-05-23T12:01:11Z</time></trkpt><trkpt lat="47.569632" lon="10.666481"><ele>788.90</ele><time>2009-05-23T12:01:12Z</time></trkpt><trkpt lat="47.569571" lon="10.666664"><ele>789.38</ele><time>2009-05-23T12:01:13Z</time></trkpt><trkpt lat="47.569052" lon="10.668450"><ele>788.90</ele><time>2009-05-23T12:01:22Z</time></trkpt><trkpt lat="47.568928" lon="10.670809"><ele>788.42</ele><time>2009-05-23T12:01:33Z</time></trkpt><trkpt lat="47.568580" lon="10.674155"><ele>787.46</ele><time>2009-05-23T12:01:50Z</time></trkpt><trkpt lat="47.568281" lon="10.676596"><ele>790.82</ele><time>2009-05-23T12:02:03Z</time></trkpt><trkpt lat="47.568214" lon="10.680022"><ele>791.30</ele><time>2009-05-23T12:02:20Z</time></trkpt><trkpt lat="47.568165" lon="10.683367"><ele>793.22</ele><time>2009-05-23T12:02:38Z</time></trkpt><trkpt lat="47.568255" lon="10.686484"><ele>795.15</ele><time>2009-05-23T12:02:56Z</time></trkpt><trkpt lat="47.568317" lon="10.688806"><ele>794.67</ele><time>2009-05-23T12:03:10Z</time></trkpt><trkpt lat="47.568251" lon="10.689685"><ele>792.74</ele><time>2009-05-23T12:03:18Z</time></trkpt><trkpt lat="47.568186" lon="10.690456"><ele>794.19</ele><time>2009-05-23T12:03:28Z</time></trkpt><trkpt lat="47.567986" lon="10.692463"><ele>796.11</ele><time>2009-05-23T12:03:41Z</time></trkpt><trkpt lat="47.567810" lon="10.694568"><ele>798.99</ele><time>2009-05-23T12:03:56Z</time></trkpt><trkpt lat="47.567782" lon="10.695540"><ele>799.47</ele><time>2009-05-23T12:04:07Z</time></trkpt><trkpt lat="47.567739" lon="10.696968"><ele>802.36</ele><time>2009-05-23T12:04:24Z</time></trkpt><trkpt lat="47.567747" lon="10.697042"><ele>802.84</ele><time>2009-05-23T12:04:25Z</time></trkpt><trkpt lat="47.567762" lon="10.697113"><ele>803.32</ele><time>2009-05-23T12:04:26Z</time></trkpt><trkpt lat="47.567783" lon="10.697182"><ele>803.32</ele><time>2009-05-23T12:04:27Z</time></trkpt><trkpt lat="47.567807" lon="10.697247"><ele>803.32</ele><time>2009-05-23T12:04:28Z</time></trkpt><trkpt lat="47.567837" lon="10.697307"><ele>803.32</ele><time>2009-05-23T12:04:29Z</time></trkpt><trkpt lat="47.567870" lon="10.697359"><ele>803.32</ele><time>2009-05-23T12:04:30Z</time></trkpt><trkpt lat="47.567905" lon="10.697402"><ele>802.84</ele><time>2009-05-23T12:04:31Z</time></trkpt><trkpt lat="47.567943" lon="10.697436"><ele>802.84</ele><time>2009-05-23T12:04:32Z</time></trkpt><trkpt lat="47.567980" lon="10.697468"><ele>802.84</ele><time>2009-05-23T12:04:33Z</time></trkpt><trkpt lat="47.568385" lon="10.697808"><ele>802.36</ele><time>2009-05-23T12:04:44Z</time></trkpt><trkpt lat="47.568907" lon="10.698319"><ele>802.36</ele><time>2009-05-23T12:05:00Z</time></trkpt><trkpt lat="47.569221" lon="10.698782"><ele>801.88</ele><time>2009-05-23T12:05:14Z</time></trkpt><trkpt lat="47.569426" lon="10.699148"><ele>799.47</ele><time>2009-05-23T12:05:27Z</time></trkpt><trkpt lat="47.569540" lon="10.699190"><ele>806.68</ele><time>2009-05-23T12:05:41Z</time></trkpt><trkpt lat="47.569604" lon="10.699192"><ele>810.53</ele><time>2009-05-23T12:05:53Z</time></trkpt><trkpt lat="47.569612" lon="10.699215"><ele>811.01</ele><time>2009-05-23T12:05:54Z</time></trkpt><trkpt lat="47.569723" lon="10.699778"><ele>815.82</ele><time>2009-05-23T12:06:05Z</time></trkpt><trkpt lat="47.569714" lon="10.699851"><ele>814.37</ele><time>2009-05-23T12:06:06Z</time></trkpt><trkpt lat="47.569677" lon="10.700239"><ele>811.49</ele><time>2009-05-23T12:06:10Z</time></trkpt><trkpt lat="47.569673" lon="10.700435"><ele>810.05</ele><time>2009-05-23T12:06:12Z</time></trkpt><trkpt lat="47.569662" lon="10.700524"><ele>809.57</ele><time>2009-05-23T12:06:13Z</time></trkpt><trkpt lat="47.569643" lon="10.700605"><ele>809.09</ele><time>2009-05-23T12:06:14Z</time></trkpt><trkpt lat="47.569621" lon="10.700672"><ele>808.61</ele><time>2009-05-23T12:06:15Z</time></trkpt><trkpt lat="47.569601" lon="10.700724"><ele>808.61</ele><time>2009-05-23T12:06:16Z</time></trkpt><trkpt lat="47.569542" lon="10.700901"><ele>808.61</ele><time>2009-05-23T12:06:26Z</time></trkpt><trkpt lat="47.569416" lon="10.701305"><ele>814.37</ele><time>2009-05-23T12:06:41Z</time></trkpt><trkpt lat="47.569354" lon="10.701466"><ele>815.34</ele><time>2009-05-23T12:06:43Z</time></trkpt><trkpt lat="47.569310" lon="10.701564"><ele>815.34</ele><time>2009-05-23T12:06:44Z</time></trkpt><trkpt lat="47.568999" lon="10.702168"><ele>817.74</ele><time>2009-05-23T12:06:50Z</time></trkpt><trkpt lat="47.568961" lon="10.702298"><ele>817.74</ele><time>2009-05-23T12:06:51Z</time></trkpt><trkpt lat="47.568519" lon="10.704043"><ele>814.37</ele><time>2009-05-23T12:07:03Z</time></trkpt><trkpt lat="47.567823" lon="10.706180"><ele>807.16</ele><time>2009-05-23T12:07:15Z</time></trkpt><trkpt lat="47.566411" lon="10.709450"><ele>803.80</ele><time>2009-05-23T12:07:32Z</time></trkpt><trkpt lat="47.565843" lon="10.710643"><ele>801.40</ele><time>2009-05-23T12:07:40Z</time></trkpt><trkpt lat="47.565733" lon="10.710851"><ele>801.88</ele><time>2009-05-23T12:07:42Z</time></trkpt><trkpt lat="47.565650" lon="10.710862"><ele>801.40</ele><time>2009-05-23T12:07:43Z</time></trkpt><trkpt lat="47.565562" lon="10.710827"><ele>800.92</ele><time>2009-05-23T12:07:44Z</time></trkpt><trkpt lat="47.565490" lon="10.710760"><ele>801.88</ele><time>2009-05-23T12:07:45Z</time></trkpt><trkpt lat="47.565413" lon="10.710643"><ele>801.40</ele><time>2009-05-23T12:07:46Z</time></trkpt><trkpt lat="47.565347" lon="10.710499"><ele>801.40</ele><time>2009-05-23T12:07:47Z</time></trkpt><trkpt lat="47.565284" lon="10.710335"><ele>801.40</ele><time>2009-05-23T12:07:48Z</time></trkpt><trkpt lat="47.565222" lon="10.710156"><ele>801.40</ele><time>2009-05-23T12:07:49Z</time></trkpt><trkpt lat="47.564857" lon="10.708266"><ele>801.88</ele><time>2009-05-23T12:07:59Z</time></trkpt><trkpt lat="47.564925" lon="10.706036"><ele>800.92</ele><time>2009-05-23T12:08:10Z</time></trkpt><trkpt lat="47.565348" lon="10.703823"><ele>800.44</ele><time>2009-05-23T12:08:22Z</time></trkpt><trkpt lat="47.565486" lon="10.702423"><ele>797.07</ele><time>2009-05-23T12:08:32Z</time></trkpt><trkpt lat="47.565397" lon="10.701477"><ele>795.15</ele><time>2009-05-23T12:08:43Z</time></trkpt><trkpt lat="47.565268" lon="10.700458"><ele>793.22</ele><time>2009-05-23T12:08:54Z</time></trkpt><trkpt lat="47.565225" lon="10.700322"><ele>793.22</ele><time>2009-05-23T12:08:55Z</time></trkpt><trkpt lat="47.565168" lon="10.700190"><ele>793.71</ele><time>2009-05-23T12:08:56Z</time></trkpt><trkpt lat="47.565100" lon="10.700060"><ele>794.67</ele><time>2009-05-23T12:08:57Z</time></trkpt><trkpt lat="47.565028" lon="10.699927"><ele>795.15</ele><time>2009-05-23T12:08:58Z</time></trkpt><trkpt lat="47.564122" lon="10.698564"><ele>802.36</ele><time>2009-05-23T12:09:08Z</time></trkpt><trkpt lat="47.563465" lon="10.697246"><ele>803.32</ele><time>2009-05-23T12:09:17Z</time></trkpt><trkpt lat="47.563025" lon="10.696453"><ele>802.36</ele><time>2009-05-23T12:09:22Z</time></trkpt><trkpt lat="47.562965" lon="10.696276"><ele>802.84</ele><time>2009-05-23T12:09:23Z</time></trkpt><trkpt lat="47.562935" lon="10.696090"><ele>803.32</ele><time>2009-05-23T12:09:24Z</time></trkpt><trkpt lat="47.562938" lon="10.695895"><ele>803.32</ele><time>2009-05-23T12:09:25Z</time></trkpt><trkpt lat="47.562952" lon="10.695706"><ele>803.80</ele><time>2009-05-23T12:09:26Z</time></trkpt><trkpt lat="47.562953" lon="10.695527"><ele>804.28</ele><time>2009-05-23T12:09:27Z</time></trkpt><trkpt lat="47.562940" lon="10.695342"><ele>804.28</ele><time>2009-05-23T12:09:28Z</time></trkpt><trkpt lat="47.562889" lon="10.695190"><ele>803.80</ele><time>2009-05-23T12:09:29Z</time></trkpt><trkpt lat="47.562812" lon="10.695137"><ele>804.28</ele><time>2009-05-23T12:09:30Z</time></trkpt><trkpt lat="47.562744" lon="10.695093"><ele>806.20</ele><time>2009-05-23T12:09:31Z</time></trkpt><trkpt lat="47.562653" lon="10.695094"><ele>807.16</ele><time>2009-05-23T12:09:32Z</time></trkpt><trkpt lat="47.562554" lon="10.695123"><ele>808.13</ele><time>2009-05-23T12:09:33Z</time></trkpt><trkpt lat="47.562469" lon="10.695158"><ele>808.61</ele><time>2009-05-23T12:09:34Z</time></trkpt><trkpt lat="47.562372" lon="10.695204"><ele>808.61</ele><time>2009-05-23T12:09:35Z</time></trkpt><trkpt lat="47.562278" lon="10.695246"><ele>809.09</ele><time>2009-05-23T12:09:36Z</time></trkpt><trkpt lat="47.562189" lon="10.695293"><ele>810.53</ele><time>2009-05-23T12:09:37Z</time></trkpt><trkpt lat="47.561527" lon="10.695687"><ele>814.85</ele><time>2009-05-23T12:09:44Z</time></trkpt><trkpt lat="47.561414" lon="10.695719"><ele>813.89</ele><time>2009-05-23T12:09:45Z</time></trkpt><trkpt lat="47.561099" lon="10.695808"><ele>811.49</ele><time>2009-05-23T12:09:48Z</time></trkpt><trkpt lat="47.561028" lon="10.695901"><ele>812.45</ele><time>2009-05-23T12:09:49Z</time></trkpt><trkpt lat="47.560969" lon="10.696022"><ele>812.45</ele><time>2009-05-23T12:09:50Z</time></trkpt><trkpt lat="47.560902" lon="10.696154"><ele>811.97</ele><time>2009-05-23T12:09:51Z</time></trkpt><trkpt lat="47.560839" lon="10.696305"><ele>811.49</ele><time>2009-05-23T12:09:52Z</time></trkpt><trkpt lat="47.560767" lon="10.696449"><ele>810.53</ele><time>2009-05-23T12:09:53Z</time></trkpt><trkpt lat="47.560658" lon="10.696522"><ele>809.57</ele><time>2009-05-23T12:09:54Z</time></trkpt><trkpt lat="47.560537" lon="10.696555"><ele>808.13</ele><time>2009-05-23T12:09:55Z</time></trkpt><trkpt lat="47.560427" lon="10.696557"><ele>809.09</ele><time>2009-05-23T12:09:56Z</time></trkpt><trkpt lat="47.560302" lon="10.696516"><ele>809.57</ele><time>2009-05-23T12:09:57Z</time></trkpt><trkpt lat="47.560181" lon="10.696453"><ele>810.05</ele><time>2009-05-23T12:09:58Z</time></trkpt><trkpt lat="47.560064" lon="10.696388"><ele>811.01</ele><time>2009-05-23T12:09:59Z</time></trkpt><trkpt lat="47.559951" lon="10.696315"><ele>811.01</ele><time>2009-05-23T12:10:00Z</time></trkpt><trkpt lat="47.559843" lon="10.696237"><ele>811.97</ele><time>2009-05-23T12:10:01Z</time></trkpt><trkpt lat="47.558936" lon="10.695169"><ele>812.93</ele><time>2009-05-23T12:10:11Z</time></trkpt><trkpt lat="47.558661" lon="10.694917"><ele>813.89</ele><time>2009-05-23T12:10:14Z</time></trkpt><trkpt lat="47.558240" lon="10.694568"><ele>811.97</ele><time>2009-05-23T12:10:19Z</time></trkpt><trkpt lat="47.558196" lon="10.694427"><ele>811.01</ele><time>2009-05-23T12:10:20Z</time></trkpt><trkpt lat="47.558157" lon="10.694272"><ele>810.53</ele><time>2009-05-23T12:10:21Z</time></trkpt><trkpt lat="47.557374" lon="10.691919"><ele>808.13</ele><time>2009-05-23T12:10:36Z</time></trkpt><trkpt lat="47.557348" lon="10.691755"><ele>808.61</ele><time>2009-05-23T12:10:37Z</time></trkpt><trkpt lat="47.557338" lon="10.691577"><ele>808.61</ele><time>2009-05-23T12:10:38Z</time></trkpt><trkpt lat="47.557342" lon="10.691392"><ele>808.61</ele><time>2009-05-23T12:10:39Z</time></trkpt><trkpt lat="47.557352" lon="10.691200"><ele>808.13</ele><time>2009-05-23T12:10:40Z</time></trkpt><trkpt lat="47.557357" lon="10.690255"><ele>807.64</ele><time>2009-05-23T12:10:44Z</time></trkpt><trkpt lat="47.557313" lon="10.690014"><ele>808.13</ele><time>2009-05-23T12:10:45Z</time></trkpt><trkpt lat="47.557258" lon="10.689788"><ele>807.64</ele><time>2009-05-23T12:10:46Z</time></trkpt><trkpt lat="47.556825" lon="10.688370"><ele>805.72</ele><time>2009-05-23T12:10:54Z</time></trkpt><trkpt lat="47.556024" lon="10.686559"><ele>804.76</ele><time>2009-05-23T12:11:07Z</time></trkpt><trkpt lat="47.555568" lon="10.685532"><ele>804.76</ele><time>2009-05-23T12:11:13Z</time></trkpt><trkpt lat="47.555522" lon="10.685313"><ele>804.76</ele><time>2009-05-23T12:11:14Z</time></trkpt><trkpt lat="47.555486" lon="10.685077"><ele>804.76</ele><time>2009-05-23T12:11:15Z</time></trkpt><trkpt lat="47.555127" lon="10.683314"><ele>805.24</ele><time>2009-05-23T12:11:21Z</time></trkpt><trkpt lat="47.554249" lon="10.681841"><ele>808.61</ele><time>2009-05-23T12:11:27Z</time></trkpt><trkpt lat="47.553468" lon="10.679970"><ele>809.09</ele><time>2009-05-23T12:11:34Z</time></trkpt><trkpt lat="47.552260" lon="10.676042"><ele>811.97</ele><time>2009-05-23T12:11:47Z</time></trkpt><trkpt lat="47.551455" lon="10.673512"><ele>812.45</ele><time>2009-05-23T12:11:56Z</time></trkpt><trkpt lat="47.551115" lon="10.671833"><ele>810.53</ele><time>2009-05-23T12:12:03Z</time></trkpt><trkpt lat="47.550863" lon="10.670096"><ele>808.61</ele><time>2009-05-23T12:12:12Z</time></trkpt><trkpt lat="47.550458" lon="10.668092"><ele>809.57</ele><time>2009-05-23T12:12:20Z</time></trkpt><trkpt lat="47.550338" lon="10.667242"><ele>811.01</ele><time>2009-05-23T12:12:23Z</time></trkpt><trkpt lat="47.550287" lon="10.665183"><ele>815.82</ele><time>2009-05-23T12:12:30Z</time></trkpt><trkpt lat="47.550249" lon="10.664951"><ele>815.34</ele><time>2009-05-23T12:12:31Z</time></trkpt><trkpt lat="47.550157" lon="10.664752"><ele>814.37</ele><time>2009-05-23T12:12:32Z</time></trkpt><trkpt lat="47.549963" lon="10.664121"><ele>814.85</ele><time>2009-05-23T12:12:35Z</time></trkpt><trkpt lat="47.549912" lon="10.663905"><ele>815.34</ele><time>2009-05-23T12:12:36Z</time></trkpt><trkpt lat="47.549846" lon="10.663701"><ele>815.82</ele><time>2009-05-23T12:12:37Z</time></trkpt><trkpt lat="47.549766" lon="10.663513"><ele>816.30</ele><time>2009-05-23T12:12:38Z</time></trkpt><trkpt lat="47.549689" lon="10.663337"><ele>816.78</ele><time>2009-05-23T12:12:39Z</time></trkpt><trkpt lat="47.549155" lon="10.662314"><ele>819.66</ele><time>2009-05-23T12:12:46Z</time></trkpt><trkpt lat="47.549063" lon="10.662218"><ele>818.70</ele><time>2009-05-23T12:12:47Z</time></trkpt><trkpt lat="47.548548" lon="10.661631"><ele>817.26</ele><time>2009-05-23T12:12:54Z</time></trkpt><trkpt lat="47.548506" lon="10.661551"><ele>817.26</ele><time>2009-05-23T12:12:55Z</time></trkpt><trkpt lat="47.548473" lon="10.661461"><ele>817.74</ele><time>2009-05-23T12:12:56Z</time></trkpt><trkpt lat="47.548443" lon="10.661357"><ele>817.74</ele><time>2009-05-23T12:12:57Z</time></trkpt><trkpt lat="47.548421" lon="10.661244"><ele>817.74</ele><time>2009-05-23T12:12:58Z</time></trkpt><trkpt lat="47.548411" lon="10.661130"><ele>817.74</ele><time>2009-05-23T12:12:59Z</time></trkpt><trkpt lat="47.548408" lon="10.661022"><ele>817.74</ele><time>2009-05-23T12:13:00Z</time></trkpt><trkpt lat="47.548410" lon="10.660923"><ele>817.74</ele><time>2009-05-23T12:13:01Z</time></trkpt><trkpt lat="47.548426" lon="10.660503"><ele>818.22</ele><time>2009-05-23T12:13:06Z</time></trkpt><trkpt lat="47.548439" lon="10.660438"><ele>817.74</ele><time>2009-05-23T12:13:07Z</time></trkpt><trkpt lat="47.548456" lon="10.660384"><ele>818.22</ele><time>2009-05-23T12:13:08Z</time></trkpt><trkpt lat="47.548493" lon="10.660255"><ele>817.74</ele><time>2009-05-23T12:13:10Z</time></trkpt><trkpt lat="47.548492" lon="10.660174"><ele>817.74</ele><time>2009-05-23T12:13:11Z</time></trkpt><trkpt lat="47.548464" lon="10.660089"><ele>817.74</ele><time>2009-05-23T12:13:12Z</time></trkpt><trkpt lat="47.548413" lon="10.660007"><ele>817.74</ele><time>2009-05-23T12:13:13Z</time></trkpt><trkpt lat="47.548353" lon="10.659922"><ele>818.22</ele><time>2009-05-23T12:13:14Z</time></trkpt><trkpt lat="47.548297" lon="10.659823"><ele>818.22</ele><time>2009-05-23T12:13:15Z</time></trkpt><trkpt lat="47.548241" lon="10.659719"><ele>818.22</ele><time>2009-05-23T12:13:16Z</time></trkpt><trkpt lat="47.548177" lon="10.659622"><ele>818.22</ele><time>2009-05-23T12:13:17Z</time></trkpt><trkpt lat="47.548105" lon="10.659536"><ele>818.22</ele><time>2009-05-23T12:13:18Z</time></trkpt><trkpt lat="47.548023" lon="10.659460"><ele>817.74</ele><time>2009-05-23T12:13:19Z</time></trkpt><trkpt lat="47.547933" lon="10.659395"><ele>817.74</ele><time>2009-05-23T12:13:20Z</time></trkpt><trkpt lat="47.547836" lon="10.659341"><ele>817.74</ele><time>2009-05-23T12:13:21Z</time></trkpt><trkpt lat="47.547731" lon="10.659301"><ele>817.26</ele><time>2009-05-23T12:13:22Z</time></trkpt><trkpt lat="47.547624" lon="10.659269"><ele>816.78</ele><time>2009-05-23T12:13:23Z</time></trkpt><trkpt lat="47.547427" lon="10.659189"><ele>816.30</ele><time>2009-05-23T12:13:25Z</time></trkpt><trkpt lat="47.547349" lon="10.659127"><ele>816.30</ele><time>2009-05-23T12:13:26Z</time></trkpt><trkpt lat="47.547288" lon="10.659051"><ele>816.30</ele><time>2009-05-23T12:13:27Z</time></trkpt><trkpt lat="47.547246" lon="10.658966"><ele>816.30</ele><time>2009-05-23T12:13:28Z</time></trkpt><trkpt lat="47.547217" lon="10.658880"><ele>816.30</ele><time>2009-05-23T12:13:29Z</time></trkpt><trkpt lat="47.547186" lon="10.658802"><ele>816.30</ele><time>2009-05-23T12:13:30Z</time></trkpt><trkpt lat="47.547134" lon="10.658749"><ele>816.30</ele><time>2009-05-23T12:13:31Z</time></trkpt><trkpt lat="47.547064" lon="10.658755"><ele>816.30</ele><time>2009-05-23T12:13:32Z</time></trkpt><trkpt lat="47.546996" lon="10.658820"><ele>816.30</ele><time>2009-05-23T12:13:33Z</time></trkpt><trkpt lat="47.546939" lon="10.658938"><ele>816.30</ele><time>2009-05-23T12:13:34Z</time></trkpt><trkpt lat="47.546883" lon="10.659099"><ele>816.30</ele><time>2009-05-23T12:13:35Z</time></trkpt><trkpt lat="47.546828" lon="10.659288"><ele>816.78</ele><time>2009-05-23T12:13:36Z</time></trkpt><trkpt lat="47.546772" lon="10.659505"><ele>816.78</ele><time>2009-05-23T12:13:37Z</time></trkpt><trkpt lat="47.546259" lon="10.661261"><ele>816.78</ele><time>2009-05-23T12:13:45Z</time></trkpt><trkpt lat="47.546160" lon="10.661448"><ele>816.78</ele><time>2009-05-23T12:13:46Z</time></trkpt><trkpt lat="47.546047" lon="10.661615"><ele>816.30</ele><time>2009-05-23T12:13:47Z</time></trkpt><trkpt lat="47.545926" lon="10.661768"><ele>816.78</ele><time>2009-05-23T12:13:48Z</time></trkpt><trkpt lat="47.545798" lon="10.661905"><ele>816.78</ele><time>2009-05-23T12:13:49Z</time></trkpt><trkpt lat="47.545659" lon="10.662024"><ele>816.30</ele><time>2009-05-23T12:13:50Z</time></trkpt><trkpt lat="47.545514" lon="10.662126"><ele>815.82</ele><time>2009-05-23T12:13:51Z</time></trkpt><trkpt lat="47.545357" lon="10.662209"><ele>815.82</ele><time>2009-05-23T12:13:52Z</time></trkpt><trkpt lat="47.545191" lon="10.662281"><ele>815.82</ele><time>2009-05-23T12:13:53Z</time></trkpt><trkpt lat="47.543910" lon="10.662995"><ele>817.74</ele><time>2009-05-23T12:14:00Z</time></trkpt><trkpt lat="47.543742" lon="10.663186"><ele>819.18</ele><time>2009-05-23T12:14:01Z</time></trkpt><trkpt lat="47.542399" lon="10.664552"><ele>823.51</ele><time>2009-05-23T12:14:09Z</time></trkpt><trkpt lat="47.540935" lon="10.665032"><ele>818.70</ele><time>2009-05-23T12:14:16Z</time></trkpt><trkpt lat="47.539551" lon="10.666053"><ele>820.62</ele><time>2009-05-23T12:14:23Z</time></trkpt><trkpt lat="47.538285" lon="10.666685"><ele>823.03</ele><time>2009-05-23T12:14:29Z</time></trkpt><trkpt lat="47.538071" lon="10.666674"><ele>823.51</ele><time>2009-05-23T12:14:30Z</time></trkpt><trkpt lat="47.537858" lon="10.666626"><ele>823.51</ele><time>2009-05-23T12:14:31Z</time></trkpt><trkpt lat="47.537085" lon="10.666459"><ele>826.87</ele><time>2009-05-23T12:14:35Z</time></trkpt><trkpt lat="47.536893" lon="10.666473"><ele>826.39</ele><time>2009-05-23T12:14:36Z</time></trkpt><trkpt lat="47.536703" lon="10.666516"><ele>826.87</ele><time>2009-05-23T12:14:37Z</time></trkpt><trkpt lat="47.536516" lon="10.666592"><ele>826.39</ele><time>2009-05-23T12:14:38Z</time></trkpt><trkpt lat="47.536335" lon="10.666698"><ele>826.39</ele><time>2009-05-23T12:14:39Z</time></trkpt><trkpt lat="47.536159" lon="10.666830"><ele>826.39</ele><time>2009-05-23T12:14:40Z</time></trkpt><trkpt lat="47.535989" lon="10.666983"><ele>825.91</ele><time>2009-05-23T12:14:41Z</time></trkpt><trkpt lat="47.535820" lon="10.667153"><ele>825.91</ele><time>2009-05-23T12:14:42Z</time></trkpt><trkpt lat="47.534227" lon="10.669029"><ele>824.47</ele><time>2009-05-23T12:14:51Z</time></trkpt><trkpt lat="47.534089" lon="10.669299"><ele>824.47</ele><time>2009-05-23T12:14:52Z</time></trkpt><trkpt lat="47.533398" lon="10.670628"><ele>823.99</ele><time>2009-05-23T12:14:57Z</time></trkpt><trkpt lat="47.533231" lon="10.670846"><ele>823.99</ele><time>2009-05-23T12:14:58Z</time></trkpt><trkpt lat="47.533055" lon="10.671046"><ele>823.99</ele><time>2009-05-23T12:14:59Z</time></trkpt><trkpt lat="47.530030" lon="10.674144"><ele>826.87</ele><time>2009-05-23T12:15:15Z</time></trkpt><trkpt lat="47.528133" lon="10.675665"><ele>831.20</ele><time>2009-05-23T12:15:24Z</time></trkpt><trkpt lat="47.525132" lon="10.677909"><ele>842.73</ele><time>2009-05-23T12:15:39Z</time></trkpt><trkpt lat="47.524494" lon="10.678427"><ele>843.69</ele><time>2009-05-23T12:15:43Z</time></trkpt><trkpt lat="47.524358" lon="10.678591"><ele>843.69</ele><time>2009-05-23T12:15:44Z</time></trkpt><trkpt lat="47.524240" lon="10.678767"><ele>844.18</ele><time>2009-05-23T12:15:45Z</time></trkpt><trkpt lat="47.524152" lon="10.678946"><ele>844.18</ele><time>2009-05-23T12:15:46Z</time></trkpt><trkpt lat="47.524085" lon="10.679109"><ele>844.66</ele><time>2009-05-23T12:15:47Z</time></trkpt><trkpt lat="47.524024" lon="10.679265"><ele>845.62</ele><time>2009-05-23T12:15:48Z</time></trkpt><trkpt lat="47.523180" lon="10.680836"><ele>846.58</ele><time>2009-05-23T12:15:57Z</time></trkpt><trkpt lat="47.521154" lon="10.683734"><ele>848.50</ele><time>2009-05-23T12:16:09Z</time></trkpt><trkpt lat="47.521015" lon="10.684022"><ele>848.50</ele><time>2009-05-23T12:16:10Z</time></trkpt><trkpt lat="47.520885" lon="10.684322"><ele>847.54</ele><time>2009-05-23T12:16:11Z</time></trkpt><trkpt lat="47.520205" lon="10.685642"><ele>846.10</ele><time>2009-05-23T12:16:17Z</time></trkpt><trkpt lat="47.519642" lon="10.686389"><ele>844.18</ele><time>2009-05-23T12:16:24Z</time></trkpt><trkpt lat="47.518770" lon="10.687796"><ele>844.18</ele><time>2009-05-23T12:16:33Z</time></trkpt><trkpt lat="47.517889" lon="10.689292"><ele>845.62</ele><time>2009-05-23T12:16:39Z</time></trkpt><trkpt lat="47.517781" lon="10.689564"><ele>846.10</ele><time>2009-05-23T12:16:40Z</time></trkpt><trkpt lat="47.517696" lon="10.689855"><ele>846.58</ele><time>2009-05-23T12:16:41Z</time></trkpt><trkpt lat="47.517637" lon="10.690167"><ele>847.06</ele><time>2009-05-23T12:16:42Z</time></trkpt><trkpt lat="47.517620" lon="10.690498"><ele>847.54</ele><time>2009-05-23T12:16:43Z</time></trkpt><trkpt lat="47.517666" lon="10.690862"><ele>847.54</ele><time>2009-05-23T12:16:44Z</time></trkpt><trkpt lat="47.517729" lon="10.691202"><ele>847.54</ele><time>2009-05-23T12:16:45Z</time></trkpt><trkpt lat="47.517814" lon="10.691541"><ele>847.54</ele><time>2009-05-23T12:16:46Z</time></trkpt><trkpt lat="47.517902" lon="10.691885"><ele>848.02</ele><time>2009-05-23T12:16:47Z</time></trkpt><trkpt lat="47.517968" lon="10.692231"><ele>848.02</ele><time>2009-05-23T12:16:48Z</time></trkpt><trkpt lat="47.518012" lon="10.692580"><ele>848.50</ele><time>2009-05-23T12:16:49Z</time></trkpt><trkpt lat="47.518028" lon="10.692931"><ele>848.50</ele><time>2009-05-23T12:16:50Z</time></trkpt><trkpt lat="47.518022" lon="10.693284"><ele>847.54</ele><time>2009-05-23T12:16:51Z</time></trkpt><trkpt lat="47.518009" lon="10.693636"><ele>846.10</ele><time>2009-05-23T12:16:52Z</time></trkpt><trkpt lat="47.518058" lon="10.696813"><ele>840.33</ele><time>2009-05-23T12:17:01Z</time></trkpt><trkpt lat="47.518441" lon="10.699179"><ele>841.77</ele><time>2009-05-23T12:17:08Z</time></trkpt><trkpt lat="47.518446" lon="10.699564"><ele>842.73</ele><time>2009-05-23T12:17:10Z</time></trkpt><trkpt lat="47.518419" lon="10.699724"><ele>842.25</ele><time>2009-05-23T12:17:11Z</time></trkpt><trkpt lat="47.518387" lon="10.699856"><ele>842.25</ele><time>2009-05-23T12:17:12Z</time></trkpt><trkpt lat="47.518348" lon="10.699957"><ele>842.25</ele><time>2009-05-23T12:17:13Z</time></trkpt><trkpt lat="47.518309" lon="10.700041"><ele>842.25</ele><time>2009-05-23T12:17:14Z</time></trkpt><trkpt lat="47.518287" lon="10.700120"><ele>842.25</ele><time>2009-05-23T12:17:15Z</time></trkpt><trkpt lat="47.518300" lon="10.700200"><ele>842.25</ele><time>2009-05-23T12:17:16Z</time></trkpt><trkpt lat="47.518334" lon="10.700251"><ele>841.77</ele><time>2009-05-23T12:17:17Z</time></trkpt><trkpt lat="47.518378" lon="10.700262"><ele>840.81</ele><time>2009-05-23T12:17:18Z</time></trkpt><trkpt lat="47.518424" lon="10.700219"><ele>840.81</ele><time>2009-05-23T12:17:19Z</time></trkpt><trkpt lat="47.518476" lon="10.700145"><ele>840.81</ele><time>2009-05-23T12:17:20Z</time></trkpt><trkpt lat="47.518487" lon="10.700051"><ele>840.81</ele><time>2009-05-23T12:17:21Z</time></trkpt><trkpt lat="47.518463" lon="10.699969"><ele>841.29</ele><time>2009-05-23T12:17:22Z</time></trkpt><trkpt lat="47.518376" lon="10.699943"><ele>840.81</ele><time>2009-05-23T12:17:23Z</time></trkpt><trkpt lat="47.518301" lon="10.699970"><ele>840.81</ele><time>2009-05-23T12:17:24Z</time></trkpt><trkpt lat="47.518223" lon="10.700038"><ele>840.33</ele><time>2009-05-23T12:17:25Z</time></trkpt><trkpt lat="47.518131" lon="10.700089"><ele>840.33</ele><time>2009-05-23T12:17:26Z</time></trkpt><trkpt lat="47.518007" lon="10.700083"><ele>839.85</ele><time>2009-05-23T12:17:27Z</time></trkpt><trkpt lat="47.517866" lon="10.700040"><ele>840.33</ele><time>2009-05-23T12:17:28Z</time></trkpt><trkpt lat="47.517693" lon="10.699942"><ele>840.33</ele><time>2009-05-23T12:17:29Z</time></trkpt><trkpt lat="47.517525" lon="10.699788"><ele>840.81</ele><time>2009-05-23T12:17:30Z</time></trkpt><trkpt lat="47.517391" lon="10.699601"><ele>841.29</ele><time>2009-05-23T12:17:31Z</time></trkpt><trkpt lat="47.517324" lon="10.699377"><ele>842.25</ele><time>2009-05-23T12:17:32Z</time></trkpt><trkpt lat="47.517267" lon="10.699130"><ele>842.73</ele><time>2009-05-23T12:17:33Z</time></trkpt><trkpt lat="47.517259" lon="10.698885"><ele>843.21</ele><time>2009-05-23T12:17:34Z</time></trkpt><trkpt lat="47.517295" lon="10.698649"><ele>843.69</ele><time>2009-05-23T12:17:35Z</time></trkpt><trkpt lat="47.517362" lon="10.698444"><ele>844.66</ele><time>2009-05-23T12:17:36Z</time></trkpt><trkpt lat="47.517460" lon="10.698231"><ele>844.66</ele><time>2009-05-23T12:17:37Z</time></trkpt><trkpt lat="47.517596" lon="10.698067"><ele>845.14</ele><time>2009-05-23T12:17:38Z</time></trkpt><trkpt lat="47.517774" lon="10.697954"><ele>846.58</ele><time>2009-05-23T12:17:39Z</time></trkpt><trkpt lat="47.517951" lon="10.697899"><ele>847.06</ele><time>2009-05-23T12:17:40Z</time></trkpt><trkpt lat="47.518127" lon="10.697899"><ele>847.54</ele><time>2009-05-23T12:17:41Z</time></trkpt><trkpt lat="47.518311" lon="10.697944"><ele>847.54</ele><time>2009-05-23T12:17:42Z</time></trkpt><trkpt lat="47.518484" lon="10.698048"><ele>847.54</ele><time>2009-05-23T12:17:43Z</time></trkpt><trkpt lat="47.518650" lon="10.698203"><ele>847.54</ele><time>2009-05-23T12:17:44Z</time></trkpt><trkpt lat="47.518822" lon="10.698379"><ele>847.54</ele><time>2009-05-23T12:17:45Z</time></trkpt><trkpt lat="47.518997" lon="10.698565"><ele>846.10</ele><time>2009-05-23T12:17:46Z</time></trkpt><trkpt lat="47.520684" lon="10.699908"><ele>836.96</ele><time>2009-05-23T12:17:55Z</time></trkpt><trkpt lat="47.522194" lon="10.700115"><ele>833.60</ele><time>2009-05-23T12:18:02Z</time></trkpt><trkpt lat="47.523346" lon="10.700557"><ele>831.68</ele><time>2009-05-23T12:18:08Z</time></trkpt><trkpt lat="47.523517" lon="10.700691"><ele>831.68</ele><time>2009-05-23T12:18:09Z</time></trkpt><trkpt lat="47.523681" lon="10.700848"><ele>831.68</ele><time>2009-05-23T12:18:10Z</time></trkpt><trkpt lat="47.523832" lon="10.701025"><ele>831.68</ele><time>2009-05-23T12:18:11Z</time></trkpt><trkpt lat="47.523967" lon="10.701214"><ele>832.16</ele><time>2009-05-23T12:18:12Z</time></trkpt><trkpt lat="47.524084" lon="10.701404"><ele>832.16</ele><time>2009-05-23T12:18:13Z</time></trkpt><trkpt lat="47.524186" lon="10.701587"><ele>832.64</ele><time>2009-05-23T12:18:14Z</time></trkpt><trkpt lat="47.524708" lon="10.702328"><ele>834.08</ele><time>2009-05-23T12:18:20Z</time></trkpt><trkpt lat="47.524750" lon="10.702412"><ele>834.56</ele><time>2009-05-23T12:18:21Z</time></trkpt><trkpt lat="47.524770" lon="10.702507"><ele>835.04</ele><time>2009-05-23T12:18:22Z</time></trkpt><trkpt lat="47.524766" lon="10.702624"><ele>835.52</ele><time>2009-05-23T12:18:23Z</time></trkpt><trkpt lat="47.524740" lon="10.702769"><ele>836.00</ele><time>2009-05-23T12:18:24Z</time></trkpt><trkpt lat="47.524695" lon="10.702949"><ele>836.48</ele><time>2009-05-23T12:18:25Z</time></trkpt><trkpt lat="47.524343" lon="10.704458"><ele>841.77</ele><time>2009-05-23T12:18:30Z</time></trkpt><trkpt lat="47.523675" lon="10.707218"><ele>845.62</ele><time>2009-05-23T12:18:39Z</time></trkpt><trkpt lat="47.523063" lon="10.709544"><ele>846.58</ele><time>2009-05-23T12:18:49Z</time></trkpt><trkpt lat="47.522509" lon="10.711555"><ele>847.54</ele><time>2009-05-23T12:19:01Z</time></trkpt><trkpt lat="47.522090" lon="10.713151"><ele>848.50</ele><time>2009-05-23T12:19:12Z</time></trkpt><trkpt lat="47.521660" lon="10.714740"><ele>848.98</ele><time>2009-05-23T12:19:20Z</time></trkpt><trkpt lat="47.521120" lon="10.716728"><ele>849.46</ele><time>2009-05-23T12:19:26Z</time></trkpt><trkpt lat="47.519845" lon="10.721162"><ele>852.35</ele><time>2009-05-23T12:19:40Z</time></trkpt><trkpt lat="47.518853" lon="10.723719"><ele>857.15</ele><time>2009-05-23T12:19:49Z</time></trkpt><trkpt lat="47.517387" lon="10.726332"><ele>864.84</ele><time>2009-05-23T12:19:58Z</time></trkpt><trkpt lat="47.515473" lon="10.728815"><ele>874.46</ele><time>2009-05-23T12:20:09Z</time></trkpt><trkpt lat="47.513621" lon="10.730630"><ele>883.11</ele><time>2009-05-23T12:20:19Z</time></trkpt><trkpt lat="47.511616" lon="10.732156"><ele>891.28</ele><time>2009-05-23T12:20:29Z</time></trkpt><trkpt lat="47.509189" lon="10.733413"><ele>900.41</ele><time>2009-05-23T12:20:40Z</time></trkpt><trkpt lat="47.506188" lon="10.734499"><ele>908.58</ele><time>2009-05-23T12:20:53Z</time></trkpt><trkpt lat="47.502021" lon="10.735829"><ele>915.79</ele><time>2009-05-23T12:21:11Z</time></trkpt><trkpt lat="47.500024" lon="10.737099"><ele>918.68</ele><time>2009-05-23T12:21:20Z</time></trkpt><trkpt lat="47.498765" lon="10.738678"><ele>919.16</ele><time>2009-05-23T12:21:27Z</time></trkpt><trkpt lat="47.497717" lon="10.740941"><ele>918.20</ele><time>2009-05-23T12:21:35Z</time></trkpt><trkpt lat="47.496113" lon="10.744363"><ele>916.27</ele><time>2009-05-23T12:21:47Z</time></trkpt><trkpt lat="47.494604" lon="10.746245"><ele>915.79</ele><time>2009-05-23T12:21:56Z</time></trkpt><trkpt lat="47.492842" lon="10.747592"><ele>914.35</ele><time>2009-05-23T12:22:06Z</time></trkpt><trkpt lat="47.491224" lon="10.748181"><ele>911.47</ele><time>2009-05-23T12:22:15Z</time></trkpt><trkpt lat="47.491044" lon="10.748164"><ele>910.51</ele><time>2009-05-23T12:22:16Z</time></trkpt><trkpt lat="47.490862" lon="10.748121"><ele>910.03</ele><time>2009-05-23T12:22:17Z</time></trkpt><trkpt lat="47.490682" lon="10.748048"><ele>909.06</ele><time>2009-05-23T12:22:18Z</time></trkpt><trkpt lat="47.490505" lon="10.747946"><ele>908.58</ele><time>2009-05-23T12:22:19Z</time></trkpt><trkpt lat="47.490332" lon="10.747810"><ele>907.14</ele><time>2009-05-23T12:22:20Z</time></trkpt><trkpt lat="47.490171" lon="10.747636"><ele>906.66</ele><time>2009-05-23T12:22:21Z</time></trkpt><trkpt lat="47.490020" lon="10.747430"><ele>905.22</ele><time>2009-05-23T12:22:22Z</time></trkpt><trkpt lat="47.489894" lon="10.747186"><ele>904.26</ele><time>2009-05-23T12:22:23Z</time></trkpt><trkpt lat="47.489812" lon="10.746893"><ele>903.78</ele><time>2009-05-23T12:22:24Z</time></trkpt><trkpt lat="47.489750" lon="10.746582"><ele>902.82</ele><time>2009-05-23T12:22:25Z</time></trkpt><trkpt lat="47.489690" lon="10.746283"><ele>901.37</ele><time>2009-05-23T12:22:26Z</time></trkpt><trkpt lat="47.489628" lon="10.745990"><ele>900.41</ele><time>2009-05-23T12:22:27Z</time></trkpt><trkpt lat="47.489300" lon="10.744850"><ele>896.57</ele><time>2009-05-23T12:22:31Z</time></trkpt><trkpt lat="47.489177" lon="10.744587"><ele>895.61</ele><time>2009-05-23T12:22:32Z</time></trkpt><trkpt lat="47.489038" lon="10.744345"><ele>894.16</ele><time>2009-05-23T12:22:33Z</time></trkpt><trkpt lat="47.488884" lon="10.744127"><ele>893.20</ele><time>2009-05-23T12:22:34Z</time></trkpt><trkpt lat="47.488716" lon="10.743937"><ele>892.24</ele><time>2009-05-23T12:22:35Z</time></trkpt><trkpt lat="47.488537" lon="10.743767"><ele>891.28</ele><time>2009-05-23T12:22:36Z</time></trkpt><trkpt lat="47.488349" lon="10.743620"><ele>890.32</ele><time>2009-05-23T12:22:37Z</time></trkpt><trkpt lat="47.488155" lon="10.743495"><ele>889.36</ele><time>2009-05-23T12:22:38Z</time></trkpt><trkpt lat="47.487958" lon="10.743390"><ele>887.91</ele><time>2009-05-23T12:22:39Z</time></trkpt><trkpt lat="47.487761" lon="10.743300"><ele>886.95</ele><time>2009-05-23T12:22:40Z</time></trkpt><trkpt lat="47.486327" lon="10.742397"><ele>879.74</ele><time>2009-05-23T12:22:48Z</time></trkpt><trkpt lat="47.485761" lon="10.741513"><ele>875.90</ele><time>2009-05-23T12:22:52Z</time></trkpt><trkpt lat="47.485664" lon="10.741253"><ele>875.42</ele><time>2009-05-23T12:22:53Z</time></trkpt><trkpt lat="47.484604" lon="10.739084"><ele>871.57</ele><time>2009-05-23T12:23:02Z</time></trkpt><trkpt lat="47.482992" lon="10.737273"><ele>870.13</ele><time>2009-05-23T12:23:11Z</time></trkpt><trkpt lat="47.481366" lon="10.735548"><ele>874.94</ele><time>2009-05-23T12:23:21Z</time></trkpt><trkpt lat="47.479921" lon="10.734492"><ele>872.53</ele><time>2009-05-23T12:23:30Z</time></trkpt><trkpt lat="47.479445" lon="10.733874"><ele>870.13</ele><time>2009-05-23T12:23:34Z</time></trkpt><trkpt lat="47.479352" lon="10.733677"><ele>869.65</ele><time>2009-05-23T12:23:35Z</time></trkpt><trkpt lat="47.479272" lon="10.733466"><ele>868.69</ele><time>2009-05-23T12:23:36Z</time></trkpt><trkpt lat="47.479209" lon="10.733245"><ele>867.73</ele><time>2009-05-23T12:23:37Z</time></trkpt><trkpt lat="47.479160" lon="10.733026"><ele>867.25</ele><time>2009-05-23T12:23:38Z</time></trkpt><trkpt lat="47.479124" lon="10.732813"><ele>866.77</ele><time>2009-05-23T12:23:39Z</time></trkpt><trkpt lat="47.479098" lon="10.732608"><ele>866.29</ele><time>2009-05-23T12:23:40Z</time></trkpt><trkpt lat="47.479085" lon="10.732411"><ele>865.32</ele><time>2009-05-23T12:23:41Z</time></trkpt><trkpt lat="47.479085" lon="10.732226"><ele>864.84</ele><time>2009-05-23T12:23:42Z</time></trkpt><trkpt lat="47.479102" lon="10.732055"><ele>863.88</ele><time>2009-05-23T12:23:43Z</time></trkpt><trkpt lat="47.479139" lon="10.731897"><ele>863.40</ele><time>2009-05-23T12:23:44Z</time></trkpt><trkpt lat="47.479192" lon="10.731751"><ele>862.44</ele><time>2009-05-23T12:23:45Z</time></trkpt><trkpt lat="47.479257" lon="10.731617"><ele>861.48</ele><time>2009-05-23T12:23:46Z</time></trkpt><trkpt lat="47.479326" lon="10.731499"><ele>861.00</ele><time>2009-05-23T12:23:47Z</time></trkpt><trkpt lat="47.479390" lon="10.731395"><ele>860.52</ele><time>2009-05-23T12:23:48Z</time></trkpt><trkpt lat="47.479525" lon="10.731139"><ele>860.04</ele><time>2009-05-23T12:23:51Z</time></trkpt><trkpt lat="47.479542" lon="10.731072"><ele>859.56</ele><time>2009-05-23T12:23:52Z</time></trkpt><trkpt lat="47.479545" lon="10.731021"><ele>859.56</ele><time>2009-05-23T12:23:53Z</time></trkpt><trkpt lat="47.479541" lon="10.730984"><ele>860.04</ele><time>2009-05-23T12:23:54Z</time></trkpt><trkpt lat="47.479536" lon="10.730959"><ele>860.04</ele><time>2009-05-23T12:23:55Z</time></trkpt><trkpt lat="47.479498" lon="10.730829"><ele>860.52</ele><time>2009-05-23T12:24:02Z</time></trkpt><trkpt lat="47.479490" lon="10.730743"><ele>860.52</ele><time>2009-05-23T12:24:03Z</time></trkpt><trkpt lat="47.479503" lon="10.730635"><ele>860.52</ele><time>2009-05-23T12:24:04Z</time></trkpt><trkpt lat="47.479540" lon="10.730511"><ele>860.52</ele><time>2009-05-23T12:24:05Z</time></trkpt><trkpt lat="47.479583" lon="10.730378"><ele>860.52</ele><time>2009-05-23T12:24:06Z</time></trkpt><trkpt lat="47.480150" lon="10.728558"><ele>859.08</ele><time>2009-05-23T12:24:17Z</time></trkpt><trkpt lat="47.480905" lon="10.726895"><ele>855.71</ele><time>2009-05-23T12:24:27Z</time></trkpt><trkpt lat="47.481838" lon="10.725284"><ele>855.23</ele><time>2009-05-23T12:24:40Z</time></trkpt><trkpt lat="47.482773" lon="10.723689"><ele>854.75</ele><time>2009-05-23T12:24:54Z</time></trkpt><trkpt lat="47.483507" lon="10.722417"><ele>854.75</ele><time>2009-05-23T12:25:06Z</time></trkpt><trkpt lat="47.484002" lon="10.721545"><ele>855.23</ele><time>2009-05-23T12:25:17Z</time></trkpt><trkpt lat="47.484386" lon="10.721039"><ele>855.71</ele><time>2009-05-23T12:25:26Z</time></trkpt><trkpt lat="47.484902" lon="10.720691"><ele>858.59</ele><time>2009-05-23T12:25:34Z</time></trkpt><trkpt lat="47.484961" lon="10.720702"><ele>859.56</ele><time>2009-05-23T12:25:35Z</time></trkpt><trkpt lat="47.485025" lon="10.720724"><ele>861.00</ele><time>2009-05-23T12:25:36Z</time></trkpt><trkpt lat="47.485253" lon="10.720857"><ele>866.77</ele><time>2009-05-23T12:25:39Z</time></trkpt><trkpt lat="47.485320" lon="10.720887"><ele>868.21</ele><time>2009-05-23T12:25:40Z</time></trkpt><trkpt lat="47.485407" lon="10.720844"><ele>868.69</ele><time>2009-05-23T12:25:41Z</time></trkpt><trkpt lat="47.485513" lon="10.720749"><ele>868.69</ele><time>2009-05-23T12:25:42Z</time></trkpt><trkpt lat="47.485602" lon="10.720685"><ele>867.73</ele><time>2009-05-23T12:25:43Z</time></trkpt><trkpt lat="47.485643" lon="10.720611"><ele>865.32</ele><time>2009-05-23T12:25:44Z</time></trkpt><trkpt lat="47.485658" lon="10.720457"><ele>864.36</ele><time>2009-05-23T12:25:45Z</time></trkpt><trkpt lat="47.486532" lon="10.719701"><ele>863.40</ele><time>2009-05-23T12:25:57Z</time></trkpt><trkpt lat="47.487302" lon="10.719417"><ele>865.80</ele><time>2009-05-23T12:26:06Z</time></trkpt><trkpt lat="47.488119" lon="10.719290"><ele>865.32</ele><time>2009-05-23T12:26:18Z</time></trkpt><trkpt lat="47.488343" lon="10.719145"><ele>863.40</ele><time>2009-05-23T12:26:22Z</time></trkpt><trkpt lat="47.488828" lon="10.718621"><ele>862.92</ele><time>2009-05-23T12:26:29Z</time></trkpt><trkpt lat="47.488995" lon="10.718372"><ele>862.44</ele><time>2009-05-23T12:26:35Z</time></trkpt><trkpt lat="47.489093" lon="10.718243"><ele>861.96</ele><time>2009-05-23T12:26:43Z</time></trkpt><trkpt lat="47.489141" lon="10.718146"><ele>861.00</ele><time>2009-05-23T12:26:46Z</time></trkpt><trkpt lat="47.489111" lon="10.718085"><ele>860.04</ele><time>2009-05-23T12:26:47Z</time></trkpt><trkpt lat="47.489067" lon="10.718020"><ele>859.56</ele><time>2009-05-23T12:26:48Z</time></trkpt><trkpt lat="47.489033" lon="10.717946"><ele>859.56</ele><time>2009-05-23T12:26:49Z</time></trkpt><trkpt lat="47.488994" lon="10.717870"><ele>859.08</ele><time>2009-05-23T12:26:50Z</time></trkpt><trkpt lat="47.488621" lon="10.716870"><ele>857.15</ele><time>2009-05-23T12:26:59Z</time></trkpt><trkpt lat="47.488540" lon="10.716595"><ele>857.15</ele><time>2009-05-23T12:27:01Z</time></trkpt><trkpt lat="47.488515" lon="10.716444"><ele>857.15</ele><time>2009-05-23T12:27:02Z</time></trkpt><trkpt lat="47.488315" lon="10.714602"><ele>858.11</ele><time>2009-05-23T12:27:13Z</time></trkpt><trkpt lat="47.488220" lon="10.712925"><ele>855.71</ele><time>2009-05-23T12:27:23Z</time></trkpt><trkpt lat="47.488232" lon="10.712774"><ele>855.23</ele><time>2009-05-23T12:27:24Z</time></trkpt><trkpt lat="47.488258" lon="10.712630"><ele>855.23</ele><time>2009-05-23T12:27:25Z</time></trkpt><trkpt lat="47.488297" lon="10.712493"><ele>854.75</ele><time>2009-05-23T12:27:26Z</time></trkpt><trkpt lat="47.488348" lon="10.712361"><ele>854.27</ele><time>2009-05-23T12:27:27Z</time></trkpt><trkpt lat="47.488412" lon="10.712233"><ele>853.79</ele><time>2009-05-23T12:27:28Z</time></trkpt><trkpt lat="47.488473" lon="10.712049"><ele>854.27</ele><time>2009-05-23T12:27:29Z</time></trkpt><trkpt lat="47.488550" lon="10.711926"><ele>853.79</ele><time>2009-05-23T12:27:30Z</time></trkpt><trkpt lat="47.488630" lon="10.711774"><ele>853.79</ele><time>2009-05-23T12:27:31Z</time></trkpt><trkpt lat="47.488911" lon="10.711417"><ele>854.27</ele><time>2009-05-23T12:27:34Z</time></trkpt><trkpt lat="47.488978" lon="10.711276"><ele>854.27</ele><time>2009-05-23T12:27:35Z</time></trkpt><trkpt lat="47.489023" lon="10.711119"><ele>853.79</ele><time>2009-05-23T12:27:36Z</time></trkpt><trkpt lat="47.489045" lon="10.710948"><ele>853.79</ele><time>2009-05-23T12:27:37Z</time></trkpt><trkpt lat="47.489048" lon="10.710774"><ele>853.31</ele><time>2009-05-23T12:27:38Z</time></trkpt><trkpt lat="47.489036" lon="10.710597"><ele>853.31</ele><time>2009-05-23T12:27:39Z</time></trkpt><trkpt lat="47.489017" lon="10.710418"><ele>852.83</ele><time>2009-05-23T12:27:40Z</time></trkpt><trkpt lat="47.488665" lon="10.708235"><ele>848.50</ele><time>2009-05-23T12:27:53Z</time></trkpt><trkpt lat="47.488011" lon="10.707229"><ele>847.06</ele><time>2009-05-23T12:28:01Z</time></trkpt><trkpt lat="47.486885" lon="10.706348"><ele>848.02</ele><time>2009-05-23T12:28:11Z</time></trkpt><trkpt lat="47.485813" lon="10.705607"><ele>848.98</ele><time>2009-05-23T12:28:20Z</time></trkpt><trkpt lat="47.484399" lon="10.704627"><ele>850.90</ele><time>2009-05-23T12:28:32Z</time></trkpt><trkpt lat="47.483524" lon="10.704002"><ele>851.87</ele><time>2009-05-23T12:28:41Z</time></trkpt><trkpt lat="47.481677" lon="10.702603"><ele>852.35</ele><time>2009-05-23T12:28:56Z</time></trkpt><trkpt lat="47.480356" lon="10.700930"><ele>861.96</ele><time>2009-05-23T12:29:08Z</time></trkpt><trkpt lat="47.479364" lon="10.699896"><ele>861.00</ele><time>2009-05-23T12:29:16Z</time></trkpt><trkpt lat="47.478356" lon="10.698481"><ele>860.04</ele><time>2009-05-23T12:29:25Z</time></trkpt><trkpt lat="47.478162" lon="10.698168"><ele>860.52</ele><time>2009-05-23T12:29:27Z</time></trkpt><trkpt lat="47.478078" lon="10.697989"><ele>860.52</ele><time>2009-05-23T12:29:28Z</time></trkpt><trkpt lat="47.477254" lon="10.695960"><ele>867.73</ele><time>2009-05-23T12:29:39Z</time></trkpt><trkpt lat="47.476292" lon="10.694642"><ele>867.73</ele><time>2009-05-23T12:29:48Z</time></trkpt><trkpt lat="47.475908" lon="10.694216"><ele>867.25</ele><time>2009-05-23T12:29:54Z</time></trkpt><trkpt lat="47.475283" lon="10.693416"><ele>867.25</ele><time>2009-05-23T12:30:02Z</time></trkpt><trkpt lat="47.473970" lon="10.691749"><ele>866.29</ele><time>2009-05-23T12:30:15Z</time></trkpt><trkpt lat="47.473579" lon="10.691226"><ele>865.32</ele><time>2009-05-23T12:30:21Z</time></trkpt><trkpt lat="47.473585" lon="10.691158"><ele>865.80</ele><time>2009-05-23T12:30:22Z</time></trkpt><trkpt lat="47.473599" lon="10.691059"><ele>866.29</ele><time>2009-05-23T12:30:23Z</time></trkpt><trkpt lat="47.473629" lon="10.690945"><ele>866.29</ele><time>2009-05-23T12:30:24Z</time></trkpt><trkpt lat="47.473681" lon="10.690809"><ele>866.77</ele><time>2009-05-23T12:30:25Z</time></trkpt><trkpt lat="47.473744" lon="10.690658"><ele>867.73</ele><time>2009-05-23T12:30:26Z</time></trkpt><trkpt lat="47.474371" lon="10.689175"><ele>875.42</ele><time>2009-05-23T12:30:35Z</time></trkpt><trkpt lat="47.474593" lon="10.688763"><ele>877.34</ele><time>2009-05-23T12:30:38Z</time></trkpt><trkpt lat="47.474680" lon="10.688652"><ele>878.30</ele><time>2009-05-23T12:30:39Z</time></trkpt><trkpt lat="47.474857" lon="10.688448"><ele>880.22</ele><time>2009-05-23T12:30:41Z</time></trkpt><trkpt lat="47.474934" lon="10.688332"><ele>880.71</ele><time>2009-05-23T12:30:42Z</time></trkpt><trkpt lat="47.475003" lon="10.688202"><ele>881.67</ele><time>2009-05-23T12:30:43Z</time></trkpt><trkpt lat="47.475066" lon="10.688063"><ele>882.15</ele><time>2009-05-23T12:30:44Z</time></trkpt><trkpt lat="47.475122" lon="10.687916"><ele>882.63</ele><time>2009-05-23T12:30:45Z</time></trkpt><trkpt lat="47.475458" lon="10.687064"><ele>886.95</ele><time>2009-05-23T12:30:51Z</time></trkpt><trkpt lat="47.475531" lon="10.686939"><ele>887.43</ele><time>2009-05-23T12:30:52Z</time></trkpt><trkpt lat="47.475613" lon="10.686827"><ele>888.40</ele><time>2009-05-23T12:30:53Z</time></trkpt><trkpt lat="47.475703" lon="10.686729"><ele>888.88</ele><time>2009-05-23T12:30:54Z</time></trkpt><trkpt lat="47.475794" lon="10.686636"><ele>889.84</ele><time>2009-05-23T12:30:55Z</time></trkpt><trkpt lat="47.476690" lon="10.685823"><ele>896.57</ele><time>2009-05-23T12:31:05Z</time></trkpt><trkpt lat="47.476790" lon="10.685707"><ele>897.05</ele><time>2009-05-23T12:31:06Z</time></trkpt><trkpt lat="47.476887" lon="10.685574"><ele>898.01</ele><time>2009-05-23T12:31:07Z</time></trkpt><trkpt lat="47.476981" lon="10.685428"><ele>898.97</ele><time>2009-05-23T12:31:08Z</time></trkpt><trkpt lat="47.477070" lon="10.685274"><ele>900.41</ele><time>2009-05-23T12:31:09Z</time></trkpt><trkpt lat="47.477799" lon="10.683468"><ele>909.54</ele><time>2009-05-23T12:31:19Z</time></trkpt><trkpt lat="47.478361" lon="10.681989"><ele>917.72</ele><time>2009-05-23T12:31:27Z</time></trkpt><trkpt lat="47.478396" lon="10.681832"><ele>918.68</ele><time>2009-05-23T12:31:28Z</time></trkpt><trkpt lat="47.478468" lon="10.681343"><ele>920.12</ele><time>2009-05-23T12:31:31Z</time></trkpt><trkpt lat="47.478477" lon="10.681170"><ele>921.08</ele><time>2009-05-23T12:31:32Z</time></trkpt><trkpt lat="47.478559" lon="10.679757"><ele>928.29</ele><time>2009-05-23T12:31:42Z</time></trkpt><trkpt lat="47.478551" lon="10.679689"><ele>928.77</ele><time>2009-05-23T12:31:43Z</time></trkpt><trkpt lat="47.478536" lon="10.679650"><ele>929.25</ele><time>2009-05-23T12:31:44Z</time></trkpt><trkpt lat="47.478510" lon="10.679634"><ele>929.25</ele><time>2009-05-23T12:31:45Z</time></trkpt><trkpt lat="47.478481" lon="10.679633"><ele>929.73</ele><time>2009-05-23T12:31:46Z</time></trkpt><trkpt lat="47.478455" lon="10.679642"><ele>929.25</ele><time>2009-05-23T12:31:47Z</time></trkpt><trkpt lat="47.478433" lon="10.679664"><ele>930.21</ele><time>2009-05-23T12:31:48Z</time></trkpt><trkpt lat="47.478414" lon="10.679692"><ele>931.17</ele><time>2009-05-23T12:31:49Z</time></trkpt><trkpt lat="47.478409" lon="10.679715"><ele>932.14</ele><time>2009-05-23T12:31:50Z</time></trkpt><trkpt lat="47.478399" lon="10.679741"><ele>932.14</ele><time>2009-05-23T12:31:51Z</time></trkpt><trkpt lat="47.478395" lon="10.679770"><ele>931.65</ele><time>2009-05-23T12:31:52Z</time></trkpt><trkpt lat="47.478399" lon="10.679800"><ele>931.65</ele><time>2009-05-23T12:31:53Z</time></trkpt><trkpt lat="47.478409" lon="10.679829"><ele>931.65</ele><time>2009-05-23T12:31:54Z</time></trkpt><trkpt lat="47.478410" lon="10.679853"><ele>928.29</ele><time>2009-05-23T12:32:07Z</time></trkpt><trkpt lat="47.478430" lon="10.679868"><ele>929.25</ele><time>2009-05-23T12:32:43Z</time></trkpt></trkseg><trkseg><trkpt lat="47.478450" lon="10.679834"><ele>941.75</ele><time>2009-05-23T12:58:55Z</time></trkpt><trkpt lat="47.478458" lon="10.679840"><ele>940.79</ele><time>2009-05-23T12:58:57Z</time></trkpt><trkpt lat="47.478495" lon="10.680040"><ele>938.38</ele><time>2009-05-23T12:59:02Z</time></trkpt><trkpt lat="47.478497" lon="10.680119"><ele>936.94</ele><time>2009-05-23T12:59:03Z</time></trkpt><trkpt lat="47.478462" lon="10.681138"><ele>926.85</ele><time>2009-05-23T12:59:11Z</time></trkpt><trkpt lat="47.478407" lon="10.681844"><ele>922.52</ele><time>2009-05-23T12:59:15Z</time></trkpt><trkpt lat="47.478367" lon="10.682018"><ele>922.04</ele><time>2009-05-23T12:59:16Z</time></trkpt><trkpt lat="47.478320" lon="10.682186"><ele>921.56</ele><time>2009-05-23T12:59:17Z</time></trkpt><trkpt lat="47.477658" lon="10.683912"><ele>909.54</ele><time>2009-05-23T12:59:28Z</time></trkpt><trkpt lat="47.476893" lon="10.685593"><ele>897.53</ele><time>2009-05-23T12:59:40Z</time></trkpt><trkpt lat="47.475967" lon="10.686536"><ele>889.84</ele><time>2009-05-23T12:59:50Z</time></trkpt><trkpt lat="47.475524" lon="10.686971"><ele>885.99</ele><time>2009-05-23T12:59:55Z</time></trkpt><trkpt lat="47.475452" lon="10.687086"><ele>884.55</ele><time>2009-05-23T12:59:56Z</time></trkpt><trkpt lat="47.475391" lon="10.687213"><ele>883.59</ele><time>2009-05-23T12:59:57Z</time></trkpt><trkpt lat="47.475332" lon="10.687352"><ele>882.63</ele><time>2009-05-23T12:59:58Z</time></trkpt><trkpt lat="47.475277" lon="10.687500"><ele>882.15</ele><time>2009-05-23T12:59:59Z</time></trkpt><trkpt lat="47.474947" lon="10.688328"><ele>877.82</ele><time>2009-05-23T13:00:05Z</time></trkpt><trkpt lat="47.474877" lon="10.688440"><ele>876.86</ele><time>2009-05-23T13:00:06Z</time></trkpt><trkpt lat="47.474801" lon="10.688542"><ele>876.38</ele><time>2009-05-23T13:00:07Z</time></trkpt><trkpt lat="47.474473" lon="10.688993"><ele>873.50</ele><time>2009-05-23T13:00:11Z</time></trkpt><trkpt lat="47.474406" lon="10.689135"><ele>873.50</ele><time>2009-05-23T13:00:12Z</time></trkpt><trkpt lat="47.473723" lon="10.690825"><ele>865.80</ele><time>2009-05-23T13:00:24Z</time></trkpt><trkpt lat="47.473637" lon="10.691032"><ele>864.36</ele><time>2009-05-23T13:00:26Z</time></trkpt><trkpt lat="47.473594" lon="10.691094"><ele>864.36</ele><time>2009-05-23T13:00:27Z</time></trkpt><trkpt lat="47.473558" lon="10.691133"><ele>863.88</ele><time>2009-05-23T13:00:28Z</time></trkpt><trkpt lat="47.473516" lon="10.691153"><ele>863.88</ele><time>2009-05-23T13:00:29Z</time></trkpt><trkpt lat="47.473466" lon="10.691146"><ele>863.88</ele><time>2009-05-23T13:00:30Z</time></trkpt><trkpt lat="47.473407" lon="10.691112"><ele>863.88</ele><time>2009-05-23T13:00:31Z</time></trkpt><trkpt lat="47.473337" lon="10.691057"><ele>863.88</ele><time>2009-05-23T13:00:32Z</time></trkpt><trkpt lat="47.472554" lon="10.690539"><ele>865.32</ele><time>2009-05-23T13:00:39Z</time></trkpt><trkpt lat="47.471587" lon="10.689366"><ele>863.40</ele><time>2009-05-23T13:00:48Z</time></trkpt><trkpt lat="47.470542" lon="10.688093"><ele>864.84</ele><time>2009-05-23T13:00:56Z</time></trkpt><trkpt lat="47.468901" lon="10.686456"><ele>866.77</ele><time>2009-05-23T13:01:05Z</time></trkpt><trkpt lat="47.467276" lon="10.684114"><ele>866.77</ele><time>2009-05-23T13:01:15Z</time></trkpt><trkpt lat="47.465310" lon="10.681528"><ele>865.32</ele><time>2009-05-23T13:01:27Z</time></trkpt><trkpt lat="47.463586" lon="10.680394"><ele>866.29</ele><time>2009-05-23T13:01:35Z</time></trkpt><trkpt lat="47.462055" lon="10.678991"><ele>866.77</ele><time>2009-05-23T13:01:42Z</time></trkpt><trkpt lat="47.460621" lon="10.676815"><ele>869.17</ele><time>2009-05-23T13:01:49Z</time></trkpt><trkpt lat="47.458729" lon="10.673893"><ele>871.09</ele><time>2009-05-23T13:01:59Z</time></trkpt><trkpt lat="47.456909" lon="10.671067"><ele>875.90</ele><time>2009-05-23T13:02:09Z</time></trkpt><trkpt lat="47.456307" lon="10.669143"><ele>876.86</ele><time>2009-05-23T13:02:14Z</time></trkpt><trkpt lat="47.455491" lon="10.666375"><ele>877.34</ele><time>2009-05-23T13:02:21Z</time></trkpt><trkpt lat="47.454274" lon="10.664545"><ele>877.34</ele><time>2009-05-23T13:02:27Z</time></trkpt><trkpt lat="47.451102" lon="10.660419"><ele>876.86</ele><time>2009-05-23T13:02:42Z</time></trkpt><trkpt lat="47.447643" lon="10.655901"><ele>877.82</ele><time>2009-05-23T13:02:58Z</time></trkpt><trkpt lat="47.445562" lon="10.653158"><ele>878.78</ele><time>2009-05-23T13:03:08Z</time></trkpt><trkpt lat="47.443600" lon="10.650603"><ele>880.22</ele><time>2009-05-23T13:03:19Z</time></trkpt><trkpt lat="47.442338" lon="10.648866"><ele>881.19</ele><time>2009-05-23T13:03:25Z</time></trkpt><trkpt lat="47.441513" lon="10.647025"><ele>881.67</ele><time>2009-05-23T13:03:31Z</time></trkpt><trkpt lat="47.440972" lon="10.644769"><ele>885.03</ele><time>2009-05-23T13:03:39Z</time></trkpt><trkpt lat="47.440813" lon="10.643088"><ele>887.91</ele><time>2009-05-23T13:03:46Z</time></trkpt><trkpt lat="47.440822" lon="10.642820"><ele>887.91</ele><time>2009-05-23T13:03:48Z</time></trkpt><trkpt lat="47.440839" lon="10.642713"><ele>887.91</ele><time>2009-05-23T13:03:49Z</time></trkpt><trkpt lat="47.440866" lon="10.642621"><ele>888.40</ele><time>2009-05-23T13:03:50Z</time></trkpt><trkpt lat="47.440904" lon="10.642542"><ele>888.40</ele><time>2009-05-23T13:03:51Z</time></trkpt><trkpt lat="47.440950" lon="10.642477"><ele>888.88</ele><time>2009-05-23T13:03:52Z</time></trkpt><trkpt lat="47.441008" lon="10.642437"><ele>888.88</ele><time>2009-05-23T13:03:53Z</time></trkpt><trkpt lat="47.441075" lon="10.642416"><ele>888.88</ele><time>2009-05-23T13:03:54Z</time></trkpt><trkpt lat="47.441150" lon="10.642408"><ele>888.88</ele><time>2009-05-23T13:03:55Z</time></trkpt><trkpt lat="47.441233" lon="10.642407"><ele>888.88</ele><time>2009-05-23T13:03:56Z</time></trkpt><trkpt lat="47.441921" lon="10.642368"><ele>888.88</ele><time>2009-05-23T13:04:03Z</time></trkpt><trkpt lat="47.442017" lon="10.642317"><ele>888.88</ele><time>2009-05-23T13:04:04Z</time></trkpt><trkpt lat="47.442107" lon="10.642252"><ele>889.84</ele><time>2009-05-23T13:04:05Z</time></trkpt><trkpt lat="47.442184" lon="10.642174"><ele>890.80</ele><time>2009-05-23T13:04:06Z</time></trkpt><trkpt lat="47.442257" lon="10.642090"><ele>891.28</ele><time>2009-05-23T13:04:07Z</time></trkpt><trkpt lat="47.442325" lon="10.641994"><ele>891.28</ele><time>2009-05-23T13:04:08Z</time></trkpt><trkpt lat="47.442396" lon="10.641903"><ele>891.76</ele><time>2009-05-23T13:04:09Z</time></trkpt><trkpt lat="47.442545" lon="10.641728"><ele>891.76</ele><time>2009-05-23T13:04:11Z</time></trkpt><trkpt lat="47.443640" lon="10.640781"><ele>896.57</ele><time>2009-05-23T13:04:23Z</time></trkpt><trkpt lat="47.444148" lon="10.640245"><ele>898.49</ele><time>2009-05-23T13:04:29Z</time></trkpt><trkpt lat="47.444240" lon="10.640174"><ele>898.97</ele><time>2009-05-23T13:04:30Z</time></trkpt><trkpt lat="47.444337" lon="10.640123"><ele>898.97</ele><time>2009-05-23T13:04:31Z</time></trkpt><trkpt lat="47.444437" lon="10.640091"><ele>899.45</ele><time>2009-05-23T13:04:32Z</time></trkpt><trkpt lat="47.444545" lon="10.640073"><ele>899.93</ele><time>2009-05-23T13:04:33Z</time></trkpt><trkpt lat="47.445087" lon="10.639910"><ele>901.85</ele><time>2009-05-23T13:04:38Z</time></trkpt><trkpt lat="47.446216" lon="10.639059"><ele>903.78</ele><time>2009-05-23T13:04:50Z</time></trkpt><trkpt lat="47.447149" lon="10.638539"><ele>904.74</ele><time>2009-05-23T13:04:57Z</time></trkpt><trkpt lat="47.448224" lon="10.638181"><ele>908.58</ele><time>2009-05-23T13:05:03Z</time></trkpt><trkpt lat="47.448319" lon="10.638252"><ele>908.58</ele><time>2009-05-23T13:05:04Z</time></trkpt><trkpt lat="47.448390" lon="10.638370"><ele>909.06</ele><time>2009-05-23T13:05:05Z</time></trkpt><trkpt lat="47.448445" lon="10.638539"><ele>909.06</ele><time>2009-05-23T13:05:06Z</time></trkpt><trkpt lat="47.448485" lon="10.638766"><ele>910.51</ele><time>2009-05-23T13:05:07Z</time></trkpt><trkpt lat="47.448497" lon="10.639009"><ele>911.47</ele><time>2009-05-23T13:05:08Z</time></trkpt><trkpt lat="47.448506" lon="10.639258"><ele>911.47</ele><time>2009-05-23T13:05:09Z</time></trkpt><trkpt lat="47.448508" lon="10.639540"><ele>912.43</ele><time>2009-05-23T13:05:10Z</time></trkpt><trkpt lat="47.448503" lon="10.639871"><ele>913.39</ele><time>2009-05-23T13:05:11Z</time></trkpt><trkpt lat="47.448497" lon="10.640216"><ele>914.83</ele><time>2009-05-23T13:05:12Z</time></trkpt><trkpt lat="47.448490" lon="10.640566"><ele>918.20</ele><time>2009-05-23T13:05:13Z</time></trkpt><trkpt lat="47.448590" lon="10.641432"><ele>923.48</ele><time>2009-05-23T13:05:16Z</time></trkpt><trkpt lat="47.448616" lon="10.641668"><ele>925.41</ele><time>2009-05-23T13:05:17Z</time></trkpt><trkpt lat="47.448606" lon="10.641889"><ele>926.85</ele><time>2009-05-23T13:05:18Z</time></trkpt><trkpt lat="47.448591" lon="10.642319"><ele>930.21</ele><time>2009-05-23T13:05:20Z</time></trkpt><trkpt lat="47.448612" lon="10.642549"><ele>931.65</ele><time>2009-05-23T13:05:21Z</time></trkpt><trkpt lat="47.448628" lon="10.642756"><ele>932.62</ele><time>2009-05-23T13:05:22Z</time></trkpt><trkpt lat="47.448648" lon="10.642904"><ele>933.58</ele><time>2009-05-23T13:05:23Z</time></trkpt><trkpt lat="47.448706" lon="10.642998"><ele>934.06</ele><time>2009-05-23T13:05:24Z</time></trkpt><trkpt lat="47.448770" lon="10.643048"><ele>934.54</ele><time>2009-05-23T13:05:25Z</time></trkpt><trkpt lat="47.448866" lon="10.642991"><ele>935.98</ele><time>2009-05-23T13:05:26Z</time></trkpt><trkpt lat="47.448902" lon="10.642876"><ele>936.94</ele><time>2009-05-23T13:05:27Z</time></trkpt><trkpt lat="47.448910" lon="10.642729"><ele>937.90</ele><time>2009-05-23T13:05:28Z</time></trkpt><trkpt lat="47.448907" lon="10.642569"><ele>937.90</ele><time>2009-05-23T13:05:29Z</time></trkpt><trkpt lat="47.448890" lon="10.642403"><ele>938.38</ele><time>2009-05-23T13:05:30Z</time></trkpt><trkpt lat="47.448887" lon="10.642194"><ele>939.83</ele><time>2009-05-23T13:05:31Z</time></trkpt><trkpt lat="47.448915" lon="10.641961"><ele>940.79</ele><time>2009-05-23T13:05:32Z</time></trkpt><trkpt lat="47.448972" lon="10.641717"><ele>941.75</ele><time>2009-05-23T13:05:33Z</time></trkpt><trkpt lat="47.449058" lon="10.641428"><ele>943.67</ele><time>2009-05-23T13:05:34Z</time></trkpt><trkpt lat="47.449113" lon="10.641099"><ele>945.11</ele><time>2009-05-23T13:05:35Z</time></trkpt><trkpt lat="47.449163" lon="10.640735"><ele>946.56</ele><time>2009-05-23T13:05:36Z</time></trkpt><trkpt lat="47.449214" lon="10.640354"><ele>946.56</ele><time>2009-05-23T13:05:37Z</time></trkpt><trkpt lat="47.449261" lon="10.639897"><ele>945.11</ele><time>2009-05-23T13:05:38Z</time></trkpt><trkpt lat="47.449291" lon="10.639427"><ele>946.07</ele><time>2009-05-23T13:05:39Z</time></trkpt><trkpt lat="47.449545" lon="10.637321"><ele>956.65</ele><time>2009-05-23T13:05:45Z</time></trkpt><trkpt lat="47.449649" lon="10.637020"><ele>960.01</ele><time>2009-05-23T13:05:48Z</time></trkpt><trkpt lat="47.449788" lon="10.637296"><ele>960.98</ele><time>2009-05-23T13:05:50Z</time></trkpt><trkpt lat="47.449762" lon="10.637490"><ele>961.94</ele><time>2009-05-23T13:05:51Z</time></trkpt><trkpt lat="47.449732" lon="10.637706"><ele>962.90</ele><time>2009-05-23T13:05:52Z</time></trkpt><trkpt lat="47.449690" lon="10.637932"><ele>962.90</ele><time>2009-05-23T13:05:53Z</time></trkpt><trkpt lat="47.449636" lon="10.638213"><ele>963.86</ele><time>2009-05-23T13:05:54Z</time></trkpt><trkpt lat="47.449585" lon="10.638553"><ele>964.82</ele><time>2009-05-23T13:05:55Z</time></trkpt><trkpt lat="47.449534" lon="10.638888"><ele>965.30</ele><time>2009-05-23T13:05:56Z</time></trkpt><trkpt lat="47.449448" lon="10.640827"><ele>972.03</ele><time>2009-05-23T13:06:02Z</time></trkpt><trkpt lat="47.449637" lon="10.641693"><ele>976.84</ele><time>2009-05-23T13:06:07Z</time></trkpt><trkpt lat="47.449723" lon="10.641719"><ele>977.80</ele><time>2009-05-23T13:06:08Z</time></trkpt><trkpt lat="47.449815" lon="10.641582"><ele>978.76</ele><time>2009-05-23T13:06:10Z</time></trkpt><trkpt lat="47.449803" lon="10.641449"><ele>980.68</ele><time>2009-05-23T13:06:11Z</time></trkpt><trkpt lat="47.449665" lon="10.640988"><ele>983.57</ele><time>2009-05-23T13:06:13Z</time></trkpt><trkpt lat="47.449603" lon="10.640828"><ele>985.49</ele><time>2009-05-23T13:06:14Z</time></trkpt><trkpt lat="47.449562" lon="10.640621"><ele>988.37</ele><time>2009-05-23T13:06:15Z</time></trkpt><trkpt lat="47.449583" lon="10.640149"><ele>984.05</ele><time>2009-05-23T13:06:16Z</time></trkpt><trkpt lat="47.449613" lon="10.639816"><ele>980.20</ele><time>2009-05-23T13:06:17Z</time></trkpt><trkpt lat="47.449713" lon="10.639530"><ele>980.68</ele><time>2009-05-23T13:06:18Z</time></trkpt><trkpt lat="47.449812" lon="10.639229"><ele>981.16</ele><time>2009-05-23T13:06:19Z</time></trkpt><trkpt lat="47.449932" lon="10.638888"><ele>982.60</ele><time>2009-05-23T13:06:20Z</time></trkpt><trkpt lat="47.450147" lon="10.638115"><ele>984.05</ele><time>2009-05-23T13:06:22Z</time></trkpt><trkpt lat="47.450577" lon="10.636254"><ele>1000.87</ele><time>2009-05-23T13:06:28Z</time></trkpt><trkpt lat="47.450723" lon="10.636039"><ele>1004.23</ele><time>2009-05-23T13:06:29Z</time></trkpt><trkpt lat="47.450899" lon="10.635912"><ele>1007.12</ele><time>2009-05-23T13:06:30Z</time></trkpt><trkpt lat="47.451142" lon="10.635675"><ele>1009.04</ele><time>2009-05-23T13:06:32Z</time></trkpt><trkpt lat="47.451226" lon="10.635602"><ele>1008.56</ele><time>2009-05-23T13:06:33Z</time></trkpt><trkpt lat="47.451222" lon="10.635472"><ele>1009.52</ele><time>2009-05-23T13:06:34Z</time></trkpt><trkpt lat="47.451194" lon="10.635347"><ele>1009.52</ele><time>2009-05-23T13:06:35Z</time></trkpt><trkpt lat="47.451102" lon="10.635212"><ele>1014.81</ele><time>2009-05-23T13:06:36Z</time></trkpt><trkpt lat="47.451030" lon="10.635030"><ele>1016.73</ele><time>2009-05-23T13:06:37Z</time></trkpt><trkpt lat="47.450986" lon="10.634537"><ele>1020.10</ele><time>2009-05-23T13:06:39Z</time></trkpt><trkpt lat="47.451053" lon="10.634303"><ele>1020.58</ele><time>2009-05-23T13:06:40Z</time></trkpt><trkpt lat="47.451165" lon="10.634081"><ele>1022.50</ele><time>2009-05-23T13:06:41Z</time></trkpt><trkpt lat="47.451284" lon="10.633895"><ele>1023.94</ele><time>2009-05-23T13:06:42Z</time></trkpt><trkpt lat="47.451427" lon="10.633729"><ele>1023.46</ele><time>2009-05-23T13:06:43Z</time></trkpt><trkpt lat="47.451543" lon="10.633582"><ele>1023.46</ele><time>2009-05-23T13:06:44Z</time></trkpt><trkpt lat="47.451588" lon="10.633393"><ele>1025.86</ele><time>2009-05-23T13:06:45Z</time></trkpt><trkpt lat="47.451617" lon="10.633175"><ele>1029.23</ele><time>2009-05-23T13:06:46Z</time></trkpt><trkpt lat="47.451680" lon="10.632926"><ele>1030.19</ele><time>2009-05-23T13:06:47Z</time></trkpt><trkpt lat="47.451758" lon="10.632664"><ele>1032.11</ele><time>2009-05-23T13:06:48Z</time></trkpt><trkpt lat="47.452166" lon="10.631066"><ele>1035.00</ele><time>2009-05-23T13:06:53Z</time></trkpt><trkpt lat="47.452169" lon="10.630793"><ele>1035.48</ele><time>2009-05-23T13:06:54Z</time></trkpt><trkpt lat="47.452108" lon="10.630549"><ele>1036.44</ele><time>2009-05-23T13:06:55Z</time></trkpt><trkpt lat="47.452032" lon="10.629988"><ele>1038.36</ele><time>2009-05-23T13:06:58Z</time></trkpt><trkpt lat="47.452053" lon="10.629806"><ele>1040.28</ele><time>2009-05-23T13:06:59Z</time></trkpt><trkpt lat="47.452091" lon="10.629406"><ele>1041.25</ele><time>2009-05-23T13:07:01Z</time></trkpt><trkpt lat="47.452073" lon="10.629138"><ele>1041.73</ele><time>2009-05-23T13:07:02Z</time></trkpt><trkpt lat="47.452021" lon="10.628858"><ele>1042.69</ele><time>2009-05-23T13:07:03Z</time></trkpt><trkpt lat="47.451986" lon="10.628604"><ele>1043.17</ele><time>2009-05-23T13:07:04Z</time></trkpt><trkpt lat="47.451966" lon="10.628350"><ele>1043.65</ele><time>2009-05-23T13:07:05Z</time></trkpt><trkpt lat="47.451973" lon="10.628106"><ele>1044.13</ele><time>2009-05-23T13:07:06Z</time></trkpt><trkpt lat="47.452017" lon="10.627875"><ele>1045.09</ele><time>2009-05-23T13:07:07Z</time></trkpt><trkpt lat="47.452068" lon="10.627648"><ele>1045.57</ele><time>2009-05-23T13:07:08Z</time></trkpt><trkpt lat="47.452110" lon="10.627441"><ele>1047.01</ele><time>2009-05-23T13:07:09Z</time></trkpt><trkpt lat="47.452104" lon="10.627148"><ele>1047.97</ele><time>2009-05-23T13:07:11Z</time></trkpt><trkpt lat="47.452056" lon="10.627011"><ele>1048.45</ele><time>2009-05-23T13:07:12Z</time></trkpt><trkpt lat="47.452017" lon="10.626864"><ele>1048.45</ele><time>2009-05-23T13:07:13Z</time></trkpt><trkpt lat="47.451991" lon="10.626731"><ele>1051.82</ele><time>2009-05-23T13:07:14Z</time></trkpt><trkpt lat="47.451992" lon="10.626574"><ele>1054.22</ele><time>2009-05-23T13:07:15Z</time></trkpt><trkpt lat="47.452014" lon="10.626403"><ele>1055.18</ele><time>2009-05-23T13:07:16Z</time></trkpt><trkpt lat="47.452037" lon="10.626239"><ele>1055.67</ele><time>2009-05-23T13:07:17Z</time></trkpt><trkpt lat="47.452067" lon="10.626064"><ele>1056.15</ele><time>2009-05-23T13:07:18Z</time></trkpt><trkpt lat="47.452114" lon="10.625873"><ele>1057.11</ele><time>2009-05-23T13:07:19Z</time></trkpt><trkpt lat="47.452192" lon="10.625644"><ele>1058.07</ele><time>2009-05-23T13:07:20Z</time></trkpt><trkpt lat="47.452295" lon="10.625386"><ele>1059.51</ele><time>2009-05-23T13:07:21Z</time></trkpt><trkpt lat="47.452430" lon="10.625123"><ele>1061.43</ele><time>2009-05-23T13:07:22Z</time></trkpt><trkpt lat="47.452591" lon="10.624872"><ele>1062.87</ele><time>2009-05-23T13:07:23Z</time></trkpt><trkpt lat="47.452784" lon="10.624634"><ele>1064.32</ele><time>2009-05-23T13:07:24Z</time></trkpt><trkpt lat="47.453017" lon="10.624406"><ele>1066.24</ele><time>2009-05-23T13:07:25Z</time></trkpt><trkpt lat="47.453295" lon="10.624230"><ele>1067.68</ele><time>2009-05-23T13:07:26Z</time></trkpt><trkpt lat="47.453567" lon="10.624062"><ele>1069.60</ele><time>2009-05-23T13:07:27Z</time></trkpt><trkpt lat="47.454491" lon="10.623486"><ele>1075.37</ele><time>2009-05-23T13:07:31Z</time></trkpt><trkpt lat="47.455699" lon="10.622509"><ele>1084.99</ele><time>2009-05-23T13:07:37Z</time></trkpt><trkpt lat="47.456806" lon="10.621374"><ele>1087.87</ele><time>2009-05-23T13:07:43Z</time></trkpt><trkpt lat="47.456914" lon="10.621087"><ele>1088.83</ele><time>2009-05-23T13:07:44Z</time></trkpt><trkpt lat="47.457661" lon="10.620058"><ele>1091.71</ele><time>2009-05-23T13:07:49Z</time></trkpt><trkpt lat="47.457850" lon="10.619973"><ele>1093.64</ele><time>2009-05-23T13:07:50Z</time></trkpt><trkpt lat="47.458068" lon="10.619938"><ele>1094.60</ele><time>2009-05-23T13:07:51Z</time></trkpt><trkpt lat="47.458321" lon="10.619924"><ele>1095.08</ele><time>2009-05-23T13:07:52Z</time></trkpt><trkpt lat="47.458555" lon="10.619867"><ele>1096.04</ele><time>2009-05-23T13:07:53Z</time></trkpt><trkpt lat="47.458780" lon="10.619789"><ele>1096.04</ele><time>2009-05-23T13:07:54Z</time></trkpt><trkpt lat="47.458971" lon="10.619651"><ele>1097.00</ele><time>2009-05-23T13:07:55Z</time></trkpt><trkpt lat="47.459185" lon="10.619517"><ele>1096.52</ele><time>2009-05-23T13:07:56Z</time></trkpt><trkpt lat="47.459379" lon="10.619354"><ele>1095.56</ele><time>2009-05-23T13:07:57Z</time></trkpt><trkpt lat="47.459520" lon="10.619128"><ele>1094.60</ele><time>2009-05-23T13:07:58Z</time></trkpt><trkpt lat="47.459601" lon="10.618827"><ele>1093.64</ele><time>2009-05-23T13:07:59Z</time></trkpt><trkpt lat="47.459602" lon="10.618448"><ele>1093.16</ele><time>2009-05-23T13:08:00Z</time></trkpt><trkpt lat="47.459592" lon="10.618054"><ele>1093.16</ele><time>2009-05-23T13:08:01Z</time></trkpt><trkpt lat="47.459644" lon="10.617716"><ele>1092.68</ele><time>2009-05-23T13:08:02Z</time></trkpt><trkpt lat="47.459756" lon="10.617447"><ele>1091.23</ele><time>2009-05-23T13:08:03Z</time></trkpt><trkpt lat="47.459907" lon="10.617211"><ele>1090.75</ele><time>2009-05-23T13:08:04Z</time></trkpt><trkpt lat="47.460082" lon="10.616998"><ele>1090.27</ele><time>2009-05-23T13:08:05Z</time></trkpt><trkpt lat="47.460285" lon="10.616818"><ele>1090.27</ele><time>2009-05-23T13:08:06Z</time></trkpt><trkpt lat="47.460502" lon="10.616654"><ele>1089.79</ele><time>2009-05-23T13:08:07Z</time></trkpt><trkpt lat="47.460716" lon="10.616483"><ele>1090.27</ele><time>2009-05-23T13:08:08Z</time></trkpt><trkpt lat="47.461561" lon="10.615868"><ele>1088.83</ele><time>2009-05-23T13:08:12Z</time></trkpt><trkpt lat="47.461791" lon="10.615879"><ele>1088.83</ele><time>2009-05-23T13:08:13Z</time></trkpt><trkpt lat="47.462010" lon="10.615921"><ele>1087.87</ele><time>2009-05-23T13:08:14Z</time></trkpt><trkpt lat="47.462231" lon="10.616064"><ele>1087.39</ele><time>2009-05-23T13:08:15Z</time></trkpt><trkpt lat="47.462442" lon="10.616208"><ele>1086.43</ele><time>2009-05-23T13:08:16Z</time></trkpt><trkpt lat="47.462649" lon="10.616392"><ele>1085.95</ele><time>2009-05-23T13:08:17Z</time></trkpt><trkpt lat="47.462845" lon="10.616598"><ele>1085.47</ele><time>2009-05-23T13:08:18Z</time></trkpt><trkpt lat="47.463037" lon="10.616792"><ele>1084.50</ele><time>2009-05-23T13:08:19Z</time></trkpt><trkpt lat="47.464313" lon="10.618119"><ele>1085.47</ele><time>2009-05-23T13:08:27Z</time></trkpt><trkpt lat="47.464467" lon="10.618228"><ele>1084.99</ele><time>2009-05-23T13:08:28Z</time></trkpt><trkpt lat="47.464631" lon="10.618314"><ele>1084.50</ele><time>2009-05-23T13:08:29Z</time></trkpt><trkpt lat="47.464802" lon="10.618374"><ele>1084.02</ele><time>2009-05-23T13:08:30Z</time></trkpt><trkpt lat="47.464982" lon="10.618408"><ele>1084.02</ele><time>2009-05-23T13:08:31Z</time></trkpt><trkpt lat="47.465179" lon="10.618418"><ele>1084.02</ele><time>2009-05-23T13:08:32Z</time></trkpt><trkpt lat="47.465384" lon="10.618423"><ele>1084.02</ele><time>2009-05-23T13:08:33Z</time></trkpt><trkpt lat="47.466742" lon="10.618930"><ele>1084.50</ele><time>2009-05-23T13:08:39Z</time></trkpt><trkpt lat="47.467883" lon="10.619428"><ele>1087.39</ele><time>2009-05-23T13:08:43Z</time></trkpt><trkpt lat="47.468188" lon="10.619478"><ele>1088.35</ele><time>2009-05-23T13:08:44Z</time></trkpt><trkpt lat="47.469924" lon="10.619943"><ele>1093.64</ele><time>2009-05-23T13:08:51Z</time></trkpt><trkpt lat="47.471012" lon="10.620537"><ele>1097.48</ele><time>2009-05-23T13:08:57Z</time></trkpt><trkpt lat="47.472177" lon="10.620664"><ele>1101.81</ele><time>2009-05-23T13:09:04Z</time></trkpt><trkpt lat="47.473989" lon="10.621074"><ele>1110.94</ele><time>2009-05-23T13:09:13Z</time></trkpt><trkpt lat="47.475593" lon="10.620747"><ele>1113.82</ele><time>2009-05-23T13:09:20Z</time></trkpt><trkpt lat="47.476813" lon="10.619779"><ele>1120.07</ele><time>2009-05-23T13:09:26Z</time></trkpt><trkpt lat="47.477736" lon="10.618147"><ele>1126.32</ele><time>2009-05-23T13:09:32Z</time></trkpt><trkpt lat="47.478194" lon="10.615969"><ele>1127.28</ele><time>2009-05-23T13:09:38Z</time></trkpt><trkpt lat="47.478884" lon="10.612573"><ele>1127.28</ele><time>2009-05-23T13:09:47Z</time></trkpt><trkpt lat="47.479924" lon="10.610126"><ele>1130.65</ele><time>2009-05-23T13:09:55Z</time></trkpt><trkpt lat="47.481834" lon="10.606940"><ele>1133.53</ele><time>2009-05-23T13:10:07Z</time></trkpt><trkpt lat="47.483291" lon="10.605001"><ele>1133.05</ele><time>2009-05-23T13:10:15Z</time></trkpt><trkpt lat="47.484503" lon="10.604264"><ele>1134.49</ele><time>2009-05-23T13:10:21Z</time></trkpt><trkpt lat="47.486372" lon="10.603742"><ele>1140.74</ele><time>2009-05-23T13:10:30Z</time></trkpt><trkpt lat="47.486564" lon="10.603617"><ele>1141.70</ele><time>2009-05-23T13:10:31Z</time></trkpt><trkpt lat="47.486744" lon="10.603467"><ele>1142.66</ele><time>2009-05-23T13:10:32Z</time></trkpt><trkpt lat="47.486913" lon="10.603294"><ele>1143.63</ele><time>2009-05-23T13:10:33Z</time></trkpt><trkpt lat="47.487068" lon="10.603099"><ele>1144.59</ele><time>2009-05-23T13:10:34Z</time></trkpt><trkpt lat="47.487209" lon="10.602883"><ele>1145.55</ele><time>2009-05-23T13:10:35Z</time></trkpt><trkpt lat="47.487336" lon="10.602648"><ele>1146.99</ele><time>2009-05-23T13:10:36Z</time></trkpt><trkpt lat="47.487447" lon="10.602397"><ele>1147.95</ele><time>2009-05-23T13:10:37Z</time></trkpt><trkpt lat="47.487543" lon="10.602136"><ele>1148.43</ele><time>2009-05-23T13:10:38Z</time></trkpt><trkpt lat="47.487622" lon="10.601864"><ele>1149.87</ele><time>2009-05-23T13:10:39Z</time></trkpt><trkpt lat="47.487683" lon="10.601588"><ele>1150.35</ele><time>2009-05-23T13:10:40Z</time></trkpt><trkpt lat="47.487731" lon="10.601317"><ele>1151.32</ele><time>2009-05-23T13:10:41Z</time></trkpt><trkpt lat="47.487762" lon="10.601055"><ele>1151.32</ele><time>2009-05-23T13:10:42Z</time></trkpt><trkpt lat="47.487788" lon="10.600803"><ele>1151.32</ele><time>2009-05-23T13:10:43Z</time></trkpt><trkpt lat="47.488236" lon="10.598940"><ele>1154.68</ele><time>2009-05-23T13:10:51Z</time></trkpt><trkpt lat="47.488324" lon="10.598454"><ele>1156.12</ele><time>2009-05-23T13:10:53Z</time></trkpt><trkpt lat="47.488346" lon="10.598197"><ele>1156.60</ele><time>2009-05-23T13:10:54Z</time></trkpt><trkpt lat="47.488389" lon="10.597660"><ele>1157.56</ele><time>2009-05-23T13:10:56Z</time></trkpt><trkpt lat="47.488436" lon="10.597383"><ele>1158.05</ele><time>2009-05-23T13:10:57Z</time></trkpt><trkpt lat="47.488501" lon="10.597113"><ele>1158.53</ele><time>2009-05-23T13:10:58Z</time></trkpt><trkpt lat="47.488578" lon="10.596862"><ele>1158.53</ele><time>2009-05-23T13:10:59Z</time></trkpt><trkpt lat="47.488669" lon="10.596637"><ele>1159.01</ele><time>2009-05-23T13:11:00Z</time></trkpt><trkpt lat="47.488759" lon="10.596416"><ele>1159.97</ele><time>2009-05-23T13:11:01Z</time></trkpt><trkpt lat="47.488964" lon="10.595681"><ele>1160.93</ele><time>2009-05-23T13:11:04Z</time></trkpt><trkpt lat="47.489004" lon="10.595421"><ele>1160.93</ele><time>2009-05-23T13:11:05Z</time></trkpt><trkpt lat="47.489182" lon="10.594333"><ele>1161.41</ele><time>2009-05-23T13:11:09Z</time></trkpt><trkpt lat="47.489787" lon="10.592260"><ele>1160.45</ele><time>2009-05-23T13:11:15Z</time></trkpt><trkpt lat="47.490113" lon="10.591353"><ele>1159.49</ele><time>2009-05-23T13:11:18Z</time></trkpt><trkpt lat="47.490240" lon="10.591106"><ele>1159.01</ele><time>2009-05-23T13:11:19Z</time></trkpt><trkpt lat="47.490369" lon="10.590881"><ele>1159.01</ele><time>2009-05-23T13:11:20Z</time></trkpt><trkpt lat="47.491325" lon="10.589119"><ele>1158.05</ele><time>2009-05-23T13:11:28Z</time></trkpt><trkpt lat="47.491862" lon="10.588175"><ele>1155.16</ele><time>2009-05-23T13:11:34Z</time></trkpt><trkpt lat="47.492384" lon="10.587055"><ele>1149.87</ele><time>2009-05-23T13:11:43Z</time></trkpt><trkpt lat="47.492443" lon="10.586962"><ele>1148.91</ele><time>2009-05-23T13:11:44Z</time></trkpt><trkpt lat="47.492506" lon="10.586876"><ele>1148.43</ele><time>2009-05-23T13:11:45Z</time></trkpt><trkpt lat="47.492575" lon="10.586801"><ele>1147.95</ele><time>2009-05-23T13:11:46Z</time></trkpt><trkpt lat="47.492648" lon="10.586734"><ele>1147.47</ele><time>2009-05-23T13:11:47Z</time></trkpt><trkpt lat="47.492726" lon="10.586673"><ele>1146.99</ele><time>2009-05-23T13:11:48Z</time></trkpt><trkpt lat="47.492806" lon="10.586615"><ele>1146.99</ele><time>2009-05-23T13:11:49Z</time></trkpt><trkpt lat="47.493039" lon="10.586417"><ele>1146.03</ele><time>2009-05-23T13:11:52Z</time></trkpt><trkpt lat="47.493109" lon="10.586335"><ele>1145.55</ele><time>2009-05-23T13:11:53Z</time></trkpt><trkpt lat="47.493505" lon="10.585957"><ele>1144.59</ele><time>2009-05-23T13:11:58Z</time></trkpt><trkpt lat="47.493597" lon="10.585912"><ele>1144.59</ele><time>2009-05-23T13:11:59Z</time></trkpt><trkpt lat="47.493685" lon="10.585881"><ele>1144.59</ele><time>2009-05-23T13:12:00Z</time></trkpt><trkpt lat="47.493831" lon="10.585824"><ele>1144.59</ele><time>2009-05-23T13:12:02Z</time></trkpt><trkpt lat="47.493891" lon="10.585782"><ele>1144.59</ele><time>2009-05-23T13:12:03Z</time></trkpt><trkpt lat="47.493944" lon="10.585728"><ele>1144.59</ele><time>2009-05-23T13:12:04Z</time></trkpt><trkpt lat="47.493990" lon="10.585657"><ele>1144.59</ele><time>2009-05-23T13:12:05Z</time></trkpt><trkpt lat="47.494034" lon="10.585574"><ele>1144.59</ele><time>2009-05-23T13:12:06Z</time></trkpt><trkpt lat="47.494078" lon="10.585475"><ele>1144.59</ele><time>2009-05-23T13:12:07Z</time></trkpt><trkpt lat="47.494119" lon="10.585364"><ele>1144.59</ele><time>2009-05-23T13:12:08Z</time></trkpt><trkpt lat="47.494441" lon="10.584496"><ele>1145.07</ele><time>2009-05-23T13:12:16Z</time></trkpt><trkpt lat="47.494460" lon="10.584409"><ele>1145.55</ele><time>2009-05-23T13:12:17Z</time></trkpt><trkpt lat="47.494510" lon="10.584092"><ele>1144.59</ele><time>2009-05-23T13:12:25Z</time></trkpt><trkpt lat="47.494507" lon="10.583858"><ele>1144.59</ele><time>2009-05-23T13:12:30Z</time></trkpt><trkpt lat="47.494516" lon="10.583790"><ele>1143.63</ele><time>2009-05-23T13:12:31Z</time></trkpt><trkpt lat="47.494550" lon="10.583573"><ele>1144.11</ele><time>2009-05-23T13:12:34Z</time></trkpt><trkpt lat="47.494566" lon="10.583501"><ele>1144.59</ele><time>2009-05-23T13:12:35Z</time></trkpt><trkpt lat="47.494594" lon="10.583433"><ele>1144.11</ele><time>2009-05-23T13:12:36Z</time></trkpt><trkpt lat="47.494623" lon="10.583363"><ele>1144.11</ele><time>2009-05-23T13:12:37Z</time></trkpt><trkpt lat="47.494651" lon="10.583289"><ele>1144.11</ele><time>2009-05-23T13:12:38Z</time></trkpt><trkpt lat="47.495007" lon="10.582319"><ele>1142.18</ele><time>2009-05-23T13:12:47Z</time></trkpt><trkpt lat="47.495037" lon="10.582163"><ele>1141.22</ele><time>2009-05-23T13:12:48Z</time></trkpt><trkpt lat="47.495049" lon="10.581978"><ele>1140.74</ele><time>2009-05-23T13:12:49Z</time></trkpt><trkpt lat="47.494981" lon="10.580603"><ele>1138.34</ele><time>2009-05-23T13:12:55Z</time></trkpt><trkpt lat="47.494747" lon="10.579359"><ele>1135.94</ele><time>2009-05-23T13:13:03Z</time></trkpt><trkpt lat="47.494501" lon="10.577745"><ele>1138.82</ele><time>2009-05-23T13:13:09Z</time></trkpt><trkpt lat="47.494350" lon="10.575602"><ele>1135.94</ele><time>2009-05-23T13:13:16Z</time></trkpt><trkpt lat="47.494304" lon="10.575060"><ele>1133.05</ele><time>2009-05-23T13:13:18Z</time></trkpt><trkpt lat="47.494255" lon="10.574824"><ele>1133.05</ele><time>2009-05-23T13:13:19Z</time></trkpt><trkpt lat="47.494075" lon="10.574176"><ele>1134.97</ele><time>2009-05-23T13:13:22Z</time></trkpt><trkpt lat="47.494042" lon="10.573936"><ele>1134.97</ele><time>2009-05-23T13:13:23Z</time></trkpt><trkpt lat="47.494023" lon="10.573680"><ele>1134.49</ele><time>2009-05-23T13:13:24Z</time></trkpt><trkpt lat="47.494001" lon="10.573424"><ele>1134.49</ele><time>2009-05-23T13:13:25Z</time></trkpt><trkpt lat="47.493968" lon="10.573173"><ele>1134.49</ele><time>2009-05-23T13:13:26Z</time></trkpt><trkpt lat="47.493931" lon="10.572923"><ele>1134.49</ele><time>2009-05-23T13:13:27Z</time></trkpt><trkpt lat="47.493894" lon="10.571197"><ele>1132.57</ele><time>2009-05-23T13:13:33Z</time></trkpt><trkpt lat="47.493882" lon="10.570904"><ele>1132.57</ele><time>2009-05-23T13:13:34Z</time></trkpt><trkpt lat="47.493566" lon="10.568349"><ele>1132.09</ele><time>2009-05-23T13:13:43Z</time></trkpt><trkpt lat="47.492822" lon="10.565869"><ele>1131.61</ele><time>2009-05-23T13:13:53Z</time></trkpt><trkpt lat="47.492567" lon="10.564383"><ele>1132.57</ele><time>2009-05-23T13:14:00Z</time></trkpt><trkpt lat="47.492318" lon="10.562410"><ele>1135.94</ele><time>2009-05-23T13:14:10Z</time></trkpt><trkpt lat="47.492371" lon="10.560761"><ele>1136.42</ele><time>2009-05-23T13:14:20Z</time></trkpt><trkpt lat="47.492397" lon="10.560657"><ele>1136.42</ele><time>2009-05-23T13:14:21Z</time></trkpt><trkpt lat="47.492432" lon="10.560549"><ele>1136.42</ele><time>2009-05-23T13:14:22Z</time></trkpt><trkpt lat="47.492486" lon="10.560445"><ele>1135.94</ele><time>2009-05-23T13:14:23Z</time></trkpt><trkpt lat="47.492573" lon="10.560352"><ele>1135.94</ele><time>2009-05-23T13:14:24Z</time></trkpt><trkpt lat="47.492686" lon="10.560268"><ele>1134.97</ele><time>2009-05-23T13:14:25Z</time></trkpt><trkpt lat="47.492818" lon="10.560193"><ele>1134.49</ele><time>2009-05-23T13:14:26Z</time></trkpt><trkpt lat="47.492940" lon="10.560100"><ele>1134.49</ele><time>2009-05-23T13:14:27Z</time></trkpt><trkpt lat="47.493436" lon="10.559778"><ele>1132.57</ele><time>2009-05-23T13:14:31Z</time></trkpt><trkpt lat="47.493569" lon="10.559734"><ele>1132.09</ele><time>2009-05-23T13:14:32Z</time></trkpt><trkpt lat="47.494377" lon="10.559413"><ele>1129.21</ele><time>2009-05-23T13:14:38Z</time></trkpt><trkpt lat="47.494474" lon="10.559278"><ele>1128.73</ele><time>2009-05-23T13:14:39Z</time></trkpt><trkpt lat="47.494545" lon="10.559126"><ele>1128.24</ele><time>2009-05-23T13:14:40Z</time></trkpt><trkpt lat="47.494596" lon="10.558966"><ele>1127.76</ele><time>2009-05-23T13:14:41Z</time></trkpt><trkpt lat="47.494619" lon="10.558795"><ele>1126.80</ele><time>2009-05-23T13:14:42Z</time></trkpt><trkpt lat="47.494617" lon="10.558597"><ele>1125.84</ele><time>2009-05-23T13:14:43Z</time></trkpt><trkpt lat="47.494624" lon="10.558396"><ele>1125.36</ele><time>2009-05-23T13:14:44Z</time></trkpt><trkpt lat="47.494720" lon="10.557591"><ele>1123.92</ele><time>2009-05-23T13:14:48Z</time></trkpt><trkpt lat="47.494777" lon="10.557400"><ele>1123.44</ele><time>2009-05-23T13:14:49Z</time></trkpt><trkpt lat="47.494845" lon="10.557216"><ele>1122.96</ele><time>2009-05-23T13:14:50Z</time></trkpt><trkpt lat="47.495313" lon="10.556361"><ele>1122.00</ele><time>2009-05-23T13:14:55Z</time></trkpt><trkpt lat="47.496362" lon="10.554979"><ele>1118.63</ele><time>2009-05-23T13:15:04Z</time></trkpt><trkpt lat="47.496449" lon="10.554764"><ele>1118.63</ele><time>2009-05-23T13:15:05Z</time></trkpt><trkpt lat="47.496515" lon="10.554532"><ele>1118.63</ele><time>2009-05-23T13:15:06Z</time></trkpt><trkpt lat="47.496553" lon="10.554289"><ele>1118.63</ele><time>2009-05-23T13:15:07Z</time></trkpt><trkpt lat="47.496570" lon="10.554035"><ele>1118.63</ele><time>2009-05-23T13:15:08Z</time></trkpt><trkpt lat="47.496564" lon="10.553747"><ele>1118.15</ele><time>2009-05-23T13:15:09Z</time></trkpt><trkpt lat="47.496545" lon="10.553446"><ele>1118.15</ele><time>2009-05-23T13:15:10Z</time></trkpt><trkpt lat="47.496509" lon="10.553157"><ele>1118.15</ele><time>2009-05-23T13:15:11Z</time></trkpt><trkpt lat="47.496459" lon="10.552881"><ele>1117.67</ele><time>2009-05-23T13:15:12Z</time></trkpt><trkpt lat="47.496354" lon="10.551103"><ele>1117.19</ele><time>2009-05-23T13:15:18Z</time></trkpt><trkpt lat="47.496835" lon="10.547686"><ele>1113.82</ele><time>2009-05-23T13:15:28Z</time></trkpt><trkpt lat="47.497390" lon="10.543874"><ele>1116.23</ele><time>2009-05-23T13:15:39Z</time></trkpt><trkpt lat="47.498054" lon="10.541088"><ele>1120.07</ele><time>2009-05-23T13:15:48Z</time></trkpt><trkpt lat="47.498517" lon="10.537744"><ele>1116.23</ele><time>2009-05-23T13:15:57Z</time></trkpt><trkpt lat="47.498817" lon="10.533568"><ele>1114.79</ele><time>2009-05-23T13:16:09Z</time></trkpt><trkpt lat="47.498781" lon="10.529320"><ele>1111.42</ele><time>2009-05-23T13:16:22Z</time></trkpt><trkpt lat="47.498757" lon="10.526968"><ele>1108.54</ele><time>2009-05-23T13:16:31Z</time></trkpt><trkpt lat="47.498862" lon="10.524693"><ele>1107.10</ele><time>2009-05-23T13:16:42Z</time></trkpt><trkpt lat="47.499267" lon="10.522587"><ele>1105.17</ele><time>2009-05-23T13:16:52Z</time></trkpt><trkpt lat="47.499598" lon="10.521596"><ele>1104.21</ele><time>2009-05-23T13:17:00Z</time></trkpt><trkpt lat="47.500038" lon="10.520381"><ele>1103.25</ele><time>2009-05-23T13:17:07Z</time></trkpt><trkpt lat="47.500558" lon="10.518993"><ele>1102.29</ele><time>2009-05-23T13:17:13Z</time></trkpt><trkpt lat="47.501205" lon="10.516693"><ele>1102.77</ele><time>2009-05-23T13:17:23Z</time></trkpt><trkpt lat="47.501374" lon="10.514699"><ele>1101.81</ele><time>2009-05-23T13:17:29Z</time></trkpt><trkpt lat="47.501198" lon="10.511985"><ele>1099.89</ele><time>2009-05-23T13:17:36Z</time></trkpt><trkpt lat="47.500553" lon="10.506796"><ele>1100.85</ele><time>2009-05-23T13:17:49Z</time></trkpt><trkpt lat="47.500707" lon="10.505139"><ele>1105.65</ele><time>2009-05-23T13:17:54Z</time></trkpt><trkpt lat="47.501301" lon="10.503542"><ele>1109.02</ele><time>2009-05-23T13:17:59Z</time></trkpt><trkpt lat="47.502472" lon="10.502096"><ele>1107.10</ele><time>2009-05-23T13:18:05Z</time></trkpt><trkpt lat="47.504500" lon="10.500123"><ele>1097.48</ele><time>2009-05-23T13:18:15Z</time></trkpt><trkpt lat="47.504661" lon="10.499856"><ele>1097.00</ele><time>2009-05-23T13:18:16Z</time></trkpt><trkpt lat="47.504805" lon="10.499574"><ele>1096.04</ele><time>2009-05-23T13:18:17Z</time></trkpt><trkpt lat="47.504936" lon="10.499278"><ele>1095.56</ele><time>2009-05-23T13:18:18Z</time></trkpt><trkpt lat="47.505054" lon="10.498967"><ele>1095.08</ele><time>2009-05-23T13:18:19Z</time></trkpt><trkpt lat="47.505158" lon="10.498643"><ele>1094.60</ele><time>2009-05-23T13:18:20Z</time></trkpt><trkpt lat="47.505247" lon="10.498304"><ele>1094.60</ele><time>2009-05-23T13:18:21Z</time></trkpt><trkpt lat="47.505322" lon="10.497953"><ele>1094.12</ele><time>2009-05-23T13:18:22Z</time></trkpt><trkpt lat="47.505384" lon="10.497594"><ele>1094.12</ele><time>2009-05-23T13:18:23Z</time></trkpt><trkpt lat="47.505433" lon="10.497227"><ele>1093.64</ele><time>2009-05-23T13:18:24Z</time></trkpt><trkpt lat="47.505474" lon="10.496854"><ele>1093.64</ele><time>2009-05-23T13:18:25Z</time></trkpt><trkpt lat="47.506168" lon="10.491893"><ele>1092.68</ele><time>2009-05-23T13:18:38Z</time></trkpt><trkpt lat="47.506898" lon="10.488636"><ele>1089.31</ele><time>2009-05-23T13:18:47Z</time></trkpt><trkpt lat="47.507024" lon="10.485668"><ele>1084.99</ele><time>2009-05-23T13:18:55Z</time></trkpt><trkpt lat="47.506982" lon="10.485313"><ele>1084.50</ele><time>2009-05-23T13:18:56Z</time></trkpt><trkpt lat="47.506279" lon="10.481421"><ele>1080.66</ele><time>2009-05-23T13:19:07Z</time></trkpt><trkpt lat="47.506180" lon="10.479159"><ele>1079.70</ele><time>2009-05-23T13:19:13Z</time></trkpt><trkpt lat="47.506253" lon="10.478075"><ele>1079.22</ele><time>2009-05-23T13:19:16Z</time></trkpt><trkpt lat="47.506312" lon="10.477740"><ele>1079.22</ele><time>2009-05-23T13:19:17Z</time></trkpt><trkpt lat="47.506392" lon="10.477426"><ele>1078.74</ele><time>2009-05-23T13:19:18Z</time></trkpt><trkpt lat="47.506490" lon="10.477139"><ele>1078.74</ele><time>2009-05-23T13:19:19Z</time></trkpt><trkpt lat="47.506600" lon="10.476879"><ele>1078.74</ele><time>2009-05-23T13:19:20Z</time></trkpt><trkpt lat="47.506719" lon="10.476643"><ele>1078.74</ele><time>2009-05-23T13:19:21Z</time></trkpt><trkpt lat="47.506846" lon="10.476434"><ele>1079.22</ele><time>2009-05-23T13:19:22Z</time></trkpt><trkpt lat="47.506979" lon="10.476252"><ele>1079.22</ele><time>2009-05-23T13:19:23Z</time></trkpt><trkpt lat="47.507116" lon="10.476096"><ele>1079.22</ele><time>2009-05-23T13:19:24Z</time></trkpt><trkpt lat="47.507254" lon="10.475961"><ele>1079.70</ele><time>2009-05-23T13:19:25Z</time></trkpt><trkpt lat="47.507394" lon="10.475843"><ele>1079.70</ele><time>2009-05-23T13:19:26Z</time></trkpt><trkpt lat="47.507534" lon="10.475731"><ele>1079.70</ele><time>2009-05-23T13:19:27Z</time></trkpt><trkpt lat="47.507936" lon="10.475341"><ele>1080.18</ele><time>2009-05-23T13:19:30Z</time></trkpt><trkpt lat="47.508055" lon="10.475173"><ele>1080.18</ele><time>2009-05-23T13:19:31Z</time></trkpt><trkpt lat="47.508162" lon="10.474986"><ele>1080.18</ele><time>2009-05-23T13:19:32Z</time></trkpt><trkpt lat="47.508253" lon="10.474777"><ele>1080.18</ele><time>2009-05-23T13:19:33Z</time></trkpt><trkpt lat="47.508332" lon="10.474558"><ele>1080.18</ele><time>2009-05-23T13:19:34Z</time></trkpt><trkpt lat="47.508392" lon="10.474324"><ele>1079.70</ele><time>2009-05-23T13:19:35Z</time></trkpt><trkpt lat="47.508439" lon="10.474081"><ele>1079.22</ele><time>2009-05-23T13:19:36Z</time></trkpt><trkpt lat="47.508480" lon="10.473832"><ele>1079.22</ele><time>2009-05-23T13:19:37Z</time></trkpt><trkpt lat="47.509034" lon="10.471700"><ele>1083.54</ele><time>2009-05-23T13:19:46Z</time></trkpt><trkpt lat="47.509823" lon="10.469212"><ele>1085.47</ele><time>2009-05-23T13:19:58Z</time></trkpt><trkpt lat="47.510211" lon="10.467175"><ele>1078.74</ele><time>2009-05-23T13:20:05Z</time></trkpt><trkpt lat="47.510873" lon="10.465686"><ele>1076.81</ele><time>2009-05-23T13:20:10Z</time></trkpt><trkpt lat="47.511063" lon="10.465418"><ele>1076.81</ele><time>2009-05-23T13:20:11Z</time></trkpt><trkpt lat="47.511264" lon="10.465174"><ele>1076.81</ele><time>2009-05-23T13:20:12Z</time></trkpt><trkpt lat="47.512208" lon="10.463940"><ele>1080.66</ele><time>2009-05-23T13:20:18Z</time></trkpt><trkpt lat="47.512447" lon="10.463492"><ele>1082.58</ele><time>2009-05-23T13:20:21Z</time></trkpt><trkpt lat="47.513030" lon="10.462314"><ele>1083.54</ele><time>2009-05-23T13:20:30Z</time></trkpt><trkpt lat="47.513638" lon="10.461078"><ele>1086.43</ele><time>2009-05-23T13:20:41Z</time></trkpt><trkpt lat="47.513695" lon="10.460958"><ele>1085.95</ele><time>2009-05-23T13:20:42Z</time></trkpt><trkpt lat="47.513765" lon="10.460850"><ele>1085.95</ele><time>2009-05-23T13:20:43Z</time></trkpt><trkpt lat="47.513843" lon="10.460756"><ele>1086.43</ele><time>2009-05-23T13:20:44Z</time></trkpt><trkpt lat="47.514534" lon="10.460092"><ele>1084.50</ele><time>2009-05-23T13:20:52Z</time></trkpt><trkpt lat="47.514615" lon="10.459981"><ele>1084.50</ele><time>2009-05-23T13:20:53Z</time></trkpt><trkpt lat="47.515604" lon="10.458489"><ele>1078.26</ele><time>2009-05-23T13:21:05Z</time></trkpt><trkpt lat="47.516334" lon="10.456815"><ele>1072.97</ele><time>2009-05-23T13:21:16Z</time></trkpt><trkpt lat="47.516376" lon="10.456654"><ele>1072.49</ele><time>2009-05-23T13:21:17Z</time></trkpt><trkpt lat="47.516407" lon="10.456490"><ele>1072.49</ele><time>2009-05-23T13:21:18Z</time></trkpt><trkpt lat="47.516630" lon="10.454801"><ele>1072.49</ele><time>2009-05-23T13:21:27Z</time></trkpt><trkpt lat="47.516677" lon="10.454583"><ele>1072.97</ele><time>2009-05-23T13:21:28Z</time></trkpt><trkpt lat="47.516748" lon="10.454363"><ele>1073.45</ele><time>2009-05-23T13:21:29Z</time></trkpt><trkpt lat="47.516841" lon="10.454141"><ele>1073.93</ele><time>2009-05-23T13:21:30Z</time></trkpt><trkpt lat="47.516984" lon="10.453930"><ele>1074.41</ele><time>2009-05-23T13:21:31Z</time></trkpt><trkpt lat="47.517164" lon="10.453716"><ele>1074.89</ele><time>2009-05-23T13:21:32Z</time></trkpt><trkpt lat="47.517344" lon="10.453509"><ele>1075.85</ele><time>2009-05-23T13:21:33Z</time></trkpt><trkpt lat="47.517526" lon="10.453276"><ele>1076.33</ele><time>2009-05-23T13:21:34Z</time></trkpt><trkpt lat="47.517711" lon="10.453008"><ele>1077.29</ele><time>2009-05-23T13:21:35Z</time></trkpt><trkpt lat="47.517875" lon="10.452727"><ele>1078.26</ele><time>2009-05-23T13:21:36Z</time></trkpt><trkpt lat="47.518648" lon="10.451528"><ele>1086.43</ele><time>2009-05-23T13:21:42Z</time></trkpt><trkpt lat="47.518773" lon="10.451322"><ele>1087.87</ele><time>2009-05-23T13:21:43Z</time></trkpt><trkpt lat="47.518887" lon="10.451072"><ele>1089.31</ele><time>2009-05-23T13:21:44Z</time></trkpt><trkpt lat="47.518995" lon="10.450772"><ele>1090.27</ele><time>2009-05-23T13:21:45Z</time></trkpt><trkpt lat="47.519081" lon="10.450448"><ele>1092.20</ele><time>2009-05-23T13:21:46Z</time></trkpt><trkpt lat="47.519194" lon="10.450121"><ele>1093.64</ele><time>2009-05-23T13:21:47Z</time></trkpt><trkpt lat="47.519951" lon="10.448499"><ele>1103.73</ele><time>2009-05-23T13:21:53Z</time></trkpt><trkpt lat="47.520042" lon="10.448224"><ele>1104.69</ele><time>2009-05-23T13:21:54Z</time></trkpt><trkpt lat="47.520119" lon="10.447943"><ele>1105.65</ele><time>2009-05-23T13:21:55Z</time></trkpt><trkpt lat="47.520289" lon="10.447392"><ele>1108.06</ele><time>2009-05-23T13:21:57Z</time></trkpt><trkpt lat="47.520404" lon="10.447125"><ele>1109.02</ele><time>2009-05-23T13:21:58Z</time></trkpt><trkpt lat="47.520541" lon="10.446856"><ele>1109.98</ele><time>2009-05-23T13:21:59Z</time></trkpt><trkpt lat="47.520704" lon="10.446583"><ele>1111.42</ele><time>2009-05-23T13:22:00Z</time></trkpt><trkpt lat="47.520890" lon="10.446307"><ele>1112.86</ele><time>2009-05-23T13:22:01Z</time></trkpt><trkpt lat="47.521091" lon="10.446027"><ele>1114.79</ele><time>2009-05-23T13:22:02Z</time></trkpt><trkpt lat="47.522298" lon="10.444335"><ele>1124.40</ele><time>2009-05-23T13:22:07Z</time></trkpt><trkpt lat="47.523791" lon="10.442913"><ele>1135.45</ele><time>2009-05-23T13:22:12Z</time></trkpt><trkpt lat="47.524411" lon="10.441869"><ele>1143.14</ele><time>2009-05-23T13:22:16Z</time></trkpt><trkpt lat="47.524450" lon="10.441593"><ele>1145.55</ele><time>2009-05-23T13:22:17Z</time></trkpt><trkpt lat="47.524470" lon="10.441341"><ele>1147.47</ele><time>2009-05-23T13:22:18Z</time></trkpt><trkpt lat="47.524470" lon="10.441118"><ele>1148.43</ele><time>2009-05-23T13:22:19Z</time></trkpt><trkpt lat="47.524450" lon="10.440919"><ele>1149.87</ele><time>2009-05-23T13:22:20Z</time></trkpt><trkpt lat="47.524417" lon="10.440742"><ele>1150.35</ele><time>2009-05-23T13:22:21Z</time></trkpt><trkpt lat="47.524382" lon="10.440570"><ele>1151.32</ele><time>2009-05-23T13:22:22Z</time></trkpt><trkpt lat="47.524234" lon="10.439007"><ele>1156.12</ele><time>2009-05-23T13:22:31Z</time></trkpt><trkpt lat="47.524261" lon="10.438840"><ele>1156.60</ele><time>2009-05-23T13:22:32Z</time></trkpt><trkpt lat="47.524301" lon="10.438673"><ele>1157.08</ele><time>2009-05-23T13:22:33Z</time></trkpt><trkpt lat="47.524762" lon="10.437186"><ele>1160.45</ele><time>2009-05-23T13:22:40Z</time></trkpt><trkpt lat="47.525448" lon="10.435575"><ele>1165.26</ele><time>2009-05-23T13:22:45Z</time></trkpt><trkpt lat="47.526609" lon="10.433834"><ele>1175.35</ele><time>2009-05-23T13:22:52Z</time></trkpt><trkpt lat="47.526744" lon="10.433627"><ele>1176.79</ele><time>2009-05-23T13:22:53Z</time></trkpt><trkpt lat="47.526850" lon="10.433393"><ele>1178.23</ele><time>2009-05-23T13:22:54Z</time></trkpt><trkpt lat="47.526917" lon="10.433130"><ele>1178.71</ele><time>2009-05-23T13:22:55Z</time></trkpt><trkpt lat="47.526934" lon="10.432832"><ele>1179.67</ele><time>2009-05-23T13:22:56Z</time></trkpt><trkpt lat="47.526909" lon="10.432531"><ele>1180.64</ele><time>2009-05-23T13:22:57Z</time></trkpt><trkpt lat="47.526834" lon="10.432233"><ele>1181.60</ele><time>2009-05-23T13:22:58Z</time></trkpt><trkpt lat="47.526705" lon="10.431965"><ele>1182.08</ele><time>2009-05-23T13:22:59Z</time></trkpt><trkpt lat="47.526537" lon="10.431737"><ele>1182.56</ele><time>2009-05-23T13:23:00Z</time></trkpt><trkpt lat="47.526350" lon="10.431565"><ele>1182.56</ele><time>2009-05-23T13:23:01Z</time></trkpt><trkpt lat="47.526146" lon="10.431459"><ele>1183.04</ele><time>2009-05-23T13:23:02Z</time></trkpt><trkpt lat="47.525933" lon="10.431394"><ele>1182.56</ele><time>2009-05-23T13:23:03Z</time></trkpt><trkpt lat="47.525709" lon="10.431393"><ele>1182.08</ele><time>2009-05-23T13:23:04Z</time></trkpt><trkpt lat="47.525481" lon="10.431446"><ele>1181.60</ele><time>2009-05-23T13:23:05Z</time></trkpt><trkpt lat="47.525244" lon="10.431534"><ele>1182.08</ele><time>2009-05-23T13:23:06Z</time></trkpt><trkpt lat="47.525006" lon="10.431612"><ele>1181.60</ele><time>2009-05-23T13:23:07Z</time></trkpt><trkpt lat="47.523249" lon="10.432111"><ele>1177.27</ele><time>2009-05-23T13:23:15Z</time></trkpt><trkpt lat="47.523042" lon="10.431980"><ele>1176.31</ele><time>2009-05-23T13:23:16Z</time></trkpt><trkpt lat="47.522845" lon="10.431807"><ele>1175.35</ele><time>2009-05-23T13:23:17Z</time></trkpt><trkpt lat="47.522663" lon="10.431588"><ele>1174.39</ele><time>2009-05-23T13:23:18Z</time></trkpt><trkpt lat="47.522500" lon="10.431325"><ele>1173.43</ele><time>2009-05-23T13:23:19Z</time></trkpt><trkpt lat="47.522352" lon="10.431056"><ele>1172.47</ele><time>2009-05-23T13:23:20Z</time></trkpt><trkpt lat="47.522220" lon="10.430766"><ele>1170.06</ele><time>2009-05-23T13:23:21Z</time></trkpt><trkpt lat="47.522086" lon="10.430471"><ele>1168.14</ele><time>2009-05-23T13:23:22Z</time></trkpt><trkpt lat="47.521049" lon="10.427826"><ele>1155.64</ele><time>2009-05-23T13:23:30Z</time></trkpt><trkpt lat="47.520970" lon="10.427442"><ele>1154.20</ele><time>2009-05-23T13:23:31Z</time></trkpt><trkpt lat="47.520728" lon="10.426460"><ele>1150.35</ele><time>2009-05-23T13:23:34Z</time></trkpt><trkpt lat="47.520615" lon="10.426187"><ele>1149.87</ele><time>2009-05-23T13:23:35Z</time></trkpt><trkpt lat="47.520487" lon="10.425934"><ele>1148.43</ele><time>2009-05-23T13:23:36Z</time></trkpt><trkpt lat="47.520351" lon="10.425701"><ele>1146.99</ele><time>2009-05-23T13:23:37Z</time></trkpt><trkpt lat="47.520208" lon="10.425481"><ele>1146.03</ele><time>2009-05-23T13:23:38Z</time></trkpt><trkpt lat="47.519255" lon="10.423465"><ele>1141.70</ele><time>2009-05-23T13:23:46Z</time></trkpt><trkpt lat="47.518371" lon="10.421548"><ele>1141.22</ele><time>2009-05-23T13:23:53Z</time></trkpt><trkpt lat="47.517224" lon="10.419917"><ele>1141.70</ele><time>2009-05-23T13:23:59Z</time></trkpt><trkpt lat="47.516397" lon="10.417923"><ele>1145.55</ele><time>2009-05-23T13:24:05Z</time></trkpt><trkpt lat="47.516126" lon="10.416326"><ele>1149.39</ele><time>2009-05-23T13:24:10Z</time></trkpt><trkpt lat="47.515792" lon="10.414769"><ele>1159.01</ele><time>2009-05-23T13:24:17Z</time></trkpt><trkpt lat="47.515219" lon="10.413061"><ele>1164.29</ele><time>2009-05-23T13:24:26Z</time></trkpt><trkpt lat="47.515189" lon="10.412861"><ele>1164.29</ele><time>2009-05-23T13:24:27Z</time></trkpt><trkpt lat="47.515170" lon="10.412659"><ele>1164.77</ele><time>2009-05-23T13:24:28Z</time></trkpt><trkpt lat="47.515161" lon="10.412456"><ele>1164.77</ele><time>2009-05-23T13:24:29Z</time></trkpt><trkpt lat="47.515161" lon="10.412253"><ele>1165.26</ele><time>2009-05-23T13:24:30Z</time></trkpt><trkpt lat="47.515174" lon="10.412051"><ele>1165.26</ele><time>2009-05-23T13:24:31Z</time></trkpt><trkpt lat="47.515198" lon="10.411852"><ele>1165.26</ele><time>2009-05-23T13:24:32Z</time></trkpt><trkpt lat="47.515234" lon="10.411659"><ele>1164.77</ele><time>2009-05-23T13:24:33Z</time></trkpt><trkpt lat="47.515276" lon="10.411468"><ele>1164.29</ele><time>2009-05-23T13:24:34Z</time></trkpt><trkpt lat="47.515326" lon="10.411277"><ele>1164.29</ele><time>2009-05-23T13:24:35Z</time></trkpt><trkpt lat="47.516000" lon="10.409920"><ele>1162.37</ele><time>2009-05-23T13:24:43Z</time></trkpt><trkpt lat="47.517010" lon="10.408718"><ele>1159.49</ele><time>2009-05-23T13:24:52Z</time></trkpt><trkpt lat="47.517275" lon="10.408368"><ele>1160.45</ele><time>2009-05-23T13:24:58Z</time></trkpt><trkpt lat="47.517281" lon="10.408320"><ele>1160.45</ele><time>2009-05-23T13:24:59Z</time></trkpt><trkpt lat="47.517265" lon="10.408252"><ele>1160.45</ele><time>2009-05-23T13:25:00Z</time></trkpt><trkpt lat="47.517216" lon="10.408141"><ele>1160.45</ele><time>2009-05-23T13:25:01Z</time></trkpt><trkpt lat="47.517138" lon="10.407992"><ele>1160.45</ele><time>2009-05-23T13:25:02Z</time></trkpt><trkpt lat="47.517044" lon="10.407850"><ele>1159.97</ele><time>2009-05-23T13:25:03Z</time></trkpt><trkpt lat="47.516942" lon="10.407713"><ele>1159.01</ele><time>2009-05-23T13:25:04Z</time></trkpt><trkpt lat="47.516841" lon="10.407573"><ele>1158.05</ele><time>2009-05-23T13:25:05Z</time></trkpt><trkpt lat="47.516099" lon="10.406076"><ele>1150.35</ele><time>2009-05-23T13:25:13Z</time></trkpt><trkpt lat="47.515273" lon="10.403912"><ele>1140.74</ele><time>2009-05-23T13:25:24Z</time></trkpt><trkpt lat="47.515240" lon="10.403709"><ele>1140.26</ele><time>2009-05-23T13:25:25Z</time></trkpt><trkpt lat="47.514891" lon="10.402287"><ele>1137.38</ele><time>2009-05-23T13:25:33Z</time></trkpt><trkpt lat="47.514579" lon="10.401240"><ele>1134.49</ele><time>2009-05-23T13:25:39Z</time></trkpt><trkpt lat="47.513982" lon="10.399388"><ele>1128.24</ele><time>2009-05-23T13:25:49Z</time></trkpt><trkpt lat="47.513727" lon="10.398421"><ele>1123.44</ele><time>2009-05-23T13:25:53Z</time></trkpt><trkpt lat="47.513687" lon="10.398139"><ele>1122.48</ele><time>2009-05-23T13:25:54Z</time></trkpt><trkpt lat="47.513530" lon="10.396732"><ele>1116.71</ele><time>2009-05-23T13:25:59Z</time></trkpt><trkpt lat="47.513444" lon="10.396497"><ele>1115.75</ele><time>2009-05-23T13:26:00Z</time></trkpt><trkpt lat="47.513334" lon="10.396289"><ele>1114.31</ele><time>2009-05-23T13:26:01Z</time></trkpt><trkpt lat="47.513178" lon="10.396129"><ele>1112.86</ele><time>2009-05-23T13:26:02Z</time></trkpt><trkpt lat="47.513010" lon="10.395956"><ele>1112.38</ele><time>2009-05-23T13:26:03Z</time></trkpt><trkpt lat="47.512850" lon="10.395752"><ele>1110.94</ele><time>2009-05-23T13:26:04Z</time></trkpt><trkpt lat="47.512083" lon="10.394435"><ele>1102.29</ele><time>2009-05-23T13:26:10Z</time></trkpt><trkpt lat="47.512030" lon="10.394168"><ele>1101.33</ele><time>2009-05-23T13:26:11Z</time></trkpt><trkpt lat="47.512011" lon="10.393882"><ele>1099.89</ele><time>2009-05-23T13:26:12Z</time></trkpt><trkpt lat="47.512019" lon="10.393592"><ele>1098.44</ele><time>2009-05-23T13:26:13Z</time></trkpt><trkpt lat="47.512066" lon="10.393330"><ele>1096.04</ele><time>2009-05-23T13:26:14Z</time></trkpt><trkpt lat="47.512090" lon="10.393066"><ele>1094.60</ele><time>2009-05-23T13:26:15Z</time></trkpt><trkpt lat="47.512086" lon="10.392803"><ele>1093.64</ele><time>2009-05-23T13:26:16Z</time></trkpt><trkpt lat="47.512048" lon="10.392548"><ele>1092.68</ele><time>2009-05-23T13:26:17Z</time></trkpt><trkpt lat="47.511982" lon="10.392311"><ele>1091.23</ele><time>2009-05-23T13:26:18Z</time></trkpt><trkpt lat="47.511886" lon="10.392101"><ele>1090.27</ele><time>2009-05-23T13:26:19Z</time></trkpt><trkpt lat="47.511772" lon="10.391907"><ele>1088.83</ele><time>2009-05-23T13:26:20Z</time></trkpt><trkpt lat="47.511645" lon="10.391730"><ele>1087.39</ele><time>2009-05-23T13:26:21Z</time></trkpt><trkpt lat="47.511507" lon="10.391583"><ele>1085.95</ele><time>2009-05-23T13:26:22Z</time></trkpt><trkpt lat="47.511358" lon="10.391463"><ele>1084.99</ele><time>2009-05-23T13:26:23Z</time></trkpt><trkpt lat="47.511208" lon="10.391347"><ele>1084.02</ele><time>2009-05-23T13:26:24Z</time></trkpt><trkpt lat="47.511072" lon="10.391207"><ele>1082.58</ele><time>2009-05-23T13:26:25Z</time></trkpt><trkpt lat="47.510960" lon="10.391049"><ele>1081.62</ele><time>2009-05-23T13:26:26Z</time></trkpt><trkpt lat="47.510788" lon="10.390814"><ele>1079.22</ele><time>2009-05-23T13:26:28Z</time></trkpt><trkpt lat="47.510682" lon="10.390816"><ele>1078.26</ele><time>2009-05-23T13:26:29Z</time></trkpt><trkpt lat="47.510592" lon="10.390855"><ele>1077.29</ele><time>2009-05-23T13:26:30Z</time></trkpt><trkpt lat="47.510470" lon="10.391334"><ele>1073.93</ele><time>2009-05-23T13:26:33Z</time></trkpt><trkpt lat="47.510487" lon="10.391547"><ele>1072.97</ele><time>2009-05-23T13:26:34Z</time></trkpt><trkpt lat="47.510607" lon="10.391720"><ele>1074.41</ele><time>2009-05-23T13:26:35Z</time></trkpt><trkpt lat="47.510704" lon="10.391977"><ele>1072.49</ele><time>2009-05-23T13:26:36Z</time></trkpt><trkpt lat="47.510894" lon="10.392146"><ele>1072.01</ele><time>2009-05-23T13:26:37Z</time></trkpt><trkpt lat="47.511038" lon="10.392319"><ele>1070.57</ele><time>2009-05-23T13:26:38Z</time></trkpt><trkpt lat="47.511163" lon="10.392479"><ele>1070.08</ele><time>2009-05-23T13:26:39Z</time></trkpt><trkpt lat="47.511258" lon="10.392633"><ele>1069.12</ele><time>2009-05-23T13:26:40Z</time></trkpt><trkpt lat="47.511287" lon="10.392958"><ele>1067.68</ele><time>2009-05-23T13:26:42Z</time></trkpt><trkpt lat="47.511210" lon="10.393108"><ele>1067.20</ele><time>2009-05-23T13:26:43Z</time></trkpt><trkpt lat="47.511113" lon="10.393250"><ele>1066.72</ele><time>2009-05-23T13:26:44Z</time></trkpt><trkpt lat="47.511000" lon="10.393398"><ele>1066.24</ele><time>2009-05-23T13:26:45Z</time></trkpt><trkpt lat="47.510921" lon="10.393537"><ele>1064.80</ele><time>2009-05-23T13:26:46Z</time></trkpt><trkpt lat="47.510850" lon="10.393838"><ele>1063.84</ele><time>2009-05-23T13:26:48Z</time></trkpt><trkpt lat="47.510870" lon="10.393977"><ele>1064.32</ele><time>2009-05-23T13:26:49Z</time></trkpt><trkpt lat="47.510947" lon="10.394123"><ele>1064.80</ele><time>2009-05-23T13:26:50Z</time></trkpt><trkpt lat="47.510991" lon="10.394243"><ele>1064.32</ele><time>2009-05-23T13:26:51Z</time></trkpt><trkpt lat="47.511003" lon="10.394348"><ele>1063.36</ele><time>2009-05-23T13:26:52Z</time></trkpt><trkpt lat="47.510985" lon="10.394421"><ele>1062.39</ele><time>2009-05-23T13:26:53Z</time></trkpt><trkpt lat="47.510876" lon="10.394419"><ele>1059.99</ele><time>2009-05-23T13:26:54Z</time></trkpt><trkpt lat="47.510808" lon="10.394349"><ele>1059.51</ele><time>2009-05-23T13:26:55Z</time></trkpt><trkpt lat="47.510734" lon="10.394241"><ele>1059.51</ele><time>2009-05-23T13:26:56Z</time></trkpt><trkpt lat="47.510662" lon="10.394086"><ele>1059.99</ele><time>2009-05-23T13:26:57Z</time></trkpt><trkpt lat="47.510694" lon="10.393837"><ele>1058.55</ele><time>2009-05-23T13:26:58Z</time></trkpt><trkpt lat="47.510710" lon="10.393601"><ele>1057.59</ele><time>2009-05-23T13:26:59Z</time></trkpt><trkpt lat="47.510800" lon="10.393144"><ele>1056.15</ele><time>2009-05-23T13:27:01Z</time></trkpt><trkpt lat="47.510892" lon="10.392968"><ele>1055.67</ele><time>2009-05-23T13:27:02Z</time></trkpt><trkpt lat="47.511040" lon="10.392540"><ele>1052.78</ele><time>2009-05-23T13:27:05Z</time></trkpt><trkpt lat="47.510972" lon="10.392428"><ele>1052.30</ele><time>2009-05-23T13:27:06Z</time></trkpt><trkpt lat="47.510872" lon="10.392373"><ele>1052.30</ele><time>2009-05-23T13:27:07Z</time></trkpt><trkpt lat="47.510144" lon="10.391962"><ele>1050.38</ele><time>2009-05-23T13:27:12Z</time></trkpt><trkpt lat="47.509987" lon="10.391576"><ele>1050.38</ele><time>2009-05-23T13:27:14Z</time></trkpt><trkpt lat="47.509984" lon="10.391259"><ele>1046.53</ele><time>2009-05-23T13:27:15Z</time></trkpt><trkpt lat="47.509992" lon="10.390988"><ele>1046.05</ele><time>2009-05-23T13:27:16Z</time></trkpt><trkpt lat="47.510020" lon="10.390747"><ele>1045.09</ele><time>2009-05-23T13:27:17Z</time></trkpt><trkpt lat="47.510083" lon="10.390521"><ele>1043.65</ele><time>2009-05-23T13:27:18Z</time></trkpt><trkpt lat="47.510192" lon="10.390326"><ele>1042.69</ele><time>2009-05-23T13:27:19Z</time></trkpt><trkpt lat="47.510333" lon="10.390147"><ele>1041.73</ele><time>2009-05-23T13:27:20Z</time></trkpt><trkpt lat="47.510467" lon="10.389986"><ele>1040.76</ele><time>2009-05-23T13:27:21Z</time></trkpt><trkpt lat="47.510598" lon="10.389858"><ele>1040.28</ele><time>2009-05-23T13:27:22Z</time></trkpt><trkpt lat="47.510740" lon="10.389795"><ele>1039.32</ele><time>2009-05-23T13:27:23Z</time></trkpt><trkpt lat="47.510893" lon="10.389762"><ele>1037.88</ele><time>2009-05-23T13:27:24Z</time></trkpt><trkpt lat="47.511053" lon="10.389720"><ele>1036.92</ele><time>2009-05-23T13:27:25Z</time></trkpt><trkpt lat="47.511217" lon="10.389648"><ele>1035.96</ele><time>2009-05-23T13:27:26Z</time></trkpt><trkpt lat="47.511373" lon="10.389533"><ele>1035.00</ele><time>2009-05-23T13:27:27Z</time></trkpt><trkpt lat="47.511520" lon="10.389379"><ele>1034.52</ele><time>2009-05-23T13:27:28Z</time></trkpt><trkpt lat="47.511653" lon="10.389180"><ele>1033.07</ele><time>2009-05-23T13:27:29Z</time></trkpt><trkpt lat="47.511756" lon="10.388944"><ele>1031.63</ele><time>2009-05-23T13:27:30Z</time></trkpt><trkpt lat="47.511844" lon="10.388700"><ele>1030.67</ele><time>2009-05-23T13:27:31Z</time></trkpt><trkpt lat="47.511911" lon="10.388450"><ele>1029.71</ele><time>2009-05-23T13:27:32Z</time></trkpt><trkpt lat="47.511954" lon="10.388198"><ele>1028.75</ele><time>2009-05-23T13:27:33Z</time></trkpt><trkpt lat="47.511964" lon="10.387955"><ele>1027.31</ele><time>2009-05-23T13:27:34Z</time></trkpt><trkpt lat="47.511956" lon="10.387711"><ele>1026.83</ele><time>2009-05-23T13:27:35Z</time></trkpt><trkpt lat="47.511946" lon="10.387478"><ele>1025.86</ele><time>2009-05-23T13:27:36Z</time></trkpt><trkpt lat="47.512034" lon="10.386807"><ele>1020.58</ele><time>2009-05-23T13:27:40Z</time></trkpt><trkpt lat="47.512141" lon="10.386747"><ele>1019.13</ele><time>2009-05-23T13:27:41Z</time></trkpt><trkpt lat="47.512347" lon="10.386495"><ele>1017.21</ele><time>2009-05-23T13:27:44Z</time></trkpt><trkpt lat="47.512335" lon="10.386397"><ele>1016.25</ele><time>2009-05-23T13:27:45Z</time></trkpt><trkpt lat="47.512275" lon="10.386300"><ele>1015.77</ele><time>2009-05-23T13:27:46Z</time></trkpt><trkpt lat="47.512183" lon="10.386223"><ele>1015.29</ele><time>2009-05-23T13:27:47Z</time></trkpt><trkpt lat="47.512067" lon="10.386232"><ele>1015.29</ele><time>2009-05-23T13:27:48Z</time></trkpt><trkpt lat="47.511971" lon="10.386272"><ele>1014.81</ele><time>2009-05-23T13:27:49Z</time></trkpt><trkpt lat="47.511843" lon="10.386428"><ele>1015.77</ele><time>2009-05-23T13:27:50Z</time></trkpt><trkpt lat="47.511743" lon="10.386558"><ele>1014.81</ele><time>2009-05-23T13:27:51Z</time></trkpt><trkpt lat="47.511668" lon="10.386702"><ele>1013.85</ele><time>2009-05-23T13:27:52Z</time></trkpt><trkpt lat="47.511617" lon="10.386856"><ele>1012.41</ele><time>2009-05-23T13:27:53Z</time></trkpt><trkpt lat="47.511589" lon="10.387063"><ele>1011.44</ele><time>2009-05-23T13:27:54Z</time></trkpt><trkpt lat="47.511574" lon="10.387298"><ele>1010.00</ele><time>2009-05-23T13:27:55Z</time></trkpt><trkpt lat="47.511526" lon="10.387682"><ele>1008.08</ele><time>2009-05-23T13:27:57Z</time></trkpt><trkpt lat="47.511481" lon="10.387809"><ele>1007.60</ele><time>2009-05-23T13:27:58Z</time></trkpt><trkpt lat="47.511310" lon="10.387816"><ele>1005.68</ele><time>2009-05-23T13:28:00Z</time></trkpt><trkpt lat="47.511208" lon="10.387736"><ele>1006.16</ele><time>2009-05-23T13:28:01Z</time></trkpt><trkpt lat="47.511139" lon="10.387625"><ele>1006.64</ele><time>2009-05-23T13:28:02Z</time></trkpt><trkpt lat="47.511190" lon="10.387259"><ele>1002.31</ele><time>2009-05-23T13:28:04Z</time></trkpt><trkpt lat="47.511259" lon="10.387075"><ele>1000.87</ele><time>2009-05-23T13:28:05Z</time></trkpt><trkpt lat="47.511309" lon="10.386897"><ele>999.91</ele><time>2009-05-23T13:28:06Z</time></trkpt><trkpt lat="47.511369" lon="10.386691"><ele>998.95</ele><time>2009-05-23T13:28:07Z</time></trkpt><trkpt lat="47.511393" lon="10.386481"><ele>997.02</ele><time>2009-05-23T13:28:08Z</time></trkpt><trkpt lat="47.511420" lon="10.386281"><ele>997.02</ele><time>2009-05-23T13:28:09Z</time></trkpt><trkpt lat="47.511490" lon="10.386107"><ele>996.06</ele><time>2009-05-23T13:28:10Z</time></trkpt><trkpt lat="47.511588" lon="10.385968"><ele>995.10</ele><time>2009-05-23T13:28:11Z</time></trkpt><trkpt lat="47.511721" lon="10.385867"><ele>995.10</ele><time>2009-05-23T13:28:12Z</time></trkpt><trkpt lat="47.511833" lon="10.385767"><ele>994.62</ele><time>2009-05-23T13:28:13Z</time></trkpt><trkpt lat="47.511917" lon="10.385641"><ele>995.10</ele><time>2009-05-23T13:28:14Z</time></trkpt><trkpt lat="47.511971" lon="10.385453"><ele>994.14</ele><time>2009-05-23T13:28:15Z</time></trkpt><trkpt lat="47.512009" lon="10.385273"><ele>994.14</ele><time>2009-05-23T13:28:16Z</time></trkpt><trkpt lat="47.511993" lon="10.385026"><ele>993.66</ele><time>2009-05-23T13:28:17Z</time></trkpt><trkpt lat="47.512014" lon="10.384806"><ele>994.14</ele><time>2009-05-23T13:28:18Z</time></trkpt><trkpt lat="47.512060" lon="10.384611"><ele>994.14</ele><time>2009-05-23T13:28:19Z</time></trkpt><trkpt lat="47.512128" lon="10.384470"><ele>993.66</ele><time>2009-05-23T13:28:20Z</time></trkpt><trkpt lat="47.512225" lon="10.384408"><ele>993.66</ele><time>2009-05-23T13:28:21Z</time></trkpt><trkpt lat="47.512338" lon="10.384332"><ele>993.18</ele><time>2009-05-23T13:28:22Z</time></trkpt><trkpt lat="47.512453" lon="10.384247"><ele>993.18</ele><time>2009-05-23T13:28:23Z</time></trkpt><trkpt lat="47.512516" lon="10.384159"><ele>993.18</ele><time>2009-05-23T13:28:24Z</time></trkpt><trkpt lat="47.512523" lon="10.383863"><ele>994.62</ele><time>2009-05-23T13:28:26Z</time></trkpt><trkpt lat="47.512461" lon="10.383713"><ele>994.14</ele><time>2009-05-23T13:28:27Z</time></trkpt><trkpt lat="47.512385" lon="10.383653"><ele>993.66</ele><time>2009-05-23T13:28:28Z</time></trkpt><trkpt lat="47.512149" lon="10.383792"><ele>994.62</ele><time>2009-05-23T13:28:30Z</time></trkpt><trkpt lat="47.512068" lon="10.383882"><ele>993.66</ele><time>2009-05-23T13:28:31Z</time></trkpt><trkpt lat="47.511951" lon="10.384030"><ele>993.18</ele><time>2009-05-23T13:28:32Z</time></trkpt><trkpt lat="47.511841" lon="10.384268"><ele>992.22</ele><time>2009-05-23T13:28:33Z</time></trkpt><trkpt lat="47.511745" lon="10.384445"><ele>991.74</ele><time>2009-05-23T13:28:34Z</time></trkpt><trkpt lat="47.511655" lon="10.384677"><ele>991.26</ele><time>2009-05-23T13:28:35Z</time></trkpt><trkpt lat="47.511599" lon="10.384854"><ele>991.74</ele><time>2009-05-23T13:28:36Z</time></trkpt><trkpt lat="47.511579" lon="10.385083"><ele>989.33</ele><time>2009-05-23T13:28:37Z</time></trkpt><trkpt lat="47.511482" lon="10.385401"><ele>988.37</ele><time>2009-05-23T13:28:39Z</time></trkpt><trkpt lat="47.511403" lon="10.385510"><ele>987.41</ele><time>2009-05-23T13:28:40Z</time></trkpt><trkpt lat="47.511291" lon="10.385610"><ele>986.93</ele><time>2009-05-23T13:28:41Z</time></trkpt><trkpt lat="47.511145" lon="10.385682"><ele>985.97</ele><time>2009-05-23T13:28:42Z</time></trkpt><trkpt lat="47.511013" lon="10.385763"><ele>985.49</ele><time>2009-05-23T13:28:43Z</time></trkpt><trkpt lat="47.510568" lon="10.386347"><ele>981.16</ele><time>2009-05-23T13:28:47Z</time></trkpt><trkpt lat="47.510483" lon="10.386543"><ele>980.20</ele><time>2009-05-23T13:28:48Z</time></trkpt><trkpt lat="47.510437" lon="10.386700"><ele>979.72</ele><time>2009-05-23T13:28:49Z</time></trkpt><trkpt lat="47.510401" lon="10.386913"><ele>978.28</ele><time>2009-05-23T13:28:50Z</time></trkpt><trkpt lat="47.510376" lon="10.387140"><ele>977.32</ele><time>2009-05-23T13:28:51Z</time></trkpt><trkpt lat="47.510346" lon="10.387372"><ele>976.36</ele><time>2009-05-23T13:28:52Z</time></trkpt><trkpt lat="47.510308" lon="10.387578"><ele>975.39</ele><time>2009-05-23T13:28:53Z</time></trkpt><trkpt lat="47.510242" lon="10.387731"><ele>974.91</ele><time>2009-05-23T13:28:54Z</time></trkpt><trkpt lat="47.510154" lon="10.387872"><ele>973.47</ele><time>2009-05-23T13:28:55Z</time></trkpt><trkpt lat="47.509852" lon="10.388391"><ele>970.11</ele><time>2009-05-23T13:28:59Z</time></trkpt><trkpt lat="47.509770" lon="10.388443"><ele>969.63</ele><time>2009-05-23T13:29:00Z</time></trkpt><trkpt lat="47.509669" lon="10.388383"><ele>969.15</ele><time>2009-05-23T13:29:01Z</time></trkpt><trkpt lat="47.509605" lon="10.388263"><ele>967.70</ele><time>2009-05-23T13:29:02Z</time></trkpt><trkpt lat="47.509576" lon="10.388120"><ele>966.74</ele><time>2009-05-23T13:29:03Z</time></trkpt><trkpt lat="47.509637" lon="10.387816"><ele>965.30</ele><time>2009-05-23T13:29:05Z</time></trkpt><trkpt lat="47.509732" lon="10.387676"><ele>964.34</ele><time>2009-05-23T13:29:06Z</time></trkpt><trkpt lat="47.509879" lon="10.387555"><ele>964.34</ele><time>2009-05-23T13:29:07Z</time></trkpt><trkpt lat="47.509998" lon="10.387406"><ele>963.86</ele><time>2009-05-23T13:29:08Z</time></trkpt><trkpt lat="47.510065" lon="10.387239"><ele>963.38</ele><time>2009-05-23T13:29:09Z</time></trkpt><trkpt lat="47.510097" lon="10.387072"><ele>962.90</ele><time>2009-05-23T13:29:10Z</time></trkpt><trkpt lat="47.510102" lon="10.386926"><ele>960.98</ele><time>2009-05-23T13:29:11Z</time></trkpt><trkpt lat="47.510031" lon="10.386752"><ele>960.98</ele><time>2009-05-23T13:29:12Z</time></trkpt><trkpt lat="47.509901" lon="10.386580"><ele>960.01</ele><time>2009-05-23T13:29:13Z</time></trkpt><trkpt lat="47.509814" lon="10.386405"><ele>959.53</ele><time>2009-05-23T13:29:14Z</time></trkpt><trkpt lat="47.509764" lon="10.386232"><ele>958.57</ele><time>2009-05-23T13:29:15Z</time></trkpt><trkpt lat="47.509740" lon="10.386038"><ele>957.61</ele><time>2009-05-23T13:29:16Z</time></trkpt><trkpt lat="47.509771" lon="10.385810"><ele>955.69</ele><time>2009-05-23T13:29:17Z</time></trkpt><trkpt lat="47.509826" lon="10.385576"><ele>954.25</ele><time>2009-05-23T13:29:18Z</time></trkpt><trkpt lat="47.509922" lon="10.385330"><ele>953.28</ele><time>2009-05-23T13:29:19Z</time></trkpt><trkpt lat="47.510015" lon="10.385069"><ele>952.32</ele><time>2009-05-23T13:29:20Z</time></trkpt><trkpt lat="47.510081" lon="10.384811"><ele>951.36</ele><time>2009-05-23T13:29:21Z</time></trkpt><trkpt lat="47.510143" lon="10.384565"><ele>950.40</ele><time>2009-05-23T13:29:22Z</time></trkpt><trkpt lat="47.510407" lon="10.383748"><ele>946.56</ele><time>2009-05-23T13:29:26Z</time></trkpt><trkpt lat="47.510494" lon="10.383635"><ele>945.59</ele><time>2009-05-23T13:29:27Z</time></trkpt><trkpt lat="47.510561" lon="10.383522"><ele>943.67</ele><time>2009-05-23T13:29:28Z</time></trkpt><trkpt lat="47.510618" lon="10.383413"><ele>943.19</ele><time>2009-05-23T13:29:29Z</time></trkpt><trkpt lat="47.510641" lon="10.383294"><ele>941.75</ele><time>2009-05-23T13:29:30Z</time></trkpt><trkpt lat="47.510596" lon="10.383184"><ele>940.79</ele><time>2009-05-23T13:29:31Z</time></trkpt><trkpt lat="47.510553" lon="10.383041"><ele>940.79</ele><time>2009-05-23T13:29:32Z</time></trkpt><trkpt lat="47.510483" lon="10.382940"><ele>940.31</ele><time>2009-05-23T13:29:33Z</time></trkpt><trkpt lat="47.510386" lon="10.382893"><ele>939.35</ele><time>2009-05-23T13:29:34Z</time></trkpt><trkpt lat="47.510246" lon="10.382936"><ele>939.35</ele><time>2009-05-23T13:29:35Z</time></trkpt><trkpt lat="47.510097" lon="10.383022"><ele>939.35</ele><time>2009-05-23T13:29:36Z</time></trkpt><trkpt lat="47.509983" lon="10.383130"><ele>939.35</ele><time>2009-05-23T13:29:37Z</time></trkpt><trkpt lat="47.509905" lon="10.383243"><ele>938.86</ele><time>2009-05-23T13:29:38Z</time></trkpt><trkpt lat="47.509859" lon="10.383369"><ele>937.90</ele><time>2009-05-23T13:29:39Z</time></trkpt><trkpt lat="47.509830" lon="10.383492"><ele>937.90</ele><time>2009-05-23T13:29:40Z</time></trkpt><trkpt lat="47.509824" lon="10.383640"><ele>937.42</ele><time>2009-05-23T13:29:41Z</time></trkpt><trkpt lat="47.509852" lon="10.383799"><ele>936.94</ele><time>2009-05-23T13:29:42Z</time></trkpt><trkpt lat="47.509890" lon="10.383970"><ele>934.06</ele><time>2009-05-23T13:29:43Z</time></trkpt><trkpt lat="47.509895" lon="10.384119"><ele>933.10</ele><time>2009-05-23T13:29:44Z</time></trkpt><trkpt lat="47.509868" lon="10.384258"><ele>932.62</ele><time>2009-05-23T13:29:45Z</time></trkpt><trkpt lat="47.509801" lon="10.384404"><ele>931.65</ele><time>2009-05-23T13:29:46Z</time></trkpt><trkpt lat="47.509704" lon="10.384544"><ele>930.21</ele><time>2009-05-23T13:29:47Z</time></trkpt><trkpt lat="47.509595" lon="10.384689"><ele>929.73</ele><time>2009-05-23T13:29:48Z</time></trkpt><trkpt lat="47.509474" lon="10.384852"><ele>929.73</ele><time>2009-05-23T13:29:49Z</time></trkpt><trkpt lat="47.509205" lon="10.385246"><ele>928.77</ele><time>2009-05-23T13:29:52Z</time></trkpt><trkpt lat="47.509149" lon="10.385405"><ele>927.81</ele><time>2009-05-23T13:29:53Z</time></trkpt><trkpt lat="47.509107" lon="10.385580"><ele>926.85</ele><time>2009-05-23T13:29:54Z</time></trkpt><trkpt lat="47.509008" lon="10.385895"><ele>926.37</ele><time>2009-05-23T13:29:56Z</time></trkpt><trkpt lat="47.508946" lon="10.386024"><ele>925.89</ele><time>2009-05-23T13:29:57Z</time></trkpt><trkpt lat="47.508860" lon="10.386129"><ele>924.93</ele><time>2009-05-23T13:29:58Z</time></trkpt><trkpt lat="47.508761" lon="10.386199"><ele>923.96</ele><time>2009-05-23T13:29:59Z</time></trkpt><trkpt lat="47.508650" lon="10.386228"><ele>923.48</ele><time>2009-05-23T13:30:00Z</time></trkpt><trkpt lat="47.508526" lon="10.386200"><ele>926.37</ele><time>2009-05-23T13:30:01Z</time></trkpt><trkpt lat="47.508427" lon="10.386195"><ele>926.85</ele><time>2009-05-23T13:30:02Z</time></trkpt><trkpt lat="47.508336" lon="10.386248"><ele>926.85</ele><time>2009-05-23T13:30:03Z</time></trkpt><trkpt lat="47.508258" lon="10.386321"><ele>927.33</ele><time>2009-05-23T13:30:04Z</time></trkpt><trkpt lat="47.508226" lon="10.386426"><ele>927.33</ele><time>2009-05-23T13:30:05Z</time></trkpt><trkpt lat="47.508217" lon="10.386555"><ele>926.85</ele><time>2009-05-23T13:30:06Z</time></trkpt><trkpt lat="47.508245" lon="10.386736"><ele>924.45</ele><time>2009-05-23T13:30:07Z</time></trkpt><trkpt lat="47.508236" lon="10.386887"><ele>923.96</ele><time>2009-05-23T13:30:08Z</time></trkpt><trkpt lat="47.508198" lon="10.387014"><ele>923.96</ele><time>2009-05-23T13:30:09Z</time></trkpt><trkpt lat="47.508140" lon="10.387118"><ele>923.96</ele><time>2009-05-23T13:30:10Z</time></trkpt><trkpt lat="47.508070" lon="10.387199"><ele>923.48</ele><time>2009-05-23T13:30:11Z</time></trkpt><trkpt lat="47.507991" lon="10.387280"><ele>922.52</ele><time>2009-05-23T13:30:12Z</time></trkpt><trkpt lat="47.507919" lon="10.387393"><ele>922.04</ele><time>2009-05-23T13:30:13Z</time></trkpt><trkpt lat="47.507853" lon="10.387529"><ele>921.56</ele><time>2009-05-23T13:30:14Z</time></trkpt><trkpt lat="47.507785" lon="10.387707"><ele>921.08</ele><time>2009-05-23T13:30:15Z</time></trkpt><trkpt lat="47.507724" lon="10.387883"><ele>920.60</ele><time>2009-05-23T13:30:16Z</time></trkpt><trkpt lat="47.507536" lon="10.388346"><ele>919.16</ele><time>2009-05-23T13:30:19Z</time></trkpt><trkpt lat="47.507454" lon="10.388448"><ele>918.68</ele><time>2009-05-23T13:30:20Z</time></trkpt><trkpt lat="47.507354" lon="10.388497"><ele>918.20</ele><time>2009-05-23T13:30:21Z</time></trkpt><trkpt lat="47.507225" lon="10.388454"><ele>917.24</ele><time>2009-05-23T13:30:22Z</time></trkpt><trkpt lat="47.507115" lon="10.388384"><ele>916.75</ele><time>2009-05-23T13:30:23Z</time></trkpt><trkpt lat="47.507019" lon="10.388286"><ele>916.75</ele><time>2009-05-23T13:30:24Z</time></trkpt><trkpt lat="47.506946" lon="10.388154"><ele>915.79</ele><time>2009-05-23T13:30:25Z</time></trkpt><trkpt lat="47.506902" lon="10.388024"><ele>915.31</ele><time>2009-05-23T13:30:26Z</time></trkpt><trkpt lat="47.506877" lon="10.387901"><ele>914.83</ele><time>2009-05-23T13:30:27Z</time></trkpt><trkpt lat="47.506876" lon="10.387771"><ele>914.35</ele><time>2009-05-23T13:30:28Z</time></trkpt><trkpt lat="47.506848" lon="10.387661"><ele>913.39</ele><time>2009-05-23T13:30:29Z</time></trkpt><trkpt lat="47.506797" lon="10.387589"><ele>912.43</ele><time>2009-05-23T13:30:30Z</time></trkpt><trkpt lat="47.506733" lon="10.387528"><ele>911.95</ele><time>2009-05-23T13:30:31Z</time></trkpt><trkpt lat="47.506641" lon="10.387509"><ele>911.47</ele><time>2009-05-23T13:30:32Z</time></trkpt><trkpt lat="47.506538" lon="10.387507"><ele>910.99</ele><time>2009-05-23T13:30:33Z</time></trkpt><trkpt lat="47.506438" lon="10.387533"><ele>910.99</ele><time>2009-05-23T13:30:34Z</time></trkpt><trkpt lat="47.506360" lon="10.387611"><ele>910.51</ele><time>2009-05-23T13:30:35Z</time></trkpt><trkpt lat="47.506308" lon="10.387722"><ele>910.03</ele><time>2009-05-23T13:30:36Z</time></trkpt><trkpt lat="47.506291" lon="10.387818"><ele>909.06</ele><time>2009-05-23T13:30:37Z</time></trkpt><trkpt lat="47.506315" lon="10.387946"><ele>908.10</ele><time>2009-05-23T13:30:38Z</time></trkpt><trkpt lat="47.506386" lon="10.388104"><ele>907.62</ele><time>2009-05-23T13:30:39Z</time></trkpt><trkpt lat="47.506450" lon="10.388257"><ele>908.58</ele><time>2009-05-23T13:30:40Z</time></trkpt><trkpt lat="47.506541" lon="10.388473"><ele>906.66</ele><time>2009-05-23T13:30:41Z</time></trkpt><trkpt lat="47.506584" lon="10.388655"><ele>905.70</ele><time>2009-05-23T13:30:42Z</time></trkpt><trkpt lat="47.506591" lon="10.388828"><ele>905.22</ele><time>2009-05-23T13:30:43Z</time></trkpt><trkpt lat="47.506570" lon="10.388996"><ele>903.78</ele><time>2009-05-23T13:30:44Z</time></trkpt><trkpt lat="47.506556" lon="10.389156"><ele>903.78</ele><time>2009-05-23T13:30:45Z</time></trkpt><trkpt lat="47.506556" lon="10.389311"><ele>903.30</ele><time>2009-05-23T13:30:46Z</time></trkpt><trkpt lat="47.506552" lon="10.389460"><ele>902.33</ele><time>2009-05-23T13:30:47Z</time></trkpt><trkpt lat="47.506531" lon="10.389599"><ele>901.85</ele><time>2009-05-23T13:30:48Z</time></trkpt><trkpt lat="47.506492" lon="10.389720"><ele>901.37</ele><time>2009-05-23T13:30:49Z</time></trkpt><trkpt lat="47.506464" lon="10.389834"><ele>900.89</ele><time>2009-05-23T13:30:50Z</time></trkpt><trkpt lat="47.506455" lon="10.389943"><ele>900.89</ele><time>2009-05-23T13:30:51Z</time></trkpt><trkpt lat="47.506474" lon="10.390039"><ele>900.89</ele><time>2009-05-23T13:30:52Z</time></trkpt><trkpt lat="47.506514" lon="10.390126"><ele>900.41</ele><time>2009-05-23T13:30:53Z</time></trkpt><trkpt lat="47.506588" lon="10.390193"><ele>900.41</ele><time>2009-05-23T13:30:54Z</time></trkpt><trkpt lat="47.506677" lon="10.390235"><ele>899.93</ele><time>2009-05-23T13:30:55Z</time></trkpt><trkpt lat="47.506757" lon="10.390284"><ele>899.93</ele><time>2009-05-23T13:30:56Z</time></trkpt><trkpt lat="47.506829" lon="10.390343"><ele>899.45</ele><time>2009-05-23T13:30:57Z</time></trkpt><trkpt lat="47.506870" lon="10.390436"><ele>899.45</ele><time>2009-05-23T13:30:58Z</time></trkpt><trkpt lat="47.506884" lon="10.390526"><ele>898.97</ele><time>2009-05-23T13:30:59Z</time></trkpt><trkpt lat="47.506838" lon="10.390598"><ele>898.49</ele><time>2009-05-23T13:31:00Z</time></trkpt><trkpt lat="47.506754" lon="10.390635"><ele>898.01</ele><time>2009-05-23T13:31:01Z</time></trkpt><trkpt lat="47.506652" lon="10.390623"><ele>897.05</ele><time>2009-05-23T13:31:02Z</time></trkpt><trkpt lat="47.506556" lon="10.390559"><ele>896.09</ele><time>2009-05-23T13:31:03Z</time></trkpt><trkpt lat="47.506467" lon="10.390450"><ele>895.12</ele><time>2009-05-23T13:31:04Z</time></trkpt><trkpt lat="47.506391" lon="10.390315"><ele>894.64</ele><time>2009-05-23T13:31:05Z</time></trkpt><trkpt lat="47.506334" lon="10.390173"><ele>893.20</ele><time>2009-05-23T13:31:06Z</time></trkpt><trkpt lat="47.506302" lon="10.390025"><ele>892.72</ele><time>2009-05-23T13:31:07Z</time></trkpt><trkpt lat="47.506281" lon="10.389879"><ele>892.24</ele><time>2009-05-23T13:31:08Z</time></trkpt><trkpt lat="47.506279" lon="10.389681"><ele>891.28</ele><time>2009-05-23T13:31:09Z</time></trkpt><trkpt lat="47.506294" lon="10.389459"><ele>890.80</ele><time>2009-05-23T13:31:10Z</time></trkpt><trkpt lat="47.506308" lon="10.389258"><ele>890.32</ele><time>2009-05-23T13:31:11Z</time></trkpt><trkpt lat="47.506310" lon="10.389083"><ele>889.84</ele><time>2009-05-23T13:31:12Z</time></trkpt><trkpt lat="47.506294" lon="10.388933"><ele>889.36</ele><time>2009-05-23T13:31:13Z</time></trkpt><trkpt lat="47.506252" lon="10.388788"><ele>888.40</ele><time>2009-05-23T13:31:14Z</time></trkpt><trkpt lat="47.506178" lon="10.388623"><ele>887.91</ele><time>2009-05-23T13:31:15Z</time></trkpt><trkpt lat="47.506080" lon="10.388430"><ele>887.43</ele><time>2009-05-23T13:31:16Z</time></trkpt><trkpt lat="47.505981" lon="10.388244"><ele>886.47</ele><time>2009-05-23T13:31:17Z</time></trkpt><trkpt lat="47.505890" lon="10.388069"><ele>885.51</ele><time>2009-05-23T13:31:18Z</time></trkpt><trkpt lat="47.505830" lon="10.387852"><ele>884.55</ele><time>2009-05-23T13:31:19Z</time></trkpt><trkpt lat="47.505786" lon="10.387602"><ele>884.07</ele><time>2009-05-23T13:31:20Z</time></trkpt><trkpt lat="47.505767" lon="10.387330"><ele>883.11</ele><time>2009-05-23T13:31:21Z</time></trkpt><trkpt lat="47.505752" lon="10.387099"><ele>882.63</ele><time>2009-05-23T13:31:22Z</time></trkpt><trkpt lat="47.505843" lon="10.386644"><ele>880.22</ele><time>2009-05-23T13:31:25Z</time></trkpt><trkpt lat="47.505957" lon="10.386569"><ele>879.26</ele><time>2009-05-23T13:31:26Z</time></trkpt><trkpt lat="47.506080" lon="10.386494"><ele>878.78</ele><time>2009-05-23T13:31:27Z</time></trkpt><trkpt lat="47.506159" lon="10.386405"><ele>877.82</ele><time>2009-05-23T13:31:28Z</time></trkpt><trkpt lat="47.506203" lon="10.386232"><ele>876.38</ele><time>2009-05-23T13:31:29Z</time></trkpt><trkpt lat="47.506239" lon="10.386058"><ele>875.42</ele><time>2009-05-23T13:31:30Z</time></trkpt><trkpt lat="47.506232" lon="10.385848"><ele>873.98</ele><time>2009-05-23T13:31:31Z</time></trkpt><trkpt lat="47.506254" lon="10.385627"><ele>872.53</ele><time>2009-05-23T13:31:32Z</time></trkpt><trkpt lat="47.506300" lon="10.385404"><ele>872.05</ele><time>2009-05-23T13:31:33Z</time></trkpt><trkpt lat="47.506345" lon="10.385147"><ele>871.09</ele><time>2009-05-23T13:31:34Z</time></trkpt><trkpt lat="47.506609" lon="10.383691"><ele>865.80</ele><time>2009-05-23T13:31:39Z</time></trkpt><trkpt lat="47.506655" lon="10.383442"><ele>864.84</ele><time>2009-05-23T13:31:40Z</time></trkpt><trkpt lat="47.506714" lon="10.383214"><ele>863.88</ele><time>2009-05-23T13:31:41Z</time></trkpt><trkpt lat="47.506781" lon="10.383031"><ele>862.92</ele><time>2009-05-23T13:31:42Z</time></trkpt><trkpt lat="47.506870" lon="10.382915"><ele>861.48</ele><time>2009-05-23T13:31:43Z</time></trkpt><trkpt lat="47.506979" lon="10.382834"><ele>860.04</ele><time>2009-05-23T13:31:44Z</time></trkpt><trkpt lat="47.507113" lon="10.382827"><ele>858.59</ele><time>2009-05-23T13:31:45Z</time></trkpt><trkpt lat="47.507255" lon="10.382885"><ele>858.11</ele><time>2009-05-23T13:31:46Z</time></trkpt><trkpt lat="47.507386" lon="10.382904"><ele>857.63</ele><time>2009-05-23T13:31:47Z</time></trkpt><trkpt lat="47.507521" lon="10.382876"><ele>856.67</ele><time>2009-05-23T13:31:48Z</time></trkpt><trkpt lat="47.507624" lon="10.382738"><ele>855.23</ele><time>2009-05-23T13:31:49Z</time></trkpt><trkpt lat="47.507682" lon="10.382629"><ele>853.31</ele><time>2009-05-23T13:31:50Z</time></trkpt><trkpt lat="47.507723" lon="10.382521"><ele>852.35</ele><time>2009-05-23T13:31:51Z</time></trkpt><trkpt lat="47.507708" lon="10.382347"><ele>851.87</ele><time>2009-05-23T13:31:52Z</time></trkpt><trkpt lat="47.507626" lon="10.382135"><ele>851.38</ele><time>2009-05-23T13:31:53Z</time></trkpt><trkpt lat="47.507557" lon="10.381944"><ele>851.38</ele><time>2009-05-23T13:31:54Z</time></trkpt><trkpt lat="47.507483" lon="10.381750"><ele>851.87</ele><time>2009-05-23T13:31:55Z</time></trkpt><trkpt lat="47.506895" lon="10.379499"><ele>844.66</ele><time>2009-05-23T13:32:06Z</time></trkpt><trkpt lat="47.505957" lon="10.376298"><ele>827.35</ele><time>2009-05-23T13:32:22Z</time></trkpt><trkpt lat="47.504945" lon="10.372781"><ele>811.49</ele><time>2009-05-23T13:32:40Z</time></trkpt><trkpt lat="47.504525" lon="10.370333"><ele>811.97</ele><time>2009-05-23T13:32:52Z</time></trkpt><trkpt lat="47.504519" lon="10.367385"><ele>817.26</ele><time>2009-05-23T13:33:06Z</time></trkpt><trkpt lat="47.504465" lon="10.363996"><ele>813.89</ele><time>2009-05-23T13:33:21Z</time></trkpt><trkpt lat="47.504145" lon="10.361268"><ele>806.20</ele><time>2009-05-23T13:33:33Z</time></trkpt><trkpt lat="47.503996" lon="10.360125"><ele>803.80</ele><time>2009-05-23T13:33:41Z</time></trkpt><trkpt lat="47.504005" lon="10.360033"><ele>804.28</ele><time>2009-05-23T13:33:42Z</time></trkpt><trkpt lat="47.504032" lon="10.359816"><ele>804.28</ele><time>2009-05-23T13:33:44Z</time></trkpt><trkpt lat="47.504014" lon="10.359712"><ele>803.80</ele><time>2009-05-23T13:33:45Z</time></trkpt><trkpt lat="47.503978" lon="10.359615"><ele>803.80</ele><time>2009-05-23T13:33:46Z</time></trkpt><trkpt lat="47.503895" lon="10.359405"><ele>803.80</ele><time>2009-05-23T13:33:48Z</time></trkpt><trkpt lat="47.503863" lon="10.359258"><ele>803.32</ele><time>2009-05-23T13:33:49Z</time></trkpt><trkpt lat="47.503836" lon="10.359070"><ele>803.32</ele><time>2009-05-23T13:33:50Z</time></trkpt><trkpt lat="47.503635" lon="10.357501"><ele>801.40</ele><time>2009-05-23T13:33:56Z</time></trkpt><trkpt lat="47.503258" lon="10.353738"><ele>796.59</ele><time>2009-05-23T13:34:09Z</time></trkpt><trkpt lat="47.503110" lon="10.351159"><ele>795.15</ele><time>2009-05-23T13:34:19Z</time></trkpt><trkpt lat="47.503035" lon="10.347977"><ele>787.94</ele><time>2009-05-23T13:34:34Z</time></trkpt><trkpt lat="47.503104" lon="10.344096"><ele>781.69</ele><time>2009-05-23T13:34:50Z</time></trkpt><trkpt lat="47.503254" lon="10.341756"><ele>782.17</ele><time>2009-05-23T13:34:58Z</time></trkpt><trkpt lat="47.503794" lon="10.338072"><ele>782.65</ele><time>2009-05-23T13:35:10Z</time></trkpt><trkpt lat="47.504561" lon="10.333064"><ele>780.73</ele><time>2009-05-23T13:35:26Z</time></trkpt><trkpt lat="47.504748" lon="10.330032"><ele>778.81</ele><time>2009-05-23T13:35:36Z</time></trkpt><trkpt lat="47.504389" lon="10.327888"><ele>778.81</ele><time>2009-05-23T13:35:44Z</time></trkpt><trkpt lat="47.504149" lon="10.325560"><ele>777.36</ele><time>2009-05-23T13:35:52Z</time></trkpt><trkpt lat="47.504278" lon="10.323581"><ele>775.92</ele><time>2009-05-23T13:35:57Z</time></trkpt><trkpt lat="47.504953" lon="10.318787"><ele>771.60</ele><time>2009-05-23T13:36:10Z</time></trkpt><trkpt lat="47.505348" lon="10.315300"><ele>769.67</ele><time>2009-05-23T13:36:20Z</time></trkpt><trkpt lat="47.505929" lon="10.312724"><ele>771.11</ele><time>2009-05-23T13:36:28Z</time></trkpt><trkpt lat="47.507038" lon="10.310223"><ele>774.96</ele><time>2009-05-23T13:36:37Z</time></trkpt><trkpt lat="47.507895" lon="10.307563"><ele>773.52</ele><time>2009-05-23T13:36:45Z</time></trkpt><trkpt lat="47.508601" lon="10.304390"><ele>768.23</ele><time>2009-05-23T13:36:55Z</time></trkpt><trkpt lat="47.509050" lon="10.302332"><ele>765.35</ele><time>2009-05-23T13:37:04Z</time></trkpt><trkpt lat="47.509489" lon="10.300303"><ele>763.90</ele><time>2009-05-23T13:37:15Z</time></trkpt><trkpt lat="47.509720" lon="10.299274"><ele>763.90</ele><time>2009-05-23T13:37:24Z</time></trkpt><trkpt lat="47.509764" lon="10.299082"><ele>764.39</ele><time>2009-05-23T13:37:32Z</time></trkpt><trkpt lat="47.509840" lon="10.298730"><ele>766.31</ele><time>2009-05-23T13:37:43Z</time></trkpt><trkpt lat="47.510051" lon="10.297232"><ele>764.87</ele><time>2009-05-23T13:37:52Z</time></trkpt><trkpt lat="47.510333" lon="10.295452"><ele>761.98</ele><time>2009-05-23T13:38:02Z</time></trkpt><trkpt lat="47.510976" lon="10.293981"><ele>760.06</ele><time>2009-05-23T13:38:10Z</time></trkpt><trkpt lat="47.512069" lon="10.292821"><ele>759.10</ele><time>2009-05-23T13:38:19Z</time></trkpt><trkpt lat="47.514447" lon="10.290915"><ele>758.62</ele><time>2009-05-23T13:38:36Z</time></trkpt><trkpt lat="47.515451" lon="10.289784"><ele>756.69</ele><time>2009-05-23T13:38:46Z</time></trkpt><trkpt lat="47.516642" lon="10.288349"><ele>755.73</ele><time>2009-05-23T13:38:59Z</time></trkpt><trkpt lat="47.517918" lon="10.286872"><ele>754.29</ele><time>2009-05-23T13:39:12Z</time></trkpt><trkpt lat="47.518873" lon="10.285170"><ele>753.81</ele><time>2009-05-23T13:39:23Z</time></trkpt><trkpt lat="47.519316" lon="10.283239"><ele>751.41</ele><time>2009-05-23T13:39:33Z</time></trkpt><trkpt lat="47.519566" lon="10.282032"><ele>751.89</ele><time>2009-05-23T13:39:41Z</time></trkpt><trkpt lat="47.519581" lon="10.281971"><ele>750.93</ele><time>2009-05-23T13:39:48Z</time></trkpt><trkpt lat="47.519630" lon="10.281559"><ele>752.37</ele><time>2009-05-23T13:40:42Z</time></trkpt><trkpt lat="47.519938" lon="10.280092"><ele>749.00</ele><time>2009-05-23T13:40:49Z</time></trkpt><trkpt lat="47.520431" lon="10.277106"><ele>745.64</ele><time>2009-05-23T13:41:02Z</time></trkpt><trkpt lat="47.520452" lon="10.274225"><ele>742.76</ele><time>2009-05-23T13:41:15Z</time></trkpt><trkpt lat="47.520369" lon="10.270924"><ele>746.60</ele><time>2009-05-23T13:41:31Z</time></trkpt><trkpt lat="47.520394" lon="10.270584"><ele>746.60</ele><time>2009-05-23T13:41:33Z</time></trkpt><trkpt lat="47.520432" lon="10.270425"><ele>746.12</ele><time>2009-05-23T13:41:34Z</time></trkpt><trkpt lat="47.520495" lon="10.270284"><ele>745.64</ele><time>2009-05-23T13:41:35Z</time></trkpt><trkpt lat="47.520592" lon="10.270188"><ele>744.68</ele><time>2009-05-23T13:41:36Z</time></trkpt><trkpt lat="47.520707" lon="10.270135"><ele>744.20</ele><time>2009-05-23T13:41:37Z</time></trkpt><trkpt lat="47.520816" lon="10.270100"><ele>743.72</ele><time>2009-05-23T13:41:38Z</time></trkpt><trkpt lat="47.520911" lon="10.270069"><ele>743.24</ele><time>2009-05-23T13:41:39Z</time></trkpt><trkpt lat="47.520989" lon="10.270023"><ele>742.76</ele><time>2009-05-23T13:41:40Z</time></trkpt><trkpt lat="47.521053" lon="10.269956"><ele>742.28</ele><time>2009-05-23T13:41:41Z</time></trkpt><trkpt lat="47.521103" lon="10.269866"><ele>741.79</ele><time>2009-05-23T13:41:42Z</time></trkpt><trkpt lat="47.521133" lon="10.269757"><ele>741.31</ele><time>2009-05-23T13:41:43Z</time></trkpt><trkpt lat="47.521151" lon="10.269640"><ele>740.83</ele><time>2009-05-23T13:41:44Z</time></trkpt><trkpt lat="47.521167" lon="10.269520"><ele>740.35</ele><time>2009-05-23T13:41:45Z</time></trkpt><trkpt lat="47.521193" lon="10.269401"><ele>739.87</ele><time>2009-05-23T13:41:46Z</time></trkpt><trkpt lat="47.521236" lon="10.269292"><ele>739.39</ele><time>2009-05-23T13:41:47Z</time></trkpt><trkpt lat="47.521300" lon="10.269200"><ele>739.39</ele><time>2009-05-23T13:41:48Z</time></trkpt><trkpt lat="47.521383" lon="10.269124"><ele>739.39</ele><time>2009-05-23T13:41:49Z</time></trkpt><trkpt lat="47.521483" lon="10.269066"><ele>738.91</ele><time>2009-05-23T13:41:50Z</time></trkpt><trkpt lat="47.521593" lon="10.269024"><ele>738.43</ele><time>2009-05-23T13:41:51Z</time></trkpt><trkpt lat="47.521713" lon="10.268992"><ele>738.43</ele><time>2009-05-23T13:41:52Z</time></trkpt><trkpt lat="47.522943" lon="10.268640"><ele>739.87</ele><time>2009-05-23T13:42:00Z</time></trkpt><trkpt lat="47.524224" lon="10.268213"><ele>741.31</ele><time>2009-05-23T13:42:06Z</time></trkpt><trkpt lat="47.526250" lon="10.267678"><ele>743.72</ele><time>2009-05-23T13:42:13Z</time></trkpt><trkpt lat="47.530495" lon="10.266807"><ele>744.20</ele><time>2009-05-23T13:42:28Z</time></trkpt><trkpt lat="47.532440" lon="10.266704"><ele>740.83</ele><time>2009-05-23T13:42:34Z</time></trkpt><trkpt lat="47.536015" lon="10.266970"><ele>733.62</ele><time>2009-05-23T13:42:45Z</time></trkpt><trkpt lat="47.541250" lon="10.267704"><ele>731.22</ele><time>2009-05-23T13:43:01Z</time></trkpt><trkpt lat="47.543497" lon="10.267468"><ele>731.22</ele><time>2009-05-23T13:43:08Z</time></trkpt><trkpt lat="47.545555" lon="10.266366"><ele>731.70</ele><time>2009-05-23T13:43:15Z</time></trkpt><trkpt lat="47.547342" lon="10.264446"><ele>733.62</ele><time>2009-05-23T13:43:22Z</time></trkpt><trkpt lat="47.549787" lon="10.260847"><ele>735.07</ele><time>2009-05-23T13:43:33Z</time></trkpt><trkpt lat="47.553857" lon="10.254592"><ele>731.70</ele><time>2009-05-23T13:43:52Z</time></trkpt><trkpt lat="47.557450" lon="10.249065"><ele>729.30</ele><time>2009-05-23T13:44:09Z</time></trkpt><trkpt lat="47.560388" lon="10.244683"><ele>732.18</ele><time>2009-05-23T13:44:23Z</time></trkpt><trkpt lat="47.562439" lon="10.242317"><ele>736.99</ele><time>2009-05-23T13:44:32Z</time></trkpt><trkpt lat="47.564108" lon="10.241239"><ele>740.35</ele><time>2009-05-23T13:44:39Z</time></trkpt><trkpt lat="47.565775" lon="10.240898"><ele>738.91</ele><time>2009-05-23T13:44:47Z</time></trkpt><trkpt lat="47.567393" lon="10.241234"><ele>733.14</ele><time>2009-05-23T13:44:55Z</time></trkpt><trkpt lat="47.568408" lon="10.241926"><ele>725.93</ele><time>2009-05-23T13:45:01Z</time></trkpt><trkpt lat="47.568537" lon="10.242083"><ele>725.45</ele><time>2009-05-23T13:45:02Z</time></trkpt><trkpt lat="47.568645" lon="10.242262"><ele>724.49</ele><time>2009-05-23T13:45:03Z</time></trkpt><trkpt lat="47.568738" lon="10.242456"><ele>724.49</ele><time>2009-05-23T13:45:04Z</time></trkpt><trkpt lat="47.568817" lon="10.242665"><ele>724.01</ele><time>2009-05-23T13:45:05Z</time></trkpt><trkpt lat="47.568883" lon="10.242885"><ele>724.01</ele><time>2009-05-23T13:45:06Z</time></trkpt><trkpt lat="47.568938" lon="10.243111"><ele>723.53</ele><time>2009-05-23T13:45:07Z</time></trkpt><trkpt lat="47.569122" lon="10.243767"><ele>722.09</ele><time>2009-05-23T13:45:10Z</time></trkpt><trkpt lat="47.569212" lon="10.243959"><ele>722.09</ele><time>2009-05-23T13:45:11Z</time></trkpt><trkpt lat="47.569318" lon="10.244128"><ele>721.61</ele><time>2009-05-23T13:45:12Z</time></trkpt><trkpt lat="47.569440" lon="10.244265"><ele>721.13</ele><time>2009-05-23T13:45:13Z</time></trkpt><trkpt lat="47.569573" lon="10.244367"><ele>721.61</ele><time>2009-05-23T13:45:14Z</time></trkpt><trkpt lat="47.569712" lon="10.244431"><ele>721.61</ele><time>2009-05-23T13:45:15Z</time></trkpt><trkpt lat="47.569852" lon="10.244460"><ele>721.61</ele><time>2009-05-23T13:45:16Z</time></trkpt><trkpt lat="47.569989" lon="10.244455"><ele>722.09</ele><time>2009-05-23T13:45:17Z</time></trkpt><trkpt lat="47.570121" lon="10.244421"><ele>722.09</ele><time>2009-05-23T13:45:18Z</time></trkpt><trkpt lat="47.570249" lon="10.244364"><ele>722.09</ele><time>2009-05-23T13:45:19Z</time></trkpt><trkpt lat="47.570372" lon="10.244284"><ele>722.57</ele><time>2009-05-23T13:45:20Z</time></trkpt><trkpt lat="47.570489" lon="10.244182"><ele>722.57</ele><time>2009-05-23T13:45:21Z</time></trkpt><trkpt lat="47.570604" lon="10.244063"><ele>723.05</ele><time>2009-05-23T13:45:22Z</time></trkpt><trkpt lat="47.570715" lon="10.243938"><ele>723.53</ele><time>2009-05-23T13:45:23Z</time></trkpt><trkpt lat="47.571801" lon="10.242207"><ele>727.37</ele><time>2009-05-23T13:45:34Z</time></trkpt><trkpt lat="47.572320" lon="10.240489"><ele>733.14</ele><time>2009-05-23T13:45:43Z</time></trkpt><trkpt lat="47.572519" lon="10.238619"><ele>736.99</ele><time>2009-05-23T13:45:50Z</time></trkpt><trkpt lat="47.572473" lon="10.236982"><ele>740.83</ele><time>2009-05-23T13:45:57Z</time></trkpt><trkpt lat="47.572480" lon="10.236799"><ele>741.31</ele><time>2009-05-23T13:45:58Z</time></trkpt><trkpt lat="47.572502" lon="10.236633"><ele>741.79</ele><time>2009-05-23T13:45:59Z</time></trkpt><trkpt lat="47.572548" lon="10.236498"><ele>742.28</ele><time>2009-05-23T13:46:00Z</time></trkpt><trkpt lat="47.572626" lon="10.236419"><ele>742.28</ele><time>2009-05-23T13:46:01Z</time></trkpt><trkpt lat="47.572740" lon="10.236400"><ele>741.79</ele><time>2009-05-23T13:46:02Z</time></trkpt><trkpt lat="47.572867" lon="10.236409"><ele>741.79</ele><time>2009-05-23T13:46:03Z</time></trkpt><trkpt lat="47.572995" lon="10.236463"><ele>741.79</ele><time>2009-05-23T13:46:04Z</time></trkpt><trkpt lat="47.573110" lon="10.236542"><ele>740.83</ele><time>2009-05-23T13:46:05Z</time></trkpt><trkpt lat="47.573210" lon="10.236641"><ele>741.31</ele><time>2009-05-23T13:46:06Z</time></trkpt><trkpt lat="47.573287" lon="10.236766"><ele>740.83</ele><time>2009-05-23T13:46:07Z</time></trkpt><trkpt lat="47.573323" lon="10.236935"><ele>740.35</ele><time>2009-05-23T13:46:08Z</time></trkpt><trkpt lat="47.573323" lon="10.237098"><ele>739.39</ele><time>2009-05-23T13:46:09Z</time></trkpt><trkpt lat="47.573287" lon="10.237249"><ele>738.91</ele><time>2009-05-23T13:46:10Z</time></trkpt><trkpt lat="47.573207" lon="10.237367"><ele>737.95</ele><time>2009-05-23T13:46:11Z</time></trkpt><trkpt lat="47.573102" lon="10.237429"><ele>737.47</ele><time>2009-05-23T13:46:12Z</time></trkpt><trkpt lat="47.572979" lon="10.237424"><ele>736.99</ele><time>2009-05-23T13:46:13Z</time></trkpt><trkpt lat="47.572857" lon="10.237372"><ele>736.51</ele><time>2009-05-23T13:46:14Z</time></trkpt><trkpt lat="47.572737" lon="10.237272"><ele>736.03</ele><time>2009-05-23T13:46:15Z</time></trkpt><trkpt lat="47.572614" lon="10.237153"><ele>736.03</ele><time>2009-05-23T13:46:16Z</time></trkpt><trkpt lat="47.572478" lon="10.237021"><ele>736.03</ele><time>2009-05-23T13:46:17Z</time></trkpt><trkpt lat="47.571387" lon="10.236002"><ele>734.58</ele><time>2009-05-23T13:46:24Z</time></trkpt><trkpt lat="47.570213" lon="10.234889"><ele>734.10</ele><time>2009-05-23T13:46:33Z</time></trkpt><trkpt lat="47.568837" lon="10.233301"><ele>726.89</ele><time>2009-05-23T13:46:45Z</time></trkpt><trkpt lat="47.567333" lon="10.231423"><ele>720.16</ele><time>2009-05-23T13:46:58Z</time></trkpt><trkpt lat="47.565358" lon="10.229353"><ele>723.53</ele><time>2009-05-23T13:47:14Z</time></trkpt><trkpt lat="47.564265" lon="10.227633"><ele>724.97</ele><time>2009-05-23T13:47:25Z</time></trkpt><trkpt lat="47.563284" lon="10.226395"><ele>721.61</ele><time>2009-05-23T13:47:34Z</time></trkpt><trkpt lat="47.562056" lon="10.225340"><ele>722.09</ele><time>2009-05-23T13:47:44Z</time></trkpt><trkpt lat="47.561963" lon="10.225189"><ele>722.57</ele><time>2009-05-23T13:47:45Z</time></trkpt><trkpt lat="47.561881" lon="10.225017"><ele>722.57</ele><time>2009-05-23T13:47:46Z</time></trkpt><trkpt lat="47.561337" lon="10.223808"><ele>722.57</ele><time>2009-05-23T13:47:53Z</time></trkpt><trkpt lat="47.561290" lon="10.223614"><ele>723.05</ele><time>2009-05-23T13:47:54Z</time></trkpt><trkpt lat="47.561254" lon="10.223415"><ele>723.05</ele><time>2009-05-23T13:47:55Z</time></trkpt><trkpt lat="47.561063" lon="10.221462"><ele>725.93</ele><time>2009-05-23T13:48:05Z</time></trkpt><trkpt lat="47.561048" lon="10.221172"><ele>726.41</ele><time>2009-05-23T13:48:07Z</time></trkpt><trkpt lat="47.561023" lon="10.221040"><ele>726.89</ele><time>2009-05-23T13:48:08Z</time></trkpt><trkpt lat="47.560988" lon="10.220918"><ele>726.41</ele><time>2009-05-23T13:48:09Z</time></trkpt><trkpt lat="47.560956" lon="10.220787"><ele>726.41</ele><time>2009-05-23T13:48:10Z</time></trkpt><trkpt lat="47.560949" lon="10.220646"><ele>726.89</ele><time>2009-05-23T13:48:11Z</time></trkpt><trkpt lat="47.560971" lon="10.220500"><ele>727.86</ele><time>2009-05-23T13:48:12Z</time></trkpt><trkpt lat="47.561014" lon="10.220352"><ele>728.34</ele><time>2009-05-23T13:48:13Z</time></trkpt><trkpt lat="47.561061" lon="10.220207"><ele>728.34</ele><time>2009-05-23T13:48:14Z</time></trkpt><trkpt lat="47.561291" lon="10.219749"><ele>729.30</ele><time>2009-05-23T13:48:18Z</time></trkpt><trkpt lat="47.561370" lon="10.219668"><ele>729.78</ele><time>2009-05-23T13:48:19Z</time></trkpt><trkpt lat="47.561444" lon="10.219571"><ele>730.26</ele><time>2009-05-23T13:48:20Z</time></trkpt><trkpt lat="47.561500" lon="10.219456"><ele>729.78</ele><time>2009-05-23T13:48:21Z</time></trkpt><trkpt lat="47.561542" lon="10.219325"><ele>729.30</ele><time>2009-05-23T13:48:22Z</time></trkpt><trkpt lat="47.561586" lon="10.219194"><ele>728.82</ele><time>2009-05-23T13:48:23Z</time></trkpt><trkpt lat="47.561613" lon="10.219061"><ele>728.34</ele><time>2009-05-23T13:48:24Z</time></trkpt><trkpt lat="47.561627" lon="10.218921"><ele>728.34</ele><time>2009-05-23T13:48:25Z</time></trkpt><trkpt lat="47.561663" lon="10.217020"><ele>727.37</ele><time>2009-05-23T13:48:38Z</time></trkpt><trkpt lat="47.561622" lon="10.216919"><ele>726.89</ele><time>2009-05-23T13:48:39Z</time></trkpt><trkpt lat="47.561540" lon="10.216897"><ele>726.41</ele><time>2009-05-23T13:48:40Z</time></trkpt><trkpt lat="47.561437" lon="10.216858"><ele>727.86</ele><time>2009-05-23T13:48:41Z</time></trkpt><trkpt lat="47.561341" lon="10.216830"><ele>728.34</ele><time>2009-05-23T13:48:42Z</time></trkpt><trkpt lat="47.561251" lon="10.216787"><ele>730.26</ele><time>2009-05-23T13:48:43Z</time></trkpt><trkpt lat="47.561133" lon="10.216702"><ele>729.30</ele><time>2009-05-23T13:48:45Z</time></trkpt><trkpt lat="47.561144" lon="10.216577"><ele>728.34</ele><time>2009-05-23T13:48:46Z</time></trkpt><trkpt lat="47.561153" lon="10.216450"><ele>727.37</ele><time>2009-05-23T13:48:47Z</time></trkpt><trkpt lat="47.561320" lon="10.214871"><ele>724.01</ele><time>2009-05-23T13:48:57Z</time></trkpt><trkpt lat="47.561502" lon="10.212560"><ele>723.05</ele><time>2009-05-23T13:49:10Z</time></trkpt><trkpt lat="47.561496" lon="10.212388"><ele>723.53</ele><time>2009-05-23T13:49:11Z</time></trkpt><trkpt lat="47.561446" lon="10.211665"><ele>723.53</ele><time>2009-05-23T13:49:16Z</time></trkpt><trkpt lat="47.561453" lon="10.211594"><ele>724.01</ele><time>2009-05-23T13:49:17Z</time></trkpt><trkpt lat="47.561454" lon="10.211555"><ele>723.53</ele><time>2009-05-23T13:49:18Z</time></trkpt><trkpt lat="47.561462" lon="10.211513"><ele>723.05</ele><time>2009-05-23T13:49:19Z</time></trkpt><trkpt lat="47.561481" lon="10.211450"><ele>723.53</ele><time>2009-05-23T13:49:20Z</time></trkpt><trkpt lat="47.561526" lon="10.211314"><ele>724.49</ele><time>2009-05-23T13:49:22Z</time></trkpt><trkpt lat="47.561568" lon="10.211247"><ele>725.93</ele><time>2009-05-23T13:49:23Z</time></trkpt><trkpt lat="47.561625" lon="10.211192"><ele>726.89</ele><time>2009-05-23T13:49:24Z</time></trkpt><trkpt lat="47.561692" lon="10.211149"><ele>726.89</ele><time>2009-05-23T13:49:25Z</time></trkpt><trkpt lat="47.561767" lon="10.211115"><ele>727.37</ele><time>2009-05-23T13:49:26Z</time></trkpt><trkpt lat="47.561849" lon="10.211086"><ele>727.86</ele><time>2009-05-23T13:49:27Z</time></trkpt><trkpt lat="47.562802" lon="10.210565"><ele>733.14</ele><time>2009-05-23T13:49:37Z</time></trkpt><trkpt lat="47.563825" lon="10.209520"><ele>737.95</ele><time>2009-05-23T13:49:48Z</time></trkpt><trkpt lat="47.564889" lon="10.208210"><ele>738.43</ele><time>2009-05-23T13:49:58Z</time></trkpt><trkpt lat="47.565842" lon="10.206344"><ele>738.91</ele><time>2009-05-23T13:50:05Z</time></trkpt><trkpt lat="47.567298" lon="10.202724"><ele>742.76</ele><time>2009-05-23T13:50:17Z</time></trkpt><trkpt lat="47.567799" lon="10.202004"><ele>744.20</ele><time>2009-05-23T13:50:21Z</time></trkpt><trkpt lat="47.567937" lon="10.201880"><ele>744.20</ele><time>2009-05-23T13:50:22Z</time></trkpt><trkpt lat="47.568084" lon="10.201779"><ele>744.20</ele><time>2009-05-23T13:50:23Z</time></trkpt><trkpt lat="47.569273" lon="10.201307"><ele>748.04</ele><time>2009-05-23T13:50:29Z</time></trkpt><trkpt lat="47.571030" lon="10.200758"><ele>752.37</ele><time>2009-05-23T13:50:37Z</time></trkpt><trkpt lat="47.572882" lon="10.199933"><ele>763.90</ele><time>2009-05-23T13:50:47Z</time></trkpt><trkpt lat="47.573039" lon="10.199778"><ele>765.35</ele><time>2009-05-23T13:50:48Z</time></trkpt><trkpt lat="47.573189" lon="10.199607"><ele>766.79</ele><time>2009-05-23T13:50:49Z</time></trkpt><trkpt lat="47.573642" lon="10.199195"><ele>770.15</ele><time>2009-05-23T13:50:52Z</time></trkpt><trkpt lat="47.573831" lon="10.199199"><ele>771.60</ele><time>2009-05-23T13:50:53Z</time></trkpt><trkpt lat="47.574020" lon="10.199246"><ele>773.04</ele><time>2009-05-23T13:50:54Z</time></trkpt><trkpt lat="47.574853" lon="10.199369"><ele>779.77</ele><time>2009-05-23T13:50:59Z</time></trkpt><trkpt lat="47.574988" lon="10.199326"><ele>780.73</ele><time>2009-05-23T13:51:00Z</time></trkpt><trkpt lat="47.575317" lon="10.199216"><ele>784.57</ele><time>2009-05-23T13:51:03Z</time></trkpt><trkpt lat="47.575417" lon="10.199234"><ele>785.53</ele><time>2009-05-23T13:51:04Z</time></trkpt><trkpt lat="47.575520" lon="10.199305"><ele>786.02</ele><time>2009-05-23T13:51:05Z</time></trkpt><trkpt lat="47.575637" lon="10.199428"><ele>786.50</ele><time>2009-05-23T13:51:06Z</time></trkpt><trkpt lat="47.575763" lon="10.199596"><ele>788.42</ele><time>2009-05-23T13:51:07Z</time></trkpt><trkpt lat="47.575907" lon="10.199800"><ele>789.86</ele><time>2009-05-23T13:51:08Z</time></trkpt><trkpt lat="47.576049" lon="10.199998"><ele>791.30</ele><time>2009-05-23T13:51:09Z</time></trkpt><trkpt lat="47.576168" lon="10.200212"><ele>793.22</ele><time>2009-05-23T13:51:10Z</time></trkpt><trkpt lat="47.576246" lon="10.200485"><ele>795.15</ele><time>2009-05-23T13:51:11Z</time></trkpt><trkpt lat="47.576300" lon="10.200765"><ele>797.07</ele><time>2009-05-23T13:51:12Z</time></trkpt><trkpt lat="47.576324" lon="10.201058"><ele>798.03</ele><time>2009-05-23T13:51:13Z</time></trkpt><trkpt lat="47.576342" lon="10.201364"><ele>797.55</ele><time>2009-05-23T13:51:14Z</time></trkpt><trkpt lat="47.576362" lon="10.201639"><ele>798.03</ele><time>2009-05-23T13:51:15Z</time></trkpt><trkpt lat="47.576407" lon="10.201892"><ele>800.44</ele><time>2009-05-23T13:51:16Z</time></trkpt><trkpt lat="47.576478" lon="10.202099"><ele>801.88</ele><time>2009-05-23T13:51:17Z</time></trkpt><trkpt lat="47.576590" lon="10.202247"><ele>802.36</ele><time>2009-05-23T13:51:18Z</time></trkpt><trkpt lat="47.576742" lon="10.202328"><ele>803.32</ele><time>2009-05-23T13:51:19Z</time></trkpt><trkpt lat="47.576920" lon="10.202329"><ele>804.76</ele><time>2009-05-23T13:51:20Z</time></trkpt><trkpt lat="47.577150" lon="10.202267"><ele>806.68</ele><time>2009-05-23T13:51:21Z</time></trkpt><trkpt lat="47.577346" lon="10.202261"><ele>808.61</ele><time>2009-05-23T13:51:22Z</time></trkpt><trkpt lat="47.577517" lon="10.202327"><ele>808.61</ele><time>2009-05-23T13:51:23Z</time></trkpt><trkpt lat="47.577670" lon="10.202490"><ele>808.61</ele><time>2009-05-23T13:51:24Z</time></trkpt><trkpt lat="47.577817" lon="10.202723"><ele>810.05</ele><time>2009-05-23T13:51:25Z</time></trkpt><trkpt lat="47.577964" lon="10.203032"><ele>809.09</ele><time>2009-05-23T13:51:26Z</time></trkpt><trkpt lat="47.578111" lon="10.203331"><ele>810.05</ele><time>2009-05-23T13:51:27Z</time></trkpt><trkpt lat="47.578970" lon="10.204678"><ele>812.93</ele><time>2009-05-23T13:51:33Z</time></trkpt><trkpt lat="47.579141" lon="10.204682"><ele>812.93</ele><time>2009-05-23T13:51:34Z</time></trkpt><trkpt lat="47.579298" lon="10.204674"><ele>813.41</ele><time>2009-05-23T13:51:35Z</time></trkpt><trkpt lat="47.579443" lon="10.204513"><ele>818.70</ele><time>2009-05-23T13:51:36Z</time></trkpt><trkpt lat="47.579549" lon="10.204288"><ele>823.03</ele><time>2009-05-23T13:51:37Z</time></trkpt><trkpt lat="47.579638" lon="10.204067"><ele>821.10</ele><time>2009-05-23T13:51:38Z</time></trkpt><trkpt lat="47.579691" lon="10.203804"><ele>820.14</ele><time>2009-05-23T13:51:39Z</time></trkpt><trkpt lat="47.579739" lon="10.203537"><ele>820.62</ele><time>2009-05-23T13:51:40Z</time></trkpt><trkpt lat="47.579799" lon="10.203267"><ele>821.58</ele><time>2009-05-23T13:51:41Z</time></trkpt><trkpt lat="47.579890" lon="10.203038"><ele>820.62</ele><time>2009-05-23T13:51:42Z</time></trkpt><trkpt lat="47.580023" lon="10.202877"><ele>821.10</ele><time>2009-05-23T13:51:43Z</time></trkpt><trkpt lat="47.580193" lon="10.202769"><ele>822.06</ele><time>2009-05-23T13:51:44Z</time></trkpt><trkpt lat="47.580869" lon="10.202041"><ele>825.91</ele><time>2009-05-23T13:51:48Z</time></trkpt><trkpt lat="47.580961" lon="10.201730"><ele>827.35</ele><time>2009-05-23T13:51:49Z</time></trkpt><trkpt lat="47.581045" lon="10.201411"><ele>826.87</ele><time>2009-05-23T13:51:50Z</time></trkpt><trkpt lat="47.581135" lon="10.201098"><ele>827.35</ele><time>2009-05-23T13:51:51Z</time></trkpt><trkpt lat="47.581248" lon="10.200815"><ele>828.79</ele><time>2009-05-23T13:51:52Z</time></trkpt><trkpt lat="47.581399" lon="10.200584"><ele>830.24</ele><time>2009-05-23T13:51:53Z</time></trkpt><trkpt lat="47.581584" lon="10.200412"><ele>831.68</ele><time>2009-05-23T13:51:54Z</time></trkpt><trkpt lat="47.581802" lon="10.200298"><ele>832.64</ele><time>2009-05-23T13:51:55Z</time></trkpt><trkpt lat="47.582050" lon="10.200241"><ele>834.56</ele><time>2009-05-23T13:51:56Z</time></trkpt><trkpt lat="47.582307" lon="10.200182"><ele>836.00</ele><time>2009-05-23T13:51:57Z</time></trkpt><trkpt lat="47.582557" lon="10.200098"><ele>836.96</ele><time>2009-05-23T13:51:58Z</time></trkpt><trkpt lat="47.582793" lon="10.199974"><ele>838.41</ele><time>2009-05-23T13:51:59Z</time></trkpt><trkpt lat="47.583003" lon="10.199786"><ele>839.37</ele><time>2009-05-23T13:52:00Z</time></trkpt><trkpt lat="47.583207" lon="10.199578"><ele>840.81</ele><time>2009-05-23T13:52:01Z</time></trkpt><trkpt lat="47.583408" lon="10.199362"><ele>842.25</ele><time>2009-05-23T13:52:02Z</time></trkpt><trkpt lat="47.586021" lon="10.196413"><ele>863.40</ele><time>2009-05-23T13:52:15Z</time></trkpt><trkpt lat="47.586172" lon="10.196128"><ele>864.36</ele><time>2009-05-23T13:52:16Z</time></trkpt><trkpt lat="47.586303" lon="10.195822"><ele>865.32</ele><time>2009-05-23T13:52:17Z</time></trkpt><trkpt lat="47.586418" lon="10.195500"><ele>866.29</ele><time>2009-05-23T13:52:18Z</time></trkpt><trkpt lat="47.586527" lon="10.195171"><ele>867.25</ele><time>2009-05-23T13:52:19Z</time></trkpt><trkpt lat="47.586917" lon="10.194234"><ele>869.65</ele><time>2009-05-23T13:52:22Z</time></trkpt><trkpt lat="47.587100" lon="10.193990"><ele>870.61</ele><time>2009-05-23T13:52:23Z</time></trkpt><trkpt lat="47.587304" lon="10.193777"><ele>871.09</ele><time>2009-05-23T13:52:24Z</time></trkpt><trkpt lat="47.587529" lon="10.193611"><ele>871.57</ele><time>2009-05-23T13:52:25Z</time></trkpt><trkpt lat="47.587761" lon="10.193478"><ele>872.53</ele><time>2009-05-23T13:52:26Z</time></trkpt><trkpt lat="47.587983" lon="10.193358"><ele>872.05</ele><time>2009-05-23T13:52:27Z</time></trkpt><trkpt lat="47.588191" lon="10.193207"><ele>872.05</ele><time>2009-05-23T13:52:28Z</time></trkpt><trkpt lat="47.588377" lon="10.192995"><ele>872.05</ele><time>2009-05-23T13:52:29Z</time></trkpt><trkpt lat="47.588537" lon="10.192724"><ele>872.05</ele><time>2009-05-23T13:52:30Z</time></trkpt><trkpt lat="47.588679" lon="10.192423"><ele>872.05</ele><time>2009-05-23T13:52:31Z</time></trkpt><trkpt lat="47.588751" lon="10.192045"><ele>872.53</ele><time>2009-05-23T13:52:32Z</time></trkpt><trkpt lat="47.588803" lon="10.191658"><ele>873.50</ele><time>2009-05-23T13:52:33Z</time></trkpt><trkpt lat="47.588836" lon="10.191272"><ele>873.98</ele><time>2009-05-23T13:52:34Z</time></trkpt><trkpt lat="47.588862" lon="10.190886"><ele>874.94</ele><time>2009-05-23T13:52:35Z</time></trkpt><trkpt lat="47.588778" lon="10.188169"><ele>884.07</ele><time>2009-05-23T13:52:42Z</time></trkpt><trkpt lat="47.588409" lon="10.186058"><ele>895.61</ele><time>2009-05-23T13:52:48Z</time></trkpt><trkpt lat="47.588296" lon="10.185857"><ele>897.05</ele><time>2009-05-23T13:52:49Z</time></trkpt><trkpt lat="47.587972" lon="10.185353"><ele>901.85</ele><time>2009-05-23T13:52:53Z</time></trkpt><trkpt lat="47.588003" lon="10.185264"><ele>903.30</ele><time>2009-05-23T13:52:54Z</time></trkpt><trkpt lat="47.588068" lon="10.185186"><ele>903.78</ele><time>2009-05-23T13:52:55Z</time></trkpt><trkpt lat="47.588136" lon="10.185209"><ele>904.26</ele><time>2009-05-23T13:52:56Z</time></trkpt><trkpt lat="47.588232" lon="10.185283"><ele>905.70</ele><time>2009-05-23T13:52:57Z</time></trkpt><trkpt lat="47.588360" lon="10.185348"><ele>906.66</ele><time>2009-05-23T13:52:58Z</time></trkpt><trkpt lat="47.588458" lon="10.185498"><ele>907.62</ele><time>2009-05-23T13:52:59Z</time></trkpt><trkpt lat="47.588547" lon="10.185667"><ele>909.06</ele><time>2009-05-23T13:53:00Z</time></trkpt><trkpt lat="47.588662" lon="10.185814"><ele>911.47</ele><time>2009-05-23T13:53:01Z</time></trkpt><trkpt lat="47.588792" lon="10.185903"><ele>912.91</ele><time>2009-05-23T13:53:02Z</time></trkpt><trkpt lat="47.588939" lon="10.185905"><ele>913.87</ele><time>2009-05-23T13:53:03Z</time></trkpt><trkpt lat="47.589098" lon="10.185818"><ele>916.27</ele><time>2009-05-23T13:53:04Z</time></trkpt><trkpt lat="47.589270" lon="10.185719"><ele>916.75</ele><time>2009-05-23T13:53:05Z</time></trkpt><trkpt lat="47.589448" lon="10.185671"><ele>918.20</ele><time>2009-05-23T13:53:06Z</time></trkpt><trkpt lat="47.589629" lon="10.185705"><ele>920.60</ele><time>2009-05-23T13:53:07Z</time></trkpt><trkpt lat="47.589805" lon="10.185780"><ele>922.04</ele><time>2009-05-23T13:53:08Z</time></trkpt><trkpt lat="47.589976" lon="10.185834"><ele>923.00</ele><time>2009-05-23T13:53:09Z</time></trkpt><trkpt lat="47.590144" lon="10.185809"><ele>925.41</ele><time>2009-05-23T13:53:10Z</time></trkpt><trkpt lat="47.590302" lon="10.185717"><ele>926.85</ele><time>2009-05-23T13:53:11Z</time></trkpt><trkpt lat="47.590456" lon="10.185553"><ele>928.29</ele><time>2009-05-23T13:53:12Z</time></trkpt><trkpt lat="47.590608" lon="10.185386"><ele>930.21</ele><time>2009-05-23T13:53:13Z</time></trkpt><trkpt lat="47.590780" lon="10.185176"><ele>930.69</ele><time>2009-05-23T13:53:14Z</time></trkpt><trkpt lat="47.590981" lon="10.185043"><ele>931.17</ele><time>2009-05-23T13:53:15Z</time></trkpt><trkpt lat="47.591198" lon="10.184945"><ele>931.65</ele><time>2009-05-23T13:53:16Z</time></trkpt><trkpt lat="47.591409" lon="10.184818"><ele>932.14</ele><time>2009-05-23T13:53:17Z</time></trkpt><trkpt lat="47.591594" lon="10.184637"><ele>933.10</ele><time>2009-05-23T13:53:18Z</time></trkpt><trkpt lat="47.591749" lon="10.184400"><ele>935.02</ele><time>2009-05-23T13:53:19Z</time></trkpt><trkpt lat="47.591877" lon="10.184115"><ele>936.46</ele><time>2009-05-23T13:53:20Z</time></trkpt><trkpt lat="47.591981" lon="10.183808"><ele>936.94</ele><time>2009-05-23T13:53:21Z</time></trkpt><trkpt lat="47.592042" lon="10.183459"><ele>938.38</ele><time>2009-05-23T13:53:22Z</time></trkpt><trkpt lat="47.592036" lon="10.183095"><ele>938.38</ele><time>2009-05-23T13:53:23Z</time></trkpt><trkpt lat="47.592040" lon="10.182732"><ele>938.86</ele><time>2009-05-23T13:53:24Z</time></trkpt><trkpt lat="47.592004" lon="10.182362"><ele>939.83</ele><time>2009-05-23T13:53:25Z</time></trkpt><trkpt lat="47.591972" lon="10.182012"><ele>940.79</ele><time>2009-05-23T13:53:26Z</time></trkpt><trkpt lat="47.591949" lon="10.181674"><ele>941.75</ele><time>2009-05-23T13:53:27Z</time></trkpt><trkpt lat="47.591563" lon="10.179547"><ele>947.04</ele><time>2009-05-23T13:53:34Z</time></trkpt><trkpt lat="47.591463" lon="10.178992"><ele>946.56</ele><time>2009-05-23T13:53:36Z</time></trkpt><trkpt lat="47.591444" lon="10.178698"><ele>947.04</ele><time>2009-05-23T13:53:37Z</time></trkpt><trkpt lat="47.591443" lon="10.178401"><ele>947.04</ele><time>2009-05-23T13:53:38Z</time></trkpt><trkpt lat="47.591462" lon="10.178102"><ele>947.04</ele><time>2009-05-23T13:53:39Z</time></trkpt><trkpt lat="47.591503" lon="10.177800"><ele>947.04</ele><time>2009-05-23T13:53:40Z</time></trkpt><trkpt lat="47.591563" lon="10.177499"><ele>946.56</ele><time>2009-05-23T13:53:41Z</time></trkpt><trkpt lat="47.591643" lon="10.177202"><ele>946.07</ele><time>2009-05-23T13:53:42Z</time></trkpt><trkpt lat="47.591745" lon="10.176914"><ele>945.59</ele><time>2009-05-23T13:53:43Z</time></trkpt><trkpt lat="47.591870" lon="10.176644"><ele>944.63</ele><time>2009-05-23T13:53:44Z</time></trkpt><trkpt lat="47.592015" lon="10.176395"><ele>943.67</ele><time>2009-05-23T13:53:45Z</time></trkpt><trkpt lat="47.592169" lon="10.176160"><ele>942.23</ele><time>2009-05-23T13:53:46Z</time></trkpt><trkpt lat="47.592804" lon="10.174423"><ele>937.90</ele><time>2009-05-23T13:53:52Z</time></trkpt><trkpt lat="47.592758" lon="10.174057"><ele>936.46</ele><time>2009-05-23T13:53:53Z</time></trkpt><trkpt lat="47.592680" lon="10.173702"><ele>935.50</ele><time>2009-05-23T13:53:54Z</time></trkpt><trkpt lat="47.592593" lon="10.173349"><ele>935.02</ele><time>2009-05-23T13:53:55Z</time></trkpt><trkpt lat="47.592186" lon="10.170825"><ele>933.10</ele><time>2009-05-23T13:54:02Z</time></trkpt><trkpt lat="47.592077" lon="10.170500"><ele>932.14</ele><time>2009-05-23T13:54:03Z</time></trkpt><trkpt lat="47.591943" lon="10.170192"><ele>931.65</ele><time>2009-05-23T13:54:04Z</time></trkpt><trkpt lat="47.591777" lon="10.169905"><ele>930.21</ele><time>2009-05-23T13:54:05Z</time></trkpt><trkpt lat="47.591580" lon="10.169635"><ele>927.81</ele><time>2009-05-23T13:54:06Z</time></trkpt><trkpt lat="47.591384" lon="10.169362"><ele>926.85</ele><time>2009-05-23T13:54:07Z</time></trkpt><trkpt lat="47.590881" lon="10.168439"><ele>922.52</ele><time>2009-05-23T13:54:10Z</time></trkpt><trkpt lat="47.590772" lon="10.168082"><ele>921.56</ele><time>2009-05-23T13:54:11Z</time></trkpt><trkpt lat="47.590712" lon="10.167684"><ele>920.60</ele><time>2009-05-23T13:54:12Z</time></trkpt><trkpt lat="47.590692" lon="10.167274"><ele>920.12</ele><time>2009-05-23T13:54:13Z</time></trkpt><trkpt lat="47.590707" lon="10.166855"><ele>919.64</ele><time>2009-05-23T13:54:14Z</time></trkpt><trkpt lat="47.590731" lon="10.166437"><ele>918.68</ele><time>2009-05-23T13:54:15Z</time></trkpt><trkpt lat="47.591062" lon="10.162767"><ele>904.26</ele><time>2009-05-23T13:54:24Z</time></trkpt><trkpt lat="47.591056" lon="10.162371"><ele>902.33</ele><time>2009-05-23T13:54:25Z</time></trkpt><trkpt lat="47.591004" lon="10.158791"><ele>886.95</ele><time>2009-05-23T13:54:34Z</time></trkpt><trkpt lat="47.591456" lon="10.157044"><ele>882.15</ele><time>2009-05-23T13:54:39Z</time></trkpt><trkpt lat="47.591703" lon="10.156039"><ele>879.26</ele><time>2009-05-23T13:54:42Z</time></trkpt><trkpt lat="47.591743" lon="10.155703"><ele>878.30</ele><time>2009-05-23T13:54:43Z</time></trkpt><trkpt lat="47.591764" lon="10.155370"><ele>877.82</ele><time>2009-05-23T13:54:44Z</time></trkpt><trkpt lat="47.591770" lon="10.155043"><ele>876.86</ele><time>2009-05-23T13:54:45Z</time></trkpt><trkpt lat="47.591765" lon="10.154720"><ele>876.38</ele><time>2009-05-23T13:54:46Z</time></trkpt><trkpt lat="47.591854" lon="10.152060"><ele>869.65</ele><time>2009-05-23T13:54:54Z</time></trkpt><trkpt lat="47.592032" lon="10.149460"><ele>861.48</ele><time>2009-05-23T13:55:01Z</time></trkpt><trkpt lat="47.592135" lon="10.144390"><ele>856.67</ele><time>2009-05-23T13:55:13Z</time></trkpt><trkpt lat="47.592408" lon="10.139010"><ele>858.11</ele><time>2009-05-23T13:55:26Z</time></trkpt><trkpt lat="47.592586" lon="10.135957"><ele>857.63</ele><time>2009-05-23T13:55:34Z</time></trkpt><trkpt lat="47.592658" lon="10.135610"><ele>858.11</ele><time>2009-05-23T13:55:35Z</time></trkpt><trkpt lat="47.592751" lon="10.135275"><ele>858.11</ele><time>2009-05-23T13:55:36Z</time></trkpt><trkpt lat="47.592857" lon="10.134955"><ele>858.11</ele><time>2009-05-23T13:55:37Z</time></trkpt><trkpt lat="47.592969" lon="10.134651"><ele>858.59</ele><time>2009-05-23T13:55:38Z</time></trkpt><trkpt lat="47.593677" lon="10.132631"><ele>854.27</ele><time>2009-05-23T13:55:46Z</time></trkpt><trkpt lat="47.593875" lon="10.131185"><ele>848.50</ele><time>2009-05-23T13:55:54Z</time></trkpt><trkpt lat="47.594317" lon="10.129818"><ele>846.10</ele><time>2009-05-23T13:56:02Z</time></trkpt><trkpt lat="47.594933" lon="10.128680"><ele>846.58</ele><time>2009-05-23T13:56:11Z</time></trkpt><trkpt lat="47.595043" lon="10.128579"><ele>846.58</ele><time>2009-05-23T13:56:12Z</time></trkpt><trkpt lat="47.595163" lon="10.128496"><ele>846.10</ele><time>2009-05-23T13:56:13Z</time></trkpt><trkpt lat="47.595284" lon="10.128436"><ele>845.62</ele><time>2009-05-23T13:56:14Z</time></trkpt><trkpt lat="47.595395" lon="10.128395"><ele>845.62</ele><time>2009-05-23T13:56:15Z</time></trkpt><trkpt lat="47.595499" lon="10.128370"><ele>846.10</ele><time>2009-05-23T13:56:16Z</time></trkpt><trkpt lat="47.595599" lon="10.128356"><ele>846.10</ele><time>2009-05-23T13:56:17Z</time></trkpt><trkpt lat="47.596397" lon="10.128272"><ele>848.98</ele><time>2009-05-23T13:56:23Z</time></trkpt><trkpt lat="47.597055" lon="10.128017"><ele>853.31</ele><time>2009-05-23T13:56:30Z</time></trkpt><trkpt lat="47.597515" lon="10.127757"><ele>862.44</ele><time>2009-05-23T13:56:37Z</time></trkpt><trkpt lat="47.597656" lon="10.127606"><ele>862.92</ele><time>2009-05-23T13:56:39Z</time></trkpt><trkpt lat="47.597672" lon="10.127487"><ele>861.96</ele><time>2009-05-23T13:56:40Z</time></trkpt><trkpt lat="47.597639" lon="10.127334"><ele>861.48</ele><time>2009-05-23T13:56:41Z</time></trkpt><trkpt lat="47.597586" lon="10.127164"><ele>861.48</ele><time>2009-05-23T13:56:42Z</time></trkpt><trkpt lat="47.597543" lon="10.126990"><ele>860.52</ele><time>2009-05-23T13:56:43Z</time></trkpt><trkpt lat="47.597514" lon="10.126803"><ele>860.04</ele><time>2009-05-23T13:56:44Z</time></trkpt><trkpt lat="47.597501" lon="10.126608"><ele>859.56</ele><time>2009-05-23T13:56:45Z</time></trkpt><trkpt lat="47.597508" lon="10.126415"><ele>859.56</ele><time>2009-05-23T13:56:46Z</time></trkpt><trkpt lat="47.597532" lon="10.126229"><ele>859.56</ele><time>2009-05-23T13:56:47Z</time></trkpt><trkpt lat="47.597568" lon="10.126061"><ele>858.11</ele><time>2009-05-23T13:56:48Z</time></trkpt><trkpt lat="47.597609" lon="10.125897"><ele>857.63</ele><time>2009-05-23T13:56:49Z</time></trkpt><trkpt lat="47.598007" lon="10.124104"><ele>852.35</ele><time>2009-05-23T13:57:00Z</time></trkpt><trkpt lat="47.598681" lon="10.121845"><ele>852.35</ele><time>2009-05-23T13:57:11Z</time></trkpt><trkpt lat="47.599534" lon="10.119503"><ele>854.75</ele><time>2009-05-23T13:57:20Z</time></trkpt><trkpt lat="47.600578" lon="10.116852"><ele>853.31</ele><time>2009-05-23T13:57:28Z</time></trkpt><trkpt lat="47.601217" lon="10.115292"><ele>852.83</ele><time>2009-05-23T13:57:33Z</time></trkpt><trkpt lat="47.601715" lon="10.113664"><ele>852.35</ele><time>2009-05-23T13:57:38Z</time></trkpt><trkpt lat="47.601855" lon="10.113373"><ele>851.87</ele><time>2009-05-23T13:57:39Z</time></trkpt><trkpt lat="47.603780" lon="10.110085"><ele>842.73</ele><time>2009-05-23T13:57:51Z</time></trkpt><trkpt lat="47.605131" lon="10.108863"><ele>839.85</ele><time>2009-05-23T13:57:58Z</time></trkpt><trkpt lat="47.607602" lon="10.106871"><ele>833.60</ele><time>2009-05-23T13:58:12Z</time></trkpt><trkpt lat="47.609323" lon="10.105508"><ele>827.35</ele><time>2009-05-23T13:58:20Z</time></trkpt><trkpt lat="47.611925" lon="10.103375"><ele>823.51</ele><time>2009-05-23T13:58:31Z</time></trkpt><trkpt lat="47.614184" lon="10.100665"><ele>819.18</ele><time>2009-05-23T13:58:42Z</time></trkpt><trkpt lat="47.616806" lon="10.097335"><ele>811.97</ele><time>2009-05-23T13:58:55Z</time></trkpt><trkpt lat="47.619064" lon="10.094410"><ele>808.13</ele><time>2009-05-23T13:59:06Z</time></trkpt><trkpt lat="47.620023" lon="10.093213"><ele>805.24</ele><time>2009-05-23T13:59:11Z</time></trkpt><trkpt lat="47.620251" lon="10.093076"><ele>804.76</ele><time>2009-05-23T13:59:12Z</time></trkpt><trkpt lat="47.621168" lon="10.092162"><ele>802.36</ele><time>2009-05-23T13:59:17Z</time></trkpt><trkpt lat="47.621278" lon="10.091879"><ele>801.88</ele><time>2009-05-23T13:59:18Z</time></trkpt><trkpt lat="47.621360" lon="10.091553"><ele>801.40</ele><time>2009-05-23T13:59:19Z</time></trkpt><trkpt lat="47.621421" lon="10.091184"><ele>800.92</ele><time>2009-05-23T13:59:20Z</time></trkpt><trkpt lat="47.621474" lon="10.090814"><ele>800.44</ele><time>2009-05-23T13:59:21Z</time></trkpt><trkpt lat="47.621540" lon="10.090451"><ele>800.92</ele><time>2009-05-23T13:59:22Z</time></trkpt><trkpt lat="47.622643" lon="10.086258"><ele>798.99</ele><time>2009-05-23T13:59:34Z</time></trkpt><trkpt lat="47.623686" lon="10.084490"><ele>795.63</ele><time>2009-05-23T13:59:41Z</time></trkpt><trkpt lat="47.625729" lon="10.081532"><ele>792.26</ele><time>2009-05-23T13:59:53Z</time></trkpt><trkpt lat="47.626602" lon="10.080615"><ele>792.74</ele><time>2009-05-23T13:59:58Z</time></trkpt><trkpt lat="47.626783" lon="10.080508"><ele>792.74</ele><time>2009-05-23T13:59:59Z</time></trkpt><trkpt lat="47.627823" lon="10.079974"><ele>791.78</ele><time>2009-05-23T14:00:06Z</time></trkpt><trkpt lat="47.628023" lon="10.079900"><ele>791.30</ele><time>2009-05-23T14:00:09Z</time></trkpt><trkpt lat="47.628052" lon="10.079878"><ele>791.30</ele><time>2009-05-23T14:00:10Z</time></trkpt><trkpt lat="47.628073" lon="10.079852"><ele>790.82</ele><time>2009-05-23T14:00:11Z</time></trkpt><trkpt lat="47.628088" lon="10.079816"><ele>790.34</ele><time>2009-05-23T14:00:12Z</time></trkpt><trkpt lat="47.628080" lon="10.079779"><ele>790.34</ele><time>2009-05-23T14:00:13Z</time></trkpt><trkpt lat="47.628047" lon="10.079689"><ele>790.82</ele><time>2009-05-23T14:00:14Z</time></trkpt><trkpt lat="47.627989" lon="10.079563"><ele>790.34</ele><time>2009-05-23T14:00:15Z</time></trkpt><trkpt lat="47.627900" lon="10.079399"><ele>790.82</ele><time>2009-05-23T14:00:16Z</time></trkpt><trkpt lat="47.627786" lon="10.079208"><ele>790.34</ele><time>2009-05-23T14:00:17Z</time></trkpt><trkpt lat="47.627660" lon="10.078993"><ele>790.82</ele><time>2009-05-23T14:00:18Z</time></trkpt><trkpt lat="47.627527" lon="10.078758"><ele>791.30</ele><time>2009-05-23T14:00:19Z</time></trkpt><trkpt lat="47.626541" lon="10.076990"><ele>795.15</ele><time>2009-05-23T14:00:26Z</time></trkpt><trkpt lat="47.625306" lon="10.074606"><ele>806.20</ele><time>2009-05-23T14:00:34Z</time></trkpt><trkpt lat="47.624903" lon="10.074091"><ele>809.09</ele><time>2009-05-23T14:00:36Z</time></trkpt><trkpt lat="47.624652" lon="10.073857"><ele>811.49</ele><time>2009-05-23T14:00:37Z</time></trkpt><trkpt lat="47.623372" lon="10.072340"><ele>824.95</ele><time>2009-05-23T14:00:43Z</time></trkpt><trkpt lat="47.622593" lon="10.070720"><ele>837.93</ele><time>2009-05-23T14:00:49Z</time></trkpt><trkpt lat="47.622541" lon="10.070347"><ele>840.33</ele><time>2009-05-23T14:00:50Z</time></trkpt><trkpt lat="47.622489" lon="10.069955"><ele>842.25</ele><time>2009-05-23T14:00:51Z</time></trkpt><trkpt lat="47.622411" lon="10.069581"><ele>844.18</ele><time>2009-05-23T14:00:52Z</time></trkpt><trkpt lat="47.622306" lon="10.069215"><ele>846.10</ele><time>2009-05-23T14:00:53Z</time></trkpt><trkpt lat="47.622173" lon="10.068873"><ele>848.50</ele><time>2009-05-23T14:00:54Z</time></trkpt><trkpt lat="47.622019" lon="10.068559"><ele>849.94</ele><time>2009-05-23T14:00:55Z</time></trkpt><trkpt lat="47.621842" lon="10.068283"><ele>851.87</ele><time>2009-05-23T14:00:56Z</time></trkpt><trkpt lat="47.621649" lon="10.068049"><ele>852.83</ele><time>2009-05-23T14:00:57Z</time></trkpt><trkpt lat="47.621468" lon="10.067826"><ele>854.27</ele><time>2009-05-23T14:00:58Z</time></trkpt><trkpt lat="47.620303" lon="10.066151"><ele>858.11</ele><time>2009-05-23T14:01:06Z</time></trkpt><trkpt lat="47.620259" lon="10.065872"><ele>859.56</ele><time>2009-05-23T14:01:07Z</time></trkpt><trkpt lat="47.620231" lon="10.065542"><ele>860.52</ele><time>2009-05-23T14:01:08Z</time></trkpt><trkpt lat="47.620212" lon="10.065205"><ele>861.48</ele><time>2009-05-23T14:01:09Z</time></trkpt><trkpt lat="47.620190" lon="10.064878"><ele>862.44</ele><time>2009-05-23T14:01:10Z</time></trkpt><trkpt lat="47.620135" lon="10.064165"><ele>863.40</ele><time>2009-05-23T14:01:13Z</time></trkpt><trkpt lat="47.620079" lon="10.064061"><ele>862.44</ele><time>2009-05-23T14:01:14Z</time></trkpt><trkpt lat="47.619966" lon="10.064099"><ele>857.15</ele><time>2009-05-23T14:01:15Z</time></trkpt><trkpt lat="47.619864" lon="10.064170"><ele>854.75</ele><time>2009-05-23T14:01:16Z</time></trkpt><trkpt lat="47.619821" lon="10.064209"><ele>853.31</ele><time>2009-05-23T14:01:17Z</time></trkpt><trkpt lat="47.619728" lon="10.064274"><ele>851.87</ele><time>2009-05-23T14:01:18Z</time></trkpt><trkpt lat="47.619623" lon="10.064377"><ele>850.42</ele><time>2009-05-23T14:01:19Z</time></trkpt><trkpt lat="47.619487" lon="10.064471"><ele>849.46</ele><time>2009-05-23T14:01:20Z</time></trkpt><trkpt lat="47.619161" lon="10.064573"><ele>847.06</ele><time>2009-05-23T14:01:22Z</time></trkpt><trkpt lat="47.618995" lon="10.064475"><ele>847.54</ele><time>2009-05-23T14:01:23Z</time></trkpt><trkpt lat="47.618857" lon="10.064326"><ele>845.14</ele><time>2009-05-23T14:01:24Z</time></trkpt><trkpt lat="47.618779" lon="10.064080"><ele>844.18</ele><time>2009-05-23T14:01:25Z</time></trkpt><trkpt lat="47.618717" lon="10.063799"><ele>842.73</ele><time>2009-05-23T14:01:26Z</time></trkpt><trkpt lat="47.618653" lon="10.063486"><ele>841.29</ele><time>2009-05-23T14:01:27Z</time></trkpt><trkpt lat="47.618577" lon="10.063157"><ele>839.85</ele><time>2009-05-23T14:01:28Z</time></trkpt><trkpt lat="47.617887" lon="10.060929"><ele>819.66</ele><time>2009-05-23T14:01:35Z</time></trkpt><trkpt lat="47.617749" lon="10.060706"><ele>816.78</ele><time>2009-05-23T14:01:36Z</time></trkpt><trkpt lat="47.617602" lon="10.060488"><ele>813.89</ele><time>2009-05-23T14:01:37Z</time></trkpt><trkpt lat="47.617456" lon="10.060256"><ele>811.97</ele><time>2009-05-23T14:01:38Z</time></trkpt><trkpt lat="47.617326" lon="10.059998"><ele>810.05</ele><time>2009-05-23T14:01:39Z</time></trkpt><trkpt lat="47.617211" lon="10.059725"><ele>808.13</ele><time>2009-05-23T14:01:40Z</time></trkpt><trkpt lat="47.617121" lon="10.059437"><ele>805.72</ele><time>2009-05-23T14:01:41Z</time></trkpt><trkpt lat="47.617055" lon="10.059127"><ele>804.28</ele><time>2009-05-23T14:01:42Z</time></trkpt><trkpt lat="47.617019" lon="10.058787"><ele>803.32</ele><time>2009-05-23T14:01:43Z</time></trkpt><trkpt lat="47.616992" lon="10.058434"><ele>802.84</ele><time>2009-05-23T14:01:44Z</time></trkpt><trkpt lat="47.616936" lon="10.055510"><ele>791.78</ele><time>2009-05-23T14:01:52Z</time></trkpt><trkpt lat="47.616887" lon="10.054121"><ele>786.02</ele><time>2009-05-23T14:01:56Z</time></trkpt><trkpt lat="47.616823" lon="10.053816"><ele>785.05</ele><time>2009-05-23T14:01:57Z</time></trkpt><trkpt lat="47.616678" lon="10.052985"><ele>779.77</ele><time>2009-05-23T14:02:00Z</time></trkpt><trkpt lat="47.616688" lon="10.052705"><ele>778.81</ele><time>2009-05-23T14:02:01Z</time></trkpt><trkpt lat="47.616745" lon="10.052415"><ele>777.36</ele><time>2009-05-23T14:02:02Z</time></trkpt><trkpt lat="47.616854" lon="10.052125"><ele>776.40</ele><time>2009-05-23T14:02:03Z</time></trkpt><trkpt lat="47.616988" lon="10.051830"><ele>773.52</ele><time>2009-05-23T14:02:04Z</time></trkpt><trkpt lat="47.617128" lon="10.051559"><ele>771.11</ele><time>2009-05-23T14:02:05Z</time></trkpt><trkpt lat="47.617273" lon="10.051308"><ele>767.75</ele><time>2009-05-23T14:02:06Z</time></trkpt><trkpt lat="47.617422" lon="10.051063"><ele>764.87</ele><time>2009-05-23T14:02:07Z</time></trkpt><trkpt lat="47.617606" lon="10.050848"><ele>762.94</ele><time>2009-05-23T14:02:08Z</time></trkpt><trkpt lat="47.617779" lon="10.050625"><ele>761.02</ele><time>2009-05-23T14:02:09Z</time></trkpt><trkpt lat="47.618223" lon="10.049923"><ele>755.73</ele><time>2009-05-23T14:02:12Z</time></trkpt><trkpt lat="47.618333" lon="10.049684"><ele>753.81</ele><time>2009-05-23T14:02:13Z</time></trkpt><trkpt lat="47.618705" lon="10.049235"><ele>748.52</ele><time>2009-05-23T14:02:16Z</time></trkpt><trkpt lat="47.618867" lon="10.049134"><ele>746.60</ele><time>2009-05-23T14:02:17Z</time></trkpt><trkpt lat="47.619049" lon="10.049059"><ele>745.16</ele><time>2009-05-23T14:02:18Z</time></trkpt><trkpt lat="47.619395" lon="10.048857"><ele>741.31</ele><time>2009-05-23T14:02:20Z</time></trkpt><trkpt lat="47.619541" lon="10.048703"><ele>739.87</ele><time>2009-05-23T14:02:21Z</time></trkpt><trkpt lat="47.619659" lon="10.048540"><ele>737.95</ele><time>2009-05-23T14:02:22Z</time></trkpt><trkpt lat="47.619757" lon="10.048373"><ele>736.51</ele><time>2009-05-23T14:02:23Z</time></trkpt><trkpt lat="47.619846" lon="10.048200"><ele>735.07</ele><time>2009-05-23T14:02:24Z</time></trkpt><trkpt lat="47.620060" lon="10.047656"><ele>731.22</ele><time>2009-05-23T14:02:27Z</time></trkpt><trkpt lat="47.620089" lon="10.047455"><ele>730.26</ele><time>2009-05-23T14:02:28Z</time></trkpt><trkpt lat="47.620091" lon="10.047252"><ele>728.82</ele><time>2009-05-23T14:02:29Z</time></trkpt><trkpt lat="47.620064" lon="10.047052"><ele>727.37</ele><time>2009-05-23T14:02:30Z</time></trkpt><trkpt lat="47.620021" lon="10.046847"><ele>726.41</ele><time>2009-05-23T14:02:31Z</time></trkpt><trkpt lat="47.619974" lon="10.046639"><ele>725.45</ele><time>2009-05-23T14:02:32Z</time></trkpt><trkpt lat="47.619852" lon="10.046218"><ele>724.49</ele><time>2009-05-23T14:02:34Z</time></trkpt><trkpt lat="47.619764" lon="10.046017"><ele>724.49</ele><time>2009-05-23T14:02:35Z</time></trkpt><trkpt lat="47.619652" lon="10.045834"><ele>724.97</ele><time>2009-05-23T14:02:36Z</time></trkpt><trkpt lat="47.619515" lon="10.045675"><ele>724.49</ele><time>2009-05-23T14:02:37Z</time></trkpt><trkpt lat="47.619350" lon="10.045540"><ele>724.97</ele><time>2009-05-23T14:02:38Z</time></trkpt><trkpt lat="47.619168" lon="10.045425"><ele>724.97</ele><time>2009-05-23T14:02:39Z</time></trkpt><trkpt lat="47.618978" lon="10.045301"><ele>726.89</ele><time>2009-05-23T14:02:40Z</time></trkpt><trkpt lat="47.618440" lon="10.044769"><ele>728.82</ele><time>2009-05-23T14:02:43Z</time></trkpt><trkpt lat="47.618298" lon="10.044526"><ele>728.82</ele><time>2009-05-23T14:02:44Z</time></trkpt><trkpt lat="47.618191" lon="10.044258"><ele>730.74</ele><time>2009-05-23T14:02:45Z</time></trkpt><trkpt lat="47.618098" lon="10.043980"><ele>732.18</ele><time>2009-05-23T14:02:46Z</time></trkpt><trkpt lat="47.618017" lon="10.043695"><ele>734.10</ele><time>2009-05-23T14:02:47Z</time></trkpt><trkpt lat="47.617636" lon="10.041575"><ele>743.72</ele><time>2009-05-23T14:02:54Z</time></trkpt><trkpt lat="47.617598" lon="10.040972"><ele>747.08</ele><time>2009-05-23T14:02:56Z</time></trkpt><trkpt lat="47.617623" lon="10.040675"><ele>748.04</ele><time>2009-05-23T14:02:57Z</time></trkpt><trkpt lat="47.617674" lon="10.040388"><ele>748.52</ele><time>2009-05-23T14:02:58Z</time></trkpt><trkpt lat="47.617746" lon="10.040123"><ele>749.97</ele><time>2009-05-23T14:02:59Z</time></trkpt><trkpt lat="47.617824" lon="10.039877"><ele>751.41</ele><time>2009-05-23T14:03:00Z</time></trkpt><trkpt lat="47.617901" lon="10.039643"><ele>751.89</ele><time>2009-05-23T14:03:01Z</time></trkpt><trkpt lat="47.618198" lon="10.038253"><ele>752.37</ele><time>2009-05-23T14:03:08Z</time></trkpt><trkpt lat="47.618661" lon="10.035453"><ele>756.21</ele><time>2009-05-23T14:03:23Z</time></trkpt><trkpt lat="47.618648" lon="10.035262"><ele>756.21</ele><time>2009-05-23T14:03:24Z</time></trkpt><trkpt lat="47.618614" lon="10.035078"><ele>756.21</ele><time>2009-05-23T14:03:25Z</time></trkpt><trkpt lat="47.618563" lon="10.034901"><ele>756.21</ele><time>2009-05-23T14:03:26Z</time></trkpt><trkpt lat="47.618502" lon="10.034728"><ele>755.73</ele><time>2009-05-23T14:03:27Z</time></trkpt><trkpt lat="47.618442" lon="10.034553"><ele>755.73</ele><time>2009-05-23T14:03:28Z</time></trkpt><trkpt lat="47.618392" lon="10.034370"><ele>755.73</ele><time>2009-05-23T14:03:29Z</time></trkpt><trkpt lat="47.618354" lon="10.034182"><ele>755.73</ele><time>2009-05-23T14:03:30Z</time></trkpt><trkpt lat="47.618328" lon="10.033987"><ele>756.21</ele><time>2009-05-23T14:03:31Z</time></trkpt><trkpt lat="47.618306" lon="10.033788"><ele>755.73</ele><time>2009-05-23T14:03:32Z</time></trkpt><trkpt lat="47.618039" lon="10.032356"><ele>756.69</ele><time>2009-05-23T14:03:39Z</time></trkpt><trkpt lat="47.617962" lon="10.032186"><ele>756.21</ele><time>2009-05-23T14:03:40Z</time></trkpt><trkpt lat="47.617868" lon="10.032036"><ele>754.77</ele><time>2009-05-23T14:03:41Z</time></trkpt><trkpt lat="47.617758" lon="10.031908"><ele>753.33</ele><time>2009-05-23T14:03:42Z</time></trkpt><trkpt lat="47.617636" lon="10.031796"><ele>752.37</ele><time>2009-05-23T14:03:43Z</time></trkpt><trkpt lat="47.617510" lon="10.031680"><ele>751.89</ele><time>2009-05-23T14:03:44Z</time></trkpt><trkpt lat="47.617372" lon="10.031535"><ele>750.93</ele><time>2009-05-23T14:03:45Z</time></trkpt><trkpt lat="47.617249" lon="10.031348"><ele>749.97</ele><time>2009-05-23T14:03:46Z</time></trkpt><trkpt lat="47.617155" lon="10.031107"><ele>748.52</ele><time>2009-05-23T14:03:47Z</time></trkpt><trkpt lat="47.617069" lon="10.030833"><ele>747.56</ele><time>2009-05-23T14:03:48Z</time></trkpt><trkpt lat="47.616995" lon="10.030543"><ele>746.12</ele><time>2009-05-23T14:03:49Z</time></trkpt><trkpt lat="47.616653" lon="10.028953"><ele>741.31</ele><time>2009-05-23T14:03:54Z</time></trkpt><trkpt lat="47.616620" lon="10.028617"><ele>740.83</ele><time>2009-05-23T14:03:55Z</time></trkpt><trkpt lat="47.616614" lon="10.028284"><ele>739.87</ele><time>2009-05-23T14:03:56Z</time></trkpt><trkpt lat="47.616632" lon="10.027966"><ele>739.39</ele><time>2009-05-23T14:03:57Z</time></trkpt><trkpt lat="47.616671" lon="10.027663"><ele>738.91</ele><time>2009-05-23T14:03:58Z</time></trkpt><trkpt lat="47.616969" lon="10.026311"><ele>739.39</ele><time>2009-05-23T14:04:04Z</time></trkpt><trkpt lat="47.616989" lon="10.025961"><ele>739.87</ele><time>2009-05-23T14:04:06Z</time></trkpt><trkpt lat="47.616983" lon="10.025790"><ele>739.87</ele><time>2009-05-23T14:04:07Z</time></trkpt><trkpt lat="47.616846" lon="10.024807"><ele>739.87</ele><time>2009-05-23T14:04:14Z</time></trkpt><trkpt lat="47.616485" lon="10.023637"><ele>738.91</ele><time>2009-05-23T14:04:20Z</time></trkpt><trkpt lat="47.616379" lon="10.023417"><ele>738.43</ele><time>2009-05-23T14:04:21Z</time></trkpt><trkpt lat="47.615468" lon="10.021970"><ele>739.39</ele><time>2009-05-23T14:04:26Z</time></trkpt><trkpt lat="47.614219" lon="10.019924"><ele>744.20</ele><time>2009-05-23T14:04:33Z</time></trkpt><trkpt lat="47.613596" lon="10.017551"><ele>749.00</ele><time>2009-05-23T14:04:40Z</time></trkpt><trkpt lat="47.613365" lon="10.016183"><ele>754.29</ele><time>2009-05-23T14:04:44Z</time></trkpt><trkpt lat="47.613265" lon="10.015870"><ele>755.73</ele><time>2009-05-23T14:04:45Z</time></trkpt><trkpt lat="47.612454" lon="10.013757"><ele>766.31</ele><time>2009-05-23T14:04:52Z</time></trkpt><trkpt lat="47.611507" lon="10.011567"><ele>774.48</ele><time>2009-05-23T14:05:00Z</time></trkpt><trkpt lat="47.610757" lon="10.009466"><ele>774.48</ele><time>2009-05-23T14:05:06Z</time></trkpt><trkpt lat="47.610183" lon="10.007657"><ele>772.56</ele><time>2009-05-23T14:05:12Z</time></trkpt><trkpt lat="47.609894" lon="10.006734"><ele>768.23</ele><time>2009-05-23T14:05:17Z</time></trkpt><trkpt lat="47.609853" lon="10.006528"><ele>767.75</ele><time>2009-05-23T14:05:18Z</time></trkpt><trkpt lat="47.609824" lon="10.006315"><ele>767.75</ele><time>2009-05-23T14:05:19Z</time></trkpt><trkpt lat="47.609805" lon="10.006095"><ele>768.23</ele><time>2009-05-23T14:05:20Z</time></trkpt><trkpt lat="47.609794" lon="10.005870"><ele>768.23</ele><time>2009-05-23T14:05:21Z</time></trkpt><trkpt lat="47.609792" lon="10.005644"><ele>768.71</ele><time>2009-05-23T14:05:22Z</time></trkpt><trkpt lat="47.609847" lon="10.004739"><ele>769.19</ele><time>2009-05-23T14:05:26Z</time></trkpt><trkpt lat="47.609899" lon="10.004507"><ele>769.67</ele><time>2009-05-23T14:05:27Z</time></trkpt><trkpt lat="47.609977" lon="10.004273"><ele>770.15</ele><time>2009-05-23T14:05:28Z</time></trkpt><trkpt lat="47.610082" lon="10.004037"><ele>770.15</ele><time>2009-05-23T14:05:29Z</time></trkpt><trkpt lat="47.610224" lon="10.003801"><ele>770.63</ele><time>2009-05-23T14:05:30Z</time></trkpt><trkpt lat="47.610401" lon="10.003580"><ele>769.19</ele><time>2009-05-23T14:05:31Z</time></trkpt><trkpt lat="47.610583" lon="10.003369"><ele>768.23</ele><time>2009-05-23T14:05:32Z</time></trkpt><trkpt lat="47.610775" lon="10.003164"><ele>768.23</ele><time>2009-05-23T14:05:33Z</time></trkpt><trkpt lat="47.612128" lon="10.002342"><ele>762.94</ele><time>2009-05-23T14:05:39Z</time></trkpt><trkpt lat="47.614041" lon="10.002037"><ele>751.41</ele><time>2009-05-23T14:05:47Z</time></trkpt><trkpt lat="47.615892" lon="10.001531"><ele>742.28</ele><time>2009-05-23T14:05:55Z</time></trkpt><trkpt lat="47.616341" lon="10.001359"><ele>738.91</ele><time>2009-05-23T14:05:58Z</time></trkpt><trkpt lat="47.616427" lon="10.001267"><ele>737.47</ele><time>2009-05-23T14:05:59Z</time></trkpt><trkpt lat="47.616487" lon="10.001125"><ele>736.99</ele><time>2009-05-23T14:06:00Z</time></trkpt><trkpt lat="47.616515" lon="10.000950"><ele>736.51</ele><time>2009-05-23T14:06:01Z</time></trkpt><trkpt lat="47.616472" lon="10.000706"><ele>735.07</ele><time>2009-05-23T14:06:02Z</time></trkpt><trkpt lat="47.616435" lon="10.000521"><ele>734.10</ele><time>2009-05-23T14:06:03Z</time></trkpt><trkpt lat="47.616384" lon="10.000322"><ele>733.14</ele><time>2009-05-23T14:06:04Z</time></trkpt><trkpt lat="47.616330" lon="10.000134"><ele>731.22</ele><time>2009-05-23T14:06:05Z</time></trkpt><trkpt lat="47.616299" lon="9.999957"><ele>730.26</ele><time>2009-05-23T14:06:06Z</time></trkpt><trkpt lat="47.616324" lon="9.999803"><ele>729.30</ele><time>2009-05-23T14:06:07Z</time></trkpt><trkpt lat="47.616406" lon="9.999671"><ele>728.34</ele><time>2009-05-23T14:06:08Z</time></trkpt><trkpt lat="47.616549" lon="9.999557"><ele>726.89</ele><time>2009-05-23T14:06:09Z</time></trkpt><trkpt lat="47.616722" lon="9.999443"><ele>725.45</ele><time>2009-05-23T14:06:10Z</time></trkpt><trkpt lat="47.616926" lon="9.999344"><ele>723.53</ele><time>2009-05-23T14:06:11Z</time></trkpt><trkpt lat="47.617132" lon="9.999254"><ele>721.61</ele><time>2009-05-23T14:06:12Z</time></trkpt><trkpt lat="47.617334" lon="9.999186"><ele>719.20</ele><time>2009-05-23T14:06:13Z</time></trkpt><trkpt lat="47.617529" lon="9.999128"><ele>716.80</ele><time>2009-05-23T14:06:14Z</time></trkpt><trkpt lat="47.617880" lon="9.998992"><ele>713.44</ele><time>2009-05-23T14:06:16Z</time></trkpt><trkpt lat="47.618024" lon="9.998894"><ele>711.99</ele><time>2009-05-23T14:06:17Z</time></trkpt><trkpt lat="47.618145" lon="9.998776"><ele>710.55</ele><time>2009-05-23T14:06:18Z</time></trkpt><trkpt lat="47.618242" lon="9.998631"><ele>709.59</ele><time>2009-05-23T14:06:19Z</time></trkpt><trkpt lat="47.618326" lon="9.998468"><ele>708.63</ele><time>2009-05-23T14:06:20Z</time></trkpt><trkpt lat="47.618392" lon="9.998281"><ele>707.67</ele><time>2009-05-23T14:06:21Z</time></trkpt><trkpt lat="47.618444" lon="9.998076"><ele>707.67</ele><time>2009-05-23T14:06:22Z</time></trkpt><trkpt lat="47.618485" lon="9.997860"><ele>707.19</ele><time>2009-05-23T14:06:23Z</time></trkpt><trkpt lat="47.618522" lon="9.997641"><ele>707.19</ele><time>2009-05-23T14:06:24Z</time></trkpt><trkpt lat="47.619114" lon="9.995192"><ele>706.23</ele><time>2009-05-23T14:06:36Z</time></trkpt><trkpt lat="47.619650" lon="9.992876"><ele>707.67</ele><time>2009-05-23T14:06:47Z</time></trkpt><trkpt lat="47.620267" lon="9.991332"><ele>709.11</ele><time>2009-05-23T14:06:52Z</time></trkpt><trkpt lat="47.621733" lon="9.987738"><ele>709.11</ele><time>2009-05-23T14:07:02Z</time></trkpt><trkpt lat="47.624825" lon="9.979865"><ele>710.55</ele><time>2009-05-23T14:07:23Z</time></trkpt><trkpt lat="47.625588" lon="9.978255"><ele>711.03</ele><time>2009-05-23T14:07:29Z</time></trkpt><trkpt lat="47.625658" lon="9.978067"><ele>710.55</ele><time>2009-05-23T14:07:30Z</time></trkpt><trkpt lat="47.625687" lon="9.977877"><ele>710.55</ele><time>2009-05-23T14:07:31Z</time></trkpt><trkpt lat="47.625658" lon="9.977707"><ele>710.07</ele><time>2009-05-23T14:07:32Z</time></trkpt><trkpt lat="47.625608" lon="9.977557"><ele>711.03</ele><time>2009-05-23T14:07:33Z</time></trkpt><trkpt lat="47.625474" lon="9.977481"><ele>711.03</ele><time>2009-05-23T14:07:34Z</time></trkpt><trkpt lat="47.625321" lon="9.977422"><ele>711.03</ele><time>2009-05-23T14:07:35Z</time></trkpt><trkpt lat="47.625145" lon="9.977422"><ele>710.55</ele><time>2009-05-23T14:07:36Z</time></trkpt><trkpt lat="47.624982" lon="9.977434"><ele>710.55</ele><time>2009-05-23T14:07:37Z</time></trkpt><trkpt lat="47.624815" lon="9.977451"><ele>710.07</ele><time>2009-05-23T14:07:38Z</time></trkpt><trkpt lat="47.623647" lon="9.977316"><ele>706.23</ele><time>2009-05-23T14:07:45Z</time></trkpt><trkpt lat="47.622324" lon="9.977726"><ele>696.13</ele><time>2009-05-23T14:07:51Z</time></trkpt><trkpt lat="47.621661" lon="9.977907"><ele>692.29</ele><time>2009-05-23T14:07:56Z</time></trkpt><trkpt lat="47.621630" lon="9.977829"><ele>691.81</ele><time>2009-05-23T14:07:57Z</time></trkpt><trkpt lat="47.621620" lon="9.977731"><ele>690.84</ele><time>2009-05-23T14:07:58Z</time></trkpt><trkpt lat="47.621765" lon="9.977535"><ele>689.40</ele><time>2009-05-23T14:08:00Z</time></trkpt><trkpt lat="47.621856" lon="9.977472"><ele>686.52</ele><time>2009-05-23T14:08:01Z</time></trkpt><trkpt lat="47.621957" lon="9.977421"><ele>684.12</ele><time>2009-05-23T14:08:02Z</time></trkpt><trkpt lat="47.622071" lon="9.977375"><ele>683.15</ele><time>2009-05-23T14:08:03Z</time></trkpt><trkpt lat="47.622172" lon="9.977326"><ele>681.71</ele><time>2009-05-23T14:08:04Z</time></trkpt><trkpt lat="47.622357" lon="9.977188"><ele>677.39</ele><time>2009-05-23T14:08:06Z</time></trkpt><trkpt lat="47.622933" lon="9.976634"><ele>665.85</ele><time>2009-05-23T14:08:12Z</time></trkpt><trkpt lat="47.623012" lon="9.976501"><ele>664.89</ele><time>2009-05-23T14:08:13Z</time></trkpt><trkpt lat="47.623076" lon="9.976347"><ele>663.93</ele><time>2009-05-23T14:08:14Z</time></trkpt><trkpt lat="47.623123" lon="9.976175"><ele>662.97</ele><time>2009-05-23T14:08:15Z</time></trkpt><trkpt lat="47.623150" lon="9.975991"><ele>662.49</ele><time>2009-05-23T14:08:16Z</time></trkpt><trkpt lat="47.623160" lon="9.975802"><ele>662.01</ele><time>2009-05-23T14:08:17Z</time></trkpt><trkpt lat="47.623157" lon="9.975614"><ele>661.52</ele><time>2009-05-23T14:08:18Z</time></trkpt><trkpt lat="47.623141" lon="9.975424"><ele>661.52</ele><time>2009-05-23T14:08:19Z</time></trkpt><trkpt lat="47.623116" lon="9.975237"><ele>661.52</ele><time>2009-05-23T14:08:20Z</time></trkpt><trkpt lat="47.623079" lon="9.975053"><ele>661.04</ele><time>2009-05-23T14:08:21Z</time></trkpt><trkpt lat="47.623039" lon="9.974874"><ele>660.56</ele><time>2009-05-23T14:08:22Z</time></trkpt><trkpt lat="47.622827" lon="9.973735"><ele>659.12</ele><time>2009-05-23T14:08:29Z</time></trkpt><trkpt lat="47.622830" lon="9.973575"><ele>659.60</ele><time>2009-05-23T14:08:30Z</time></trkpt><trkpt lat="47.622857" lon="9.973419"><ele>660.08</ele><time>2009-05-23T14:08:31Z</time></trkpt><trkpt lat="47.622928" lon="9.973271"><ele>660.08</ele><time>2009-05-23T14:08:32Z</time></trkpt><trkpt lat="47.623044" lon="9.973154"><ele>659.60</ele><time>2009-05-23T14:08:33Z</time></trkpt><trkpt lat="47.623183" lon="9.973070"><ele>659.60</ele><time>2009-05-23T14:08:34Z</time></trkpt><trkpt lat="47.623326" lon="9.973017"><ele>659.12</ele><time>2009-05-23T14:08:35Z</time></trkpt><trkpt lat="47.623477" lon="9.972988"><ele>659.60</ele><time>2009-05-23T14:08:36Z</time></trkpt><trkpt lat="47.623625" lon="9.972939"><ele>659.60</ele><time>2009-05-23T14:08:37Z</time></trkpt><trkpt lat="47.623770" lon="9.972883"><ele>659.60</ele><time>2009-05-23T14:08:38Z</time></trkpt><trkpt lat="47.623899" lon="9.972782"><ele>659.60</ele><time>2009-05-23T14:08:39Z</time></trkpt><trkpt lat="47.624016" lon="9.972654"><ele>659.12</ele><time>2009-05-23T14:08:40Z</time></trkpt><trkpt lat="47.624276" lon="9.972433"><ele>658.64</ele><time>2009-05-23T14:08:42Z</time></trkpt><trkpt lat="47.624427" lon="9.972401"><ele>659.12</ele><time>2009-05-23T14:08:43Z</time></trkpt><trkpt lat="47.624581" lon="9.972416"><ele>658.64</ele><time>2009-05-23T14:08:44Z</time></trkpt><trkpt lat="47.625774" lon="9.972036"><ele>657.20</ele><time>2009-05-23T14:08:51Z</time></trkpt><trkpt lat="47.627542" lon="9.970729"><ele>650.47</ele><time>2009-05-23T14:09:01Z</time></trkpt><trkpt lat="47.630475" lon="9.969086"><ele>645.66</ele><time>2009-05-23T14:09:16Z</time></trkpt><trkpt lat="47.631444" lon="9.968479"><ele>644.70</ele><time>2009-05-23T14:09:20Z</time></trkpt><trkpt lat="47.631649" lon="9.968249"><ele>644.70</ele><time>2009-05-23T14:09:21Z</time></trkpt><trkpt lat="47.631815" lon="9.967974"><ele>644.70</ele><time>2009-05-23T14:09:22Z</time></trkpt><trkpt lat="47.631948" lon="9.967663"><ele>645.18</ele><time>2009-05-23T14:09:23Z</time></trkpt><trkpt lat="47.632066" lon="9.967322"><ele>645.66</ele><time>2009-05-23T14:09:24Z</time></trkpt><trkpt lat="47.632170" lon="9.966993"><ele>646.14</ele><time>2009-05-23T14:09:25Z</time></trkpt><trkpt lat="47.632279" lon="9.966655"><ele>646.62</ele><time>2009-05-23T14:09:26Z</time></trkpt><trkpt lat="47.633088" lon="9.964734"><ele>655.28</ele><time>2009-05-23T14:09:33Z</time></trkpt><trkpt lat="47.633256" lon="9.964589"><ele>656.24</ele><time>2009-05-23T14:09:34Z</time></trkpt><trkpt lat="47.633435" lon="9.964435"><ele>657.68</ele><time>2009-05-23T14:09:35Z</time></trkpt><trkpt lat="47.634599" lon="9.963323"><ele>672.58</ele><time>2009-05-23T14:09:41Z</time></trkpt><trkpt lat="47.635018" lon="9.962794"><ele>678.83</ele><time>2009-05-23T14:09:44Z</time></trkpt><trkpt lat="47.635092" lon="9.962625"><ele>681.23</ele><time>2009-05-23T14:09:45Z</time></trkpt><trkpt lat="47.635126" lon="9.962456"><ele>683.15</ele><time>2009-05-23T14:09:46Z</time></trkpt><trkpt lat="47.635119" lon="9.962282"><ele>684.60</ele><time>2009-05-23T14:09:47Z</time></trkpt><trkpt lat="47.635078" lon="9.962099"><ele>686.52</ele><time>2009-05-23T14:09:48Z</time></trkpt><trkpt lat="47.635014" lon="9.961909"><ele>687.48</ele><time>2009-05-23T14:09:49Z</time></trkpt><trkpt lat="47.634955" lon="9.961715"><ele>688.44</ele><time>2009-05-23T14:09:50Z</time></trkpt><trkpt lat="47.634913" lon="9.961520"><ele>689.88</ele><time>2009-05-23T14:09:51Z</time></trkpt><trkpt lat="47.634896" lon="9.961325"><ele>691.81</ele><time>2009-05-23T14:09:52Z</time></trkpt><trkpt lat="47.634907" lon="9.961136"><ele>693.25</ele><time>2009-05-23T14:09:53Z</time></trkpt><trkpt lat="47.634952" lon="9.960977"><ele>694.69</ele><time>2009-05-23T14:09:54Z</time></trkpt><trkpt lat="47.635040" lon="9.960853"><ele>696.13</ele><time>2009-05-23T14:09:55Z</time></trkpt><trkpt lat="47.635158" lon="9.960733"><ele>697.09</ele><time>2009-05-23T14:09:56Z</time></trkpt><trkpt lat="47.635286" lon="9.960610"><ele>697.57</ele><time>2009-05-23T14:09:57Z</time></trkpt><trkpt lat="47.636154" lon="9.959716"><ele>699.02</ele><time>2009-05-23T14:10:05Z</time></trkpt><trkpt lat="47.636186" lon="9.959652"><ele>699.02</ele><time>2009-05-23T14:10:06Z</time></trkpt><trkpt lat="47.636202" lon="9.959606"><ele>699.50</ele><time>2009-05-23T14:10:07Z</time></trkpt><trkpt lat="47.636209" lon="9.959576"><ele>699.98</ele><time>2009-05-23T14:10:08Z</time></trkpt><trkpt lat="47.636197" lon="9.959551"><ele>699.98</ele><time>2009-05-23T14:10:14Z</time></trkpt><trkpt lat="47.636187" lon="9.959499"><ele>699.98</ele><time>2009-05-23T14:10:15Z</time></trkpt><trkpt lat="47.636142" lon="9.959405"><ele>699.50</ele><time>2009-05-23T14:10:16Z</time></trkpt><trkpt lat="47.636076" lon="9.959302"><ele>699.50</ele><time>2009-05-23T14:10:17Z</time></trkpt><trkpt lat="47.635982" lon="9.959192"><ele>699.50</ele><time>2009-05-23T14:10:18Z</time></trkpt><trkpt lat="47.635881" lon="9.959075"><ele>699.50</ele><time>2009-05-23T14:10:19Z</time></trkpt><trkpt lat="47.634962" lon="9.957861"><ele>699.98</ele><time>2009-05-23T14:10:27Z</time></trkpt><trkpt lat="47.633956" lon="9.956113"><ele>701.42</ele><time>2009-05-23T14:10:35Z</time></trkpt><trkpt lat="47.632545" lon="9.953902"><ele>704.78</ele><time>2009-05-23T14:10:44Z</time></trkpt><trkpt lat="47.631067" lon="9.952046"><ele>707.19</ele><time>2009-05-23T14:10:51Z</time></trkpt><trkpt lat="47.628773" lon="9.950361"><ele>708.15</ele><time>2009-05-23T14:11:00Z</time></trkpt><trkpt lat="47.626220" lon="9.948786"><ele>707.67</ele><time>2009-05-23T14:11:10Z</time></trkpt><trkpt lat="47.626020" lon="9.948605"><ele>707.19</ele><time>2009-05-23T14:11:11Z</time></trkpt><trkpt lat="47.625841" lon="9.948404"><ele>707.19</ele><time>2009-05-23T14:11:12Z</time></trkpt><trkpt lat="47.625686" lon="9.948183"><ele>707.19</ele><time>2009-05-23T14:11:13Z</time></trkpt><trkpt lat="47.625553" lon="9.947948"><ele>707.19</ele><time>2009-05-23T14:11:14Z</time></trkpt><trkpt lat="47.625437" lon="9.947706"><ele>706.71</ele><time>2009-05-23T14:11:15Z</time></trkpt><trkpt lat="47.625334" lon="9.947463"><ele>706.71</ele><time>2009-05-23T14:11:16Z</time></trkpt><trkpt lat="47.624465" lon="9.945739"><ele>705.75</ele><time>2009-05-23T14:11:24Z</time></trkpt><trkpt lat="47.622751" lon="9.943620"><ele>706.71</ele><time>2009-05-23T14:11:36Z</time></trkpt><trkpt lat="47.621404" lon="9.941612"><ele>708.15</ele><time>2009-05-23T14:11:47Z</time></trkpt><trkpt lat="47.621345" lon="9.941450"><ele>708.63</ele><time>2009-05-23T14:11:49Z</time></trkpt><trkpt lat="47.621356" lon="9.941389"><ele>708.63</ele><time>2009-05-23T14:11:50Z</time></trkpt><trkpt lat="47.621391" lon="9.941330"><ele>708.63</ele><time>2009-05-23T14:11:51Z</time></trkpt><trkpt lat="47.621447" lon="9.941267"><ele>708.15</ele><time>2009-05-23T14:11:52Z</time></trkpt><trkpt lat="47.621524" lon="9.941189"><ele>707.67</ele><time>2009-05-23T14:11:53Z</time></trkpt><trkpt lat="47.621701" lon="9.940952"><ele>705.26</ele><time>2009-05-23T14:11:55Z</time></trkpt><trkpt lat="47.621779" lon="9.940794"><ele>703.82</ele><time>2009-05-23T14:11:56Z</time></trkpt><trkpt lat="47.621847" lon="9.940611"><ele>701.90</ele><time>2009-05-23T14:11:57Z</time></trkpt><trkpt lat="47.622069" lon="9.939733"><ele>695.17</ele><time>2009-05-23T14:12:01Z</time></trkpt><trkpt lat="47.622078" lon="9.939497"><ele>694.21</ele><time>2009-05-23T14:12:02Z</time></trkpt><trkpt lat="47.622053" lon="9.939262"><ele>692.77</ele><time>2009-05-23T14:12:03Z</time></trkpt><trkpt lat="47.621996" lon="9.939029"><ele>691.81</ele><time>2009-05-23T14:12:04Z</time></trkpt><trkpt lat="47.621915" lon="9.938801"><ele>691.33</ele><time>2009-05-23T14:12:05Z</time></trkpt><trkpt lat="47.621822" lon="9.938571"><ele>690.84</ele><time>2009-05-23T14:12:06Z</time></trkpt><trkpt lat="47.621647" lon="9.938086"><ele>690.36</ele><time>2009-05-23T14:12:08Z</time></trkpt><trkpt lat="47.621583" lon="9.937839"><ele>690.36</ele><time>2009-05-23T14:12:09Z</time></trkpt><trkpt lat="47.621389" lon="9.936692"><ele>688.92</ele><time>2009-05-23T14:12:15Z</time></trkpt><trkpt lat="47.621329" lon="9.936240"><ele>687.48</ele><time>2009-05-23T14:12:18Z</time></trkpt><trkpt lat="47.621290" lon="9.936093"><ele>687.48</ele><time>2009-05-23T14:12:19Z</time></trkpt><trkpt lat="47.621243" lon="9.935949"><ele>687.00</ele><time>2009-05-23T14:12:20Z</time></trkpt><trkpt lat="47.621066" lon="9.935321"><ele>686.04</ele><time>2009-05-23T14:12:24Z</time></trkpt><trkpt lat="47.621036" lon="9.935121"><ele>686.04</ele><time>2009-05-23T14:12:25Z</time></trkpt><trkpt lat="47.621010" lon="9.934896"><ele>686.04</ele><time>2009-05-23T14:12:26Z</time></trkpt><trkpt lat="47.620938" lon="9.933797"><ele>685.56</ele><time>2009-05-23T14:12:31Z</time></trkpt><trkpt lat="47.620950" lon="9.933631"><ele>685.56</ele><time>2009-05-23T14:12:32Z</time></trkpt><trkpt lat="47.620982" lon="9.933480"><ele>686.04</ele><time>2009-05-23T14:12:33Z</time></trkpt><trkpt lat="47.621032" lon="9.933337"><ele>686.04</ele><time>2009-05-23T14:12:34Z</time></trkpt><trkpt lat="47.621095" lon="9.933191"><ele>686.04</ele><time>2009-05-23T14:12:35Z</time></trkpt><trkpt lat="47.621156" lon="9.933030"><ele>686.04</ele><time>2009-05-23T14:12:36Z</time></trkpt><trkpt lat="47.621207" lon="9.932844"><ele>686.52</ele><time>2009-05-23T14:12:37Z</time></trkpt><trkpt lat="47.621247" lon="9.932642"><ele>686.52</ele><time>2009-05-23T14:12:38Z</time></trkpt><trkpt lat="47.621320" lon="9.932067"><ele>687.48</ele><time>2009-05-23T14:12:41Z</time></trkpt><trkpt lat="47.621311" lon="9.931890"><ele>687.96</ele><time>2009-05-23T14:12:42Z</time></trkpt><trkpt lat="47.621276" lon="9.931721"><ele>687.96</ele><time>2009-05-23T14:12:43Z</time></trkpt><trkpt lat="47.621212" lon="9.931567"><ele>688.44</ele><time>2009-05-23T14:12:44Z</time></trkpt><trkpt lat="47.621114" lon="9.931426"><ele>688.44</ele><time>2009-05-23T14:12:45Z</time></trkpt><trkpt lat="47.620994" lon="9.931286"><ele>688.44</ele><time>2009-05-23T14:12:46Z</time></trkpt><trkpt lat="47.620870" lon="9.931146"><ele>688.92</ele><time>2009-05-23T14:12:47Z</time></trkpt><trkpt lat="47.620545" lon="9.930746"><ele>689.88</ele><time>2009-05-23T14:12:50Z</time></trkpt><trkpt lat="47.620474" lon="9.930599"><ele>689.88</ele><time>2009-05-23T14:12:51Z</time></trkpt><trkpt lat="47.620431" lon="9.930448"><ele>690.36</ele><time>2009-05-23T14:12:52Z</time></trkpt><trkpt lat="47.620406" lon="9.930305"><ele>690.84</ele><time>2009-05-23T14:12:53Z</time></trkpt><trkpt lat="47.620387" lon="9.930175"><ele>690.84</ele><time>2009-05-23T14:12:54Z</time></trkpt><trkpt lat="47.620306" lon="9.929775"><ele>692.77</ele><time>2009-05-23T14:12:58Z</time></trkpt><trkpt lat="47.620266" lon="9.929691"><ele>692.77</ele><time>2009-05-23T14:12:59Z</time></trkpt><trkpt lat="47.620217" lon="9.929615"><ele>692.77</ele><time>2009-05-23T14:13:00Z</time></trkpt><trkpt lat="47.620119" lon="9.929479"><ele>693.73</ele><time>2009-05-23T14:13:02Z</time></trkpt><trkpt lat="47.620069" lon="9.929438"><ele>694.21</ele><time>2009-05-23T14:13:03Z</time></trkpt><trkpt lat="47.620008" lon="9.929421"><ele>694.21</ele><time>2009-05-23T14:13:04Z</time></trkpt><trkpt lat="47.619940" lon="9.929417"><ele>694.21</ele><time>2009-05-23T14:13:05Z</time></trkpt><trkpt lat="47.619865" lon="9.929420"><ele>694.21</ele><time>2009-05-23T14:13:06Z</time></trkpt><trkpt lat="47.619789" lon="9.929430"><ele>694.69</ele><time>2009-05-23T14:13:07Z</time></trkpt><trkpt lat="47.619721" lon="9.929456"><ele>694.69</ele><time>2009-05-23T14:13:08Z</time></trkpt><trkpt lat="47.619668" lon="9.929506"><ele>694.69</ele><time>2009-05-23T14:13:09Z</time></trkpt><trkpt lat="47.619641" lon="9.929610"><ele>694.69</ele><time>2009-05-23T14:13:10Z</time></trkpt><trkpt lat="47.619631" lon="9.929723"><ele>695.17</ele><time>2009-05-23T14:13:11Z</time></trkpt><trkpt lat="47.619627" lon="9.929842"><ele>695.17</ele><time>2009-05-23T14:13:12Z</time></trkpt><trkpt lat="47.619624" lon="9.929952"><ele>695.65</ele><time>2009-05-23T14:13:13Z</time></trkpt><trkpt lat="47.619656" lon="9.930046"><ele>696.13</ele><time>2009-05-23T14:13:14Z</time></trkpt><trkpt lat="47.619706" lon="9.930125"><ele>697.09</ele><time>2009-05-23T14:13:15Z</time></trkpt><trkpt lat="47.619741" lon="9.930200"><ele>697.57</ele><time>2009-05-23T14:13:16Z</time></trkpt><trkpt lat="47.619751" lon="9.930284"><ele>698.05</ele><time>2009-05-23T14:13:17Z</time></trkpt><trkpt lat="47.619742" lon="9.930370"><ele>699.98</ele><time>2009-05-23T14:13:18Z</time></trkpt><trkpt lat="47.619716" lon="9.930461"><ele>700.46</ele><time>2009-05-23T14:13:19Z</time></trkpt><trkpt lat="47.619675" lon="9.930547"><ele>700.94</ele><time>2009-05-23T14:13:20Z</time></trkpt><trkpt lat="47.619621" lon="9.930627"><ele>700.94</ele><time>2009-05-23T14:13:21Z</time></trkpt><trkpt lat="47.619562" lon="9.930705"><ele>700.46</ele><time>2009-05-23T14:13:22Z</time></trkpt><trkpt lat="47.619439" lon="9.930838"><ele>700.94</ele><time>2009-05-23T14:13:24Z</time></trkpt><trkpt lat="47.619375" lon="9.930882"><ele>700.94</ele><time>2009-05-23T14:13:25Z</time></trkpt><trkpt lat="47.619316" lon="9.930906"><ele>701.42</ele><time>2009-05-23T14:13:26Z</time></trkpt><trkpt lat="47.619266" lon="9.930914"><ele>701.90</ele><time>2009-05-23T14:13:27Z</time></trkpt><trkpt lat="47.619222" lon="9.930911"><ele>701.90</ele><time>2009-05-23T14:13:28Z</time></trkpt><trkpt lat="47.619187" lon="9.930903"><ele>701.90</ele><time>2009-05-23T14:13:29Z</time></trkpt><trkpt lat="47.619157" lon="9.930892"><ele>701.90</ele><time>2009-05-23T14:13:30Z</time></trkpt><trkpt lat="47.619134" lon="9.930878"><ele>701.90</ele><time>2009-05-23T14:13:31Z</time></trkpt><trkpt lat="47.619116" lon="9.930855"><ele>701.90</ele><time>2009-05-23T14:13:32Z</time></trkpt><trkpt lat="47.619109" lon="9.930821"><ele>702.38</ele><time>2009-05-23T14:13:33Z</time></trkpt><trkpt lat="47.619114" lon="9.930781"><ele>702.86</ele><time>2009-05-23T14:13:34Z</time></trkpt><trkpt lat="47.619126" lon="9.930753"><ele>702.86</ele><time>2009-05-23T14:13:35Z</time></trkpt><trkpt lat="47.619168" lon="9.930721"><ele>707.19</ele><time>2009-05-23T14:13:46Z</time></trkpt><trkpt lat="47.619141" lon="9.930688"><ele>702.86</ele><time>2009-05-23T14:14:01Z</time></trkpt><trkpt lat="47.619147" lon="9.930778"><ele>710.55</ele><time>2009-05-23T14:14:43Z</time></trkpt><trkpt lat="47.619114" lon="9.930773"><ele>710.55</ele><time>2009-05-23T14:14:48Z</time></trkpt></trkseg></trk></gpx>